# Wetter Temperatur Luftdruck Luftfeuchtigkeit Sichtweite Windgeschwindigkeit Windrichtung Zeit
1 Snow -1 989 93 315 3.56 310 04:32 17.01.2021
2 Snow 0 990 93 889 3.77 341 02:51 17.01.2021
3 Snow 0 991 100 164 1.03 40 00:57 17.01.2021
4 Snow 0 991 100 167 1.03 40 00:21 17.01.2021
5 Snow 0 992 100 167 2.06 20 23:52 16.01.2021
6 Snow 0 992 100 50 2.06 20 23:24 16.01.2021
7 Snow 0 993 100 50 2.06 30 22:55 16.01.2021
8 Snow 0 993 100 26 2.06 30 22:21 16.01.2021
9 Snow 0 994 100 26 3.6 30 21:46 16.01.2021
10 Snow 0 994 100 26 3.6 30 21:23 16.01.2021
11 Snow 0 995 100 26 3.09 30 20:49 16.01.2021
12 Snow 0 995 100 29 3.09 30 20:27 16.01.2021
13 Snow 0 996 100 29 3.09 30 19:49 16.01.2021
14 Snow 0 996 100 29 3.09 30 19:30 16.01.2021
15 Snow 0 998 100 26 3.09 20 18:47 16.01.2021
16 Snow 0 998 100 27 3.09 20 18:27 16.01.2021
17 Snow 0 999 100 27 1.03 30 17:59 16.01.2021
18 Snow 0 999 100 27 1.03 30 17:39 16.01.2021
19 Snow 0 999 100 80 1.03 30 17:21 16.01.2021
20 Snow 0 1002 100 80 2.06 30 16:42 16.01.2021
21 Snow 0 1002 100 1154 2.06 30 16:19 16.01.2021
22 Snow 0 1003 100 1154 1.54 30 15:42 16.01.2021
23 Snow 0 1004 100 78 2.06 20 14:35 16.01.2021
24 Snow 0 1006 93 53 1.54 30 13:54 16.01.2021
25 Snow 0 1006 93 53 1.54 30 13:32 16.01.2021
26 Snow 0 1007 93 125 1.54 30 12:49 16.01.2021
27 Snow -1 1007 93 282 1.54 30 12:31 16.01.2021
28 Snow 0 1008 80 7817 1.03 100 11:59 16.01.2021
29 Snow 0 1008 80 7817 1.03 100 11:40 16.01.2021
30 Snow 0 1008 80 10000 1.03 100 11:19 16.01.2021
31 Snow 1 1009 64 10000 1.54 90 10:42 16.01.2021
32 Clouds 1 1010 64 10000 1.03 120 09:57 16.01.2021
33 Clouds 0 1010 64 10000 1.03 120 09:22 16.01.2021
34 Clouds 1 1011 64 10000 2.06 130 08:21 16.01.2021
35 Clouds 0 1011 64 10000 0.51 10 07:18 16.01.2021
36 Clouds 0 1014 74 10000 3.6 100 05:45 16.01.2021
37 Clouds 0 1014 69 10000 2.06 170 04:36 16.01.2021
38 Clouds 0 1015 69 10000 1.03 170 02:54 16.01.2021
39 Clouds 0 1015 69 10000 1.03 80 00:49 16.01.2021
40 Clouds 0 1015 69 10000 1.03 80 00:25 16.01.2021
41 Clouds 1 1015 69 10000 1.03 130 23:40 15.01.2021
42 Clear 1 1016 69 10000 2.06 150 22:51 15.01.2021
43 Clear 1 1016 69 10000 2.06 150 22:23 15.01.2021
44 Clouds 2 1016 65 10000 2.06 40 21:46 15.01.2021
45 Clouds 2 1016 75 10000 2.06 20 20:58 15.01.2021
46 Clouds 2 1016 75 10000 2.06 20 20:40 15.01.2021
47 Clouds 2 1016 75 10000 2.06 20 20:19 15.01.2021
48 Clouds 2 1016 69 10000 1.54 30 19:40 15.01.2021
49 Clear 2 1016 69 10000 1.54 30 19:22 15.01.2021
50 Clear 1 1017 75 10000 1.03 30 18:43 15.01.2021
51 Clear 1 1017 75 10000 1.03 30 18:19 15.01.2021
52 Clear 0 1018 80 10000 1.54 20 17:51 15.01.2021
53 Clear 0 1018 80 10000 1.54 20 17:24 15.01.2021
54 Clear -1 1018 93 10000 1.03 20 16:52 15.01.2021
55 Clear -1 1018 93 10000 1.03 20 16:25 15.01.2021
56 Clear -2 1018 93 10000 1.54 360 15:42 15.01.2021
57 Clear -2 1018 93 10000 1.54 360 15:22 15.01.2021
58 Clear -3 1017 93 10000 1.03 20 14:51 15.01.2021
59 Clear -3 1017 93 10000 1.03 20 14:27 15.01.2021
60 Clear -3 1017 100 10000 1.54 360 13:44 15.01.2021
61 Clouds -3 1017 100 10000 1.54 360 13:24 15.01.2021
62 Clouds -3 1016 93 10000 1.54 40 12:59 15.01.2021
63 Clouds -3 1016 93 10000 1.54 40 12:37 15.01.2021
64 Clouds -3 1016 93 10000 1.54 40 12:18 15.01.2021
65 Clouds -3 1016 100 10000 1.54 10 11:42 15.01.2021
66 Clouds -2 1016 93 10000 2.06 10 10:58 15.01.2021
67 Clouds -2 1016 93 10000 2.06 10 10:39 15.01.2021
68 Clouds -2 1016 93 10000 2.06 10 10:19 15.01.2021
69 Clouds -2 1016 100 10000 1.54 10 09:47 15.01.2021
70 Clouds -2 1016 100 10000 1.54 10 09:27 15.01.2021
71 Clouds -1 1015 93 10000 1.54 20 08:27 15.01.2021
72 Clouds 0 1015 93 10000 1.03 40 07:42 15.01.2021
73 Clouds 0 1015 93 10000 1.03 40 07:21 15.01.2021
74 Mist 0 1014 93 4023 2.06 350 06:28 15.01.2021
75 Clouds 0 1013 86 1449 1.54 40 02:28 15.01.2021
76 Clouds 1 1012 86 10000 1.03 50 00:37 15.01.2021
77 Clouds 1 1011 86 1477 1.54 50 23:30 14.01.2021
78 Clouds 1 1010 80 538 1.03 50 22:56 14.01.2021
79 Clouds 1 1010 80 538 1.03 50 22:36 14.01.2021
80 Clouds 1 1010 80 186 1.03 50 22:18 14.01.2021
81 Clouds 2 1010 80 186 1.03 40 21:39 14.01.2021
82 Clouds 2 1010 80 90 1.03 40 21:20 14.01.2021
83 Clouds 2 1010 80 90 0.51 70 20:44 14.01.2021
84 Clouds 2 1009 80 91 0.51 160 19:59 14.01.2021
85 Clouds 2 1009 80 91 0.51 160 19:38 14.01.2021
86 Clouds 2 1009 80 149 0.51 160 19:18 14.01.2021
87 Clouds 2 1009 80 79 0.51 30 18:42 14.01.2021
88 Clouds 2 1010 80 151 0.51 40 17:59 14.01.2021
89 Clouds 2 1010 80 151 0.51 40 17:33 14.01.2021
90 Clouds 1 1010 80 1174 0.51 290 16:56 14.01.2021
91 Clouds 1 1010 80 1174 0.51 290 16:35 14.01.2021
92 Clouds 1 1010 86 1861 1.03 220 15:55 14.01.2021
93 Clouds 1 1010 86 1861 1.03 220 15:32 14.01.2021
94 Clouds 0 1009 86 2493 2.06 220 14:49 14.01.2021
95 Clouds 0 1009 86 2493 2.06 220 14:31 14.01.2021
96 Clouds 0 1009 80 5002 1.03 240 13:56 14.01.2021
97 Clouds 0 1009 80 10000 1.03 240 13:25 14.01.2021
98 Clouds 1 1008 80 10000 1.54 220 12:59 14.01.2021
99 Clouds 1 1008 80 10000 1.54 220 12:24 14.01.2021
100 Clouds 0 1008 80 10000 1.03 220 11:59 14.01.2021
101 Clouds 0 1008 80 10000 1.03 220 11:41 14.01.2021
102 Snow 0 1008 80 933 1.03 220 11:20 14.01.2021
103 Snow 0 1008 80 933 1.54 200 10:43 14.01.2021
104 Snow 0 1008 80 563 1.54 200 10:20 14.01.2021
105 Snow 0 1008 80 563 1.54 200 09:44 14.01.2021
106 Snow 0 1008 80 253 1.54 200 09:22 14.01.2021
107 Snow 0 1008 86 253 1.54 220 08:40 14.01.2021
108 Snow 0 1008 86 173 1.54 220 08:21 14.01.2021
109 Snow 0 1008 80 173 1.54 200 07:42 14.01.2021
110 Snow 0 1008 80 195 1.03 190 06:41 14.01.2021
111 Clouds 0 1008 80 716 1.54 200 05:23 14.01.2021
112 Clouds 1 1009 69 10000 2.06 200 00:36 14.01.2021
113 Clouds 1 1009 75 10000 2.57 210 23:49 13.01.2021
114 Clouds 1 1009 75 10000 2.57 210 23:20 13.01.2021
115 Clouds 1 1010 80 10000 2.06 210 22:28 13.01.2021
116 Clouds 1 1010 86 10000 1.54 200 21:50 13.01.2021
117 Clouds 1 1010 86 10000 1.54 200 21:28 13.01.2021
118 Clouds 0 1010 93 10000 1.54 180 20:57 13.01.2021
119 Clouds 0 1010 93 10000 1.54 180 20:29 13.01.2021
120 Clouds 0 1011 86 10000 2.06 220 19:57 13.01.2021
121 Clouds 0 1011 86 10000 2.06 220 19:37 13.01.2021
122 Clouds 0 1011 86 4880 2.06 220 19:18 13.01.2021
123 Clouds 0 1012 86 5430 1.54 200 18:37 13.01.2021
124 Clouds 0 1013 80 10000 1.54 170 17:51 13.01.2021
125 Clouds 0 1013 80 5784 1.54 170 17:24 13.01.2021
126 Clouds 0 1014 80 5784 2.06 170 16:50 13.01.2021
127 Clouds -1 1014 80 2926 2.06 170 16:22 13.01.2021
128 Clouds -1 1014 80 2926 1.54 210 15:52 13.01.2021
129 Clouds -1 1014 80 2926 1.54 210 15:34 13.01.2021
130 Clouds -1 1014 80 10000 1.54 220 14:46 13.01.2021
131 Clouds -1 1014 86 10000 2.06 200 13:53 13.01.2021
132 Clouds -1 1014 86 10000 2.06 200 13:27 13.01.2021
133 Clouds -1 1015 86 10000 2.06 200 12:47 13.01.2021
134 Clouds -1 1015 86 10000 2.06 200 12:28 13.01.2021
135 Clouds -1 1015 74 10000 1.54 260 11:55 13.01.2021
136 Clouds -1 1015 74 10000 1.54 260 11:35 13.01.2021
137 Clouds -1 1015 86 1080 1.54 220 10:56 13.01.2021
138 Clouds -1 1015 86 1080 1.54 220 10:37 13.01.2021
139 Clouds -1 1015 86 1739 1.54 220 10:18 13.01.2021
140 Clouds -1 1016 86 1739 2.06 260 09:31 13.01.2021
141 Clear 0 1016 75 3326 1.03 270 08:52 13.01.2021
142 Clear 0 1016 75 3326 1.03 270 08:31 13.01.2021
143 Clear 0 1015 75 10000 1.54 210 07:35 13.01.2021
144 Clouds -1 1016 80 10000 1.03 240 06:56 13.01.2021
145 Clouds -1 1017 74 10000 1.54 210 04:21 13.01.2021
146 Clouds -1 1017 74 10000 0.51 240 03:48 13.01.2021
147 Clouds -1 1017 74 10000 0.51 240 03:29 13.01.2021
148 Clouds 0 1017 74 10000 1.03 200 01:32 13.01.2021
149 Clouds 0 1017 74 10000 0.51 220 00:29 13.01.2021
150 Clouds 0 1017 80 10000 0.51 220 23:24 12.01.2021
151 Clouds 0 1017 74 10000 1.54 200 22:47 12.01.2021
152 Clouds 0 1017 74 10000 1.54 200 22:24 12.01.2021
153 Clouds 0 1017 74 10000 1.03 230 21:53 12.01.2021
154 Clouds 0 1017 74 10000 1.03 230 21:31 12.01.2021
155 Clouds 0 1017 80 10000 0.51 250 20:49 12.01.2021
156 Clouds 0 1017 80 10000 0.51 250 20:27 12.01.2021
157 Clouds 0 1017 80 10000 1.54 260 19:56 12.01.2021
158 Clouds 0 1017 80 10000 1.54 260 19:37 12.01.2021
159 Clouds 0 1017 74 10000 2.06 280 18:49 12.01.2021
160 Clouds 0 1017 74 10000 2.06 280 18:24 12.01.2021
161 Clouds 0 1018 74 10000 2.57 260 17:48 12.01.2021
162 Clouds 0 1018 74 10000 2.57 260 17:30 12.01.2021
163 Clouds -1 1018 80 10000 1.54 260 16:44 12.01.2021
164 Clear -1 1018 80 10000 1.54 260 16:25 12.01.2021
165 Clear -1 1018 86 10000 1.03 230 15:45 12.01.2021
166 Clear -1 1018 86 10000 1.03 230 15:22 12.01.2021
167 Clear -1 1018 86 10000 1.03 210 14:47 12.01.2021
168 Clear -1 1018 86 10000 1.03 210 14:26 12.01.2021
169 Clear -1 1017 86 10000 1.54 210 13:53 12.01.2021
170 Clouds -1 1017 86 10000 1.54 210 13:29 12.01.2021
171 Clouds 0 1017 86 10000 2.06 200 12:33 12.01.2021
172 Clouds -1 1017 86 10000 2.06 190 11:42 12.01.2021
173 Clouds -1 1017 93 9151 2.06 200 10:59 12.01.2021
174 Clouds -1 1017 93 9151 2.06 200 10:40 12.01.2021
175 Clouds 0 1017 93 2607 2.06 200 10:19 12.01.2021
176 Clouds -1 1017 100 2607 2.06 200 09:43 12.01.2021
177 Clouds -1 1017 100 8767 2.06 200 09:20 12.01.2021
178 Snow -1 1017 100 2552 1.54 190 08:26 12.01.2021
179 Snow -1 1017 93 2552 1.03 190 07:44 12.01.2021
180 Snow -1 1017 93 118 1.03 190 07:26 12.01.2021
181 Snow -1 1018 93 119 1.54 190 05:40 12.01.2021
182 Snow -1 1019 93 135 2.06 210 03:46 12.01.2021
183 Snow -2 1019 93 358 2.06 210 03:22 12.01.2021
184 Clouds -2 1020 93 582 1.03 190 01:51 12.01.2021
185 Snow -2 1020 93 428 2.06 170 00:33 12.01.2021
186 Snow -1 1020 86 270 1.54 170 23:43 11.01.2021
187 Clouds -1 1020 86 531 1.54 170 23:20 11.01.2021
188 Snow -1 1021 80 531 1.54 180 22:46 11.01.2021
189 Snow -1 1021 80 9555 1.54 180 22:28 11.01.2021
190 Clouds -1 1021 80 9555 2.06 200 21:46 11.01.2021
191 Clouds -1 1021 80 2316 2.06 200 21:25 11.01.2021
192 Clouds -1 1021 80 2316 2.06 170 20:59 11.01.2021
193 Clouds -1 1021 80 2155 2.06 170 20:39 11.01.2021
194 Clouds -1 1021 80 2155 2.06 170 20:39 11.01.2021
195 Clouds -1 1021 80 2244 2.06 170 20:20 11.01.2021
196 Clouds -1 1021 80 2244 2.06 190 19:49 11.01.2021
197 Clouds -1 1021 80 902 2.06 190 19:22 11.01.2021
198 Clouds -1 1022 74 902 1.54 180 18:43 11.01.2021
199 Clouds -1 1022 74 609 1.54 180 18:23 11.01.2021
200 Clouds -2 1024 80 609 2.06 170 17:42 11.01.2021
201 Clouds -2 1024 80 1104 2.06 170 17:24 11.01.2021
202 Clouds -2 1024 80 1104 1.54 220 16:48 11.01.2021
203 Clouds -2 1024 80 1569 1.54 220 16:29 11.01.2021
204 Clouds -3 1025 86 1569 1.03 220 15:57 11.01.2021
205 Clouds -3 1025 86 1569 1.03 220 15:36 11.01.2021
206 Clouds -3 1025 86 2316 1.54 220 14:58 11.01.2021
207 Clouds -4 1025 86 2316 1.54 220 14:37 11.01.2021
208 Clouds -4 1025 86 1104 1.54 230 13:48 11.01.2021
209 Clouds -5 1025 86 1911 1.54 230 13:23 11.01.2021
210 Clouds -5 1025 86 1911 1.03 210 12:44 11.01.2021
211 Clouds -5 1025 86 10000 1.03 210 12:26 11.01.2021
212 Clouds -5 1025 86 10000 1.54 190 11:50 11.01.2021
213 Clouds -6 1025 86 10000 1.54 190 11:21 11.01.2021
214 Clouds -6 1025 86 10000 1.54 230 10:42 11.01.2021
215 Clouds -5 1025 86 10000 1.54 230 10:24 11.01.2021
216 Clouds -6 1026 86 10000 1.54 220 09:38 11.01.2021
217 Clouds -6 1026 86 10000 1.54 220 09:19 11.01.2021
218 Clouds -6 1026 86 10000 1.54 220 08:44 11.01.2021
219 Clouds -5 1026 80 10000 2.06 210 07:58 11.01.2021
220 Clouds -6 1026 80 10000 2.06 210 07:25 11.01.2021
221 Clouds -5 1026 86 10000 1.54 210 06:57 11.01.2021
222 Clouds -7 1026 86 10000 1.54 200 03:27 11.01.2021
223 Clouds -7 1026 86 10000 1.03 210 01:29 11.01.2021
224 Clouds -7 1026 86 10000 2.06 200 23:59 10.01.2021
225 Clouds -7 1026 86 10000 2.06 200 23:30 10.01.2021
226 Clouds -6 1025 86 10000 1.54 220 22:48 10.01.2021
227 Clouds -6 1025 86 10000 1.54 220 22:23 10.01.2021
228 Clouds -6 1025 79 10000 1.54 230 21:44 10.01.2021
229 Clear -6 1025 79 10000 1.54 230 21:20 10.01.2021
230 Clear -6 1025 86 10000 1.54 230 20:53 10.01.2021
231 Clear -6 1025 86 10000 1.54 230 20:32 10.01.2021
232 Clear -6 1025 79 10000 2.06 300 19:43 10.01.2021
233 Clouds -6 1025 79 10000 2.06 300 19:25 10.01.2021
234 Clouds -5 1025 79 10000 2.06 230 18:49 10.01.2021
235 Clouds -5 1025 79 10000 2.06 230 18:21 10.01.2021
236 Clouds -5 1026 73 10000 1.54 270 17:41 10.01.2021
237 Clouds -5 1026 73 10000 1.54 270 17:20 10.01.2021
238 Clouds -6 1026 63 10000 0.51 320 16:32 10.01.2021
239 Clouds -6 1026 63 10000 0.51 320 16:32 10.01.2021
240 Clear -7 1025 73 10000 1.03 20 15:56 10.01.2021
241 Clear -7 1025 73 10000 1.03 20 15:25 10.01.2021
242 Clear -8 1025 79 10000 0.51 290 14:50 10.01.2021
243 Clear -8 1025 79 10000 0.51 290 14:31 10.01.2021
244 Clear -9 1024 86 10000 1.03 310 13:55 10.01.2021
245 Clear -9 1024 86 10000 1.03 310 13:36 10.01.2021
246 Clear -10 1024 86 10000 1.03 310 13:18 10.01.2021
247 Clear -10 1023 79 10000 0.51 290 12:43 10.01.2021
248 Clear -10 1023 79 10000 0.51 290 12:18 10.01.2021
249 Clear -9 1023 79 10000 1.03 320 11:39 10.01.2021
250 Clear -9 1023 79 10000 1.03 320 11:18 10.01.2021
251 Clear -8 1022 79 10000 1.54 350 10:36 10.01.2021
252 Clear -8 1022 79 10000 1.54 350 10:18 10.01.2021
253 Clear -7 1022 73 10000 1.54 10 09:27 10.01.2021
254 Clear -7 1022 73 10000 1.54 10 09:27 10.01.2021
255 Clouds -6 1021 80 10000 2.06 20 08:21 10.01.2021
256 Clouds -6 1021 74 10000 1.54 30 07:29 10.01.2021
257 Clouds -6 1020 74 10000 1.54 10 06:20 10.01.2021
258 Clouds -6 1020 74 10000 2.06 20 05:36 10.01.2021
259 Clouds -4 1019 69 10000 2.06 20 02:58 10.01.2021
260 Clouds -2 1018 64 10000 2.57 20 01:22 10.01.2021
261 Clouds -2 1018 51 10000 1.03 320 23:49 09.01.2021
262 Clear -1 1018 51 10000 1.03 320 23:30 09.01.2021
263 Clear 0 1017 47 10000 2.06 320 22:48 09.01.2021
264 Clear 0 1017 47 10000 2.06 320 22:19 09.01.2021
265 Clear 0 1016 47 10000 1.54 310 21:57 09.01.2021
266 Clear 0 1016 47 10000 1.54 310 21:39 09.01.2021
267 Clear 0 1016 47 10000 1.54 310 21:19 09.01.2021
268 Clear 0 1016 43 10000 2.06 340 20:44 09.01.2021
269 Clear 0 1016 43 10000 2.06 340 20:44 09.01.2021
270 Clear 0 1016 40 10000 1.54 340 19:45 09.01.2021
271 Clear 0 1016 40 10000 1.54 340 19:24 09.01.2021
272 Clear -1 1016 46 10000 2.57 360 18:59 09.01.2021
273 Clouds -1 1016 46 10000 2.57 360 18:35 09.01.2021
274 Clouds -2 1017 43 10000 2.57 350 17:50 09.01.2021
275 Clouds -3 1017 43 10000 2.57 350 17:32 09.01.2021
276 Clear -4 1017 43 10000 3.09 360 16:36 09.01.2021
277 Clear -5 1017 43 10000 3.09 360 16:18 09.01.2021
278 Clear -6 1017 39 10000 2.57 360 15:40 09.01.2021
279 Clear -8 1017 57 10000 3.6 270 14:43 09.01.2021
280 Clear -9 1017 57 10000 3.6 270 14:21 09.01.2021
281 Clear -9 1016 57 10000 3.09 290 13:59 09.01.2021
282 Clear -9 1016 57 10000 3.09 290 13:40 09.01.2021
283 Clear -9 1016 57 10000 3.09 290 13:22 09.01.2021
284 Clouds -9 1016 62 10000 2.06 270 12:27 09.01.2021
285 Clouds -9 1016 62 10000 1.54 270 11:57 09.01.2021
286 Clouds -9 1016 62 10000 1.54 270 11:36 09.01.2021
287 Clouds -9 1016 67 10000 2.57 280 10:56 09.01.2021
288 Clouds -9 1016 67 10000 2.57 280 10:37 09.01.2021
289 Clouds -9 1016 67 10000 2.57 280 10:18 09.01.2021
290 Clouds -8 1016 67 10000 2.06 290 09:42 09.01.2021
291 Clouds -8 1016 67 10000 2.06 290 09:18 09.01.2021
292 Clear -8 1016 67 10000 3.09 290 07:48 09.01.2021
293 Clouds -8 1016 58 10000 1.54 280 06:42 09.01.2021
294 Clouds -8 1016 58 10000 1.54 280 06:23 09.01.2021
295 Clouds -7 1017 58 10000 3.09 290 03:49 09.01.2021
296 Clear -7 1017 58 10000 2.57 290 02:40 09.01.2021
297 Clear -6 1017 58 10000 2.57 290 02:22 09.01.2021
298 Clear -7 1017 58 10000 3.09 280 01:24 09.01.2021
299 Clear -6 1018 58 10000 1.54 220 00:28 09.01.2021
300 Clear -6 1017 58 10000 2.06 230 23:41 08.01.2021
301 Clear -5 1018 54 10000 1.54 250 22:39 08.01.2021
302 Clear -5 1018 54 10000 1.54 240 21:52 08.01.2021
303 Clear -5 1018 54 10000 1.54 280 20:59 08.01.2021
304 Clear -5 1018 54 10000 1.54 280 20:35 08.01.2021
305 Clear -5 1018 54 10000 1.03 340 19:57 08.01.2021
306 Clear -5 1018 54 10000 1.03 340 19:24 08.01.2021
307 Clear -5 1019 63 10000 2.06 290 18:54 08.01.2021
308 Clear -5 1019 63 10000 2.06 290 18:32 08.01.2021
309 Clear -6 1020 63 10000 1.54 340 17:54 08.01.2021
310 Clear -6 1020 63 10000 1.54 340 17:25 08.01.2021
311 Clear -7 1022 63 10000 1.54 330 16:47 08.01.2021
312 Clear -8 1022 73 10000 2.06 330 15:49 08.01.2021
313 Clear -8 1022 73 10000 2.06 330 15:29 08.01.2021
314 Clear -9 1022 79 10000 2.06 310 14:40 08.01.2021
315 Clear -10 1022 79 10000 1.03 300 13:50 08.01.2021
316 Clear -10 1022 79 10000 1.03 300 13:21 08.01.2021
317 Clear -9 1022 79 10000 1.03 290 12:51 08.01.2021
318 Clear -9 1022 79 10000 1.03 290 12:22 08.01.2021
319 Clear -8 1022 73 10000 1.03 360 11:48 08.01.2021
320 Clear -8 1022 73 10000 1.03 360 11:29 08.01.2021
321 Clear -8 1022 79 10000 1.03 340 10:55 08.01.2021
322 Clear -8 1022 79 10000 1.03 340 10:37 08.01.2021
323 Clear -7 1023 79 10000 1.03 340 09:53 08.01.2021
324 Clear -7 1023 79 10000 1.03 340 09:32 08.01.2021
325 Clear -6 1023 79 10000 0.51 20 08:39 08.01.2021
326 Clear -6 1023 79 10000 1.03 270 07:29 08.01.2021
327 Clear -6 1023 79 10000 0.51 270 06:40 08.01.2021
328 Clear -4 1023 68 10000 2.06 260 00:32 08.01.2021
329 Clear -3 1023 74 10000 1.54 260 23:41 07.01.2021
330 Clear -2 1023 69 10000 1.54 260 22:50 07.01.2021
331 Clear -2 1023 69 10000 1.54 260 22:32 07.01.2021
332 Clear -1 1022 64 10000 2.57 300 21:49 07.01.2021
333 Clear -1 1022 64 10000 2.57 300 21:27 07.01.2021
334 Clear -1 1022 59 10000 2.06 290 20:48 07.01.2021
335 Clear -1 1022 59 10000 2.06 290 20:29 07.01.2021
336 Clear -1 1022 59 10000 0.51 250 19:47 07.01.2021
337 Clouds -1 1022 59 10000 0.51 250 19:23 07.01.2021
338 Clouds -1 1023 64 10000 2.06 350 18:46 07.01.2021
339 Clouds -2 1023 64 10000 2.06 350 18:20 07.01.2021
340 Clouds -2 1024 68 10000 2.06 350 17:32 07.01.2021
341 Clouds -3 1024 68 10000 2.06 340 16:55 07.01.2021
342 Clouds -3 1024 68 10000 2.06 340 16:32 07.01.2021
343 Clouds -4 1024 74 10000 2.06 320 15:52 07.01.2021
344 Clouds -5 1024 74 10000 2.06 320 15:30 07.01.2021
345 Clouds -7 1024 80 10000 2.57 300 14:32 07.01.2021
346 Clouds -7 1024 86 10000 2.57 300 13:58 07.01.2021
347 Clouds -7 1024 86 10000 2.57 300 13:30 07.01.2021
348 Clouds -7 1023 90 10000 0.89 13 12:55 07.01.2021
349 Clouds -7 1022 79 3004 3.1 290 12:23 07.01.2021
350 Clouds -7 1022 79 3004 3.1 290 11:41 07.01.2021
351 Clouds -7 1021 79 3004 3.1 290 11:23 07.01.2021
352 Clouds -7 1021 79 1008 3.1 300 10:37 07.01.2021
353 Clouds -7 1021 79 1008 3.1 300 10:18 07.01.2021
354 Clouds -7 1022 79 10000 2.6 290 09:41 07.01.2021
355 Clouds -6 1021 73 3012 1.5 310 08:40 07.01.2021
356 Clouds -6 1021 73 3012 1.5 310 08:21 07.01.2021
357 Clouds -6 1021 73 3008 1.5 300 07:42 07.01.2021
358 Clouds -6 1021 68 3006 1.5 340 06:50 07.01.2021
359 Clear -4 1020 73 10000 2.6 290 02:19 07.01.2021
360 Clouds -3 1020 73 3007 2.1 280 00:22 07.01.2021
361 Clouds -2 1020 68 1007 1.5 260 23:31 06.01.2021
362 Clouds -2 1020 63 3007 1.5 280 22:36 06.01.2021
363 Clouds -1 1019 58 3002 1 320 21:42 06.01.2021
364 Clouds -1 1019 58 3002 1 320 21:22 06.01.2021
365 Clouds -1 1019 97 5006 0.5 300 20:50 06.01.2021
366 Clouds 0 1018 96 5006 0.5 300 20:22 06.01.2021
367 Clouds -1 1018 58 6011 1.5 320 19:48 06.01.2021
368 Clouds -1 1019 58 6011 1.5 320 19:29 06.01.2021
369 Clouds -1 1019 63 8009 2.1 360 18:50 06.01.2021
370 Clouds -1 1019 63 8009 2.1 360 18:32 06.01.2021
371 Clouds -2 1019 68 1 1.5 30 17:47 06.01.2021
372 Clouds -2 1019 68 1 1.5 30 17:28 06.01.2021
373 Clouds -2 1019 68 1008 2.6 20 16:59 06.01.2021
374 Clouds -2 1019 68 1008 2.6 20 16:38 06.01.2021
375 Clouds -2 1019 68 1008 2.6 20 16:38 06.01.2021
376 Clouds -3 1019 68 1008 2.6 20 16:18 06.01.2021
377 Clouds -3 1019 73 3013 2.1 20 15:46 06.01.2021
378 Clouds -4 1020 73 3013 2.1 20 15:24 06.01.2021
379 Clouds -4 1020 73 3008 2.6 10 14:36 06.01.2021
380 Clouds -4 1019 73 3007 2.1 10 13:56 06.01.2021
381 Clouds -4 1019 73 3007 2.1 10 13:36 06.01.2021
382 Clouds -4 1019 73 3007 2.1 10 13:18 06.01.2021
383 Clouds -3 1019 79 3003 1.5 350 12:42 06.01.2021
384 Clouds -3 1019 79 3003 2.1 350 11:46 06.01.2021
385 Clouds -3 1018 79 3003 2.1 350 11:23 06.01.2021
386 Clouds -3 1018 79 3 2.6 10 10:44 06.01.2021
387 Clouds -3 1018 86 1006 2.6 20 09:52 06.01.2021
388 Clouds -3 1018 86 1006 2.6 20 09:33 06.01.2021
389 Clouds -3 1019 86 3006 2.6 20 08:54 06.01.2021
390 Clouds -3 1018 86 3006 2.6 20 08:21 06.01.2021
391 Clouds -3 1018 86 3002 3.1 20 07:53 06.01.2021
392 Clouds -3 1017 86 5002 2.6 20 06:45 06.01.2021
393 Clouds -3 1017 86 8004 3.1 10 05:31 06.01.2021
394 Clouds -3 1017 79 8001 2.6 20 04:31 06.01.2021
395 Clouds -3 1018 79 1006 2.1 40 02:45 06.01.2021
396 Clouds -3 1018 79 1006 2.1 40 02:22 06.01.2021
397 Clouds -3 1017 79 1015 3.1 30 00:22 06.01.2021
398 Clouds -3 1017 79 3013 3.1 20 22:59 05.01.2021
399 Clouds -3 1017 79 3013 3.1 20 22:40 05.01.2021
400 Clouds -3 1016 79 3013 3.1 20 22:20 05.01.2021
401 Clouds -3 1016 86 3003 1.5 40 21:37 05.01.2021
402 Clouds -3 1016 79 5007 2.6 30 20:41 05.01.2021
403 Clouds -3 1015 79 5007 2.6 30 20:23 05.01.2021
404 Clouds -3 1015 79 6014 3.1 20 19:41 05.01.2021
405 Clouds -3 1016 79 6014 3.1 20 19:21 05.01.2021
406 Clouds -3 1016 79 8011 3.6 20 18:42 05.01.2021
407 Clouds -3 1016 79 8011 3.6 20 18:23 05.01.2021
408 Clouds -3 1016 86 8003 1.5 30 17:49 05.01.2021
409 Clouds -3 1016 86 8003 1.5 30 17:26 05.01.2021
410 Clouds -3 1016 86 1007 2.6 30 16:52 05.01.2021
411 Clouds -3 1017 86 1007 2.6 30 16:21 05.01.2021
412 Clouds -3 1017 92 3006 2.1 50 15:50 05.01.2021
413 Clouds -3 1017 92 3003 2.1 40 14:56 05.01.2021
414 Clouds -3 1017 92 3003 2.1 40 14:38 05.01.2021
415 Clouds -3 1017 92 50 2.6 30 13:49 05.01.2021
416 Clouds -3 1017 92 50 2.6 30 13:26 05.01.2021
417 Clouds -4 1017 92 6002 2.6 20 12:49 05.01.2021
418 Clouds -4 1017 92 6002 2.6 20 12:26 05.01.2021
419 Clouds -4 1017 100 5003 3.1 20 11:39 05.01.2021
420 Clouds -4 1016 92 8001 2.6 20 10:56 05.01.2021
421 Clouds -3 1016 92 8001 2.6 20 10:37 05.01.2021
422 Clouds -3 1017 92 3 2.1 20 09:50 05.01.2021
423 Clouds -3 1017 92 3 2.1 20 09:30 05.01.2021
424 Clouds -3 1017 92 3004 2.6 50 08:28 05.01.2021
425 Clouds -3 1017 92 5002 3.1 10 07:46 05.01.2021
426 Clouds -2 1016 92 8006 2.1 10 04:59 05.01.2021
427 Clouds -2 1017 92 1006 2.1 10 01:31 05.01.2021
428 Clouds -2 1017 92 1006 2.1 10 00:21 05.01.2021
429 Clouds -2 1017 92 3007 1 40 23:38 04.01.2021
430 Clouds -2 1017 92 3007 1 40 23:19 04.01.2021
431 Clouds -1 1017 86 5000 1 30 22:41 04.01.2021
432 Clouds -1 1016 86 5006 1.5 360 21:56 04.01.2021
433 Clouds -1 1016 86 5006 1.5 360 21:37 04.01.2021
434 Clouds -1 1016 86 6015 1 20 20:52 04.01.2021
435 Clouds -1 1016 86 6015 1 20 20:32 04.01.2021
436 Clouds -1 1016 86 6015 1 20 20:32 04.01.2021
437 Clouds -1 1016 86 6017 1.5 50 19:55 04.01.2021
438 Clouds -1 1017 86 6017 1.5 50 19:29 04.01.2021
439 Clouds -1 1017 86 8012 1 30 18:58 04.01.2021
440 Clouds -1 1017 86 8012 1 30 18:31 04.01.2021
441 Clouds -2 1017 86 2 1.5 40 17:45 04.01.2021
442 Clouds -2 1018 86 2 1.5 40 17:27 04.01.2021
443 Clouds -3 1018 86 1016 1.5 10 16:48 04.01.2021
444 Clouds -3 1019 86 1016 1.5 10 16:28 04.01.2021
445 Clouds -3 1019 86 3015 2.6 20 15:52 04.01.2021
446 Clouds -3 1019 86 3015 2.6 20 15:34 04.01.2021
447 Clouds -3 1018 92 3014 1.5 20 14:50 04.01.2021
448 Clouds -3 1018 92 3005 1 20 13:53 04.01.2021
449 Clouds -3 1018 92 3005 1 20 13:34 04.01.2021
450 Clouds -3 1018 92 3002 2.1 20 12:50 04.01.2021
451 Clouds -3 1018 92 3002 2.1 20 12:50 04.01.2021
452 Clouds -3 1017 92 3002 2.1 20 12:25 04.01.2021
453 Clouds -3 1017 92 50 1.5 10 11:32 04.01.2021
454 Clouds -3 1017 92 4 2.1 20 10:56 04.01.2021
455 Clouds -3 1017 92 4 2.1 20 10:38 04.01.2021
456 Clouds -3 1017 92 4 2.1 20 10:19 04.01.2021
457 Clouds -3 1017 92 3006 3.1 10 09:24 04.01.2021
458 Clouds -3 1017 86 3003 1.5 30 08:50 04.01.2021
459 Clouds -3 1017 86 3003 1.5 30 08:21 04.01.2021
460 Clouds -3 1017 86 6002 2.6 10 07:45 04.01.2021
461 Clouds -4 1017 86 8010 1.5 10 05:35 04.01.2021
462 Clouds -4 1017 86 8006 0.5 40 04:50 04.01.2021
463 Clouds -4 1017 79 1009 2.1 40 01:30 04.01.2021
464 Clouds -3 1017 79 3004 1.5 20 23:55 03.01.2021
465 Clouds -3 1017 79 3004 1.5 20 23:34 03.01.2021
466 Clouds -3 1017 74 5006 1.5 100 22:57 03.01.2021
467 Clouds -2 1017 74 5006 1.5 100 22:39 03.01.2021
468 Snow -2 1017 74 5006 1.5 100 22:20 03.01.2021
469 Snow -2 1017 74 6023 2.1 100 21:34 03.01.2021
470 Clouds -2 1017 74 6031 1.5 140 20:56 03.01.2021
471 Clouds -2 1017 74 6031 1.5 140 20:38 03.01.2021
472 Clouds -1 1016 68 6038 2.1 120 19:59 03.01.2021
473 Clouds -1 1016 68 6038 2.1 120 19:37 03.01.2021
474 Clouds -1 1017 68 6038 2.1 120 19:19 03.01.2021
475 Clouds -1 1017 68 8028 2.1 150 18:42 03.01.2021
476 Clouds -1 1018 68 8028 2.1 150 18:21 03.01.2021
477 Clouds -1 1018 74 8001 2.1 150 17:51 03.01.2021
478 Clouds -2 1020 74 8001 2.1 150 17:26 03.01.2021
479 Clouds -2 1020 79 3003 1.5 150 16:54 03.01.2021
480 Clouds -2 1020 79 3003 1.5 150 16:36 03.01.2021
481 Clear -2 1021 79 3003 1.5 150 16:18 03.01.2021
482 Clear -3 1021 79 5000 1.5 190 15:39 03.01.2021
483 Clear -3 1021 86 8015 1.5 120 14:59 03.01.2021
484 Clear -3 1021 86 8015 1.5 120 14:33 03.01.2021
485 Clear -3 1021 79 8007 0.5 340 13:52 03.01.2021
486 Clear -3 1021 79 8007 0.5 340 13:24 03.01.2021
487 Clear -3 1021 79 8007 0.5 340 13:24 03.01.2021
488 Clear -3 1021 74 8001 1 200 12:55 03.01.2021
489 Clear -3 1021 74 1 1.5 180 11:44 03.01.2021
490 Clear -3 1022 74 1 1.5 180 11:26 03.01.2021
491 Clear -3 1022 74 3002 1.5 190 10:56 03.01.2021
492 Clear -3 1022 74 3002 1.5 190 10:31 03.01.2021
493 Clear -2 1022 74 4000 1.5 180 09:43 03.01.2021
494 Clear -2 1021 74 4000 1.5 180 09:23 03.01.2021
495 Clear -2 1021 74 1005 2.1 180 07:59 03.01.2021
496 Clouds -2 1022 74 1011 0.5 170 06:51 03.01.2021
497 Clouds -2 1020 74 1030 2.1 300 02:59 03.01.2021
498 Clear -2 1020 74 1030 2.1 300 02:22 03.01.2021
499 Clouds -3 1018 80 1031 1 210 00:25 03.01.2021
500 Clouds -3 1018 74 1036 1.5 190 23:42 02.01.2021
501 Clouds -3 1017 74 1036 1.5 190 23:18 02.01.2021
502 Clouds -2 1017 74 3038 0.5 240 22:45 02.01.2021
503 Clouds -2 1015 74 3038 0.5 240 22:27 02.01.2021
504 Clouds -1 1015 68 3038 0.5 340 21:38 02.01.2021
505 Clouds -1 1014 68 3038 0.5 340 21:20 02.01.2021
506 Clouds -1 1014 68 3027 2.1 360 20:41 02.01.2021
507 Clouds -1 1012 68 3027 2.1 360 20:21 02.01.2021
508 Clouds -2 1012 79 3024 3.1 20 19:43 02.01.2021
509 Clouds -2 1012 79 3024 3.1 20 19:43 02.01.2021
510 Clouds -3 1011 79 3024 3.1 20 19:19 02.01.2021
511 Clouds -3 1011 85 1026 4.6 10 18:43 02.01.2021
512 Clouds -3 1010 85 1026 4.6 10 18:25 02.01.2021
513 Clouds -4 1010 85 3019 4.1 10 17:46 02.01.2021
514 Snow -4 1009 85 3019 4.1 10 17:25 02.01.2021
515 Snow -5 1009 92 3007 4.1 20 16:38 02.01.2021
516 Snow -5 1009 92 3007 4.1 20 16:19 02.01.2021
517 Snow -5 1009 92 8009 3.1 20 15:42 02.01.2021
518 Snow -5 1008 92 8009 3.1 20 15:24 02.01.2021
519 Snow -5 1008 92 6019 3.1 20 14:37 02.01.2021
520 Snow -5 1008 100 6033 3.1 20 13:59 02.01.2021
521 Snow -4 1008 100 6033 3.1 20 13:39 02.01.2021
522 Snow -4 1008 92 6054 3.6 10 12:54 02.01.2021
523 Snow -4 1008 92 6054 3.6 10 12:32 02.01.2021
524 Snow -4 1009 92 6061 2.1 30 11:49 02.01.2021
525 Snow -4 1010 92 6061 2.1 30 11:22 02.01.2021
526 Snow -4 1010 92 8062 2.1 20 10:52 02.01.2021
527 Snow -4 1010 92 8062 2.1 20 10:31 02.01.2021
528 Snow -4 1012 92 8055 1.5 30 09:54 02.01.2021
529 Snow -4 1015 92 8055 1.5 30 09:28 02.01.2021
530 Snow -4 1015 92 8042 2.1 20 08:51 02.01.2021
531 Snow -4 1017 92 8042 2.1 20 08:28 02.01.2021
532 Snow -4 1017 85 8035 1 50 07:49 02.01.2021
533 Snow -4 1018 85 8035 1 50 07:22 02.01.2021
534 Snow -4 1018 73 7028 1.5 40 06:52 02.01.2021
535 Snow -3 1020 68 6041 1.5 110 05:45 02.01.2021
536 Clouds -2 1027 63 6031 1 140 00:59 02.01.2021
537 Clouds -2 1027 63 6031 1 140 00:37 02.01.2021
538 Clouds -2 1027 63 8030 1.5 170 23:57 01.01.2021
539 Clouds -2 1028 63 8030 1.5 170 23:23 01.01.2021
540 Clouds -1 1028 58 8018 1.5 180 22:48 01.01.2021
541 Clouds -1 1028 58 8018 1.5 180 22:26 01.01.2021
542 Clouds -1 1028 58 6014 1.5 190 21:58 01.01.2021
543 Clouds -1 1028 58 6014 1.5 190 21:39 01.01.2021
544 Clouds -1 1029 58 6014 1.5 190 21:19 01.01.2021
545 Clouds -1 1029 58 6029 2.1 190 20:43 01.01.2021
546 Clear -1 1031 58 6029 2.1 190 20:18 01.01.2021
547 Clear -1 1031 58 8031 2.1 170 19:41 01.01.2021
548 Clouds -1 1031 58 8031 2.1 170 19:20 01.01.2021
549 Clouds -1 1031 58 8021 1 170 18:42 01.01.2021
550 Clouds -1 1032 58 8021 1 170 18:23 01.01.2021
551 Clouds -1 1032 63 1 1.5 210 17:44 01.01.2021
552 Clear -2 1033 63 1 1.5 210 17:23 01.01.2021
553 Clear -2 1033 63 3007 1.5 200 16:45 01.01.2021
554 Clear -2 1034 63 3007 1.5 200 16:25 01.01.2021
555 Clear -4 1034 68 1014 1 220 15:40 01.01.2021
556 Clear -4 1034 73 1012 1 230 14:44 01.01.2021
557 Clear -5 1034 73 1012 1 230 14:26 01.01.2021
558 Clear -5 1034 73 3009 0.5 280 13:39 01.01.2021
559 Clear -5 1034 73 3001 1 290 12:52 01.01.2021
560 Clear -5 1033 73 3001 1 290 12:27 01.01.2021
561 Clear -4 1033 73 6 0.5 10 11:43 01.01.2021
562 Clear -4 1032 73 6 0.5 10 11:22 01.01.2021
563 Clouds -4 1033 68 10000 2.6 330 10:56 01.01.2021
564 Clouds -4 1033 68 10000 2.6 330 10:30 01.01.2021
565 Clear -4 1033 68 1022 0.5 40 09:39 01.01.2021
566 Clear -4 1033 68 2018 1.5 30 08:52 01.01.2021
567 Clear -4 1033 68 2018 1.5 30 08:25 01.01.2021
568 Clear -5 1030 68 3028 0.5 260 04:52 01.01.2021
569 Clouds -3 1028 63 1033 1 360 02:25 01.01.2021
570 Clouds -2 1026 63 2039 1.5 10 00:38 01.01.2021
571 Clouds -2 1025 63 2039 1.5 10 00:20 01.01.2021
572 Clouds -2 1023 63 1040 0.5 250 23:22 31.12.2020
573 Clouds -2 1023 58 2041 2.6 30 22:56 31.12.2020
574 Clouds -1 1023 58 2041 2.6 30 22:37 31.12.2020
575 Clouds -1 1022 58 2041 2.6 30 22:19 31.12.2020
576 Clouds 0 1022 92 3035 1 340 21:45 31.12.2020
577 Clouds 0 1021 91 3035 1 340 21:21 31.12.2020
578 Clouds 1 1021 50 10000 1.5 20 20:48 31.12.2020
579 Clouds 1 1020 50 10000 1.5 20 20:18 31.12.2020
580 Clouds 1 1020 51 10000 1.5 20 19:45 31.12.2020
581 Clear 1 1018 51 10000 1.5 20 19:24 31.12.2020
582 Clear 1 1019 64 10000 1 340 18:42 31.12.2020
583 Clear 1 1018 64 10000 1 340 18:23 31.12.2020
584 Rain 1 1017 64 10000 7.2 270 17:44 31.12.2020
585 Clear 1 1017 64 3050 1 200 17:22 31.12.2020
586 Clear 1 1017 64 3050 1 200 16:40 31.12.2020
587 Clear 1 1016 64 3050 1 200 16:21 31.12.2020
588 Clear 1 1016 59 3043 1.5 210 15:45 31.12.2020
589 Clear 1 1015 59 3043 1.5 210 15:22 31.12.2020
590 Clear 0 1015 59 1042 1.5 180 14:56 31.12.2020
591 Clear 0 1015 59 1042 1.5 180 14:37 31.12.2020
592 Clear 0 1014 59 1042 1.5 180 14:19 31.12.2020
593 Clear 1 1014 59 1042 2.1 230 13:38 31.12.2020
594 Clouds 1 1012 59 1042 2.1 230 13:19 31.12.2020
595 Clouds 1 1012 64 3043 1.5 250 12:53 31.12.2020
596 Clouds 2 1012 64 3043 1.5 250 12:35 31.12.2020
597 Clouds 2 1010 74 3033 1.5 170 11:52 31.12.2020
598 Clouds 2 1010 74 3033 1.5 170 11:32 31.12.2020
599 Clouds 2 1009 88 3027 2.1 200 10:49 31.12.2020
600 Clouds 2 1007 85 3027 2.1 200 10:29 31.12.2020
601 Clouds 2 1007 86 3009 2.1 200 09:57 31.12.2020
602 Clouds 3 1007 86 3009 2.1 200 09:35 31.12.2020
603 Clouds 2 1006 87 5004 1.5 180 08:51 31.12.2020
604 Clouds 2 1005 94 5004 1.5 180 08:32 31.12.2020
605 Snow 1 1005 100 6018 1.5 190 07:59 31.12.2020
606 Snow 1 1004 100 6018 1.5 190 07:29 31.12.2020
607 Snow 1 1004 86 6027 1.5 200 05:56 31.12.2020
608 Rain 1 1005 86 6027 1.5 200 05:28 31.12.2020
609 Snow -1 1009 92 6044 2.1 200 02:56 31.12.2020
610 Snow -1 1010 92 6044 2.1 200 02:25 31.12.2020
611 Snow -2 1010 92 8042 2.6 200 01:45 31.12.2020
612 Snow -2 1011 92 8042 2.6 200 01:25 31.12.2020
613 Snow -2 1012 100 8034 2.1 200 00:48 31.12.2020
614 Snow -3 1013 92 6035 2.1 180 23:52 30.12.2020
615 Snow -3 1014 92 6035 2.1 180 23:20 30.12.2020
616 Snow -3 1013 92 805 4.1 170 22:49 30.12.2020
617 Snow -3 1013 68 2816 4.6 190 22:30 30.12.2020
618 Snow -3 1014 63 6070 1.5 190 21:46 30.12.2020
619 Snow -3 1015 63 6070 1.5 190 21:24 30.12.2020
620 Snow -4 1015 85 6081 2.6 170 20:51 30.12.2020
621 Snow -4 1017 85 6081 2.6 170 20:22 30.12.2020
622 Snow -4 1017 63 8083 2.6 180 19:41 30.12.2020
623 Clouds -3 1019 63 8083 2.6 180 19:23 30.12.2020
624 Clouds -3 1019 62 8066 2.6 170 18:47 30.12.2020
625 Clouds -3 1022 62 8066 2.6 170 18:29 30.12.2020
626 Clouds -4 1022 73 8043 1.5 170 17:52 30.12.2020
627 Clouds -4 1022 73 8043 1.5 170 17:33 30.12.2020
628 Clouds -4 1024 62 6029 2.6 190 16:59 30.12.2020
629 Clouds -4 1024 62 6029 2.6 190 16:35 30.12.2020
630 Clouds -5 1026 67 8021 2.1 200 15:48 30.12.2020
631 Clouds -5 1028 67 8021 2.1 200 15:26 30.12.2020
632 Clouds -6 1028 73 8023 1.5 200 14:44 30.12.2020
633 Clouds -6 1029 73 8023 1.5 200 14:25 30.12.2020
634 Clouds -7 1029 73 10000 2.6 180 13:48 30.12.2020
635 Clouds -7 1029 73 10000 2.1 180 12:47 30.12.2020
636 Clouds -7 1030 67 8019 1 200 12:22 30.12.2020
637 Clouds -7 1030 67 8010 1 170 11:39 30.12.2020
638 Clouds -7 1030 67 8010 1 170 11:20 30.12.2020
639 Clouds -7 1030 62 2 1 180 10:54 30.12.2020
640 Clouds -7 1030 62 2 1 180 10:35 30.12.2020
641 Clouds -7 1031 67 7 1.5 170 09:53 30.12.2020
642 Clouds -7 1031 67 7 1.5 170 09:35 30.12.2020
643 Clouds -7 1031 67 10000 1 180 08:35 30.12.2020
644 Clouds -7 1032 67 10000 1.5 210 07:32 30.12.2020
645 Clear -7 1031 67 10000 2.1 190 06:53 30.12.2020
646 Clear -7 1031 67 10000 2.1 190 06:32 30.12.2020
647 Clear -8 1031 62 8002 2.1 180 05:45 30.12.2020
648 Clear -8 1032 62 8002 2.1 180 05:27 30.12.2020
649 Clear -8 1032 57 10000 2.1 190 03:28 30.12.2020
650 Clear -8 1032 52 10000 1.5 250 02:43 30.12.2020
651 Clear -8 1032 52 10000 1.5 250 02:25 30.12.2020
652 Clear -8 1032 52 10000 1.5 250 02:25 30.12.2020
653 Clear -7 1032 52 10000 1.5 200 01:33 30.12.2020
654 Clear -7 1031 52 10000 1.5 200 00:51 30.12.2020
655 Clear -7 1031 52 10000 1.5 200 00:32 30.12.2020
656 Clear -7 1031 48 10000 1 210 23:57 29.12.2020
657 Clear -7 1031 48 10000 1 210 23:39 29.12.2020
658 Clear -7 1030 48 10000 1 210 23:18 29.12.2020
659 Clear -7 1030 48 10000 1 240 22:43 29.12.2020
660 Clear -7 1030 48 10000 1 240 22:23 29.12.2020
661 Clear -7 1030 52 10000 2.6 250 21:50 29.12.2020
662 Clear -6 1029 52 10000 2.6 250 21:32 29.12.2020
663 Clear -6 1029 44 10000 1 310 20:54 29.12.2020
664 Clear -6 1029 44 10000 1 310 20:36 29.12.2020
665 Clear -6 1029 44 10000 1 310 20:18 29.12.2020
666 Clear -6 1029 48 2006 1.5 330 19:37 29.12.2020
667 Clear -6 1028 48 2006 1.5 330 19:19 29.12.2020
668 Clear -7 1029 52 13 3.1 350 18:44 29.12.2020
669 Clear -7 1028 52 13 3.1 350 18:24 29.12.2020
670 Clear -7 1028 57 1028 3.1 360 17:44 29.12.2020
671 Clear -7 1028 57 1028 3.1 360 17:20 29.12.2020
672 Clear -8 1028 61 1036 3.1 360 16:37 29.12.2020
673 Clear -8 1028 61 1036 3.1 360 16:18 29.12.2020
674 Clear -8 1028 61 3037 1.5 340 15:37 29.12.2020
675 Clear -8 1027 67 10000 1.5 360 14:59 29.12.2020
676 Clear -8 1027 67 10000 1.5 360 14:36 29.12.2020
677 Clear -8 1026 67 10000 1.5 360 14:18 29.12.2020
678 Clear -8 1026 67 1033 2.1 30 13:45 29.12.2020
679 Clouds -8 1025 67 1033 2.1 30 13:21 29.12.2020
680 Clouds -8 1024 67 1038 1.5 170 12:38 29.12.2020
681 Clouds -7 1023 67 1038 1.5 170 12:19 29.12.2020
682 Clouds -7 1023 67 1040 1 250 11:53 29.12.2020
683 Clouds -7 1023 67 1040 1 250 11:31 29.12.2020
684 Clouds -6 1022 62 10000 1 350 10:30 29.12.2020
685 Clouds -5 1021 67 10000 2.1 10 09:49 29.12.2020
686 Clouds -5 1020 67 10000 2.1 10 09:22 29.12.2020
687 Clouds -4 1020 68 10000 1.5 260 08:53 29.12.2020
688 Clouds -3 1020 68 10000 1.5 260 08:32 29.12.2020
689 Clouds -2 1018 68 10000 2.1 220 07:26 29.12.2020
690 Clouds -2 1018 68 10000 1 180 06:45 29.12.2020
691 Clouds -1 1017 68 10000 1 220 05:25 29.12.2020
692 Clouds 3 1013 69 1029 2.6 200 00:49 29.12.2020
693 Clouds 4 1011 69 1029 2.6 200 00:21 29.12.2020
694 Clouds 4 1011 83 3026 3.1 210 23:36 28.12.2020
695 Clouds 4 1010 84 3018 3.6 210 22:28 28.12.2020
696 Clouds 4 1010 84 3018 3.6 210 22:28 28.12.2020
697 Clouds 4 1010 80 5002 3.6 200 21:46 28.12.2020
698 Clouds 4 1009 80 5002 3.6 200 21:27 28.12.2020
699 Clouds 3 1009 88 6021 2.6 210 20:43 28.12.2020
700 Rain 3 1009 81 6021 2.6 210 20:23 28.12.2020
701 Clouds 2 1009 81 8029 2.1 200 19:50 28.12.2020
702 Rain 2 1009 79 8029 2.1 200 19:26 28.12.2020
703 Snow 2 1010 80 8025 2.6 190 18:59 28.12.2020
704 Snow 1 1010 80 8025 2.6 190 18:30 28.12.2020
705 Snow 1 1010 80 8017 3.1 190 17:49 28.12.2020
706 Rain 1 1010 80 8017 3.1 190 17:31 28.12.2020
707 Clouds 1 1011 64 7014 2.6 190 16:59 28.12.2020
708 Clouds 1 1011 64 7014 2.6 190 16:31 28.12.2020
709 Clouds 1 1012 64 6018 2.6 190 15:54 28.12.2020
710 Clouds 1 1012 64 6018 2.6 190 15:33 28.12.2020
711 Clouds 1 1013 64 8017 3.1 200 14:31 28.12.2020
712 Clouds 1 1014 64 6023 3.1 200 13:48 28.12.2020
713 Clouds 1 1015 64 6023 3.1 200 13:21 28.12.2020
714 Clouds 1 1015 59 6033 3.1 190 12:29 28.12.2020
715 Clouds 1 1015 59 6043 3.6 200 11:56 28.12.2020
716 Clouds 0 1015 59 6043 3.6 200 11:37 28.12.2020
717 Clouds 0 1016 59 6043 3.6 200 11:18 28.12.2020
718 Clouds -1 1017 90 8044 1.5 190 10:29 28.12.2020
719 Clouds -2 1017 74 6040 1 170 09:59 28.12.2020
720 Clouds -2 1017 74 6040 1 170 09:38 28.12.2020
721 Clouds -3 1018 74 6040 1 170 09:18 28.12.2020
722 Clouds -4 1020 63 8033 2.1 120 06:54 28.12.2020
723 Clouds -4 1023 68 8023 1.5 70 05:25 28.12.2020
724 Clouds -4 1024 68 8004 1.5 160 03:51 28.12.2020
725 Clouds -4 1025 62 2005 0.5 240 01:56 28.12.2020
726 Clouds -5 1024 62 3003 1 220 00:19 28.12.2020
727 Clouds -5 1024 62 1010 0.5 290 23:35 27.12.2020
728 Clouds -5 1024 62 1011 1 350 22:52 27.12.2020
729 Clouds -5 1024 62 3015 1.5 240 21:56 27.12.2020
730 Clear -4 1023 62 3015 1.5 240 21:25 27.12.2020
731 Clear -5 1023 57 3002 2.1 280 20:40 27.12.2020
732 Clouds -5 1023 62 10000 5.1 230 19:25 27.12.2020
733 Clear -5 1023 57 17 1 300 18:54 27.12.2020
734 Clear -5 1023 57 17 1 300 18:36 27.12.2020
735 Clear -5 1022 57 17 1 300 18:18 27.12.2020
736 Clear -6 1022 67 1030 2.1 320 17:42 27.12.2020
737 Clear -6 1022 67 1030 2.1 320 17:21 27.12.2020
738 Clear -7 1022 67 3036 1.5 260 16:30 27.12.2020
739 Clear -7 1021 62 2028 1 210 15:40 27.12.2020
740 Clear -7 1021 67 1030 1.5 230 14:58 27.12.2020
741 Clear -7 1021 67 1030 1.5 230 14:38 27.12.2020
742 Clear -8 1020 72 1032 1 250 13:55 27.12.2020
743 Clear -8 1020 72 1032 1 250 13:19 27.12.2020
744 Clear -8 1020 72 3031 1 250 12:43 27.12.2020
745 Clear -8 1018 72 3030 1 290 11:49 27.12.2020
746 Clear -8 1017 72 3030 1 290 11:29 27.12.2020
747 Clear -8 1017 72 1034 1 230 10:51 27.12.2020
748 Clear -8 1016 72 1034 1 230 10:24 27.12.2020
749 Clear -8 1016 67 3032 0.5 340 09:46 27.12.2020
750 Clear -8 1016 67 3029 1 230 08:39 27.12.2020
751 Clear -8 1015 67 3029 1 230 08:18 27.12.2020
752 Clouds -8 1013 67 1024 1 250 07:26 27.12.2020
753 Clouds -8 1012 72 1024 1.5 270 05:44 27.12.2020
754 Clouds -8 1010 67 2027 1 230 03:33 27.12.2020
755 Clouds -7 1009 67 1031 0.5 250 02:45 27.12.2020
756 Clouds -7 1008 67 3028 1.5 300 01:33 27.12.2020
757 Clouds -7 1007 62 1025 1.5 250 23:57 26.12.2020
758 Clouds -7 1006 62 1025 1.5 250 23:27 26.12.2020
759 Clouds -7 1006 57 2025 2.6 230 22:50 26.12.2020
760 Clouds -7 1005 57 2025 2.6 230 22:21 26.12.2020
761 Clouds -7 1005 57 3021 2.1 240 21:59 26.12.2020
762 Clouds -6 1005 57 3021 2.1 240 21:40 26.12.2020
763 Clouds -6 1005 57 3021 2.1 240 21:22 26.12.2020
764 Clouds -6 1005 67 3013 1.5 270 20:41 26.12.2020
765 Clouds -6 1004 67 3013 1.5 270 20:19 26.12.2020
766 Clouds -5 1003 67 3002 1.5 220 19:27 26.12.2020
767 Clouds -4 1003 73 1005 1.5 250 18:52 26.12.2020
768 Clouds -4 1002 73 1005 1.5 250 18:28 26.12.2020
769 Clouds -3 1002 73 5 2.6 210 17:41 26.12.2020
770 Snow -3 1002 73 5 2.6 210 17:21 26.12.2020
771 Snow -3 1002 79 3013 2.1 210 16:36 26.12.2020
772 Clouds -2 1001 63 1014 3.1 200 15:27 26.12.2020
773 Clouds -2 1001 68 10000 2.6 210 14:54 26.12.2020
774 Clouds -3 1001 68 10000 2.6 210 14:28 26.12.2020
775 Clouds -2 1001 63 10000 4.1 210 13:53 26.12.2020
776 Clouds -2 1001 63 10000 4.1 210 13:32 26.12.2020
777 Clouds -2 1001 68 10000 2.1 210 12:50 26.12.2020
778 Clouds -2 1001 68 10000 2.1 210 12:30 26.12.2020
779 Clouds -2 1000 68 10000 2.1 220 11:51 26.12.2020
780 Clouds -1 1000 68 10000 2.1 220 11:24 26.12.2020
781 Clouds -1 1000 74 10000 2.6 200 10:55 26.12.2020
782 Clouds -1 1000 74 10000 2.6 200 10:28 26.12.2020
783 Clouds -1 1000 92 10000 1.5 200 09:55 26.12.2020
784 Clouds -1 1000 92 10000 1.5 200 09:32 26.12.2020
785 Snow -1 999 90 10000 5.1 210 08:39 26.12.2020
786 Snow -1 999 88 10000 5.1 210 08:18 26.12.2020
787 Clouds 0 999 88 4 2.1 200 07:20 26.12.2020
788 Snow 1 996 93 2019 2.6 210 03:53 26.12.2020
789 Snow 1 995 92 3017 3.1 180 02:24 26.12.2020
790 Clouds 3 993 86 10000 2.1 200 00:28 26.12.2020
791 Clouds 4 993 86 10000 1 180 23:46 25.12.2020
792 Clouds 4 993 86 10000 1 180 23:27 25.12.2020
793 Clouds 4 993 86 10000 1.5 180 22:51 25.12.2020
794 Clouds 4 994 86 9022 1.5 180 22:25 25.12.2020
795 Clouds 5 994 86 9022 1.5 160 21:41 25.12.2020
796 Clouds 5 994 86 10000 1.5 160 21:23 25.12.2020
797 Rain 6 994 87 10000 2.6 240 20:39 25.12.2020
798 Clouds 6 994 93 5011 3.1 210 19:54 25.12.2020
799 Clouds 8 994 93 5011 3.1 210 19:36 25.12.2020
800 Clouds 12 995 93 8034 2.1 180 18:43 25.12.2020
801 Rain 13 994 93 8034 2.1 180 18:25 25.12.2020
802 Clouds 13 994 93 8 1.5 150 17:35 25.12.2020
803 Clouds 12 995 100 22 1 180 16:51 25.12.2020
804 Rain 12 994 100 22 1 180 16:21 25.12.2020
805 Rain 12 994 93 3015 2.1 190 15:49 25.12.2020
806 Rain 12 994 93 3015 2.1 190 15:25 25.12.2020
807 Rain 13 994 82 5019 2.1 210 14:32 25.12.2020
808 Clouds 13 994 82 6036 1 190 13:49 25.12.2020
809 Clouds 13 994 82 6036 1 190 13:26 25.12.2020
810 Clouds 12 994 87 6051 1 210 12:58 25.12.2020
811 Clouds 11 995 87 6051 1 210 12:27 25.12.2020
812 Clouds 11 995 87 6058 1.5 200 11:47 25.12.2020
813 Clouds 10 996 87 6058 1.5 200 11:24 25.12.2020
814 Clouds 10 996 87 8055 0.5 200 10:43 25.12.2020
815 Clouds 9 997 87 8055 0.5 200 10:19 25.12.2020
816 Clouds 9 1000 93 8036 0.5 350 09:26 25.12.2020
817 Rain 9 1000 93 8025 1 200 08:37 25.12.2020
818 Rain 9 1001 93 6028 1.5 190 07:35 25.12.2020
819 Rain 9 1002 100 6037 1.5 200 06:44 25.12.2020
820 Rain 8 1007 93 8021 2.1 190 02:36 25.12.2020
821 Rain 9 1009 93 50 2.1 190 00:35 25.12.2020
822 Rain 9 1010 81 4 2.1 190 23:40 24.12.2020
823 Rain 9 1011 81 4 2.1 190 23:21 24.12.2020
824 Rain 8 1011 93 3006 2.1 200 22:26 24.12.2020
825 Rain 8 1011 87 5008 2.6 190 21:54 24.12.2020
826 Rain 8 1012 87 5008 2.6 190 21:27 24.12.2020
827 Rain 8 1012 81 6023 3.1 200 20:18 24.12.2020
828 Clouds 7 1013 81 8033 3.1 190 18:22 24.12.2020
829 Rain 6 1013 86 8023 2.1 190 17:58 24.12.2020
830 Clouds 6 1013 86 8023 2.1 190 17:36 24.12.2020
831 Rain 5 1016 75 6008 3.1 190 16:27 24.12.2020
832 Clouds 4 1016 77 8001 2.6 200 15:58 24.12.2020
833 Clouds 4 1016 77 8001 2.6 200 15:40 24.12.2020
834 Clouds 4 1016 80 8001 2.6 200 15:18 24.12.2020
835 Clouds 3 1016 74 6008 2.1 200 14:42 24.12.2020
836 Clouds 3 1017 74 6008 2.1 200 14:23 24.12.2020
837 Clouds 3 1017 74 5002 2.6 190 13:39 24.12.2020
838 Clouds 3 1017 74 5002 2.6 190 13:20 24.12.2020
839 Clouds 2 1017 74 6016 2.6 200 12:41 24.12.2020
840 Clouds 2 1017 74 6016 2.6 200 12:20 24.12.2020
841 Clouds 2 1017 69 5010 2.6 200 11:39 24.12.2020
842 Clouds 2 1017 69 5010 2.6 200 11:20 24.12.2020
843 Clouds 2 1017 69 8012 2.6 190 10:49 24.12.2020
844 Clouds 2 1017 69 8012 2.6 190 10:30 24.12.2020
845 Clouds 2 1017 64 6008 3.1 200 09:51 24.12.2020
846 Clouds 2 1017 64 6008 3.1 200 09:23 24.12.2020
847 Clouds 2 1018 69 6017 2.6 210 07:59 24.12.2020
848 Clouds 1 1018 69 6017 2.6 210 07:38 24.12.2020
849 Clouds 1 1018 69 8011 1.5 190 06:55 24.12.2020
850 Clouds 1 1019 64 6034 2.6 190 04:24 24.12.2020
851 Snow -3 1021 86 8032 2.6 190 01:54 24.12.2020
852 Snow -3 1021 86 8032 2.6 190 01:30 24.12.2020
853 Snow -3 1023 86 8027 2.1 170 00:56 24.12.2020
854 Snow -4 1024 86 8027 2.1 170 00:20 24.12.2020
855 Snow -4 1024 92 8019 1.5 170 23:40 23.12.2020
856 Snow -4 1025 92 8019 1.5 170 23:22 23.12.2020
857 Snow -5 1025 92 8020 2.1 170 22:52 23.12.2020
858 Clouds -5 1025 92 8020 2.1 170 22:29 23.12.2020
859 Snow -6 1025 85 6019 1.5 170 21:49 23.12.2020
860 Snow -6 1026 85 6019 1.5 170 21:25 23.12.2020
861 Clouds -6 1026 79 7023 1.5 180 20:49 23.12.2020
862 Clouds -5 1026 79 7023 1.5 180 20:31 23.12.2020
863 Clouds -5 1026 62 8019 1.5 220 19:59 23.12.2020
864 Clouds -5 1026 62 8019 1.5 220 19:38 23.12.2020
865 Clouds -5 1027 62 8019 1.5 220 19:19 23.12.2020
866 Clouds -5 1027 62 8005 1.5 190 18:46 23.12.2020
867 Clouds -5 1028 62 8005 1.5 190 18:21 23.12.2020
868 Clouds -5 1028 62 6 1.5 300 17:39 23.12.2020
869 Clouds -5 1029 62 6 1.5 300 17:20 23.12.2020
870 Clouds -6 1029 57 3012 1.5 290 16:43 23.12.2020
871 Clouds -7 1029 57 3012 1.5 290 16:25 23.12.2020
872 Clouds -7 1029 67 1013 0.5 110 15:54 23.12.2020
873 Clear -8 1030 67 1013 0.5 110 15:28 23.12.2020
874 Clear -8 1030 72 1020 0.5 280 14:58 23.12.2020
875 Clear -9 1030 72 1030 1 320 14:39 23.12.2020
876 Clear -9 1029 72 1030 1 320 14:20 23.12.2020
877 Clear -9 1029 72 1030 1 320 13:43 23.12.2020
878 Clouds -9 1028 72 1030 1 320 13:19 23.12.2020
879 Clouds -9 1028 72 3028 0.5 120 12:51 23.12.2020
880 Clouds -9 1027 72 3028 0.5 120 12:25 23.12.2020
881 Clouds -9 1027 72 1034 0.5 250 11:47 23.12.2020
882 Clouds -9 1026 72 1034 0.5 250 11:19 23.12.2020
883 Clouds -9 1026 67 1033 1 180 10:48 23.12.2020
884 Clouds -8 1026 67 1033 1 180 10:30 23.12.2020
885 Clear -8 1025 72 3039 1 180 09:35 23.12.2020
886 Clear -7 1024 67 1033 1 200 08:49 23.12.2020
887 Clear -7 1023 67 1033 1 200 08:21 23.12.2020
888 Clouds -6 1021 67 1041 1.5 230 07:27 23.12.2020
889 Clouds -6 1021 67 1049 1.5 310 06:41 23.12.2020
890 Clouds -6 1020 73 2055 1.5 190 05:39 23.12.2020
891 Clouds -5 1019 73 2056 1.5 30 04:58 23.12.2020
892 Clouds 0 1014 74 3039 1.5 260 01:31 23.12.2020
893 Clouds 1 1011 86 2033 1.5 210 00:21 23.12.2020
894 Clouds 1 1011 86 2033 1.5 210 00:21 23.12.2020
895 Clouds 1 1011 93 3033 2.1 230 23:36 22.12.2020
896 Clouds 1 1009 93 3033 2.1 230 23:18 22.12.2020
897 Clouds 2 1009 91 3028 2.1 230 22:41 22.12.2020
898 Clouds 2 1007 88 3028 2.1 230 22:20 22.12.2020
899 Clouds 2 1007 80 3019 1.5 240 21:45 22.12.2020
900 Clouds 2 1006 80 3019 1.5 240 21:20 22.12.2020
901 Clouds 2 1006 80 3010 1.5 220 20:50 22.12.2020
902 Clouds 2 1005 80 3010 1.5 220 20:25 22.12.2020
903 Clouds 2 1005 80 3004 1 250 19:50 22.12.2020
904 Clouds 2 1004 80 3004 1 250 19:26 22.12.2020
905 Clouds 2 1004 93 1007 1 270 18:57 22.12.2020
906 Clouds 2 1004 93 1007 1 270 18:38 22.12.2020
907 Clouds 2 1004 93 1007 1 270 18:19 22.12.2020
908 Clouds 1 1004 100 1013 1.5 230 17:36 22.12.2020
909 Clouds 1 1004 100 1013 1.5 230 17:36 22.12.2020
910 Clouds 1 1004 100 1013 1.5 230 17:18 22.12.2020
911 Clouds 1 1004 93 3015 1 280 16:46 22.12.2020
912 Snow 0 1005 97 3015 1 280 16:19 22.12.2020
913 Snow 0 1003 97 1006 2.1 260 15:45 22.12.2020
914 Snow 0 1003 97 1006 2.1 260 15:27 22.12.2020
915 Clouds 0 1004 97 3004 0.5 330 14:55 22.12.2020
916 Clouds 0 1004 97 3004 0.5 330 14:37 22.12.2020
917 Clouds 0 1004 98 3004 0.5 330 14:18 22.12.2020
918 Clouds 0 1004 98 1 0.5 360 13:42 22.12.2020
919 Clouds 0 1004 97 1 0.5 360 13:18 22.12.2020
920 Clouds 0 1004 98 5004 1 10 12:43 22.12.2020
921 Clouds 0 1004 98 5004 1 10 12:25 22.12.2020
922 Clouds 0 1004 98 6005 0.5 330 11:56 22.12.2020
923 Clouds 0 1004 98 6005 0.5 330 11:38 22.12.2020
924 Snow 0 1003 98 6005 0.5 330 11:19 22.12.2020
925 Snow 0 1002 100 603 0.31 291 10:46 22.12.2020
926 Snow 0 1003 100 603 0.32 266 10:23 22.12.2020
927 Snow 0 1003 100 805 2.6 40 09:55 22.12.2020
928 Snow 0 1003 100 201 2.1 30 09:21 22.12.2020
929 Fog 0 1003 100 201 1.5 30 08:51 22.12.2020
930 Snow 0 1003 100 603 1 40 08:29 22.12.2020
931 Mist 0 1003 100 2012 1 220 07:47 22.12.2020
932 Mist 0 1003 100 2012 0.28 44 06:48 22.12.2020
933 Rain 0 1004 98 4828 1.5 360 05:44 22.12.2020
934 Clouds 0 1005 98 8012 1 30 03:33 22.12.2020
935 Mist 1 1006 97 3621 2.1 40 00:46 22.12.2020
936 Clouds 1 1007 98 6001 0.5 280 23:52 21.12.2020
937 Clouds 1 1007 98 6001 0.5 280 23:31 21.12.2020
938 Clouds 2 1007 97 6007 1 210 22:38 21.12.2020
939 Clouds 2 1007 97 6007 1 210 22:19 21.12.2020
940 Mist 2 1006 93 8047 3.1 150 21:59 21.12.2020
941 Clouds 2 1007 97 6015 1 190 21:39 21.12.2020
942 Clouds 2 1007 97 6015 1 190 21:39 21.12.2020
943 Clouds 3 1007 97 6015 1 190 21:19 21.12.2020
944 Clouds 3 1007 97 6023 1.5 180 20:36 21.12.2020
945 Clouds 3 1007 98 6023 1.5 180 20:18 21.12.2020
946 Clouds 3 1007 98 6023 1.5 180 20:18 21.12.2020
947 Clouds 3 1007 74 7025 1 220 19:44 21.12.2020
948 Clouds 3 1008 74 7025 1 220 19:19 21.12.2020
949 Clouds 2 1008 93 8016 1 190 18:52 21.12.2020
950 Clouds 2 1008 93 8016 1 190 18:34 21.12.2020
951 Clouds 2 1009 80 8007 1 190 17:43 21.12.2020
952 Clouds 2 1009 80 8007 1 190 17:24 21.12.2020
953 Clouds 1 1009 86 5000 1.5 190 16:48 21.12.2020
954 Clouds 1 1010 86 5000 1.5 190 16:27 21.12.2020
955 Clouds 1 1010 86 5003 1.5 190 15:57 21.12.2020
956 Clouds 1 1010 86 5003 1.5 190 15:37 21.12.2020
957 Clouds 1 1010 86 8002 1.5 190 14:57 21.12.2020
958 Clouds 1 1010 86 8002 1.5 190 14:21 21.12.2020
959 Clouds 1 1010 86 6006 1.5 210 13:45 21.12.2020
960 Clouds 1 1010 86 6006 1.5 210 13:26 21.12.2020
961 Clouds 1 1010 86 5006 1.5 200 12:45 21.12.2020
962 Clouds 1 1010 86 5006 1.5 200 12:25 21.12.2020
963 Clouds 1 1010 86 8009 1.5 200 11:58 21.12.2020
964 Clouds 1 1010 86 8009 1.5 200 11:40 21.12.2020
965 Clouds 1 1011 86 8009 1.5 200 11:22 21.12.2020
966 Clouds 0 1011 86 8004 1.5 200 10:48 21.12.2020
967 Clouds 0 1011 86 8004 1.5 200 10:30 21.12.2020
968 Clouds 0 1011 80 6007 1.5 210 09:47 21.12.2020
969 Clouds 0 1011 80 6007 1.5 210 09:25 21.12.2020
970 Clouds 0 1011 97 6005 1.5 210 08:52 21.12.2020
971 Clouds 0 1011 96 8007 2.1 210 07:52 21.12.2020
972 Clouds 0 1011 96 7003 1.5 200 06:47 21.12.2020
973 Clouds 0 1012 96 6008 2.1 200 04:58 21.12.2020
974 Snow -1 1013 92 6005 2.1 200 01:28 21.12.2020
975 Snow -1 1013 92 6005 2.1 200 00:33 21.12.2020
976 Snow -1 1014 92 6005 1.5 190 23:36 20.12.2020
977 Snow -1 1014 92 6005 1.5 190 23:18 20.12.2020
978 Snow -1 1014 92 6013 2.1 190 22:42 20.12.2020
979 Snow -1 1014 92 6013 2.1 190 22:22 20.12.2020
980 Snow -1 1014 92 6018 2.6 180 21:40 20.12.2020
981 Snow -1 1014 86 6031 2.6 190 21:21 20.12.2020
982 Snow -1 1014 86 6031 2.6 190 20:52 20.12.2020
983 Snow -1 1015 86 6031 2.6 190 20:26 20.12.2020
984 Snow 0 1015 94 6034 2.1 200 19:56 20.12.2020
985 Snow 0 1015 94 6034 2.1 200 19:38 20.12.2020
986 Snow 0 1015 91 6034 2.1 200 19:19 20.12.2020
987 Snow -1 1016 86 8031 2.6 190 18:41 20.12.2020
988 Snow -1 1017 86 8031 2.6 190 18:22 20.12.2020
989 Snow -1 1017 86 8017 2.1 190 17:45 20.12.2020
990 Snow -1 1018 86 8017 2.1 190 17:27 20.12.2020
991 Snow -1 1018 86 206 2.1 200 16:47 20.12.2020
992 Snow -1 1018 86 901 2.1 200 16:27 20.12.2020
993 Snow -2 1018 86 901 1.5 160 15:50 20.12.2020
994 Clouds -2 1019 86 10000 1.5 160 15:25 20.12.2020
995 Clouds -2 1019 74 10000 1 170 14:55 20.12.2020
996 Snow -3 1020 74 10000 1 170 14:34 20.12.2020
997 Snow -3 1020 73 10000 1.5 170 13:47 20.12.2020
998 Clouds -3 1020 73 10000 1.5 170 13:28 20.12.2020
999 Clouds -3 1020 73 10000 1.5 20 12:59 20.12.2020
1000 Clouds -3 1020 73 10000 1.5 20 12:39 20.12.2020
1001 Clouds -3 1021 73 1611 1.5 20 12:21 20.12.2020
1002 Clouds -3 1021 73 1611 1.5 160 11:44 20.12.2020
1003 Clouds -3 1021 73 10000 1.5 160 11:25 20.12.2020
1004 Clouds -4 1021 68 10000 1.5 160 10:48 20.12.2020
1005 Clouds -3 1021 68 10000 1.5 160 10:20 20.12.2020
1006 Clouds -3 1021 68 10000 1.5 170 09:46 20.12.2020
1007 Clouds -3 1021 68 10000 1.5 170 09:27 20.12.2020
1008 Clouds -3 1021 68 10000 1.5 170 08:59 20.12.2020
1009 Clouds -3 1021 68 10000 1.5 170 08:39 20.12.2020
1010 Clouds -4 1022 68 10000 1.5 120 07:28 20.12.2020
1011 Clouds -4 1023 79 9935 1 150 05:52 20.12.2020
1012 Clouds -4 1025 73 10000 2.1 200 02:24 20.12.2020
1013 Clouds -4 1025 73 10000 2.1 190 00:39 20.12.2020
1014 Clouds -4 1026 73 10000 2.1 190 23:22 19.12.2020
1015 Clouds -4 1026 73 10000 1.5 190 22:59 19.12.2020
1016 Clouds -4 1026 73 10000 1.5 190 22:40 19.12.2020
1017 Clouds -4 1025 73 10000 1.5 190 22:20 19.12.2020
1018 Clouds -3 1025 63 10000 1.5 190 21:43 19.12.2020
1019 Clouds -3 1026 63 10000 1.5 190 21:25 19.12.2020
1020 Clouds -3 1026 45 10000 2.1 210 20:55 19.12.2020
1021 Clouds -3 1026 45 10000 2.1 210 20:24 19.12.2020
1022 Clouds -3 1026 49 10000 1.5 160 19:58 19.12.2020
1023 Clouds -3 1026 49 10000 1.5 160 19:38 19.12.2020
1024 Clouds -4 1026 49 10000 1.5 160 19:19 19.12.2020
1025 Clouds -4 1026 62 10000 1.5 150 18:33 19.12.2020
1026 Clouds -6 1027 79 10000 1.5 170 17:56 19.12.2020
1027 Clouds -6 1027 79 10000 1.5 170 17:31 19.12.2020
1028 Clouds -6 1028 73 10000 2.1 190 16:59 19.12.2020
1029 Clouds -7 1028 73 10000 2.1 190 16:39 19.12.2020
1030 Clouds -7 1029 73 10000 2.1 190 16:21 19.12.2020
1031 Clouds -8 1029 67 10000 2.1 180 15:49 19.12.2020
1032 Clouds -9 1029 67 10000 2.1 180 15:20 19.12.2020
1033 Clouds -11 1029 78 10000 1.5 210 14:37 19.12.2020
1034 Clouds -11 1029 85 10000 0.5 220 13:55 19.12.2020
1035 Clouds -11 1029 85 10000 0.5 220 13:36 19.12.2020
1036 Clouds -11 1029 85 10000 0.5 220 13:18 19.12.2020
1037 Clouds -12 1029 85 10000 0.5 230 12:41 19.12.2020
1038 Clouds -12 1030 85 10000 0.5 230 12:21 19.12.2020
1039 Clouds -12 1030 85 10000 0.5 330 11:53 19.12.2020
1040 Clouds -12 1030 85 10000 0.5 330 11:32 19.12.2020
1041 Clouds -11 1029 78 10000 0.5 260 10:42 19.12.2020
1042 Clouds -11 1029 78 10000 0.5 260 10:19 19.12.2020
1043 Clouds -11 1029 72 10000 0.5 270 09:42 19.12.2020
1044 Clouds -11 1030 61 10000 0.5 220 08:59 19.12.2020
1045 Clear -11 1030 61 10000 0.5 220 08:23 19.12.2020
1046 Clear -11 1030 52 10000 0.5 280 07:22 19.12.2020
1047 Clear -11 1030 52 10000 1 290 06:51 19.12.2020
1048 Clouds -10 1030 52 10000 0.5 310 05:25 19.12.2020
1049 Clouds -10 1030 52 10000 0.5 260 03:55 19.12.2020
1050 Clear -9 1030 52 10000 1 300 01:36 19.12.2020
1051 Clear -9 1030 52 10000 0.5 280 00:36 19.12.2020
1052 Clear -8 1030 52 10000 0.5 280 00:18 19.12.2020
1053 Clear -8 1030 44 10000 1 290 23:44 18.12.2020
1054 Clear -7 1030 44 10000 1 290 23:22 18.12.2020
1055 Clear -7 1030 44 10000 0.5 300 22:45 18.12.2020
1056 Clear -7 1029 44 10000 0.5 300 22:21 18.12.2020
1057 Clear -6 1029 37 10000 1 330 21:47 18.12.2020
1058 Clear -6 1029 37 10000 1 330 21:28 18.12.2020
1059 Clear -6 1029 37 10000 2.6 10 20:40 18.12.2020
1060 Clear -6 1028 37 10000 2.6 10 20:19 18.12.2020
1061 Clear -6 1028 37 10000 2.1 30 19:41 18.12.2020
1062 Clear -7 1028 37 10000 2.1 30 19:20 18.12.2020
1063 Clear -7 1028 40 10000 1.5 30 18:40 18.12.2020
1064 Clear -8 1029 40 10000 1.5 30 18:22 18.12.2020
1065 Clear -8 1029 47 10000 3.1 10 17:24 18.12.2020
1066 Clear -9 1029 66 10000 1.5 20 16:49 18.12.2020
1067 Clear -10 1030 66 10000 1.5 20 16:27 18.12.2020
1068 Clear -11 1030 72 10000 1.5 10 15:59 18.12.2020
1069 Clear -11 1030 72 10000 1.5 10 15:41 18.12.2020
1070 Clear -12 1030 72 10000 1.5 10 15:22 18.12.2020
1071 Clear -12 1030 72 10000 2.1 20 14:54 18.12.2020
1072 Clear -13 1029 72 10000 2.1 20 14:21 18.12.2020
1073 Clear -13 1029 72 10000 1.5 20 13:50 18.12.2020
1074 Clear -13 1029 72 10000 1.5 20 13:30 18.12.2020
1075 Clear -13 1029 72 10000 2.1 10 12:49 18.12.2020
1076 Clear -13 1028 72 10000 2.1 10 12:21 18.12.2020
1077 Clear -13 1027 72 10000 2.1 20 11:23 18.12.2020
1078 Clear -13 1027 72 10000 2.1 20 10:40 18.12.2020
1079 Clear -12 1027 72 10000 2.1 20 10:20 18.12.2020
1080 Clear -13 1027 72 10000 2.6 10 09:39 18.12.2020
1081 Clear -12 1027 72 10000 2.6 10 09:21 18.12.2020
1082 Clear -12 1027 78 10000 3.1 20 08:55 18.12.2020
1083 Clear -12 1027 78 10000 3.1 20 08:30 18.12.2020
1084 Clear -12 1027 72 10000 3.1 10 07:46 18.12.2020
1085 Clouds -12 1026 72 10000 3.1 10 07:18 18.12.2020
1086 Clear -11 1026 72 10000 3.1 20 06:51 18.12.2020
1087 Clear -11 1026 66 10000 3.1 10 05:42 18.12.2020
1088 Clear -11 1026 66 10000 1.5 20 04:51 18.12.2020
1089 Clouds -10 1026 56 10000 2.1 20 02:31 18.12.2020
1090 Clear -10 1024 66 10000 3.1 40 01:41 18.12.2020
1091 Clouds -9 1024 56 10000 3.1 20 00:28 18.12.2020
1092 Clouds -9 1024 56 10000 3.1 30 23:51 17.12.2020
1093 Clouds -9 1023 56 10000 3.1 30 23:20 17.12.2020
1094 Clouds -9 1023 61 10000 3.1 20 22:47 17.12.2020
1095 Clouds -9 1023 61 10000 3.1 20 22:27 17.12.2020
1096 Clouds -9 1023 61 10000 2.6 50 21:44 17.12.2020
1097 Clouds -9 1023 61 10000 2.6 50 21:44 17.12.2020
1098 Clouds -8 1022 61 10000 2.6 50 21:20 17.12.2020
1099 Clouds -9 1022 61 10000 3.1 50 20:45 17.12.2020
1100 Clouds -9 1022 61 10000 3.1 50 20:19 17.12.2020
1101 Clouds -9 1022 66 10000 2.6 50 19:50 17.12.2020
1102 Clouds -9 1023 66 10000 2.6 50 19:25 17.12.2020
1103 Clouds -10 1023 72 10000 3.6 20 18:56 17.12.2020
1104 Clouds -10 1022 72 10000 3.6 20 18:37 17.12.2020
1105 Clouds -10 1022 72 10000 3.6 20 18:18 17.12.2020
1106 Clouds -10 1022 72 10000 3.6 20 17:44 17.12.2020
1107 Clouds -10 1023 72 10000 3.6 20 17:25 17.12.2020
1108 Clouds -10 1023 56 10000 3.6 30 16:39 17.12.2020
1109 Clouds -11 1024 56 10000 3.6 30 16:19 17.12.2020
1110 Clouds -11 1024 66 10000 3.6 30 15:44 17.12.2020
1111 Clouds -11 1023 66 10000 3.6 30 15:26 17.12.2020
1112 Clouds -11 1023 61 10000 4.1 20 14:48 17.12.2020
1113 Clouds -11 1023 61 10000 4.1 20 14:20 17.12.2020
1114 Clouds -11 1023 66 10000 3.6 20 13:48 17.12.2020
1115 Clouds -11 1024 66 10000 3.6 20 13:22 17.12.2020
1116 Clouds -12 1024 56 10000 4.1 20 12:41 17.12.2020
1117 Clouds -12 1024 56 10000 4.1 20 12:22 17.12.2020
1118 Clouds -12 1024 60 10000 3.6 30 11:42 17.12.2020
1119 Clouds -12 1024 60 10000 3.6 30 11:22 17.12.2020
1120 Clouds -12 1024 60 10000 3.1 20 10:48 17.12.2020
1121 Clouds -13 1024 65 10000 3.1 40 09:40 17.12.2020
1122 Clouds -13 1025 65 10000 3.6 30 08:57 17.12.2020
1123 Clouds -13 1025 65 10000 3.1 30 07:44 17.12.2020
1124 Clouds -13 1025 65 10000 3.1 30 07:25 17.12.2020
1125 Clouds -13 1025 60 10000 3.1 50 06:50 17.12.2020
1126 Clouds -13 1025 60 10000 3.1 50 06:32 17.12.2020
1127 Clouds -14 1030 55 10000 3.1 40 03:31 17.12.2020
1128 Clouds -14 1031 55 10000 2.6 40 00:29 17.12.2020
1129 Clouds -14 1031 55 10000 2.6 40 23:50 16.12.2020
1130 Clouds -14 1032 55 10000 2.6 40 23:19 16.12.2020
1131 Clouds -14 1032 60 10000 2.6 40 22:50 16.12.2020
1132 Clouds -14 1032 60 10000 2.6 40 22:31 16.12.2020
1133 Clouds -14 1032 60 10000 2.1 40 21:46 16.12.2020
1134 Clouds -14 1032 60 10000 2.1 40 21:26 16.12.2020
1135 Clouds -14 1032 60 10000 2.6 40 20:52 16.12.2020
1136 Clouds -14 1033 60 10000 2.6 40 20:21 16.12.2020
1137 Clouds -14 1033 60 8023 2.6 50 19:50 16.12.2020
1138 Clouds -14 1033 60 8023 2.6 50 19:19 16.12.2020
1139 Clouds -14 1033 71 10000 2.1 40 18:52 16.12.2020
1140 Clouds -15 1034 71 10000 2.1 40 18:27 16.12.2020
1141 Clouds -15 1034 71 10000 2.1 110 17:43 16.12.2020
1142 Clouds -16 1035 70 10000 2.1 30 16:58 16.12.2020
1143 Clouds -16 1035 70 10000 2.1 30 16:39 16.12.2020
1144 Clouds -16 1036 64 10000 1.5 60 16:20 16.12.2020
1145 Clouds -16 1036 64 10000 1.5 60 15:49 16.12.2020
1146 Clouds -17 1036 64 10000 1.5 60 15:24 16.12.2020
1147 Clouds -17 1036 70 10000 2.1 80 14:46 16.12.2020
1148 Clouds -17 1036 70 10000 2.1 80 14:28 16.12.2020
1149 Clouds -17 1036 70 10000 1.5 70 13:46 16.12.2020
1150 Clouds -18 1036 70 10000 1.5 70 13:27 16.12.2020
1151 Clouds -18 1037 64 10000 2.1 20 12:55 16.12.2020
1152 Clouds -18 1037 64 10000 2.1 20 12:34 16.12.2020
1153 Clouds -18 1036 64 10000 3.1 10 11:39 16.12.2020
1154 Clouds -18 1036 64 10000 3.1 10 11:20 16.12.2020
1155 Clouds -17 1036 64 10000 3.1 10 10:43 16.12.2020
1156 Clouds -17 1035 64 10000 3.1 10 10:22 16.12.2020
1157 Clouds -17 1035 64 10000 2.6 20 09:40 16.12.2020
1158 Clear -17 1035 64 10000 2.6 10 08:27 16.12.2020
1159 Clear -16 1035 59 10000 2.6 20 07:52 16.12.2020
1160 Clear -16 1035 59 10000 2.6 20 07:33 16.12.2020
1161 Clear -16 1035 59 10000 2.1 360 06:41 16.12.2020
1162 Clear -14 1033 50 10000 2.6 360 02:26 16.12.2020
1163 Clear -12 1031 43 10000 2.1 350 00:26 16.12.2020
1164 Clear -12 1031 46 10000 2.1 10 23:44 15.12.2020
1165 Clear -11 1030 43 10000 1 340 22:47 15.12.2020
1166 Clear -11 1029 43 10000 1 340 22:25 15.12.2020
1167 Clear -11 1029 43 10000 2.6 350 21:57 15.12.2020
1168 Clear -10 1029 43 10000 2.6 350 21:37 15.12.2020
1169 Clear -10 1028 43 10000 2.6 350 21:18 15.12.2020
1170 Clear -10 1027 43 10000 6.7 280 20:42 15.12.2020
1171 Clear -10 1027 43 10000 6.7 280 20:23 15.12.2020
1172 Clear -10 1027 43 3009 1 340 19:42 15.12.2020
1173 Clouds -10 1027 43 3009 1 340 19:23 15.12.2020
1174 Clouds -10 1027 47 1015 1.5 330 18:39 15.12.2020
1175 Clouds -10 1026 47 1015 1.5 330 18:21 15.12.2020
1176 Clouds -11 1026 51 1036 2.6 10 17:43 15.12.2020
1177 Clear -11 1026 47 10000 6.7 300 17:23 15.12.2020
1178 Clouds -11 1026 51 3044 4.1 350 16:38 15.12.2020
1179 Clear -12 1026 51 3044 4.1 350 16:19 15.12.2020
1180 Clear -12 1026 55 10000 2.6 10 15:37 15.12.2020
1181 Clear -12 1025 55 10000 2.6 10 15:18 15.12.2020
1182 Clear -11 1023 51 10000 7.7 320 14:41 15.12.2020
1183 Clear -11 1024 56 3036 4.1 10 14:19 15.12.2020
1184 Clear -10 1024 56 3036 4.1 10 13:48 15.12.2020
1185 Clouds -10 1022 56 3036 4.1 10 13:23 15.12.2020
1186 Clouds -8 1022 61 3034 1 120 12:45 15.12.2020
1187 Clouds -8 1020 61 3034 1 120 12:19 15.12.2020
1188 Clouds -8 1020 62 1036 1 200 11:51 15.12.2020
1189 Clouds -7 1019 62 1036 1 200 11:22 15.12.2020
1190 Clouds -7 1019 57 1044 1 120 10:48 15.12.2020
1191 Clouds -7 1017 57 1044 1 120 10:20 15.12.2020
1192 Clouds -6 1017 62 10000 1.5 260 09:43 15.12.2020
1193 Clouds -6 1016 62 10000 1.5 260 09:25 15.12.2020
1194 Clouds -5 1016 53 10000 1.5 120 08:41 15.12.2020
1195 Clouds -5 1014 53 10000 1.5 120 08:21 15.12.2020
1196 Clouds -4 1014 53 3032 1.5 190 07:44 15.12.2020
1197 Clouds -3 1013 63 3024 1.5 200 06:59 15.12.2020
1198 Clouds -3 1011 68 3021 2.1 220 05:55 15.12.2020
1199 Clouds -3 1009 79 2478 1 200 00:54 15.12.2020
1200 Clouds -3 1009 74 10000 0.5 340 23:54 14.12.2020
1201 Clouds -3 1010 74 10000 0.5 340 23:21 14.12.2020
1202 Clouds -3 1010 79 10000 1 340 22:44 14.12.2020
1203 Clouds -2 1010 79 10000 1 340 22:22 14.12.2020
1204 Clouds -2 1010 79 10000 1 330 21:41 14.12.2020
1205 Clouds -2 1010 79 10000 1 330 21:19 14.12.2020
1206 Clouds -2 1010 79 10000 1 360 20:48 14.12.2020
1207 Clouds -2 1011 79 10000 1 360 20:28 14.12.2020
1208 Clouds -2 1011 73 10000 1 310 19:49 14.12.2020
1209 Clouds -2 1011 73 10000 1 310 19:28 14.12.2020
1210 Clouds -2 1011 68 10000 1.5 350 18:44 14.12.2020
1211 Clouds -2 1012 68 10000 1.5 350 18:24 14.12.2020
1212 Clouds -3 1012 73 10000 1 200 17:45 14.12.2020
1213 Clouds -3 1013 73 10000 1 200 17:22 14.12.2020
1214 Clouds -3 1013 73 10000 0.5 10 16:50 14.12.2020
1215 Clouds -3 1014 73 10000 0.5 10 16:28 14.12.2020
1216 Clouds -3 1014 68 10000 1 360 15:33 14.12.2020
1217 Clouds -3 1016 68 10000 1 350 14:54 14.12.2020
1218 Clouds -3 1016 68 10000 1 350 14:36 14.12.2020
1219 Clouds -3 1016 68 10000 1 350 14:18 14.12.2020
1220 Clouds -3 1016 73 10000 2.1 350 13:39 14.12.2020
1221 Clouds -3 1016 73 10000 2.1 350 13:18 14.12.2020
1222 Clouds -3 1016 68 10000 1.5 350 12:50 14.12.2020
1223 Clouds -3 1016 68 10000 1.5 350 12:24 14.12.2020
1224 Clouds -3 1017 68 10000 0.5 300 11:32 14.12.2020
1225 Clouds -3 1017 68 10000 1 100 10:37 14.12.2020
1226 Clouds -3 1017 68 10000 1 100 10:37 14.12.2020
1227 Clouds -3 1017 68 10000 1 100 10:19 14.12.2020
1228 Clouds -3 1017 68 10000 1.5 260 09:29 14.12.2020
1229 Clouds -3 1017 68 10000 1.5 310 08:46 14.12.2020
1230 Clouds -3 1017 68 10000 1.5 310 08:28 14.12.2020
1231 Clouds -3 1016 73 10000 1 170 07:28 14.12.2020
1232 Clouds -2 1016 68 10000 1 250 06:46 14.12.2020
1233 Clouds -2 1017 63 10000 1 190 04:52 14.12.2020
1234 Clouds -2 1017 63 10000 1 220 02:26 14.12.2020
1235 Clouds -2 1016 63 10000 1.5 260 00:55 14.12.2020
1236 Clouds -2 1016 63 10000 1.5 260 00:33 14.12.2020
1237 Clouds -1 1015 90 10000 2.1 250 23:50 13.12.2020
1238 Clouds -1 1014 91 10000 2.1 250 23:27 13.12.2020
1239 Clouds 0 1014 91 10000 3.1 210 22:46 13.12.2020
1240 Clouds 0 1013 90 10000 3.1 210 22:20 13.12.2020
1241 Clouds 0 1013 69 10000 2.1 240 21:45 13.12.2020
1242 Clouds 1 1012 69 10000 2.1 240 21:26 13.12.2020
1243 Clouds 1 1012 74 10000 1.5 220 20:35 13.12.2020
1244 Clouds 2 1010 80 10000 10.3 260 19:57 13.12.2020
1245 Clouds 2 1010 64 3019 2.6 210 19:37 13.12.2020
1246 Clouds 3 1009 64 3019 2.6 210 19:19 13.12.2020
1247 Clouds 4 1009 65 3013 3.6 210 18:42 13.12.2020
1248 Clouds 4 1008 65 3013 3.6 210 18:20 13.12.2020
1249 Clouds 5 1008 75 2009 3.6 210 17:47 13.12.2020
1250 Clouds 5 1008 75 2009 3.6 210 17:21 13.12.2020
1251 Clouds 7 1008 70 1013 3.6 210 16:56 13.12.2020
1252 Clouds 7 1008 70 1013 3.6 210 16:56 13.12.2020
1253 Clouds 7 1008 70 1013 3.6 210 16:38 13.12.2020
1254 Clouds 7 1007 70 1013 3.6 210 16:19 13.12.2020
1255 Clouds 8 1007 81 10000 3.1 210 15:40 13.12.2020
1256 Clouds 7 1007 81 10000 3.1 210 15:22 13.12.2020
1257 Clouds 7 1007 75 10000 2.6 210 14:44 13.12.2020
1258 Rain 6 1006 75 10000 2.6 210 14:21 13.12.2020
1259 Clouds 6 1006 87 5005 2.6 190 13:43 13.12.2020
1260 Clouds 6 1006 87 5005 2.6 190 13:25 13.12.2020
1261 Clouds 6 1006 93 8011 1 180 12:49 13.12.2020
1262 Clouds 5 1006 93 8011 1 180 12:23 13.12.2020
1263 Clouds 5 1006 93 6016 1.5 200 11:42 13.12.2020
1264 Clouds 4 1007 93 8013 1 190 10:56 13.12.2020
1265 Clouds 4 1007 93 8013 1 190 10:38 13.12.2020
1266 Rain 4 1007 93 10000 1 180 09:57 13.12.2020
1267 Clouds 4 1008 93 10000 1 180 09:27 13.12.2020
1268 Clouds 4 1008 93 10000 1 200 08:35 13.12.2020
1269 Rain 4 1008 87 7025 1.5 210 07:51 13.12.2020
1270 Clouds 2 1010 93 8031 1 360 04:48 13.12.2020
1271 Rain 2 1012 93 8032 2.1 20 02:42 13.12.2020
1272 Clouds 2 1012 93 10000 2.6 10 01:58 13.12.2020
1273 Snow 2 1014 91 10000 2.6 10 00:51 13.12.2020
1274 Snow 2 1014 91 10000 2.6 10 00:51 13.12.2020
1275 Snow 1 1015 91 10000 2.6 10 00:28 13.12.2020
1276 Snow 1 1015 86 10000 3.6 10 23:32 12.12.2020
1277 Snow 1 1016 86 10000 2.6 30 22:53 12.12.2020
1278 Snow 1 1017 86 10000 2.6 30 22:20 12.12.2020
1279 Snow 1 1017 80 10000 3.6 20 21:42 12.12.2020
1280 Snow 1 1018 80 10000 3.6 20 21:18 12.12.2020
1281 Snow 1 1018 80 10000 2.6 30 20:36 12.12.2020
1282 Clouds 1 1018 80 10000 2.6 30 20:18 12.12.2020
1283 Clouds 1 1018 80 10000 3.1 20 19:46 12.12.2020
1284 Clouds 1 1020 80 10000 3.1 20 19:27 12.12.2020
1285 Clouds 0 1020 90 10000 3.1 20 18:45 12.12.2020
1286 Clouds 0 1021 90 10000 3.1 20 18:27 12.12.2020
1287 Clouds 0 1021 90 10000 3.1 30 17:47 12.12.2020
1288 Clouds 0 1022 91 10000 3.1 30 17:28 12.12.2020
1289 Clouds 1 1023 74 10000 3.1 30 16:21 12.12.2020
1290 Clouds 1 1023 80 10000 2.6 30 15:50 12.12.2020
1291 Clouds 1 1023 80 10000 2.6 30 15:31 12.12.2020
1292 Clouds 0 1024 92 10000 3.1 30 14:49 12.12.2020
1293 Clouds 1 1024 80 10000 3.1 30 13:57 12.12.2020
1294 Clouds 1 1024 80 10000 3.1 30 13:38 12.12.2020
1295 Clouds 1 1024 80 10000 3.1 30 13:19 12.12.2020
1296 Clouds 1 1024 80 10000 2.1 50 12:29 12.12.2020
1297 Clouds 1 1023 86 10000 2.6 40 10:55 12.12.2020
1298 Clouds 1 1023 80 10000 2.6 40 09:50 12.12.2020
1299 Clouds 1 1023 80 10000 2.1 20 08:57 12.12.2020
1300 Clouds 2 1020 80 10000 2.1 30 03:33 12.12.2020
1301 Clouds 3 1018 92 10000 1 360 00:28 12.12.2020
1302 Clouds 3 1018 91 10000 1.02 215 22:47 11.12.2020
1303 Clouds 4 1017 65 10000 0.5 210 20:52 11.12.2020
1304 Clouds 4 1016 69 10000 1.5 180 18:56 11.12.2020
1305 Clouds 3 1017 74 8010 1.5 210 16:45 11.12.2020
1306 Clouds 1 1019 80 5003 2.1 180 14:19 11.12.2020
1307 Clouds 1 1019 86 6013 1.5 180 13:25 11.12.2020
1308 Clouds 1 1019 86 6020 1 200 12:21 11.12.2020
1309 Clouds 0 1019 80 8021 1.5 200 11:52 11.12.2020
1310 Clouds 0 1019 96 8014 1 200 10:56 11.12.2020
1311 Clouds 0 1019 97 8007 1 190 09:58 11.12.2020
1312 Clouds -1 1021 95 5000 1 180 06:26 11.12.2020
1313 Clouds -1 1021 95 8004 1.5 210 05:20 11.12.2020
1314 Clouds -1 1021 74 1008 0.5 150 02:40 11.12.2020
1315 Clouds 0 1021 95 1025 0.5 240 00:40 11.12.2020
1316 Clouds 0 1019 69 3026 1 270 23:25 10.12.2020
1317 Clouds 1 1018 69 2016 1 110 21:37 10.12.2020
1318 Clouds 1 1018 69 3013 0.5 280 20:50 10.12.2020
1319 Clouds 2 1017 74 3012 1 350 19:53 10.12.2020
1320 Clear 2 1016 74 3012 1 350 19:21 10.12.2020
1321 Clear 2 1017 74 1020 1 70 18:45 10.12.2020
1322 Clear 2 1016 86 1028 1 110 17:23 10.12.2020
1323 Clear 1 1015 74 2037 1 120 15:58 10.12.2020
1324 Clear 1 1014 74 2037 1 120 15:19 10.12.2020
1325 Clear 0 1014 80 3037 1.5 200 14:42 10.12.2020
1326 Clouds 0 1012 80 3032 1 130 13:26 10.12.2020
1327 Clouds 0 1010 80 1028 1 200 11:53 10.12.2020
1328 Clouds 0 1009 86 1028 1 200 10:46 10.12.2020
1329 Snow 0 1007 96 3018 1 220 08:20 10.12.2020
1330 Clouds 0 1006 95 3012 1.5 230 07:26 10.12.2020
1331 Clouds -1 1005 97 3009 1 230 05:34 10.12.2020
1332 Snow -1 1005 98 3009 1 200 02:31 10.12.2020
1333 Clouds -1 1005 97 1014 1.5 200 01:32 10.12.2020
1334 Snow 0 1004 99 3015 1.5 190 23:42 09.12.2020
1335 Snow -1 1002 92 6013 1.5 190 20:39 09.12.2020
1336 Snow -1 1002 92 6019 1.5 180 19:46 09.12.2020
1337 Snow -1 1002 86 8018 2.1 190 18:36 09.12.2020
1338 Snow -2 1003 92 8017 2.1 210 17:19 09.12.2020
1339 Snow -2 1003 86 7013 1.5 210 16:40 09.12.2020
1340 Snow -2 1004 86 7013 1.5 210 16:20 09.12.2020
1341 Snow -3 1005 92 6012 1.5 200 14:51 09.12.2020
1342 Snow -3 1005 92 6012 1.5 200 14:26 09.12.2020
1343 Snow -4 1005 85 6013 1 200 13:36 09.12.2020
1344 Snow -4 1005 85 6013 1 200 13:18 09.12.2020
1345 Snow -4 1005 73 154 1.5 190 12:31 09.12.2020
1346 Clouds -5 1005 73 6107 1.5 190 11:37 09.12.2020
1347 Clouds -6 1006 85 10000 1 230 09:51 09.12.2020
1348 Clouds -6 1006 79 10000 1 200 08:40 09.12.2020
1349 Clouds -6 1007 85 10000 1.5 180 06:50 09.12.2020
1350 Clouds -6 1008 79 10000 1 210 05:28 09.12.2020
1351 Clouds -5 1010 79 10000 1.5 200 02:43 09.12.2020
1352 Clouds -5 1010 79 10000 1 230 00:42 09.12.2020
1353 Clouds -4 1009 79 10000 1 210 23:35 08.12.2020
1354 Clouds -4 1008 68 10000 1.5 270 22:26 08.12.2020
1355 Clouds -4 1007 68 10000 0.5 280 20:47 08.12.2020
1356 Clouds -4 1008 68 10000 1 330 19:31 08.12.2020
1357 Clouds -4 1008 73 10000 1.5 320 18:38 08.12.2020
1358 Clouds -4 1009 67 10000 2.1 20 17:20 08.12.2020
1359 Clouds -5 1010 73 10000 2.1 20 15:25 08.12.2020
1360 Clouds -5 1011 68 10000 2.6 10 13:53 08.12.2020
1361 Clouds -5 1010 68 10000 2.1 20 12:54 08.12.2020
1362 Clouds -5 1010 68 10000 2.1 20 12:20 08.12.2020
1363 Clear -4 1009 73 10000 2.6 10 11:27 08.12.2020
1364 Clear -4 1009 68 10000 2.6 10 10:41 08.12.2020
1365 Clear -4 1009 68 10000 2.1 20 09:46 08.12.2020
1366 Clear -4 1010 68 10000 3.6 20 07:47 08.12.2020
1367 Clouds -5 1010 73 10000 3.1 20 06:33 08.12.2020
1368 Clouds -4 1010 68 10000 2.1 340 02:59 08.12.2020
1369 Clouds -3 1009 63 10000 1.5 350 00:45 08.12.2020
1370 Clouds -3 1009 63 10000 1.5 10 23:50 07.12.2020
1371 Clouds -3 1009 63 10000 2.1 340 22:32 07.12.2020
1372 Clouds -3 1009 63 10000 2.1 20 21:48 07.12.2020
1373 Clouds -3 1009 63 10000 2.6 340 19:45 07.12.2020
1374 Clouds -3 1009 63 10000 1.5 360 18:20 07.12.2020
1375 Clouds -3 1009 68 10000 2.6 340 17:26 07.12.2020
1376 Clouds -4 1009 62 10000 2.6 330 16:48 07.12.2020
1377 Clouds -4 1010 62 10000 2.1 10 15:26 07.12.2020
1378 Clouds -4 1010 67 10000 2.1 360 14:41 07.12.2020
1379 Clouds -5 1010 67 10000 2.1 10 13:43 07.12.2020
1380 Clouds -4 1009 62 10000 1 330 12:35 07.12.2020
1381 Clouds -4 1009 68 10000 2.1 350 11:43 07.12.2020
1382 Clouds -4 1009 62 10000 2.6 350 10:44 07.12.2020
1383 Clouds -3 1009 62 10000 1.5 340 09:40 07.12.2020
1384 Clouds -3 1008 63 10000 1.5 340 07:58 07.12.2020
1385 Clouds -3 1008 68 10000 1 340 05:43 07.12.2020
1386 Clouds -3 1008 68 10000 0.5 220 04:48 07.12.2020
1387 Clouds -3 1008 68 10000 1 140 01:48 07.12.2020
1388 Clouds -2 1007 63 10000 1 340 23:32 06.12.2020
1389 Clouds -2 1007 63 10000 1 190 22:19 06.12.2020
1390 Clouds -1 1006 63 10000 0.5 350 20:53 06.12.2020
1391 Clouds -1 1006 63 10000 0.5 350 20:34 06.12.2020
1392 Clouds -1 1006 58 10000 1.5 10 19:45 06.12.2020
1393 Clouds -1 1007 58 10000 3.1 360 18:18 06.12.2020
1394 Clouds -2 1008 63 10000 3.1 10 16:44 06.12.2020
1395 Clouds -3 1008 63 10000 2.1 360 14:52 06.12.2020
1396 Clouds -4 1008 68 10000 2.1 360 13:42 06.12.2020
1397 Clouds -4 1008 68 10000 2.6 360 12:42 06.12.2020
1398 Clouds -3 1009 68 10000 2.6 340 11:57 06.12.2020
1399 Clouds -3 1009 68 10000 2.6 340 11:32 06.12.2020
1400 Clouds -3 1009 68 10000 3.1 360 10:45 06.12.2020
1401 Clouds -3 1009 68 10000 2.6 360 09:49 06.12.2020
1402 Clouds -3 1009 73 10000 3.1 360 08:29 06.12.2020
1403 Clouds -3 1009 68 10000 4.1 20 05:51 06.12.2020
1404 Clouds -1 1011 87 10000 4.6 20 00:58 06.12.2020
1405 Clouds 0 1011 87 10000 4.6 20 00:39 06.12.2020
1406 Clouds 0 1011 84 10000 4.6 20 00:21 06.12.2020
1407 Clouds 2 1011 74 10000 4.6 20 22:43 05.12.2020
1408 Clouds 2 1011 74 10000 4.6 20 22:20 05.12.2020
1409 Clouds 2 1011 69 10000 4.1 20 21:47 05.12.2020
1410 Clouds 3 1011 69 10000 4.1 20 21:23 05.12.2020
1411 Clouds 3 1012 78 10000 2.6 30 19:21 05.12.2020
1412 Clouds 3 1012 78 10000 2.6 30 19:21 05.12.2020
1413 Clouds 3 1011 78 10000 3.6 10 18:39 05.12.2020
1414 Clouds 2 1012 80 10000 3.6 20 17:29 05.12.2020
1415 Clouds 1 1012 86 10000 3.1 30 16:30 05.12.2020
1416 Clouds 1 1014 83 10000 3.1 20 15:47 05.12.2020
1417 Clouds 1 1014 86 10000 2.6 10 14:26 05.12.2020
1418 Clouds 1 1013 100 3006 2.6 20 12:20 05.12.2020
1419 Clouds 1 1013 80 3004 1.5 20 11:40 05.12.2020
1420 Clouds 1 1013 88 1 1.5 360 10:31 05.12.2020
1421 Clouds 2 1012 93 1010 0.5 210 07:48 05.12.2020
1422 Clouds 2 1012 93 1010 0.5 320 06:40 05.12.2020
1423 Clouds 3 1011 93 3003 1.5 210 03:54 05.12.2020
1424 Rain 3 1011 93 50 1.5 210 23:52 04.12.2020
1425 Rain 3 1011 93 5000 1.5 200 22:24 04.12.2020
1426 Clouds 3 1011 86 6003 2.6 210 20:25 04.12.2020
1427 Clouds 4 1010 93 8007 2.1 210 18:53 04.12.2020
1428 Clouds 4 1011 91 8007 2.1 210 18:19 04.12.2020
1429 Clouds 3 1011 87 8005 1.5 210 17:29 04.12.2020
1430 Clouds 3 1012 83 1 2.1 200 15:39 04.12.2020
1431 Clouds 2 1011 93 5003 2.1 180 13:40 04.12.2020
1432 Clouds 2 1012 93 5003 2.1 180 13:22 04.12.2020
1433 Snow 2 1012 93 8004 2.1 190 12:51 04.12.2020
1434 Rain 3 1012 64 6732 2.6 210 10:41 04.12.2020
1435 Clouds 3 1012 86 490 2.6 200 09:55 04.12.2020
1436 Clouds 4 1013 69 133 1.5 200 07:20 04.12.2020
1437 Clouds 4 1013 94 173 2.1 200 06:39 04.12.2020
1438 Clouds 4 1014 75 10000 1.5 210 02:25 04.12.2020
1439 Clouds 5 1013 71 10000 2.1 200 23:21 03.12.2020
1440 Clouds 5 1013 75 10000 3.1 210 22:45 03.12.2020
1441 Clouds 5 1013 65 10000 3.6 200 20:49 03.12.2020
1442 Clouds 5 1013 65 10000 3.1 210 19:37 03.12.2020
1443 Clouds 5 1014 65 10000 3.1 210 19:18 03.12.2020
1444 Clouds 5 1014 67 10000 3.6 200 18:34 03.12.2020
1445 Clouds 4 1014 69 10000 2.6 200 17:20 03.12.2020
1446 Clouds 2 1014 80 10000 2.1 200 15:58 03.12.2020
1447 Clouds 2 1014 80 10000 2.1 200 15:31 03.12.2020
1448 Clouds 1 1015 76 10000 2.1 210 14:48 03.12.2020
1449 Clouds 0 1015 80 10000 1.5 190 13:49 03.12.2020
1450 Clouds 0 1015 74 10000 1.5 210 12:33 03.12.2020
1451 Clear -1 1014 79 10000 1.5 190 11:49 03.12.2020
1452 Clear -2 1014 74 10000 2.1 190 10:36 03.12.2020
1453 Clear -2 1013 68 10000 1.5 200 08:21 03.12.2020
1454 Clouds -1 1012 68 1019 2.1 220 03:41 03.12.2020
1455 Snow -1 1010 74 10000 8.7 250 01:39 03.12.2020
1456 Clouds -1 1009 80 10000 6.7 240 23:51 02.12.2020
1457 Clouds 0 1010 87 2019 1.5 220 22:41 02.12.2020
1458 Clouds 1 1009 69 3013 2.1 210 21:37 02.12.2020
1459 Clouds 1 1008 86 3009 1.5 270 20:49 02.12.2020
1460 Clouds 1 1008 86 3009 1.5 270 20:30 02.12.2020
1461 Clouds 2 1007 74 1006 2.6 210 19:39 02.12.2020
1462 Clouds 3 1006 69 10000 3.1 210 17:48 02.12.2020
1463 Clouds 3 1006 69 8452 3.1 210 17:29 02.12.2020
1464 Clouds 3 1007 74 9557 2.1 180 15:43 02.12.2020
1465 Clouds 3 1005 77 10000 2.1 200 13:26 02.12.2020
1466 Clouds 3 1004 86 10000 1.5 170 11:30 02.12.2020
1467 Rain 3 1003 80 10000 1.5 200 10:24 02.12.2020
1468 Clouds 3 1002 73 10000 2.1 200 07:42 02.12.2020
1469 Clouds 8 995 87 8004 0.5 270 23:30 01.12.2020
1470 Rain 9 994 87 3001 1 20 22:20 01.12.2020
1471 Clouds 9 993 100 8016 2.6 10 19:37 01.12.2020
1472 Clouds 9 993 100 8016 2.6 10 19:36 01.12.2020
1473 Clouds 10 994 100 8016 2.6 10 18:56 01.12.2020
1474 Clouds 8 995 100 6004 3.1 10 16:48 01.12.2020
1475 Clouds 7 997 100 9 1.5 10 14:53 01.12.2020
1476 Mist 7 996 100 3219 2.6 230 12:48 01.12.2020
1477 Mist 6 996 100 2012 0.93 57 11:41 01.12.2020
1478 Clouds 6 996 100 1008 1.5 10 10:54 01.12.2020
1479 Clouds 6 995 100 1008 1.5 10 10:31 01.12.2020
1480 Rain 6 995 100 8003 2.1 20 07:47 01.12.2020
1481 Clouds 6 994 100 6002 1.5 20 06:25 01.12.2020
1482 Clouds 6 996 93 6073 2.6 20 01:36 01.12.2020
1483 Clouds 6 997 93 6073 2.6 20 00:50 01.12.2020
1484 Rain 5 1003 93 8074 3.6 40 23:20 30.11.2020
1485 Rain 5 1003 93 8055 3.1 30 22:42 30.11.2020
1486 Rain 5 1005 93 8055 3.1 30 22:22 30.11.2020
1487 Rain 4 1007 86 6029 2.1 30 20:34 30.11.2020
1488 Rain 6 1009 79 5191 1.5 80 19:41 30.11.2020
1489 Clouds 8 1012 52 10000 1.5 160 18:22 30.11.2020
1490 Clouds 7 1012 56 10000 2.1 160 17:46 30.11.2020
1491 Clouds 6 1013 60 10000 2.1 200 16:54 30.11.2020
1492 Clouds 4 1013 60 10000 2.1 180 15:45 30.11.2020
1493 Clouds 3 1014 60 10000 2.1 200 14:21 30.11.2020
1494 Clouds 3 1014 60 10000 2.1 210 13:41 30.11.2020
1495 Clouds 3 1014 74 10000 2.6 120 12:26 30.11.2020
1496 Clouds 3 1014 69 10000 1.5 210 11:57 30.11.2020
1497 Clouds 3 1015 69 10000 1.5 220 10:25 30.11.2020
1498 Clouds 2 1015 74 10000 2.1 130 09:35 30.11.2020
1499 Clouds 3 1016 80 10000 1.5 150 06:48 30.11.2020
1500 Clouds 5 1017 70 10000 0.5 170 23:29 29.11.2020
1501 Clouds 7 1016 65 10000 2.6 210 21:47 29.11.2020
1502 Clouds 7 1016 65 10000 2.6 210 21:47 29.11.2020
1503 Clouds 7 1016 65 10000 2.6 210 21:28 29.11.2020
1504 Clouds 8 1016 65 10000 2.1 240 19:46 29.11.2020
1505 Clouds 6 1016 70 10000 1 190 17:47 29.11.2020
1506 Clouds 4 1016 80 10000 1.5 200 14:54 29.11.2020
1507 Clouds 4 1016 80 10000 1.5 220 12:58 29.11.2020
1508 Clouds 4 1015 79 10000 2.1 210 11:41 29.11.2020
1509 Clouds 4 1015 65 10000 1.5 190 09:42 29.11.2020
1510 Clouds 4 1015 65 10000 1 200 08:37 29.11.2020
1511 Clouds 5 1013 76 10000 5.7 240 04:40 29.11.2020
1512 Clouds 4 1013 80 10000 1.5 190 23:19 28.11.2020
1513 Clouds 4 1013 80 10000 1 290 22:55 28.11.2020
1514 Clouds 6 1012 75 10000 1.5 270 20:44 28.11.2020
1515 Clouds 6 1012 81 10000 1.5 200 19:47 28.11.2020
1516 Clouds 6 1012 81 10000 1.5 200 19:21 28.11.2020
1517 Clouds 5 1011 80 10000 1 260 18:27 28.11.2020
1518 Clouds 5 1011 86 10000 1.5 250 17:41 28.11.2020
1519 Clouds 5 1012 86 10000 2.1 270 16:40 28.11.2020
1520 Clouds 3 1012 93 10000 1.5 290 14:52 28.11.2020
1521 Clouds 4 1012 93 10000 1.5 290 11:31 28.11.2020
1522 Mist 4 1011 100 6437 3.1 230 10:36 28.11.2020
1523 Clouds 4 1013 93 8007 0.5 240 06:36 28.11.2020
1524 Clouds 5 1015 86 10000 0.5 290 03:26 28.11.2020
1525 Clouds 6 1016 81 10000 0.5 250 01:34 28.11.2020
1526 Clouds 6 1016 81 10000 0.5 220 22:55 27.11.2020
1527 Clouds 6 1016 81 10000 0.5 280 21:33 27.11.2020
1528 Clouds 6 1016 75 10000 1 260 20:31 27.11.2020
1529 Clouds 6 1016 75 10000 1.5 280 19:25 27.11.2020
1530 Clouds 6 1017 87 8011 1 240 18:44 27.11.2020
1531 Clouds 4 1019 86 1006 1.5 290 14:47 27.11.2020
1532 Mist 3 1018 93 4023 2.1 230 13:26 27.11.2020
1533 Mist 3 1017 100 4023 3.1 220 12:47 27.11.2020
1534 Clouds 3 1017 93 3015 1 220 11:49 27.11.2020
1535 Clouds 3 1016 93 1014 1 220 10:50 27.11.2020
1536 Clouds 4 1016 93 1014 1 220 10:19 27.11.2020
1537 Clouds 2 1016 94 941 1.34 319 07:29 27.11.2020
1538 Clouds 2 1013 95 103 1.34 18 22:29 26.11.2020
1539 Clouds 2 1013 95 103 1.34 17 21:57 26.11.2020
1540 Rain 2 1013 100 6010 2.1 20 21:25 26.11.2020
1541 Rain 2 1013 93 6022 3.1 10 19:24 26.11.2020
1542 Clouds 2 1013 93 8022 2.1 10 18:30 26.11.2020
1543 Rain 1 1016 93 8007 2.1 360 16:32 26.11.2020
1544 Clouds 1 1017 100 8021 1.5 360 13:43 26.11.2020
1545 Clouds 1 1017 98 6020 1.5 360 12:45 26.11.2020
1546 Clouds 1 1017 98 6020 1.5 360 12:23 26.11.2020
1547 Snow 0 1018 98 8022 2.1 10 10:38 26.11.2020
1548 Snow 0 1018 98 8016 2.1 10 09:49 26.11.2020
1549 Snow 0 1018 98 8016 2.1 10 09:31 26.11.2020
1550 Snow 0 1019 98 6010 2.1 10 08:40 26.11.2020
1551 Clouds -1 1021 96 8011 2.1 10 06:56 26.11.2020
1552 Clouds -1 1022 92 3006 2.1 10 00:46 26.11.2020
1553 Clouds 0 1021 86 6002 2.1 20 21:36 25.11.2020
1554 Clouds 1 1022 86 6014 1 220 20:19 25.11.2020
1555 Clouds 0 1022 95 8028 2.1 190 18:58 25.11.2020
1556 Snow -2 1023 92 8027 1.5 200 17:24 25.11.2020
1557 Snow -4 1024 92 6030 1.5 170 15:42 25.11.2020
1558 Snow -4 1025 85 8025 1.5 150 14:42 25.11.2020
1559 Snow -5 1026 92 8022 1 120 13:44 25.11.2020
1560 Clouds -4 1027 62 6019 2.1 120 12:30 25.11.2020
1561 Clouds -5 1028 73 8016 1.5 90 11:21 25.11.2020
1562 Clouds -5 1029 67 6019 2.1 130 09:20 25.11.2020
1563 Clouds -5 1029 67 8019 1 160 08:49 25.11.2020
1564 Clouds -5 1030 67 6009 1 130 06:59 25.11.2020
1565 Clouds -5 1032 57 2001 1.5 50 03:49 25.11.2020
1566 Clouds -4 1032 53 1012 1 80 01:34 25.11.2020
1567 Clouds -4 1032 53 1016 2.1 120 00:18 25.11.2020
1568 Clouds -4 1032 58 3016 1 290 23:35 24.11.2020
1569 Clouds -4 1032 49 3011 1.5 330 22:38 24.11.2020
1570 Clear -3 1031 45 1008 2.1 350 21:34 24.11.2020
1571 Clear -3 1030 42 1008 2.1 360 20:55 24.11.2020
1572 Clear -3 1030 45 3004 2.1 20 19:48 24.11.2020
1573 Clear -4 1029 53 12 2.6 360 17:32 24.11.2020
1574 Clear -4 1029 53 1029 3.1 360 16:58 24.11.2020
1575 Clear -4 1029 53 1029 3.1 360 16:37 24.11.2020
1576 Clear -4 1029 62 1036 2.6 340 15:56 24.11.2020
1577 Clear -4 1028 62 1036 2.6 340 15:19 24.11.2020
1578 Clear -5 1028 57 1042 2.6 10 14:44 24.11.2020
1579 Clear -4 1027 62 1042 3.1 10 13:34 24.11.2020
1580 Clouds -3 1026 58 3039 3.6 360 12:39 24.11.2020
1581 Clouds -2 1025 63 3032 2.6 350 11:59 24.11.2020
1582 Clouds -2 1023 63 3032 2.6 350 11:24 24.11.2020
1583 Clouds -2 1022 63 10000 7.2 340 10:25 24.11.2020
1584 Clouds -1 1022 91 3023 2.6 10 09:39 24.11.2020
1585 Clouds 0 1021 91 3023 1.5 10 08:59 24.11.2020
1586 Clouds 1 1018 69 3004 1.5 20 06:20 24.11.2020
1587 Clouds 1 1015 69 1033 1 90 01:00 24.11.2020
1588 Clouds 1 1013 69 3020 1.5 110 22:24 23.11.2020
1589 Clouds 1 1013 74 3014 1.5 20 21:32 23.11.2020
1590 Clouds 1 1013 74 3009 1.5 190 20:32 23.11.2020
1591 Clouds 1 1012 80 1017 1.5 220 19:59 23.11.2020
1592 Clouds 1 1011 86 3024 2.6 190 17:58 23.11.2020
1593 Clouds 1 1010 86 3024 2.6 190 17:19 23.11.2020
1594 Clouds 1 1010 93 3013 3.1 220 15:44 23.11.2020
1595 Clouds 4 1010 100 5009 2.1 190 14:46 23.11.2020
1596 Clouds 4 1009 93 6037 1.5 200 12:42 23.11.2020
1597 Rain 3 1009 93 6037 1.5 200 12:21 23.11.2020
1598 Rain 3 1009 93 6041 1.5 200 11:43 23.11.2020
1599 Rain 2 1009 93 8049 1.5 180 10:45 23.11.2020
1600 Rain 2 1012 93 6049 0.5 110 09:31 23.11.2020
1601 Rain 1 1012 93 6047 1.5 100 08:39 23.11.2020
1602 Rain 0 1016 97 6048 1 110 06:57 23.11.2020
1603 Rain -1 1027 92 8024 1.5 50 00:23 23.11.2020
1604 Snow 0 1028 85 10000 2.1 160 22:46 22.11.2020
1605 Clouds 1 1028 59 5164 2.1 110 21:40 22.11.2020
1606 Clouds 1 1029 55 6544 1.5 110 20:51 22.11.2020
1607 Clouds 1 1030 55 10000 1.5 40 19:52 22.11.2020
1608 Clouds 1 1031 70 10000 1 90 18:40 22.11.2020
1609 Clouds -1 1033 63 10000 1.5 40 16:51 22.11.2020
1610 Clouds -2 1034 74 10000 1.5 40 15:33 22.11.2020
1611 Clouds -4 1035 86 10000 1.5 10 14:29 22.11.2020
1612 Clouds -5 1035 79 10000 1.5 360 12:49 22.11.2020
1613 Clouds -5 1035 68 10000 1 350 11:56 22.11.2020
1614 Clouds -4 1035 68 10000 1 350 11:20 22.11.2020
1615 Clouds -4 1035 68 10000 1.5 360 10:44 22.11.2020
1616 Clear -3 1035 58 10000 1.5 10 08:51 22.11.2020
1617 Clouds 1 1034 47 10000 2.6 20 01:48 22.11.2020
1618 Clear 3 1033 41 10000 1.5 300 23:39 21.11.2020
1619 Clear 4 1030 44 10000 2.1 10 21:57 21.11.2020
1620 Clear 4 1029 44 10000 2.1 10 21:24 21.11.2020
1621 Clear 5 1029 44 10000 2.1 360 20:34 21.11.2020
1622 Clear 5 1029 44 10000 2.6 340 19:54 21.11.2020
1623 Clouds 5 1029 44 10000 2.6 340 19:27 21.11.2020
1624 Clouds 5 1029 44 10000 3.1 10 18:27 21.11.2020
1625 Clouds 5 1029 51 10000 2.1 350 16:49 21.11.2020
1626 Clouds 5 1029 51 10000 2.1 350 16:49 21.11.2020
1627 Clouds 5 1028 51 10000 2.1 350 16:26 21.11.2020
1628 Clouds 5 1028 60 10000 3.6 10 15:22 21.11.2020
1629 Clouds 5 1028 56 10000 1.5 360 14:43 21.11.2020
1630 Clouds 5 1028 56 10000 1.5 360 14:21 21.11.2020
1631 Clouds 6 1025 56 10000 2.1 10 12:29 21.11.2020
1632 Clouds 6 1025 52 10000 1 350 11:58 21.11.2020
1633 Clouds 7 1023 67 10000 1 140 10:41 21.11.2020
1634 Clear 7 1022 65 10000 1 180 09:59 21.11.2020
1635 Clear 8 1021 70 10000 2.1 190 08:51 21.11.2020
1636 Clear 10 1020 66 10000 2.1 190 06:34 21.11.2020
1637 Clear 11 1019 58 10000 2.6 190 04:33 21.11.2020
1638 Clouds 13 1017 54 10000 2.6 200 01:21 21.11.2020
1639 Clouds 14 1016 44 10000 2.6 190 23:55 20.11.2020
1640 Clouds 12 1016 38 10000 2.6 210 22:25 20.11.2020
1641 Clouds 13 1016 38 10000 3.1 200 21:41 20.11.2020
1642 Clouds 13 1016 38 10000 3.1 200 21:41 20.11.2020
1643 Clouds 13 1016 38 10000 3.1 200 21:20 20.11.2020
1644 Clouds 11 1016 53 10000 0.5 340 19:46 20.11.2020
1645 Clouds 11 1017 50 10000 1 190 18:38 20.11.2020
1646 Clouds 11 1018 57 10000 1.5 200 17:52 20.11.2020
1647 Clouds 10 1018 57 10000 1.5 200 17:24 20.11.2020
1648 Clouds 9 1018 57 10000 1.5 200 16:38 20.11.2020
1649 Clouds 7 1018 80 10000 2.1 210 15:57 20.11.2020
1650 Clouds 6 1019 83 10000 2.1 210 15:26 20.11.2020
1651 Clouds 5 1019 60 3004 1.5 210 13:46 20.11.2020
1652 Clouds 5 1019 60 3004 1.5 210 13:18 20.11.2020
1653 Clouds 5 1019 60 3 1.5 210 12:36 20.11.2020
1654 Clouds 5 1018 56 3004 1.5 210 11:45 20.11.2020
1655 Clouds 4 1018 56 3004 1.5 210 11:19 20.11.2020
1656 Clouds 4 1018 60 6003 1.5 210 09:30 20.11.2020
1657 Clouds 4 1018 64 10000 1 220 08:26 20.11.2020
1658 Clouds 3 1018 64 10000 2.1 220 07:33 20.11.2020
1659 Clouds 2 1019 60 10000 2.1 220 03:44 20.11.2020
1660 Clouds 3 1020 55 10000 2.6 200 22:47 19.11.2020
1661 Clouds 3 1020 55 10000 2.6 200 22:26 19.11.2020
1662 Clouds 3 1020 59 10000 2.1 200 21:46 19.11.2020
1663 Clouds 3 1020 55 10000 2.1 190 20:33 19.11.2020
1664 Clouds 2 1021 59 10000 2.6 180 19:54 19.11.2020
1665 Clouds 2 1021 59 10000 2.6 180 19:25 19.11.2020
1666 Clouds 0 1023 77 10000 2.6 200 17:46 19.11.2020
1667 Clouds -1 1025 74 10000 2.6 190 16:59 19.11.2020
1668 Clouds -2 1026 74 10000 3.1 190 15:59 19.11.2020
1669 Clouds -2 1027 74 10000 3.1 190 15:28 19.11.2020
1670 Clouds -3 1028 63 10000 2.6 190 13:47 19.11.2020
1671 Snow -3 1029 63 5116 2.6 190 13:24 19.11.2020
1672 Clouds -4 1029 62 8904 3.1 180 12:51 19.11.2020
1673 Clouds -4 1030 62 5967 3.1 180 12:25 19.11.2020
1674 Clouds -4 1030 62 5967 2.1 170 11:40 19.11.2020
1675 Clouds -4 1031 58 10000 1.5 180 10:59 19.11.2020
1676 Clouds -5 1031 58 10000 1.5 180 10:28 19.11.2020
1677 Clouds -5 1031 62 10000 2.1 170 09:45 19.11.2020
1678 Clouds -5 1032 62 10000 2.1 170 09:25 19.11.2020
1679 Clouds -5 1033 57 10000 1.5 210 08:20 19.11.2020
1680 Clouds -5 1033 53 10000 1.5 210 06:49 19.11.2020
1681 Clear -5 1033 53 10000 0.5 270 01:46 19.11.2020
1682 Clear -4 1033 49 10000 1 300 00:29 19.11.2020
1683 Clear -4 1033 45 10000 0.5 40 23:30 18.11.2020
1684 Clear -4 1032 45 10000 1.5 290 22:40 18.11.2020
1685 Clear -4 1031 45 10000 1.5 290 22:21 18.11.2020
1686 Clear -4 1031 41 10000 1 260 21:40 18.11.2020
1687 Clear -4 1031 41 10000 1 260 21:20 18.11.2020
1688 Clear -3 1031 41 10000 2.6 360 19:54 18.11.2020
1689 Clear -3 1031 41 10000 2.6 360 19:35 18.11.2020
1690 Clouds -3 1030 41 10000 2.1 10 18:57 18.11.2020
1691 Clear -3 1030 41 10000 2.1 10 18:38 18.11.2020
1692 Clear -3 1029 41 10000 2.1 30 17:38 18.11.2020
1693 Clouds -4 1031 41 10000 4.6 290 16:25 18.11.2020
1694 Clear -4 1030 45 10000 2.6 350 15:57 18.11.2020
1695 Clear -5 1030 49 10000 3.1 350 14:41 18.11.2020
1696 Clear -5 1029 57 10000 2.6 10 13:46 18.11.2020
1697 Clouds -5 1028 57 10000 2.6 10 13:21 18.11.2020
1698 Clouds -6 1028 62 10000 1 10 12:42 18.11.2020
1699 Clouds -6 1027 57 10000 1 350 11:41 18.11.2020
1700 Clouds -6 1026 57 10000 2.1 10 10:54 18.11.2020
1701 Clouds -6 1025 57 10000 2.1 10 10:27 18.11.2020
1702 Clear -5 1023 57 10000 2.6 10 08:23 18.11.2020
1703 Clouds -5 1021 57 10000 2.6 360 06:36 18.11.2020
1704 Clear -2 1018 46 10000 3.1 350 01:49 18.11.2020
1705 Clouds 0 1016 50 10000 2.6 360 23:53 17.11.2020
1706 Clouds 1 1015 50 10000 1.5 20 22:53 17.11.2020
1707 Clouds 1 1014 50 10000 1.5 20 22:29 17.11.2020
1708 Clouds 1 1014 55 10000 1.5 10 21:52 17.11.2020
1709 Clouds 1 1014 55 10000 1.5 10 21:31 17.11.2020
1710 Clouds 2 1012 59 10000 2.6 360 20:55 17.11.2020
1711 Clouds 2 1012 59 10000 2.6 360 20:27 17.11.2020
1712 Clouds 2 1012 59 10000 2.1 360 19:59 17.11.2020
1713 Clouds 2 1012 55 10000 2.6 310 18:35 17.11.2020
1714 Clouds 3 1012 59 10000 1.5 250 17:44 17.11.2020
1715 Clouds 2 1012 59 10000 1 280 16:55 17.11.2020
1716 Clouds 2 1012 59 10000 1 280 16:20 17.11.2020
1717 Clouds 2 1012 55 10000 1.5 250 15:42 17.11.2020
1718 Clouds 2 1012 55 10000 1.5 250 15:23 17.11.2020
1719 Clouds 1 1012 64 10000 0.5 300 14:56 17.11.2020
1720 Clouds 1 1011 64 10000 0.5 300 14:28 17.11.2020
1721 Clouds 1 1011 64 10000 1 230 13:38 17.11.2020
1722 Clouds 0 1011 64 10000 0.5 260 12:57 17.11.2020
1723 Clouds 0 1011 64 10000 0.5 260 12:38 17.11.2020
1724 Clouds 0 1010 64 10000 1 210 11:43 17.11.2020
1725 Clouds 1 1010 69 10000 1 170 10:49 17.11.2020
1726 Clouds 1 1009 69 10000 1 170 10:23 17.11.2020
1727 Clouds 1 1009 69 10000 1 170 10:23 17.11.2020
1728 Clouds 1 1009 69 10000 0.5 240 09:50 17.11.2020
1729 Clouds 2 1009 69 10000 0.5 240 09:27 17.11.2020
1730 Clear 2 1009 74 10000 1 170 08:22 17.11.2020
1731 Clear 2 1009 74 3007 1.5 190 07:44 17.11.2020
1732 Clouds 2 1009 74 1008 1.5 220 06:33 17.11.2020
1733 Clouds 3 1009 69 1015 2.1 190 03:31 17.11.2020
1734 Clouds 4 1009 64 1019 2.6 210 02:35 17.11.2020
1735 Clouds 5 1008 67 1024 2.6 200 01:23 17.11.2020
1736 Clouds 5 1008 69 3020 1.5 190 00:50 17.11.2020
1737 Clouds 5 1007 75 3020 1 180 23:45 16.11.2020
1738 Clouds 5 1006 75 3020 1 180 23:23 16.11.2020
1739 Clouds 5 1006 60 9707 1.5 210 22:42 16.11.2020
1740 Clouds 6 1005 60 10000 1.5 210 22:20 16.11.2020
1741 Clouds 6 1005 56 10000 2.6 200 21:44 16.11.2020
1742 Rain 7 1004 56 10000 2.6 200 21:24 16.11.2020
1743 Rain 7 1004 56 10000 3.1 210 20:27 16.11.2020
1744 Clouds 7 1004 56 10000 2.6 210 19:56 16.11.2020
1745 Clouds 7 1004 56 10000 2.6 210 19:38 16.11.2020
1746 Rain 7 1004 56 10000 2.6 210 19:19 16.11.2020
1747 Clouds 7 1003 56 9717 2.1 210 18:29 16.11.2020
1748 Clouds 6 1003 62 9717 3.1 210 17:42 16.11.2020
1749 Clouds 6 1003 68 7049 3.1 210 17:20 16.11.2020
1750 Clouds 6 1003 68 7049 2.6 190 16:52 16.11.2020
1751 Clouds 6 1002 69 6595 2.6 190 16:27 16.11.2020
1752 Clouds 6 1002 60 6595 3.6 200 15:50 16.11.2020
1753 Clouds 6 1001 60 10000 3.6 200 15:29 16.11.2020
1754 Clouds 6 1001 72 10000 2.6 210 14:55 16.11.2020
1755 Clouds 6 1000 68 10000 2.6 210 14:28 16.11.2020
1756 Clouds 6 1000 70 3014 2.6 200 13:31 16.11.2020
1757 Clouds 6 999 60 5000 3.6 210 12:33 16.11.2020
1758 Clouds 6 999 60 1005 3.6 200 11:44 16.11.2020
1759 Clouds 6 999 60 1005 3.6 200 11:24 16.11.2020
1760 Clouds 6 999 56 2 3.1 210 10:47 16.11.2020
1761 Clouds 6 999 56 2 3.1 210 10:26 16.11.2020
1762 Clouds 6 999 56 2 3.1 210 10:26 16.11.2020
1763 Clouds 7 999 81 3003 2.6 200 09:53 16.11.2020
1764 Clouds 7 999 81 3003 2.6 200 09:35 16.11.2020
1765 Clouds 7 999 75 10000 3.6 210 08:49 16.11.2020
1766 Clouds 7 1000 75 10000 3.6 210 08:22 16.11.2020
1767 Clouds 7 1000 70 6008 3.6 200 07:36 16.11.2020
1768 Clouds 7 999 75 3001 3.6 200 06:47 16.11.2020
1769 Clouds 7 998 87 8007 2.6 200 05:50 16.11.2020
1770 Clouds 6 998 93 5003 2.1 190 04:33 16.11.2020
1771 Rain 5 998 86 6044 3.6 180 01:46 16.11.2020
1772 Rain 5 998 86 6044 3.6 180 01:46 16.11.2020
1773 Rain 5 998 75 6052 3.1 180 00:53 16.11.2020
1774 Rain 6 1000 60 8061 3.1 190 23:43 15.11.2020
1775 Rain 6 1003 60 8061 3.1 190 23:21 15.11.2020
1776 Clouds 6 1003 56 10000 3.1 190 22:37 15.11.2020
1777 Rain 6 1005 56 10000 3.1 190 22:18 15.11.2020
1778 Rain 5 1005 52 10000 2.1 180 21:37 15.11.2020
1779 Clouds 5 1007 52 10000 2.1 180 21:19 15.11.2020
1780 Clouds 5 1007 55 10000 2.1 160 20:40 15.11.2020
1781 Clouds 4 1008 55 10000 2.1 160 20:18 15.11.2020
1782 Clouds 4 1008 60 10000 2.6 160 19:43 15.11.2020
1783 Clouds 4 1010 60 10000 2.6 160 19:22 15.11.2020
1784 Clouds 3 1010 69 10000 2.1 190 18:55 15.11.2020
1785 Clouds 3 1010 69 10000 2.1 190 18:37 15.11.2020
1786 Clouds 2 1012 69 10000 2.1 190 18:18 15.11.2020
1787 Clouds 3 1012 51 10000 2.6 110 17:42 15.11.2020
1788 Clouds 3 1014 51 10000 2.6 110 17:22 15.11.2020
1789 Clouds 2 1014 55 10000 2.1 160 16:44 15.11.2020
1790 Clouds 2 1016 55 10000 2.1 160 16:20 15.11.2020
1791 Clouds 1 1016 64 10000 1.5 160 15:49 15.11.2020
1792 Clouds 1 1018 64 10000 1.5 160 15:26 15.11.2020
1793 Clouds 0 1018 80 10000 1.5 140 14:54 15.11.2020
1794 Clouds -1 1020 80 10000 1.5 140 14:28 15.11.2020
1795 Clouds -1 1020 80 10000 1.5 190 13:53 15.11.2020
1796 Clouds -1 1020 74 10000 0.5 210 13:34 15.11.2020
1797 Clouds -2 1021 74 10000 0.5 210 12:50 15.11.2020
1798 Clouds -2 1022 74 10000 0.5 210 12:20 15.11.2020
1799 Clouds -2 1022 86 10000 1 170 11:45 15.11.2020
1800 Clouds -2 1022 86 10000 1 170 11:19 15.11.2020
1801 Clouds -3 1022 86 10000 0.5 220 10:53 15.11.2020
1802 Clouds -3 1022 86 10000 0.5 220 10:31 15.11.2020
1803 Clouds -2 1023 86 10000 1 230 09:56 15.11.2020
1804 Clouds -2 1023 86 10000 1 230 09:37 15.11.2020
1805 Clouds -2 1024 85 10000 1 230 09:18 15.11.2020
1806 Clouds -2 1024 85 10000 1.5 180 08:43 15.11.2020
1807 Clear -2 1024 82 10000 0.5 340 07:47 15.11.2020
1808 Clear -2 1024 79 10000 0.5 340 06:49 15.11.2020
1809 Clear -1 1024 68 10000 1 300 04:56 15.11.2020
1810 Clear 1 1024 55 10000 0.5 290 02:27 15.11.2020
1811 Clouds 2 1023 51 10000 1 230 00:37 15.11.2020
1812 Clouds 2 1023 51 10000 1 230 00:18 15.11.2020
1813 Clouds 3 1023 51 10000 1 240 23:30 14.11.2020
1814 Clouds 4 1022 51 10000 0.5 340 22:46 14.11.2020
1815 Clouds 4 1021 51 10000 0.5 340 22:27 14.11.2020
1816 Clouds 4 1021 51 10000 1.5 350 21:40 14.11.2020
1817 Clouds 4 1019 51 10000 1.5 350 21:21 14.11.2020
1818 Clouds 4 1019 51 10000 1.5 10 20:48 14.11.2020
1819 Clouds 4 1019 51 10000 1.5 10 20:26 14.11.2020
1820 Clouds 5 1019 55 3011 1.5 250 19:46 14.11.2020
1821 Clouds 5 1018 52 10000 7.2 290 19:27 14.11.2020
1822 Clouds 5 1019 60 1009 1.5 260 18:43 14.11.2020
1823 Clouds 5 1018 60 1009 1.5 260 18:23 14.11.2020
1824 Clouds 5 1018 60 1015 1.5 290 17:49 14.11.2020
1825 Clouds 5 1018 60 1015 1.5 290 17:31 14.11.2020
1826 Clouds 5 1018 65 10000 1 300 16:56 14.11.2020
1827 Clouds 5 1018 65 10000 1 300 16:36 14.11.2020
1828 Clouds 5 1018 65 10000 1 300 16:18 14.11.2020
1829 Clouds 4 1018 71 10000 1 230 15:44 14.11.2020
1830 Clouds 4 1017 78 10000 1 230 15:18 14.11.2020
1831 Clouds 4 1017 78 10000 2.1 240 14:38 14.11.2020
1832 Clouds 4 1017 74 10000 2.1 240 14:19 14.11.2020
1833 Clouds 4 1017 80 10000 1.5 220 13:40 14.11.2020
1834 Clouds 4 1016 80 10000 1.5 220 13:21 14.11.2020
1835 Clouds 4 1016 80 10000 1 210 12:43 14.11.2020
1836 Clouds 4 1015 80 10000 1 210 12:23 14.11.2020
1837 Clouds 3 1015 86 10000 1.5 210 11:41 14.11.2020
1838 Clouds 3 1015 86 10000 1.5 210 11:22 14.11.2020
1839 Clouds 3 1015 86 10000 2.1 200 10:41 14.11.2020
1840 Clouds 2 1013 86 10000 2.1 200 10:23 14.11.2020
1841 Clouds 2 1013 80 10000 1.5 190 09:45 14.11.2020
1842 Clouds 2 1013 80 10000 3.1 250 09:27 14.11.2020
1843 Clouds 2 1013 78 10000 1 200 08:48 14.11.2020
1844 Clear 2 1014 76 10000 1 200 08:23 14.11.2020
1845 Clear 2 1014 76 10000 2.1 190 07:42 14.11.2020
1846 Clouds 2 1013 74 10000 2.1 190 07:22 14.11.2020
1847 Clouds 3 1013 74 10000 1.5 170 06:30 14.11.2020
1848 Clouds 3 1012 72 10000 1.5 180 05:27 14.11.2020
1849 Clouds 4 1012 75 10000 1 230 03:40 14.11.2020
1850 Clouds 5 1013 75 10000 1 240 00:43 14.11.2020
1851 Clouds 5 1012 86 10000 1 210 23:43 13.11.2020
1852 Rain 5 1012 86 10000 1 210 23:22 13.11.2020
1853 Rain 6 1012 75 10000 1.5 210 22:42 13.11.2020
1854 Rain 6 1011 75 10000 1.5 210 22:23 13.11.2020
1855 Clouds 5 1011 80 10000 2.6 180 21:51 13.11.2020
1856 Clouds 5 1011 80 10000 2.6 180 21:29 13.11.2020
1857 Clouds 6 1011 58 10000 2.1 180 20:56 13.11.2020
1858 Clouds 6 1011 58 10000 2.1 180 20:37 13.11.2020
1859 Clouds 6 1011 55 10000 2.1 180 20:19 13.11.2020
1860 Clouds 6 1011 60 10000 2.1 190 19:45 13.11.2020
1861 Clouds 6 1012 60 10000 2.1 190 19:22 13.11.2020
1862 Clouds 6 1012 60 10000 1.5 150 18:50 13.11.2020
1863 Clouds 5 1013 59 10000 1.5 40 17:59 13.11.2020
1864 Clouds 5 1013 59 10000 1.5 40 17:39 13.11.2020
1865 Clouds 5 1014 62 10000 1.5 40 17:18 13.11.2020
1866 Clouds 5 1014 62 10000 1.5 50 16:46 13.11.2020
1867 Clouds 4 1015 67 10000 1.5 50 16:21 13.11.2020
1868 Clouds 3 1015 86 10000 1.5 30 15:41 13.11.2020
1869 Clouds 2 1017 86 10000 1.5 30 15:23 13.11.2020
1870 Clouds 2 1017 86 10000 1.5 30 15:23 13.11.2020
1871 Clouds 1 1017 69 10000 1.5 30 14:40 13.11.2020
1872 Clouds 1 1018 72 10000 1.5 30 14:19 13.11.2020
1873 Clouds 1 1018 93 10000 2.1 20 13:40 13.11.2020
1874 Clouds 1 1019 93 10000 2.1 20 13:21 13.11.2020
1875 Clouds 1 1019 93 10000 2.1 20 13:21 13.11.2020
1876 Clouds 1 1019 74 10000 1 90 12:45 13.11.2020
1877 Clouds 1 1019 74 10000 1 90 12:24 13.11.2020
1878 Clouds 1 1019 80 10000 0.5 300 11:48 13.11.2020
1879 Clouds 1 1019 80 10000 0.5 300 11:25 13.11.2020
1880 Clouds 1 1019 74 10000 1.5 180 10:55 13.11.2020
1881 Clouds 1 1019 74 10000 1.5 180 10:34 13.11.2020
1882 Clouds 0 1020 80 10000 0.5 330 09:56 13.11.2020
1883 Clouds 0 1020 80 10000 0.5 330 09:34 13.11.2020
1884 Clouds 1 1021 74 10000 1.66 97 09:00 13.11.2020
1885 Clouds 1 1021 74 10000 1.66 97 08:34 13.11.2020
1886 Clouds 0 1021 74 10000 1.01 86 07:57 13.11.2020
1887 Clouds 0 1021 74 10000 1.01 86 07:38 13.11.2020
1888 Clouds 0 1021 74 10000 0.33 109 07:20 13.11.2020
1889 Clouds 1 1021 69 10000 0.33 111 06:45 13.11.2020
1890 Clouds 2 1022 64 10000 1.5 330 05:42 13.11.2020
1891 Clouds 2 1022 65 10000 1.5 290 04:59 13.11.2020
1892 Clouds 4 1022 65 10000 2.1 290 01:45 13.11.2020
1893 Clouds 5 1021 65 10000 0.5 250 00:38 13.11.2020
1894 Clouds 5 1021 65 10000 0.5 250 00:18 13.11.2020
1895 Clouds 6 1021 60 10000 0.5 260 23:37 12.11.2020
1896 Clouds 6 1021 60 10000 0.5 260 23:19 12.11.2020
1897 Clouds 7 1021 56 10000 1 250 22:50 12.11.2020
1898 Clouds 7 1021 56 10000 1 250 22:30 12.11.2020
1899 Clouds 7 1020 52 10000 1 50 21:43 12.11.2020
1900 Clouds 7 1020 52 10000 1 50 21:24 12.11.2020
1901 Clouds 8 1020 52 10000 2.1 360 20:58 12.11.2020
1902 Clouds 8 1020 52 10000 2.1 360 20:39 12.11.2020
1903 Clear 8 1019 52 10000 3.6 280 20:20 12.11.2020
1904 Clouds 8 1019 52 10000 1 340 19:45 12.11.2020
1905 Clouds 8 1019 52 10000 1 340 19:27 12.11.2020
1906 Clouds 8 1019 56 10000 2.6 360 18:49 12.11.2020
1907 Clouds 8 1019 56 10000 2.6 360 18:24 12.11.2020
1908 Clouds 7 1019 60 10000 1.5 10 17:46 12.11.2020
1909 Clouds 7 1019 60 10000 1.5 10 17:27 12.11.2020
1910 Clouds 7 1019 56 10000 1 80 16:47 12.11.2020
1911 Clouds 6 1020 58 10000 1 80 16:27 12.11.2020
1912 Clouds 6 1020 58 10000 1 350 15:59 12.11.2020
1913 Clouds 6 1020 58 10000 1 350 15:40 12.11.2020
1914 Clouds 6 1020 60 10000 1 350 15:20 12.11.2020
1915 Clouds 5 1020 75 10000 0.5 230 14:46 12.11.2020
1916 Clouds 5 1019 63 10000 1 300 14:25 12.11.2020
1917 Clouds 4 1019 63 10000 1 300 13:49 12.11.2020
1918 Clouds 4 1019 65 10000 1 300 13:21 12.11.2020
1919 Clouds 4 1019 65 10000 0.5 360 12:59 12.11.2020
1920 Clouds 4 1019 65 10000 0.5 360 12:39 12.11.2020
1921 Clouds 5 1018 66 10000 0.5 360 12:18 12.11.2020
1922 Clouds 5 1018 66 10000 1 260 11:45 12.11.2020
1923 Clouds 5 1017 66 10000 1 260 11:26 12.11.2020
1924 Clouds 6 1017 66 10000 1 250 10:41 12.11.2020
1925 Clouds 6 1016 65 10000 1 250 10:23 12.11.2020
1926 Clouds 7 1016 65 10000 1 200 09:46 12.11.2020
1927 Clouds 7 1015 65 10000 1 200 09:22 12.11.2020
1928 Clouds 7 1015 63 10000 1 160 08:56 12.11.2020
1929 Clouds 7 1015 63 10000 1 160 08:37 12.11.2020
1930 Clouds 8 1015 63 10000 1 160 08:19 12.11.2020
1931 Clouds 8 1015 61 10000 1 210 07:42 12.11.2020
1932 Clouds 9 1014 61 10000 1 210 07:19 12.11.2020
1933 Clouds 9 1014 61 10000 1 200 06:49 12.11.2020
1934 Clouds 11 1012 50 10000 1 200 05:23 12.11.2020
1935 Clouds 15 1011 72 10000 2.1 190 03:21 12.11.2020
1936 Clouds 16 1009 67 10000 2.1 200 02:24 12.11.2020
1937 Clouds 19 1008 77 10000 2.6 200 23:59 11.11.2020
1938 Clouds 19 1007 77 10000 2.6 200 23:25 11.11.2020
1939 Clouds 19 1007 77 10000 2.1 200 22:58 11.11.2020
1940 Clouds 19 1007 77 10000 2.1 200 22:39 11.11.2020
1941 Clouds 19 1006 77 10000 2.1 200 22:20 11.11.2020
1942 Clouds 19 1006 72 10000 2.6 210 21:43 11.11.2020
1943 Clouds 19 1006 72 10000 2.6 210 21:25 11.11.2020
1944 Clouds 19 1006 72 10000 2.6 210 21:25 11.11.2020
1945 Clouds 20 1006 72 10000 3.1 210 20:59 11.11.2020
1946 Clouds 20 1006 72 10000 3.1 210 20:40 11.11.2020
1947 Clouds 19 1006 72 10000 3.1 210 20:21 11.11.2020
1948 Clouds 19 1006 77 10000 1.5 180 19:49 11.11.2020
1949 Clouds 19 1006 77 10000 1.5 180 19:31 11.11.2020
1950 Clouds 18 1006 82 10000 1.5 190 18:54 11.11.2020
1951 Clouds 18 1007 82 10000 1.5 190 18:33 11.11.2020
1952 Clouds 17 1007 77 10000 2.1 190 17:43 11.11.2020
1953 Rain 17 1008 77 10000 2.1 190 17:23 11.11.2020
1954 Clouds 17 1008 77 10000 2.1 200 16:55 11.11.2020
1955 Clouds 17 1008 77 10000 2.1 200 16:34 11.11.2020
1956 Clouds 16 1009 77 10000 1.5 210 15:52 11.11.2020
1957 Clouds 16 1010 77 10000 1.5 210 15:27 11.11.2020
1958 Clouds 16 1010 82 10000 2.1 200 14:59 11.11.2020
1959 Clouds 16 1010 82 10000 2.1 200 14:38 11.11.2020
1960 Rain 15 1010 82 10000 1.5 210 13:57 11.11.2020
1961 Rain 15 1010 82 10000 1.5 210 13:57 11.11.2020
1962 Rain 15 1010 82 10000 1.5 210 13:38 11.11.2020
1963 Clouds 15 1011 77 10000 2.1 200 12:52 11.11.2020
1964 Clouds 15 1011 77 10000 2.1 200 12:21 11.11.2020
1965 Clouds 15 1011 77 10000 2.1 200 11:50 11.11.2020
1966 Clouds 15 1011 77 10000 2.1 200 11:30 11.11.2020
1967 Clouds 15 1011 77 10000 2.1 210 10:43 11.11.2020
1968 Clear 15 1011 77 10000 2.1 210 10:25 11.11.2020
1969 Clear 15 1011 77 10000 2.1 210 09:52 11.11.2020
1970 Clear 15 1011 77 10000 2.1 210 09:29 11.11.2020
1971 Clear 15 1011 77 10000 1.5 190 08:57 11.11.2020
1972 Clear 15 1011 77 10000 1.5 190 08:36 11.11.2020
1973 Clear 15 1012 77 10000 1.5 190 08:18 11.11.2020
1974 Clear 15 1012 77 10000 1.5 210 07:41 11.11.2020
1975 Clouds 15 1013 72 10000 2.1 200 06:30 11.11.2020
1976 Clouds 15 1014 72 10000 2.1 200 04:48 11.11.2020
1977 Clouds 17 1015 67 10000 1.5 200 01:36 11.11.2020
1978 Clouds 17 1015 67 10000 1.5 200 01:36 11.11.2020
1979 Clouds 17 1015 63 10000 2.1 200 00:55 11.11.2020
1980 Clouds 17 1015 63 10000 2.1 200 00:22 11.11.2020
1981 Clouds 19 1015 56 10000 1.5 210 23:36 10.11.2020
1982 Clouds 19 1014 56 10000 1.5 210 23:18 10.11.2020
1983 Clouds 20 1014 52 10000 1.5 190 22:43 10.11.2020
1984 Clouds 20 1014 52 10000 1.5 190 22:20 10.11.2020
1985 Clouds 21 1014 46 10000 2.1 170 21:40 10.11.2020
1986 Clouds 21 1014 46 10000 2.1 170 21:22 10.11.2020
1987 Clouds 23 1014 43 10000 2.1 210 20:44 10.11.2020
1988 Clouds 23 1014 43 10000 2.1 210 20:24 10.11.2020
1989 Clouds 22 1014 43 10000 2.1 170 19:58 10.11.2020
1990 Clouds 22 1014 43 10000 2.1 170 19:39 10.11.2020
1991 Clear 22 1014 43 10000 2.1 170 19:21 10.11.2020
1992 Clouds 20 1015 46 10000 2.6 170 18:42 10.11.2020
1993 Clear 20 1015 46 10000 2.6 170 18:24 10.11.2020
1994 Clear 19 1015 48 10000 2.6 180 17:57 10.11.2020
1995 Clear 19 1015 48 10000 2.6 180 17:38 10.11.2020
1996 Clear 19 1016 48 10000 2.6 180 17:20 10.11.2020
1997 Clear 17 1016 51 10000 2.1 170 16:41 10.11.2020
1998 Clear 16 1017 51 10000 2.1 170 16:22 10.11.2020
1999 Clear 15 1017 58 10000 2.1 200 15:48 10.11.2020
2000 Clear 14 1017 58 10000 2.1 200 15:27 10.11.2020
2001 Clear 12 1017 66 10000 2.1 200 14:56 10.11.2020
2002 Clear 12 1017 66 10000 2.1 200 14:37 10.11.2020
2003 Clear 12 1017 66 10000 2.1 200 14:37 10.11.2020
2004 Clear 11 1018 66 10000 2.1 200 14:18 10.11.2020
2005 Clear 10 1018 71 10000 1.5 200 13:38 10.11.2020
2006 Clear 9 1017 81 10000 3.1 180 13:19 10.11.2020
2007 Clear 9 1018 81 10000 2.1 190 12:46 10.11.2020
2008 Clear 9 1018 81 10000 2.1 190 12:25 10.11.2020
2009 Clear 10 1019 71 10000 1 190 11:43 10.11.2020
2010 Clear 10 1019 71 10000 1 190 11:22 10.11.2020
2011 Clear 10 1019 66 10000 1.5 190 10:57 10.11.2020
2012 Clear 9 1018 81 10000 2.1 190 10:38 10.11.2020
2013 Clear 9 1018 81 10000 2.1 190 10:19 10.11.2020
2014 Clear 10 1019 66 10000 1 200 09:45 10.11.2020
2015 Clear 10 1019 66 10000 1 200 09:24 10.11.2020
2016 Clear 11 1018 76 10000 3.1 180 08:55 10.11.2020
2017 Clear 11 1018 76 10000 3.1 180 08:27 10.11.2020
2018 Clear 11 1019 76 10000 2.6 180 07:44 10.11.2020
2019 Clouds 12 1020 66 10000 1.5 190 07:24 10.11.2020
2020 Clear 12 1019 71 10000 4.1 190 06:41 10.11.2020
2021 Clear 12 1020 76 10000 1 170 05:44 10.11.2020
2022 Clear 13 1020 71 10000 1.5 160 04:59 10.11.2020
2023 Clouds 14 1022 55 10000 1.5 200 02:37 10.11.2020
2024 Clouds 15 1022 55 10000 1.5 200 01:31 10.11.2020
2025 Clouds 16 1022 59 10000 1.5 160 23:57 09.11.2020
2026 Clouds 16 1022 55 10000 1 230 23:36 09.11.2020
2027 Clouds 17 1022 52 10000 1 210 22:49 09.11.2020
2028 Clouds 18 1022 52 10000 1 210 22:25 09.11.2020
2029 Clouds 20 1022 42 10000 2.6 210 21:59 09.11.2020
2030 Clouds 20 1022 42 10000 2.6 210 21:38 09.11.2020
2031 Clouds 20 1023 42 10000 2.6 210 21:19 09.11.2020
2032 Clouds 19 1023 45 10000 3.1 200 20:39 09.11.2020
2033 Clouds 19 1023 45 10000 3.1 200 20:20 09.11.2020
2034 Clouds 20 1023 42 10000 1.5 220 19:42 09.11.2020
2035 Clouds 20 1023 42 10000 1.5 220 19:22 09.11.2020
2036 Clouds 18 1024 48 10000 1.5 200 18:42 09.11.2020
2037 Clouds 18 1024 48 10000 1.5 200 18:20 09.11.2020
2038 Clouds 17 1024 48 10000 2.6 180 17:56 09.11.2020
2039 Clouds 17 1024 48 10000 2.6 180 17:38 09.11.2020
2040 Clouds 17 1025 48 10000 2.6 180 17:20 09.11.2020
2041 Clouds 15 1025 51 10000 3.1 210 16:37 09.11.2020
2042 Clear 15 1025 51 10000 3.1 210 16:18 09.11.2020
2043 Clear 13 1025 58 10000 2.6 240 15:42 09.11.2020
2044 Clear 13 1026 58 10000 2.6 240 15:23 09.11.2020
2045 Clear 11 1026 66 10000 1.5 220 14:44 09.11.2020
2046 Clear 10 1027 66 10000 1.5 220 14:26 09.11.2020
2047 Clear 9 1026 87 10000 2.6 190 13:48 09.11.2020
2048 Clear 8 1026 87 10000 2.1 210 13:20 09.11.2020
2049 Clear 8 1026 87 10000 2.1 210 12:47 09.11.2020
2050 Clear 8 1026 87 10000 2.1 210 12:26 09.11.2020
2051 Clear 9 1026 87 10000 1.5 170 11:57 09.11.2020
2052 Clear 9 1026 87 10000 1.5 170 11:38 09.11.2020
2053 Clear 9 1026 87 10000 1.5 170 11:20 09.11.2020
2054 Clear 9 1025 87 10000 2.1 210 10:42 09.11.2020
2055 Clear 9 1025 87 10000 2.1 210 10:23 09.11.2020
2056 Clear 10 1025 81 10000 2.6 210 09:45 09.11.2020
2057 Clear 10 1026 66 10000 1.5 230 09:24 09.11.2020
2058 Clear 11 1025 76 10000 3.6 230 08:41 09.11.2020
2059 Clear 11 1026 62 10000 2.1 240 08:20 09.11.2020
2060 Clear 11 1026 62 10000 1.5 200 07:41 09.11.2020
2061 Clear 11 1026 62 10000 1.5 200 07:21 09.11.2020
2062 Clear 12 1026 58 10000 2.1 210 06:42 09.11.2020
2063 Clear 14 1027 51 10000 2.1 200 03:32 09.11.2020
2064 Clear 14 1027 55 10000 2.1 200 01:55 09.11.2020
2065 Clear 15 1027 55 10000 2.1 200 01:36 09.11.2020
2066 Clear 15 1025 58 10000 2.1 230 23:55 08.11.2020
2067 Clear 16 1026 48 10000 1.5 200 23:37 08.11.2020
2068 Clear 16 1025 58 10000 2.1 230 23:18 08.11.2020
2069 Clear 18 1026 45 10000 2.6 200 22:41 08.11.2020
2070 Clear 18 1026 45 10000 2.6 200 22:20 08.11.2020
2071 Clear 19 1026 45 10000 2.6 200 21:41 08.11.2020
2072 Clear 19 1025 45 10000 2.6 200 21:20 08.11.2020
2073 Clear 19 1025 45 10000 1.5 200 20:55 08.11.2020
2074 Clear 19 1025 45 10000 1.5 200 20:36 08.11.2020
2075 Clear 19 1025 45 10000 1.5 200 20:18 08.11.2020
2076 Clear 18 1025 48 10000 2.1 210 19:42 08.11.2020
2077 Clouds 18 1026 48 10000 2.1 210 19:21 08.11.2020
2078 Clouds 17 1026 51 10000 3.1 200 18:48 08.11.2020
2079 Clouds 17 1026 51 10000 3.1 200 18:48 08.11.2020
2080 Clouds 17 1026 51 10000 3.1 200 18:22 08.11.2020
2081 Clouds 16 1026 55 10000 2.1 200 17:58 08.11.2020
2082 Clouds 16 1026 55 10000 2.1 200 17:58 08.11.2020
2083 Clouds 16 1026 55 10000 2.1 200 17:38 08.11.2020
2084 Clouds 16 1026 55 10000 2.1 200 17:19 08.11.2020
2085 Clouds 15 1026 58 10000 1.5 220 16:55 08.11.2020
2086 Clouds 15 1026 58 10000 1.5 220 16:36 08.11.2020
2087 Clouds 14 1026 58 10000 1.5 220 16:18 08.11.2020
2088 Clouds 14 1026 62 10000 2.1 180 15:43 08.11.2020
2089 Clouds 13 1027 62 10000 2.1 180 15:22 08.11.2020
2090 Clouds 11 1027 71 10000 1 170 14:42 08.11.2020
2091 Clouds 10 1026 71 10000 1 170 14:22 08.11.2020
2092 Clouds 10 1026 71 10000 1 170 14:22 08.11.2020
2093 Clouds 10 1026 71 10000 1.5 290 13:47 08.11.2020
2094 Clouds 10 1026 71 10000 1.5 290 13:24 08.11.2020
2095 Clouds 10 1026 71 10000 2.1 290 12:47 08.11.2020
2096 Clouds 10 1025 71 10000 2.1 290 12:29 08.11.2020
2097 Clouds 11 1025 66 10000 3.6 260 11:58 08.11.2020
2098 Clouds 11 1025 66 10000 3.6 260 11:40 08.11.2020
2099 Clouds 11 1025 66 10000 3.6 260 11:20 08.11.2020
2100 Clouds 12 1025 66 10000 2.1 250 10:50 08.11.2020
2101 Clouds 12 1024 66 10000 2.1 250 10:20 08.11.2020
2102 Clouds 12 1024 66 10000 1.5 200 09:58 08.11.2020
2103 Clouds 12 1024 66 10000 1.5 200 09:39 08.11.2020
2104 Clouds 13 1024 66 10000 1.5 200 09:18 08.11.2020
2105 Clouds 13 1023 71 10000 4.1 230 08:40 08.11.2020
2106 Clouds 13 1023 67 10000 2.1 200 08:20 08.11.2020
2107 Clouds 13 1023 67 10000 2.1 200 07:52 08.11.2020
2108 Clouds 14 1023 67 10000 2.1 200 07:29 08.11.2020
2109 Clouds 14 1023 67 10000 2.1 200 06:24 08.11.2020
2110 Clouds 14 1023 62 10000 2.1 190 05:53 08.11.2020
2111 Clear 14 1021 67 10000 3.6 230 04:50 08.11.2020
2112 Clouds 16 1022 59 10000 2.1 200 01:53 08.11.2020
2113 Clouds 17 1022 59 10000 2.1 200 01:19 08.11.2020
2114 Clouds 17 1022 59 10000 2.1 200 00:30 08.11.2020
2115 Clouds 17 1022 59 10000 1.5 190 23:47 07.11.2020
2116 Clouds 17 1021 59 10000 1.5 190 23:29 07.11.2020
2117 Clouds 19 1021 55 10000 1.5 210 22:47 07.11.2020
2118 Clouds 19 1021 55 10000 1.5 210 22:27 07.11.2020
2119 Clouds 19 1021 55 10000 2.1 200 21:56 07.11.2020
2120 Clouds 19 1021 55 10000 2.1 200 21:38 07.11.2020
2121 Clouds 19 1020 55 10000 2.1 200 21:18 07.11.2020
2122 Clouds 19 1020 52 10000 1.5 210 20:44 07.11.2020
2123 Clouds 19 1020 52 10000 1.5 210 20:25 07.11.2020
2124 Clouds 18 1020 55 10000 2.1 200 19:45 07.11.2020
2125 Clouds 18 1020 55 10000 2.1 200 19:26 07.11.2020
2126 Clouds 18 1020 55 10000 1.5 220 18:43 07.11.2020
2127 Clouds 18 1020 55 10000 1.5 220 18:24 07.11.2020
2128 Clouds 16 1020 63 10000 1.5 230 17:47 07.11.2020
2129 Clouds 16 1021 63 10000 1.5 230 17:28 07.11.2020
2130 Clouds 15 1021 62 10000 2.1 220 16:46 07.11.2020
2131 Clouds 14 1021 62 10000 2.1 220 16:25 07.11.2020
2132 Clouds 14 1021 67 10000 1.5 200 15:57 07.11.2020
2133 Clouds 14 1021 67 10000 1.5 200 15:39 07.11.2020
2134 Clouds 13 1022 67 10000 1.5 200 15:19 07.11.2020
2135 Clouds 13 1022 76 10000 1.5 200 14:41 07.11.2020
2136 Clouds 13 1022 76 10000 1.5 200 14:41 07.11.2020
2137 Clouds 12 1022 76 10000 1.5 200 14:21 07.11.2020
2138 Clouds 11 1022 76 10000 1.5 220 13:46 07.11.2020
2139 Clouds 11 1022 76 10000 1.5 220 13:25 07.11.2020
2140 Clouds 11 1021 76 10000 1.5 200 12:40 07.11.2020
2141 Clouds 11 1021 76 10000 1.5 200 12:18 07.11.2020
2142 Clouds 11 1021 76 10000 1.5 200 12:18 07.11.2020
2143 Clouds 12 1021 71 10000 2.1 190 11:39 07.11.2020
2144 Clouds 12 1021 71 10000 2.1 190 11:21 07.11.2020
2145 Clouds 12 1021 71 10000 2.1 190 10:45 07.11.2020
2146 Clouds 12 1020 71 10000 2.1 190 10:24 07.11.2020
2147 Clouds 13 1020 71 10000 2.6 200 09:49 07.11.2020
2148 Clouds 13 1020 71 10000 2.6 200 09:26 07.11.2020
2149 Clouds 13 1020 71 10000 2.1 200 08:53 07.11.2020
2150 Clouds 13 1020 71 10000 2.1 200 08:34 07.11.2020
2151 Clouds 13 1020 71 10000 2.1 200 07:49 07.11.2020
2152 Clouds 14 1019 71 10000 2.1 200 07:18 07.11.2020
2153 Clouds 14 1019 71 10000 2.6 190 06:47 07.11.2020
2154 Clouds 14 1018 67 10000 2.6 200 04:43 07.11.2020
2155 Clouds 15 1018 62 10000 3.1 200 03:23 07.11.2020
2156 Clouds 15 1017 59 10000 2.6 200 01:28 07.11.2020
2157 Clouds 16 1017 59 10000 2.6 200 00:43 07.11.2020
2158 Clouds 15 1016 59 10000 2.6 210 23:50 06.11.2020
2159 Clouds 15 1016 59 10000 2.6 210 23:20 06.11.2020
2160 Clouds 16 1016 55 10000 2.1 200 22:41 06.11.2020
2161 Clouds 17 1016 55 10000 2.1 200 22:19 06.11.2020
2162 Clouds 17 1016 55 10000 2.1 190 21:45 06.11.2020
2163 Clouds 17 1016 55 10000 2.1 190 21:21 06.11.2020
2164 Clouds 17 1016 55 10000 2.6 200 20:52 06.11.2020
2165 Clouds 17 1016 55 10000 2.6 200 20:22 06.11.2020
2166 Clouds 17 1016 55 10000 2.6 210 19:56 06.11.2020
2167 Clouds 17 1016 55 10000 2.6 210 19:38 06.11.2020
2168 Clouds 17 1017 55 10000 2.6 210 19:19 06.11.2020
2169 Clouds 17 1017 55 10000 2.6 200 18:45 06.11.2020
2170 Clouds 17 1017 55 10000 2.6 200 18:23 06.11.2020
2171 Clouds 17 1017 51 10000 2.6 210 17:51 06.11.2020
2172 Clouds 17 1018 51 10000 2.6 210 17:26 06.11.2020
2173 Clouds 16 1018 51 10000 3.1 200 16:50 06.11.2020
2174 Clouds 16 1018 51 10000 3.1 200 16:27 06.11.2020
2175 Clouds 15 1018 48 10000 2.6 190 15:53 06.11.2020
2176 Clouds 15 1018 48 10000 2.6 190 15:33 06.11.2020
2177 Clear 13 1019 58 10000 2.6 180 14:54 06.11.2020
2178 Clouds 11 1020 62 10000 1.5 170 14:27 06.11.2020
2179 Clouds 10 1020 62 10000 1.5 170 13:47 06.11.2020
2180 Clouds 9 1020 62 10000 1.5 170 13:25 06.11.2020
2181 Clouds 10 1020 58 10000 1.5 170 12:47 06.11.2020
2182 Clouds 10 1020 58 10000 1.5 170 12:25 06.11.2020
2183 Clouds 11 1020 62 10000 1.5 190 11:58 06.11.2020
2184 Clouds 11 1020 62 10000 1.5 190 11:36 06.11.2020
2185 Clouds 11 1020 62 10000 1.5 180 10:51 06.11.2020
2186 Clouds 11 1020 62 10000 1.5 180 10:30 06.11.2020
2187 Clouds 11 1020 66 10000 1 190 09:50 06.11.2020
2188 Clouds 11 1020 66 10000 1 190 09:23 06.11.2020
2189 Clouds 12 1020 62 10000 1.5 170 08:53 06.11.2020
2190 Clouds 12 1020 62 10000 1.5 170 08:31 06.11.2020
2191 Clouds 12 1020 62 10000 1.5 190 07:56 06.11.2020
2192 Clouds 12 1020 62 10000 1.5 190 07:37 06.11.2020
2193 Clouds 12 1020 66 10000 2.1 170 07:18 06.11.2020
2194 Clouds 12 1020 66 10000 3.1 180 06:32 06.11.2020
2195 Clouds 11 1020 66 10000 3.6 180 05:36 06.11.2020
2196 Clouds 13 1021 48 10000 1.5 190 01:45 06.11.2020
2197 Clear 13 1019 58 10000 1.5 170 00:23 06.11.2020
2198 Clouds 15 1021 51 10000 1 150 23:47 05.11.2020
2199 Clouds 15 1020 51 10000 1 150 23:19 05.11.2020
2200 Clouds 17 1020 42 10000 1.5 200 22:42 05.11.2020
2201 Clouds 17 1020 42 10000 1.5 200 22:24 05.11.2020
2202 Clouds 19 1020 37 10000 1.5 200 21:56 05.11.2020
2203 Clouds 19 1020 37 10000 1.5 200 21:38 05.11.2020
2204 Clouds 19 1020 37 10000 1.5 200 21:18 05.11.2020
2205 Clouds 19 1020 42 10000 1.5 170 20:42 05.11.2020
2206 Clouds 18 1020 42 10000 1.5 170 20:21 05.11.2020
2207 Clouds 18 1020 45 10000 2.1 190 19:44 05.11.2020
2208 Clouds 18 1020 45 10000 2.1 190 19:26 05.11.2020
2209 Clouds 17 1021 45 10000 3.1 170 18:56 05.11.2020
2210 Clouds 17 1021 45 10000 3.1 170 18:38 05.11.2020
2211 Clouds 17 1021 45 10000 3.1 170 18:20 05.11.2020
2212 Clouds 17 1021 39 10000 3.1 200 17:42 05.11.2020
2213 Clouds 16 1021 39 10000 3.1 200 17:23 05.11.2020
2214 Clouds 14 1021 47 10000 2.1 170 16:45 05.11.2020
2215 Clouds 12 1022 47 10000 2.1 170 16:26 05.11.2020
2216 Clouds 11 1022 58 10000 2.6 200 15:50 05.11.2020
2217 Clouds 11 1022 58 10000 2.6 200 15:50 05.11.2020
2218 Clouds 9 1023 58 10000 2.6 200 15:27 05.11.2020
2219 Clouds 8 1023 66 10000 2.1 200 14:50 05.11.2020
2220 Clouds 8 1023 66 10000 2.1 200 14:31 05.11.2020
2221 Clear 4 1023 70 10000 2.1 200 13:59 05.11.2020
2222 Clear 4 1023 70 10000 2.1 200 13:39 05.11.2020
2223 Clouds 4 1023 70 10000 2.1 200 12:56 05.11.2020
2224 Clouds 4 1023 70 10000 2.1 200 12:37 05.11.2020
2225 Clouds 3 1023 75 10000 2.1 200 11:59 05.11.2020
2226 Clouds 3 1023 75 10000 2.1 200 11:41 05.11.2020
2227 Clouds 3 1023 75 10000 2.1 200 11:22 05.11.2020
2228 Clouds 2 1023 86 10000 1.5 190 10:47 05.11.2020
2229 Clouds 2 1024 86 10000 1.5 190 10:26 05.11.2020
2230 Clouds 0 1024 86 10000 0.5 20 09:49 05.11.2020
2231 Clear 0 1024 86 10000 0.5 20 09:24 05.11.2020
2232 Clear 0 1024 80 10000 0.5 360 08:49 05.11.2020
2233 Clear 0 1024 80 10000 0.5 360 08:30 05.11.2020
2234 Clear 0 1024 80 10000 0.5 10 07:46 05.11.2020
2235 Clear 0 1024 80 10000 0.5 10 07:27 05.11.2020
2236 Clear 0 1025 86 10000 1 10 06:43 05.11.2020
2237 Clear 1 1025 86 10000 1 360 05:59 05.11.2020
2238 Clear 2 1025 93 10000 2.1 360 02:42 05.11.2020
2239 Clear 4 1023 75 10000 2.6 20 00:35 05.11.2020
2240 Clouds 6 1025 65 10000 1.5 200 23:51 04.11.2020
2241 Clouds 7 1025 65 10000 1.5 200 23:27 04.11.2020
2242 Clouds 9 1025 61 10000 1.5 190 22:57 04.11.2020
2243 Clouds 9 1025 61 10000 1.5 190 22:38 04.11.2020
2244 Clouds 9 1025 61 10000 1.5 190 22:19 04.11.2020
2245 Clouds 9 1025 57 10000 1.5 180 21:46 04.11.2020
2246 Clouds 9 1025 57 10000 1.5 180 21:27 04.11.2020
2247 Clouds 9 1025 57 10000 1.5 180 20:53 04.11.2020
2248 Clouds 9 1025 57 10000 1.5 180 20:35 04.11.2020
2249 Clouds 9 1025 78 10000 2.1 180 19:58 04.11.2020
2250 Clouds 9 1025 78 10000 2.1 180 19:40 04.11.2020
2251 Clouds 9 1025 79 10000 2.1 180 19:21 04.11.2020
2252 Clouds 7 1026 56 10000 2.1 180 18:40 04.11.2020
2253 Clouds 7 1026 56 10000 2.1 180 18:22 04.11.2020
2254 Clouds 6 1026 56 10000 2.1 190 17:46 04.11.2020
2255 Clouds 6 1027 56 10000 2.1 190 17:26 04.11.2020
2256 Clouds 4 1027 60 10000 2.6 190 16:46 04.11.2020
2257 Clouds 4 1027 60 10000 2.6 190 16:27 04.11.2020
2258 Clouds 3 1027 64 10000 2.1 160 15:57 04.11.2020
2259 Clouds 2 1027 64 10000 2.1 160 15:39 04.11.2020
2260 Clouds 2 1028 64 10000 2.1 160 15:20 04.11.2020
2261 Clouds 1 1028 69 10000 1 170 14:43 04.11.2020
2262 Clouds 1 1028 69 10000 1 170 14:24 04.11.2020
2263 Clouds 0 1028 92 10000 2.1 150 13:51 04.11.2020
2264 Clouds 0 1028 92 10000 2.1 150 13:21 04.11.2020
2265 Clouds 0 1028 92 10000 2.1 170 12:58 04.11.2020
2266 Clouds 0 1028 92 10000 2.1 170 12:39 04.11.2020
2267 Clouds 0 1027 92 10000 2.1 170 12:21 04.11.2020
2268 Clouds -1 1027 92 10000 1 160 11:44 04.11.2020
2269 Clouds -1 1027 94 10000 1 160 11:21 04.11.2020
2270 Clouds -1 1027 94 10000 2.1 160 10:48 04.11.2020
2271 Clouds -1 1027 93 10000 2.1 160 10:23 04.11.2020
2272 Clouds -1 1027 93 10000 2.1 190 09:55 04.11.2020
2273 Clouds -1 1027 92 10000 2.1 190 09:28 04.11.2020
2274 Clouds -1 1027 63 10000 2.1 170 08:48 04.11.2020
2275 Clouds -1 1028 63 10000 2.1 170 08:23 04.11.2020
2276 Clouds -1 1027 68 10000 3.1 180 07:57 04.11.2020
2277 Clouds -1 1027 68 10000 2.1 180 07:31 04.11.2020
2278 Clouds -1 1028 92 10000 0.5 300 06:59 04.11.2020
2279 Clouds -1 1028 90 10000 0.5 300 06:39 04.11.2020
2280 Clouds -1 1028 90 10000 0.5 300 06:39 04.11.2020
2281 Clouds -1 1027 58 10000 1 290 04:59 04.11.2020
2282 Clear -1 1025 58 10000 0.5 310 02:31 04.11.2020
2283 Clear -1 1025 50 10000 0.5 240 01:38 04.11.2020
2284 Clouds -1 1023 50 10000 2.83 278 23:59 03.11.2020
2285 Clouds 0 1021 50 10000 2.94 277 23:26 03.11.2020
2286 Clouds 0 1021 86 10000 1 240 22:55 03.11.2020
2287 Clouds 0 1021 86 10000 1 240 22:37 03.11.2020
2288 Clouds 0 1020 82 10000 1 240 22:18 03.11.2020
2289 Clouds 1 1020 43 10000 1.5 330 21:41 03.11.2020
2290 Clouds 1 1019 43 10000 1.5 330 21:23 03.11.2020
2291 Clouds 1 1019 78 10000 2.1 350 20:48 03.11.2020
2292 Clouds 1 1018 77 10000 2.1 350 20:27 03.11.2020
2293 Clouds 1 1018 77 1032 1.5 340 19:55 03.11.2020
2294 Clouds 0 1018 77 1032 1.5 340 19:37 03.11.2020
2295 Clouds 1 1017 78 1032 1.5 340 19:18 03.11.2020
2296 Clouds 1 1017 77 1038 3.6 360 18:40 03.11.2020
2297 Clouds 0 1016 79 1038 3.6 360 18:19 03.11.2020
2298 Clouds 0 1016 79 1045 2.6 10 17:45 03.11.2020
2299 Clouds 0 1016 79 1045 2.6 10 17:45 03.11.2020
2300 Clouds 0 1015 83 1045 2.6 10 17:27 03.11.2020
2301 Clouds 0 1015 83 1051 2.6 360 16:51 03.11.2020
2302 Clouds 0 1015 83 1051 2.6 360 16:30 03.11.2020
2303 Clouds 0 1013 58 10000 2.6 10 15:53 03.11.2020
2304 Clouds -1 1012 58 10000 2.6 10 15:30 03.11.2020
2305 Clouds -1 1012 63 10000 2.6 10 14:57 03.11.2020
2306 Clouds -1 1012 63 10000 2.6 10 14:38 03.11.2020
2307 Clouds -1 1010 63 10000 2.6 10 14:19 03.11.2020
2308 Clear -1 1009 54 10000 5.7 310 13:40 03.11.2020
2309 Clouds -1 1008 54 10000 3.1 360 13:21 03.11.2020
2310 Clouds -2 1008 54 10000 3.1 360 12:44 03.11.2020
2311 Clouds -2 1006 54 10000 3.1 360 12:21 03.11.2020
2312 Clouds -1 1006 63 10000 2.6 10 11:46 03.11.2020
2313 Clouds -1 1004 63 10000 2.6 10 11:25 03.11.2020
2314 Clouds -1 1004 68 10000 1 50 10:55 03.11.2020
2315 Clouds -1 1004 68 10000 1 50 10:37 03.11.2020
2316 Clouds -1 1001 68 10000 1 50 10:18 03.11.2020
2317 Clouds -1 1001 74 10000 1.5 190 09:45 03.11.2020
2318 Clouds -1 999 74 10000 1.5 190 09:22 03.11.2020
2319 Clouds -1 999 80 10000 1.5 190 08:49 03.11.2020
2320 Clouds -1 997 80 10000 1.5 190 08:29 03.11.2020
2321 Clouds 0 997 86 5008 1 50 07:41 03.11.2020
2322 Clouds 0 997 87 5008 1 50 07:19 03.11.2020
2323 Clouds 0 997 99 6036 1.5 230 06:22 03.11.2020
2324 Rain -1 998 92 8047 2.1 190 04:34 03.11.2020
2325 Clouds 0 1004 50 10000 2.1 240 00:45 03.11.2020
2326 Clouds 0 1004 82 10000 11.3 280 00:24 03.11.2020
2327 Clouds 0 1004 82 10000 8.2 270 23:46 02.11.2020
2328 Clouds 0 1004 78 10000 8.2 270 23:28 02.11.2020
2329 Clouds 0 1004 78 10000 2.6 240 22:44 02.11.2020
2330 Clouds 0 1004 76 10000 2.6 240 22:25 02.11.2020
2331 Clouds 0 1004 76 10000 2.1 280 21:56 02.11.2020
2332 Clouds 0 1004 76 10000 2.1 280 21:36 02.11.2020
2333 Clouds 0 1004 74 10000 2.1 280 21:18 02.11.2020
2334 Clouds 1 1004 43 10000 3.6 270 20:38 02.11.2020
2335 Clouds 1 1004 43 10000 3.6 270 20:18 02.11.2020
2336 Clouds 1 1004 43 10000 3.6 270 20:18 02.11.2020
2337 Clouds 1 1004 37 1012 3.6 10 19:43 02.11.2020
2338 Clouds 1 1004 37 1012 3.6 10 19:25 02.11.2020
2339 Clouds 1 1003 37 10000 10.8 300 18:43 02.11.2020
2340 Clouds 1 1002 71 1017 4.1 20 18:22 02.11.2020
2341 Clouds 0 1002 50 10000 3.1 20 17:58 02.11.2020
2342 Clouds 0 1002 50 10000 3.1 20 17:40 02.11.2020
2343 Clouds 0 1002 50 10000 3.1 20 17:40 02.11.2020
2344 Clouds 0 1002 50 10000 3.1 20 17:20 02.11.2020
2345 Clouds 0 1002 58 10000 2.6 10 16:48 02.11.2020
2346 Clouds -1 1001 58 10000 2.6 10 16:24 02.11.2020
2347 Clouds -1 1001 81 10000 11.3 320 15:46 02.11.2020
2348 Clouds 0 1001 83 10000 11.3 320 15:25 02.11.2020
2349 Clouds 0 1001 83 10000 4.6 20 14:59 02.11.2020
2350 Clouds 0 1001 83 10000 4.6 20 14:40 02.11.2020
2351 Clouds 0 1000 85 10000 4.6 20 14:18 02.11.2020
2352 Rain 0 1000 59 10000 5.7 10 13:44 02.11.2020
2353 Rain 0 1000 59 10000 5.7 10 13:21 02.11.2020
2354 Rain 1 999 74 10000 3.6 10 12:43 02.11.2020
2355 Clouds 1 999 74 10000 3.6 10 12:21 02.11.2020
2356 Clouds 2 999 69 10000 1 240 11:45 02.11.2020
2357 Clouds 2 998 69 10000 1 240 11:20 02.11.2020
2358 Clouds 2 998 86 10000 1 210 10:46 02.11.2020
2359 Clouds 2 998 83 10000 1 210 10:24 02.11.2020
2360 Clouds 2 998 83 10000 2.1 210 09:55 02.11.2020
2361 Clouds 2 998 82 10000 2.1 210 09:27 02.11.2020
2362 Clouds 2 998 82 10000 1.5 190 08:57 02.11.2020
2363 Clouds 2 998 82 10000 1.5 190 08:36 02.11.2020
2364 Clouds 2 998 83 10000 1.5 190 08:18 02.11.2020
2365 Clouds 3 998 86 8014 2.1 210 07:39 02.11.2020
2366 Clouds 4 999 86 8010 2.1 180 06:45 02.11.2020
2367 Clouds 4 1000 86 8002 1.5 200 05:19 02.11.2020
2368 Rain 7 1001 75 5001 2.1 210 01:27 02.11.2020
2369 Rain 7 1001 75 5001 2.1 210 01:27 02.11.2020
2370 Rain 7 1001 75 5001 2.1 210 01:27 02.11.2020
2371 Rain 8 1000 75 5010 2.1 210 00:38 02.11.2020
2372 Rain 8 1000 75 5010 2.1 210 00:19 02.11.2020
2373 Rain 8 1000 75 8016 2.1 210 23:38 01.11.2020
2374 Rain 8 1000 75 8016 2.1 210 23:20 01.11.2020
2375 Clouds 7 1000 81 6021 2.1 190 22:42 01.11.2020
2376 Rain 7 1000 81 6021 2.1 190 22:22 01.11.2020
2377 Clouds 7 1000 81 10000 3.1 200 21:43 01.11.2020
2378 Rain 7 1001 81 10000 3.1 200 21:24 01.11.2020
2379 Rain 8 1001 70 10000 3.1 200 20:48 01.11.2020
2380 Rain 8 1002 70 10000 3.1 200 20:26 01.11.2020
2381 Rain 8 1002 65 10000 3.1 190 19:49 01.11.2020
2382 Clouds 8 1004 65 10000 3.1 190 19:29 01.11.2020
2383 Clouds 8 1004 61 10000 4.1 190 18:59 01.11.2020
2384 Clouds 8 1004 61 10000 4.1 190 18:40 01.11.2020
2385 Clouds 8 1006 61 10000 4.1 190 18:19 01.11.2020
2386 Clouds 7 1006 70 10000 3.1 190 17:45 01.11.2020
2387 Clouds 6 1009 70 10000 3.1 190 17:27 01.11.2020
2388 Clouds 6 1009 70 10000 3.1 190 16:57 01.11.2020
2389 Clouds 6 1009 70 10000 3.1 190 16:39 01.11.2020
2390 Clouds 6 1010 70 10000 3.1 190 16:18 01.11.2020
2391 Clouds 5 1010 64 10000 3.1 200 15:39 01.11.2020
2392 Clouds 5 1012 69 10000 3.1 200 15:20 01.11.2020
2393 Clouds 4 1012 69 10000 2.6 200 14:48 01.11.2020
2394 Clouds 4 1014 69 10000 2.6 200 14:24 01.11.2020
2395 Clouds 3 1014 74 10000 1.5 200 13:59 01.11.2020
2396 Clouds 3 1014 74 10000 1.5 200 13:40 01.11.2020
2397 Clouds 3 1014 74 10000 1.5 200 13:40 01.11.2020
2398 Clouds 2 1015 74 10000 1.5 200 13:22 01.11.2020
2399 Clouds 2 1016 74 10000 2.1 200 12:43 01.11.2020
2400 Clouds 2 1017 74 10000 2.1 200 12:22 01.11.2020
2401 Clouds 2 1017 74 10000 1.5 190 11:49 01.11.2020
2402 Clouds 2 1018 74 10000 1.5 190 11:18 01.11.2020
2403 Clouds 2 1018 69 10000 2.1 190 10:42 01.11.2020
2404 Clouds 2 1019 69 10000 2.1 190 10:24 01.11.2020
2405 Clouds 1 1019 74 10000 2.6 200 09:50 01.11.2020
2406 Clouds 1 1019 74 10000 2.6 200 09:30 01.11.2020
2407 Clear 1 1020 69 10000 2.1 200 08:44 01.11.2020
2408 Clear 1 1021 69 10000 2.1 200 08:18 01.11.2020
2409 Clear 1 1021 69 10000 2.1 210 07:35 01.11.2020
2410 Clear 1 1026 59 10000 2.6 200 03:26 01.11.2020
2411 Clear 2 1027 55 10000 1.5 200 01:47 01.11.2020
2412 Clear 2 1028 48 10000 1.5 210 00:23 01.11.2020
2413 Clear 2 1028 44 10000 1 240 23:25 31.10.2020
2414 Clear 4 1028 38 10000 1 210 22:56 31.10.2020
2415 Clear 4 1028 38 10000 1 210 22:36 31.10.2020
2416 Clear 5 1028 38 10000 1.5 220 22:18 31.10.2020
2417 Clear 5 1028 38 10000 1.5 220 21:43 31.10.2020
2418 Clear 5 1029 38 10000 1.5 220 21:18 31.10.2020
2419 Clear 5 1029 38 10000 1.5 190 20:38 31.10.2020
2420 Clear 5 1029 38 10000 1.5 190 20:18 31.10.2020
2421 Clear 5 1029 41 10000 2.1 200 19:40 31.10.2020
2422 Clear 5 1029 41 10000 2.1 200 19:20 31.10.2020
2423 Clear 5 1030 38 10000 2.1 190 18:47 31.10.2020
2424 Clear 4 1030 38 10000 2.1 190 18:24 31.10.2020
2425 Clear 4 1030 55 10000 2.6 190 17:40 31.10.2020
2426 Clear 4 1031 55 10000 2.6 190 17:22 31.10.2020
2427 Clear 3 1031 55 10000 1.5 290 16:44 31.10.2020
2428 Clear 3 1032 55 10000 1.5 290 16:26 31.10.2020
2429 Clear 1 1032 59 10000 1 230 15:45 31.10.2020
2430 Clear 1 1032 59 10000 1 230 15:25 31.10.2020
2431 Clear -1 1032 59 10000 2.1 270 14:52 31.10.2020
2432 Clear -1 1032 59 10000 2.1 270 14:31 31.10.2020
2433 Clear -4 1032 63 10000 2.1 290 13:51 31.10.2020
2434 Clear -4 1031 63 10000 2.1 290 13:28 31.10.2020
2435 Clear -4 1031 68 10000 2.6 280 12:48 31.10.2020
2436 Clear -4 1031 68 10000 2.6 280 12:21 31.10.2020
2437 Clear -3 1031 80 10000 2.1 280 11:40 31.10.2020
2438 Clear -3 1030 80 10000 2.1 280 11:21 31.10.2020
2439 Clear -3 1030 80 10000 1 220 10:40 31.10.2020
2440 Clear -2 1029 80 10000 1 220 09:57 31.10.2020
2441 Clear -3 1029 80 10000 1 220 09:37 31.10.2020
2442 Clear -3 1028 80 10000 1 220 09:19 31.10.2020
2443 Clear -3 1027 68 10000 1 280 08:26 31.10.2020
2444 Clear -3 1027 74 10000 0.5 280 07:42 31.10.2020
2445 Clear -3 1027 74 10000 0.5 280 07:23 31.10.2020
2446 Clear -3 1027 63 10000 1 240 06:36 31.10.2020
2447 Clear -2 1025 68 10000 1 300 03:49 31.10.2020
2448 Clear -2 1025 63 10000 0.5 230 02:39 31.10.2020
2449 Clouds -1 1023 55 10000 1 10 00:55 31.10.2020
2450 Clouds 0 1022 50 10000 0.5 20 23:58 30.10.2020
2451 Clouds 0 1022 50 10000 0.5 20 23:38 30.10.2020
2452 Clouds 1 1020 50 10000 0.5 20 23:20 30.10.2020
2453 Clouds 1 1020 50 10000 2.6 10 22:39 30.10.2020
2454 Clouds 2 1019 50 10000 2.6 10 22:20 30.10.2020
2455 Clouds 2 1019 47 10000 2.1 60 21:49 30.10.2020
2456 Clouds 2 1019 47 10000 2.1 60 21:27 30.10.2020
2457 Clouds 2 1019 47 10000 3.1 20 20:46 30.10.2020
2458 Clouds 2 1018 47 10000 3.1 20 20:28 30.10.2020
2459 Clouds 2 1018 50 10000 3.1 30 19:59 30.10.2020
2460 Clouds 2 1018 50 10000 3.1 30 19:41 30.10.2020
2461 Clouds 2 1018 50 10000 3.1 30 19:18 30.10.2020
2462 Clouds 1 1019 58 10000 1.34 31 18:44 30.10.2020
2463 Clouds 1 1019 59 10000 1.34 44 18:24 30.10.2020
2464 Clouds 1 1019 62 10000 1.79 27 17:47 30.10.2020
2465 Clouds 0 1019 61 10000 1.34 37 17:22 30.10.2020
2466 Clouds 0 1020 62 10000 1.79 42 16:55 30.10.2020
2467 Clouds -1 1019 63 10000 1.79 41 16:25 30.10.2020
2468 Clouds -1 1019 65 10000 1.79 52 15:58 30.10.2020
2469 Clouds -2 1019 65 10000 1.79 30 15:40 30.10.2020
2470 Clouds -2 1019 68 10000 1.79 36 15:18 30.10.2020
2471 Clouds -3 1019 72 10000 1.79 30 14:44 30.10.2020
2472 Clouds -3 1019 72 10000 1.79 39 14:25 30.10.2020
2473 Clouds -4 1018 73 10000 1.79 35 13:44 30.10.2020
2474 Clouds -4 1018 74 10000 1.34 34 13:20 30.10.2020
2475 Clouds -4 1017 74 10000 1.79 34 12:49 30.10.2020
2476 Clouds -4 1018 75 10000 1.79 45 12:22 30.10.2020
2477 Clouds -4 1018 74 10000 1.79 36 11:56 30.10.2020
2478 Clouds -4 1017 74 10000 1.79 38 11:23 30.10.2020
2479 Clouds -4 1017 74 10000 1.79 35 10:52 30.10.2020
2480 Clouds -3 1016 73 10000 1.79 37 10:26 30.10.2020
2481 Clouds -3 1016 72 10000 1.79 47 09:57 30.10.2020
2482 Clouds -3 1015 73 10000 1.79 36 09:38 30.10.2020
2483 Clouds -3 1016 72 10000 1.79 31 09:19 30.10.2020
2484 Clouds -3 1017 69 10000 1.79 35 08:32 30.10.2020
2485 Clouds -2 1016 67 10000 1.79 42 07:54 30.10.2020
2486 Clouds -2 1016 67 10000 1.79 42 07:36 30.10.2020
2487 Clouds -2 1016 68 10000 1.79 44 07:18 30.10.2020
2488 Clouds -1 1016 67 10000 2.24 42 05:59 30.10.2020
2489 Clouds 0 1015 60 10000 1.34 44 03:47 30.10.2020
2490 Clouds 3 1014 71 10000 1.34 57 01:26 30.10.2020
2491 Clouds 3 1013 69 10000 1.79 53 00:26 30.10.2020
2492 Clouds 4 1013 70 10000 0.89 40 23:43 29.10.2020
2493 Clouds 4 1013 68 10000 1.79 63 23:25 29.10.2020
2494 Clouds 5 1013 67 10000 1.34 67 22:45 29.10.2020
2495 Clouds 5 1013 66 10000 0.89 65 22:27 29.10.2020
2496 Clouds 5 1013 66 10000 0.89 72 21:49 29.10.2020
2497 Clouds 5 1013 66 10000 0.89 62 21:24 29.10.2020
2498 Clouds 6 1012 65 10000 0.89 65 20:57 29.10.2020
2499 Clouds 6 1012 65 10000 0.89 97 20:39 29.10.2020
2500 Clouds 6 1012 64 10000 0.89 72 20:18 29.10.2020
2501 Clouds 6 1012 66 10000 1.34 65 19:39 29.10.2020
2502 Clouds 6 1012 68 10000 0.89 47 19:19 29.10.2020
2503 Clouds 6 1012 70 10000 0.89 72 18:46 29.10.2020
2504 Clouds 7 1012 70 10000 0.89 14 18:26 29.10.2020
2505 Clouds 7 1013 71 10000 0.89 28 17:43 29.10.2020
2506 Clouds 7 1014 63 10000 2.6 20 17:23 29.10.2020
2507 Clouds 7 1014 63 10000 2.6 20 16:54 29.10.2020
2508 Clouds 7 1014 65 10000 2.6 20 16:23 29.10.2020
2509 Clouds 7 1014 65 10000 1.5 350 15:59 29.10.2020
2510 Clouds 7 1014 65 10000 1.5 350 15:40 29.10.2020
2511 Clouds 7 1014 67 10000 1.5 350 15:22 29.10.2020
2512 Clouds 6 1014 60 10000 0.5 300 14:58 29.10.2020
2513 Clouds 6 1014 60 10000 0.5 300 14:40 29.10.2020
2514 Clouds 6 1014 60 10000 0.5 300 14:18 29.10.2020
2515 Clouds 6 1014 70 10000 1 330 13:41 29.10.2020
2516 Clouds 6 1014 70 10000 1 330 13:22 29.10.2020
2517 Clouds 5 1015 70 10000 1 330 12:42 29.10.2020
2518 Clouds 5 1014 70 10000 1 330 12:19 29.10.2020
2519 Clouds 5 1014 75 10000 1 300 11:48 29.10.2020
2520 Clouds 5 1013 75 10000 1 300 11:26 29.10.2020
2521 Clouds 6 1013 70 10000 2.1 285 10:57 29.10.2020
2522 Clouds 6 1013 70 10000 2.1 285 10:36 29.10.2020
2523 Rain 6 1013 70 10000 2.34 283 10:18 29.10.2020
2524 Rain 6 1013 75 10000 1 360 09:42 29.10.2020
2525 Rain 6 1013 75 10000 1 360 09:19 29.10.2020
2526 Clouds 6 1013 70 10000 0.5 40 08:40 29.10.2020
2527 Clouds 7 1013 70 10000 0.5 40 08:19 29.10.2020
2528 Clouds 7 1013 65 10000 0.5 240 07:48 29.10.2020
2529 Clouds 7 1013 65 10000 1 190 06:58 29.10.2020
2530 Clouds 7 1012 65 10000 1 190 06:22 29.10.2020
2531 Clouds 7 1013 65 10000 1.5 180 04:46 29.10.2020
2532 Clouds 5 1012 75 10000 0.5 360 01:37 29.10.2020
2533 Clouds 6 1012 77 10000 0.45 315 00:31 29.10.2020
2534 Clouds 7 1008 64 10000 2.99 259 23:59 28.10.2020
2535 Clouds 7 1008 64 10000 3.08 249 23:22 28.10.2020
2536 Clouds 7 1010 75 10000 0.89 260 22:56 28.10.2020
2537 Clouds 7 1011 70 10000 1 200 22:37 28.10.2020
2538 Clouds 7 1011 70 10000 1 200 22:19 28.10.2020
2539 Clouds 7 1011 70 10000 1 200 21:43 28.10.2020
2540 Clouds 7 1011 70 10000 1 200 21:25 28.10.2020
2541 Clouds 7 1011 70 10000 1 260 20:43 28.10.2020
2542 Clouds 7 1012 70 10000 1 260 20:23 28.10.2020
2543 Clouds 7 1012 75 10000 1.5 240 19:53 28.10.2020
2544 Clouds 6 1012 80 10000 1 200 19:30 28.10.2020
2545 Clouds 6 1013 80 10000 1 200 18:52 28.10.2020
2546 Clouds 6 1014 80 10000 1 200 18:22 28.10.2020
2547 Clouds 5 1014 86 10000 1.5 180 17:59 28.10.2020
2548 Clouds 5 1014 86 10000 1.5 180 17:41 28.10.2020
2549 Clouds 5 1014 86 10000 1.5 180 17:21 28.10.2020
2550 Clouds 3 1015 78 10000 2.6 130 16:47 28.10.2020
2551 Clouds 3 1015 84 10000 2.6 130 16:28 28.10.2020
2552 Clouds 2 1016 86 10000 2.6 120 15:42 28.10.2020
2553 Clouds 2 1016 86 10000 2.6 120 15:19 28.10.2020
2554 Clouds 2 1018 74 10000 1.5 100 14:49 28.10.2020
2555 Clouds 1 1018 74 10000 1.5 100 14:31 28.10.2020
2556 Clouds 1 1017 78 10000 0.45 226 13:59 28.10.2020
2557 Clouds 1 1018 80 10000 1.34 37 12:37 28.10.2020
2558 Clouds 1 1018 81 10000 0.89 51 12:19 28.10.2020
2559 Clouds 0 1018 81 10000 0.45 199 11:42 28.10.2020
2560 Clouds 0 1019 81 10000 0.89 113 11:22 28.10.2020
2561 Clouds 0 1019 84 10000 0.45 151 10:53 28.10.2020
2562 Clouds 0 1020 80 10000 2.1 120 10:34 28.10.2020
2563 Clouds 0 1020 83 10000 0.89 146 09:56 28.10.2020
2564 Clouds 0 1021 86 10000 1 60 09:38 28.10.2020
2565 Clouds 0 1021 86 10000 1 60 09:20 28.10.2020
2566 Clouds 0 1021 86 10000 1 60 08:45 28.10.2020
2567 Clouds 0 1021 86 10000 1 60 08:24 28.10.2020
2568 Clouds 0 1021 85 10000 3.1 60 07:47 28.10.2020
2569 Clouds 0 1021 83 10000 3.1 60 07:29 28.10.2020
2570 Clouds -1 1021 79 10000 1.5 70 06:40 28.10.2020
2571 Clouds -1 1022 86 10000 1.39 152 05:49 28.10.2020
2572 Clear -1 1023 86 10000 1.5 110 04:52 28.10.2020
2573 Clouds -1 1022 74 10000 2.6 40 04:25 28.10.2020
2574 Clear -1 1023 79 10000 2.1 360 02:25 28.10.2020
2575 Clear 1 1023 59 10000 1.5 0 01:26 28.10.2020
2576 Clouds 2 1024 59 10000 1 0 23:52 27.10.2020
2577 Clouds 2 1024 59 10000 1 0 23:25 27.10.2020
2578 Clouds 2 1023 55 10000 1 50 22:55 27.10.2020
2579 Clouds 3 1023 55 10000 1 50 22:37 27.10.2020
2580 Clouds 3 1023 55 10000 1 50 22:18 27.10.2020
2581 Clouds 3 1023 59 10000 3.1 50 21:55 27.10.2020
2582 Clouds 3 1023 59 10000 3.1 50 21:36 27.10.2020
2583 Clouds 3 1023 59 10000 3.1 50 21:18 27.10.2020
2584 Clouds 3 1023 59 10000 3.1 50 21:18 27.10.2020
2585 Clouds 3 1023 59 10000 3.1 50 21:18 27.10.2020
2586 Clouds 3 1023 55 10000 2.1 30 20:39 27.10.2020
2587 Clouds 3 1023 55 10000 2.1 30 20:21 27.10.2020
2588 Clouds 3 1024 59 10000 3.6 320 19:39 27.10.2020
2589 Clouds 3 1024 59 10000 3.6 320 19:21 27.10.2020
2590 Clear 3 1024 55 10000 3.1 0 18:58 27.10.2020
2591 Clear 3 1024 55 10000 3.1 0 18:40 27.10.2020
2592 Clear 3 1024 55 10000 3.1 0 18:19 27.10.2020
2593 Clouds 3 1025 55 10000 4.1 350 17:43 27.10.2020
2594 Clouds 2 1025 55 10000 4.1 350 17:21 27.10.2020
2595 Clouds 2 1025 69 10000 4.6 340 16:49 27.10.2020
2596 Clouds 2 1025 69 10000 4.6 340 16:30 27.10.2020
2597 Clouds 1 1025 74 10000 4.1 340 15:55 27.10.2020
2598 Clouds 1 1025 74 10000 4.1 340 15:37 27.10.2020
2599 Clouds 1 1025 74 10000 5.7 360 15:18 27.10.2020
2600 Clouds 1 1025 74 10000 5.7 360 14:42 27.10.2020
2601 Clouds 1 1025 74 10000 5.7 360 14:23 27.10.2020
2602 Clear 1 1024 86 10000 3.1 300 13:52 27.10.2020
2603 Clear 1 1024 86 10000 3.1 300 13:22 27.10.2020
2604 Clear 1 1024 85 10000 3.6 280 12:42 27.10.2020
2605 Clear 1 1024 81 10000 3.6 280 12:23 27.10.2020
2606 Clouds 2 1024 93 10000 4.1 280 11:43 27.10.2020
2607 Clouds 2 1024 93 10000 4.1 280 11:25 27.10.2020
2608 Clouds 2 1023 86 10000 3.6 290 10:48 27.10.2020
2609 Clouds 3 1023 86 10000 3.6 290 10:30 27.10.2020
2610 Clouds 3 1022 93 10000 4.1 290 09:47 27.10.2020
2611 Clouds 3 1022 93 10000 4.1 290 09:27 27.10.2020
2612 Clouds 3 1022 93 10000 3.6 280 08:49 27.10.2020
2613 Clouds 3 1022 93 10000 3.6 280 08:26 27.10.2020
2614 Clouds 3 1022 93 10000 3.1 280 07:47 27.10.2020
2615 Clouds 3 1022 93 10000 3.1 280 07:29 27.10.2020
2616 Clouds 3 1021 86 10000 3.1 260 06:39 27.10.2020
2617 Clouds 3 1021 86 10000 3.1 260 06:19 27.10.2020
2618 Rain 3 1021 93 10000 4.1 260 05:44 27.10.2020
2619 Clouds 4 1021 93 10000 2.6 270 04:57 27.10.2020
2620 Mist 3 1020 93 3219 3.1 310 02:35 27.10.2020
2621 Mist 2 1018 100 6437 3.1 340 00:59 27.10.2020
2622 Mist 3 1018 100 4023 3.6 330 23:57 26.10.2020
2623 Mist 3 1018 100 4023 3.6 330 23:36 26.10.2020
2624 Mist 3 1018 100 4023 3.6 330 23:36 26.10.2020
2625 Clouds 4 1017 100 10000 1.5 340 22:55 26.10.2020
2626 Mist 4 1017 100 4828 2.6 20 22:29 26.10.2020
2627 Mist 4 1018 100 4828 3.6 340 21:53 26.10.2020
2628 Mist 4 1018 100 2414 2.6 310 21:21 26.10.2020
2629 Mist 4 1018 100 2816 1 0 20:59 26.10.2020
2630 Mist 4 1018 100 6437 2.6 120 20:41 26.10.2020
2631 Mist 5 1018 100 6437 2.6 120 20:22 26.10.2020
2632 Mist 4 1019 100 9656 2.6 110 19:48 26.10.2020
2633 Rain 4 1019 100 9656 2.6 110 19:28 26.10.2020
2634 Rain 4 1020 93 4828 3.1 90 18:55 26.10.2020
2635 Rain 4 1020 100 3219 2.6 80 18:36 26.10.2020
2636 Mist 4 1020 100 3219 2.6 80 18:18 26.10.2020
2637 Mist 4 1021 100 8047 2.6 90 17:40 26.10.2020
2638 Mist 4 1021 100 8047 2.6 90 17:22 26.10.2020
2639 Rain 4 1021 93 10000 3.1 90 16:44 26.10.2020
2640 Rain 3 1022 100 8047 3.6 90 16:22 26.10.2020
2641 Mist 3 1022 100 4828 3.1 80 15:45 26.10.2020
2642 Rain 3 1023 93 8047 3.1 80 15:26 26.10.2020
2643 Clouds 3 1023 93 10000 2.6 90 14:59 26.10.2020
2644 Mist 3 1024 100 9656 2.6 60 14:38 26.10.2020
2645 Rain 2 1025 93 10000 2.1 90 13:58 26.10.2020
2646 Rain 2 1025 93 10000 2.1 90 13:36 26.10.2020
2647 Rain 2 1025 93 10000 2.1 90 13:18 26.10.2020
2648 Clouds 2 1025 92 10000 2.6 100 12:42 26.10.2020
2649 Clouds 2 1025 92 10000 2.6 100 12:23 26.10.2020
2650 Clouds 2 1025 86 10000 3.1 90 11:47 26.10.2020
2651 Clouds 2 1025 80 10000 3.6 120 11:23 26.10.2020
2652 Clouds 3 1025 64 10000 1 70 10:57 26.10.2020
2653 Clouds 3 1025 64 10000 1 70 10:38 26.10.2020
2654 Clouds 2 1025 64 10000 1 70 10:19 26.10.2020
2655 Clouds 3 1026 64 10000 3.1 30 09:42 26.10.2020
2656 Clouds 3 1026 64 10000 3.1 30 09:19 26.10.2020
2657 Clouds 3 1026 64 10000 3.1 40 08:28 26.10.2020
2658 Clouds 3 1027 64 10000 2.6 40 07:52 26.10.2020
2659 Clouds 3 1027 64 10000 2.6 40 07:33 26.10.2020
2660 Clouds 3 1027 55 10000 3.1 90 06:19 26.10.2020
2661 Clouds 2 1028 51 10000 4.1 90 04:21 26.10.2020
2662 Clear 2 1029 66 10000 2.6 80 03:33 26.10.2020
2663 Clouds 3 1029 59 10000 2.6 100 01:38 26.10.2020
2664 Clouds 4 1029 47 10000 3.1 110 00:54 26.10.2020
2665 Clouds 4 1029 47 10000 3.1 110 00:31 26.10.2020
2666 Clouds 5 1028 41 10000 3.1 110 23:39 25.10.2020
2667 Clouds 5 1028 41 10000 3.1 110 23:21 25.10.2020
2668 Clouds 5 1028 38 10000 2.6 70 22:40 25.10.2020
2669 Clouds 5 1028 38 10000 2.6 70 22:20 25.10.2020
2670 Clouds 6 1028 38 10000 2.6 60 21:41 25.10.2020
2671 Clouds 6 1028 38 10000 2.6 60 21:22 25.10.2020
2672 Clouds 6 1028 38 10000 3.6 20 20:46 25.10.2020
2673 Clouds 6 1028 38 10000 3.6 20 20:28 25.10.2020
2674 Clouds 6 1028 38 10000 2.6 50 19:59 25.10.2020
2675 Clouds 6 1028 38 10000 2.6 50 19:41 25.10.2020
2676 Clouds 6 1028 38 10000 2.6 50 19:21 25.10.2020
2677 Clear 6 1028 41 10000 4.1 20 18:42 25.10.2020
2678 Clear 6 1028 41 10000 4.1 20 18:24 25.10.2020
2679 Clear 6 1028 44 10000 3.1 20 17:59 25.10.2020
2680 Clear 6 1028 44 10000 3.1 20 17:38 25.10.2020
2681 Clear 5 1028 44 10000 3.1 20 17:20 25.10.2020
2682 Clear 5 1028 48 10000 4.1 20 16:55 25.10.2020
2683 Clear 5 1028 48 10000 4.1 20 16:37 25.10.2020
2684 Clear 4 1028 48 10000 4.1 20 16:18 25.10.2020
2685 Clear 4 1028 55 10000 7.2 10 15:41 25.10.2020
2686 Clear 3 1028 55 10000 7.2 10 15:23 25.10.2020
2687 Clouds 2 1028 59 10000 5.1 360 14:40 25.10.2020
2688 Clouds 2 1028 59 10000 5.1 360 14:21 25.10.2020
2689 Clouds 1 1027 69 10000 3.6 350 13:42 25.10.2020
2690 Clouds 1 1027 69 10000 3.6 350 13:20 25.10.2020
2691 Clouds 1 1026 69 10000 4.1 340 12:47 25.10.2020
2692 Clouds 1 1026 69 10000 4.1 340 12:26 25.10.2020
2693 Clear 2 1025 59 10000 2.1 310 11:55 25.10.2020
2694 Clear 2 1025 59 10000 2.1 310 11:36 25.10.2020
2695 Clear 2 1025 59 10000 2.1 310 11:18 25.10.2020
2696 Clouds 2 1024 64 10000 2.6 340 10:44 25.10.2020
2697 Clouds 2 1024 64 10000 2.6 340 10:24 25.10.2020
2698 Clouds 3 1024 55 10000 4.6 340 09:46 25.10.2020
2699 Clouds 3 1024 55 10000 4.6 340 09:19 25.10.2020
2700 Clouds 3 1023 59 10000 5.7 350 08:47 25.10.2020
2701 Clouds 3 1023 59 10000 5.7 350 08:29 25.10.2020
2702 Clouds 3 1023 64 10000 3.1 350 07:50 25.10.2020
2703 Clouds 3 1023 64 10000 3.1 350 07:32 25.10.2020
2704 Clouds 4 1023 60 10000 5.1 340 06:50 25.10.2020
2705 Clouds 4 1022 64 10000 5.1 360 05:47 25.10.2020
2706 Clouds 4 1022 64 10000 5.1 340 04:52 25.10.2020
2707 Clouds 5 1021 60 10000 5.7 330 03:44 25.10.2020
2708 Clouds 6 1020 57 10000 7.7 330 02:18 25.10.2020
2709 Clouds 8 1018 55 10000 5.1 310 00:49 25.10.2020
2710 Clouds 8 1018 55 10000 5.1 310 00:20 25.10.2020
2711 Clouds 9 1017 55 10000 4.6 290 23:54 24.10.2020
2712 Clouds 9 1017 52 10000 4.6 290 23:26 24.10.2020
2713 Clouds 10 1017 52 10000 4.1 310 22:57 24.10.2020
2714 Clouds 10 1017 52 10000 4.1 310 22:38 24.10.2020
2715 Clouds 10 1017 51 10000 4.1 310 22:20 24.10.2020
2716 Clear 10 1016 50 10000 5.7 320 21:42 24.10.2020
2717 Clear 10 1016 50 10000 5.7 320 21:21 24.10.2020
2718 Clear 10 1016 53 10000 5.1 340 20:48 24.10.2020
2719 Clear 10 1016 53 10000 5.1 340 20:23 24.10.2020
2720 Clouds 10 1016 57 10000 4.1 310 19:55 24.10.2020
2721 Clouds 10 1016 57 10000 4.1 310 19:37 24.10.2020
2722 Clouds 10 1016 57 10000 4.1 310 19:19 24.10.2020
2723 Clouds 9 1016 61 10000 6.7 300 18:43 24.10.2020
2724 Clouds 9 1016 61 10000 6.7 300 18:24 24.10.2020
2725 Clouds 9 1016 61 10000 6.7 300 18:24 24.10.2020
2726 Clouds 8 1016 61 10000 7.7 310 17:41 24.10.2020
2727 Clouds 8 1016 61 10000 7.7 310 17:22 24.10.2020
2728 Clouds 8 1014 70 10000 6.2 290 16:45 24.10.2020
2729 Clouds 8 1014 70 10000 6.2 290 16:26 24.10.2020
2730 Clouds 8 1012 81 10000 8.2 300 15:41 24.10.2020
2731 Clouds 8 1012 81 10000 8.2 300 15:20 24.10.2020
2732 Clouds 10 1011 87 10000 8.7 290 14:56 24.10.2020
2733 Clouds 11 1009 93 10000 6.2 270 14:29 24.10.2020
2734 Rain 12 1009 87 10000 7.7 280 13:49 24.10.2020
2735 Rain 13 1007 93 4023 7.2 260 13:31 24.10.2020
2736 Rain 15 1007 93 4828 7.7 260 12:58 24.10.2020
2737 Mist 16 1006 93 4828 5.1 190 12:37 24.10.2020
2738 Rain 16 1006 93 4828 5.1 190 12:19 24.10.2020
2739 Clouds 17 1006 93 10000 7.2 180 11:43 24.10.2020
2740 Rain 17 1006 93 10000 7.2 180 11:18 24.10.2020
2741 Clouds 17 1006 82 10000 8.2 170 10:39 24.10.2020
2742 Clouds 17 1006 82 10000 8.2 170 10:18 24.10.2020
2743 Rain 17 1006 82 10000 8.2 180 09:44 24.10.2020
2744 Clouds 18 1006 82 10000 8.7 180 09:25 24.10.2020
2745 Clouds 18 1006 77 10000 10.8 190 08:54 24.10.2020
2746 Clouds 18 1006 77 10000 10.8 190 08:18 24.10.2020
2747 Clouds 18 1006 77 10000 10.8 190 08:18 24.10.2020
2748 Clouds 18 1006 77 10000 9.3 180 07:49 24.10.2020
2749 Clouds 18 1006 77 10000 9.3 180 07:20 24.10.2020
2750 Clear 18 1007 72 10000 8.2 180 06:49 24.10.2020
2751 Clear 19 1008 72 10000 7.7 170 04:59 24.10.2020
2752 Clear 20 1010 72 10000 8.7 180 02:20 24.10.2020
2753 Clouds 20 1011 68 10000 7.7 170 00:54 24.10.2020
2754 Clouds 21 1011 68 10000 7.7 170 00:36 24.10.2020
2755 Clouds 21 1011 68 10000 7.7 170 00:18 24.10.2020
2756 Clouds 21 1012 64 10000 7.7 170 23:39 23.10.2020
2757 Clouds 21 1012 64 10000 7.7 170 23:20 23.10.2020
2758 Clouds 22 1012 68 10000 6.7 170 22:42 23.10.2020
2759 Clouds 22 1012 68 10000 6.7 170 22:21 23.10.2020
2760 Clouds 22 1013 68 10000 5.7 180 21:53 23.10.2020
2761 Clouds 23 1013 68 10000 5.7 180 21:30 23.10.2020
2762 Clouds 22 1014 68 10000 5.1 180 20:59 23.10.2020
2763 Clouds 22 1014 68 10000 5.1 180 20:38 23.10.2020
2764 Clouds 22 1014 68 10000 5.1 180 20:19 23.10.2020
2765 Clouds 21 1015 73 10000 7.2 190 19:44 23.10.2020
2766 Clouds 20 1015 73 10000 7.2 190 19:26 23.10.2020
2767 Clouds 18 1017 72 10000 7.2 200 18:47 23.10.2020
2768 Clouds 18 1017 72 10000 7.2 200 18:29 23.10.2020
2769 Clouds 16 1017 77 10000 7.7 190 17:45 23.10.2020
2770 Clouds 15 1017 77 10000 7.7 190 17:21 23.10.2020
2771 Clouds 15 1018 77 10000 7.2 180 16:50 23.10.2020
2772 Clouds 14 1018 77 10000 2.1 190 16:31 23.10.2020
2773 Clear 12 1019 93 10000 1.5 30 15:56 23.10.2020
2774 Clear 11 1019 93 10000 1.5 30 15:38 23.10.2020
2775 Clouds 10 1020 93 10000 2.1 20 15:19 23.10.2020
2776 Clouds 10 1020 93 10000 2.1 20 14:45 23.10.2020
2777 Clouds 10 1020 93 10000 2.1 20 14:45 23.10.2020
2778 Clouds 10 1020 93 10000 2.1 20 14:45 23.10.2020
2779 Clouds 9 1020 93 10000 2.1 20 14:27 23.10.2020
2780 Clouds 9 1020 87 10000 2.1 10 13:42 23.10.2020
2781 Clouds 9 1020 87 10000 2.1 10 13:23 23.10.2020
2782 Clouds 10 1020 87 10000 2.6 30 12:50 23.10.2020
2783 Clouds 10 1020 87 10000 2.6 30 12:30 23.10.2020
2784 Clouds 10 1020 87 10000 3.6 30 11:50 23.10.2020
2785 Clouds 10 1020 87 10000 3.6 30 11:27 23.10.2020
2786 Clouds 10 1020 93 10000 3.6 20 10:54 23.10.2020
2787 Clouds 10 1020 93 10000 3.6 20 10:26 23.10.2020
2788 Clouds 10 1021 87 10000 3.1 40 09:57 23.10.2020
2789 Clouds 10 1021 87 10000 3.1 40 09:39 23.10.2020
2790 Clouds 10 1021 87 10000 3.1 40 09:20 23.10.2020
2791 Clouds 11 1022 81 10000 3.1 30 08:49 23.10.2020
2792 Clouds 11 1022 81 10000 3.1 30 08:24 23.10.2020
2793 Clouds 11 1023 81 10000 3.1 50 07:26 23.10.2020
2794 Clouds 11 1023 81 10000 3.1 50 07:26 23.10.2020
2795 Clouds 10 1023 93 10000 2.6 40 06:49 23.10.2020
2796 Clouds 11 1023 93 10000 2.6 40 06:19 23.10.2020
2797 Clouds 11 1025 81 10000 2.1 90 03:38 23.10.2020
2798 Clouds 11 1025 81 10000 1.5 110 02:26 23.10.2020
2799 Clouds 12 1025 62 10000 1 290 00:49 23.10.2020
2800 Clouds 12 1025 62 10000 1 290 00:29 23.10.2020
2801 Clouds 13 1024 66 10000 1 230 23:37 22.10.2020
2802 Clouds 13 1024 66 10000 1 230 23:18 22.10.2020
2803 Clouds 13 1024 71 10000 2.1 220 22:44 22.10.2020
2804 Clouds 13 1024 71 10000 2.1 220 22:22 22.10.2020
2805 Clouds 13 1025 66 10000 2.6 230 21:49 22.10.2020
2806 Clouds 13 1025 66 10000 2.6 230 21:31 22.10.2020
2807 Clouds 13 1025 62 10000 2.13 255 20:59 22.10.2020
2808 Clouds 13 1025 62 10000 2.13 255 20:41 22.10.2020
2809 Clouds 13 1025 62 10000 2.38 261 20:21 22.10.2020
2810 Clouds 13 1025 71 10000 2.1 290 19:42 22.10.2020
2811 Clouds 12 1025 71 10000 2.1 290 19:20 22.10.2020
2812 Clouds 11 1026 81 10000 2.6 230 18:44 22.10.2020
2813 Clouds 11 1026 81 10000 2.6 230 18:22 22.10.2020
2814 Clouds 11 1025 87 10000 3.1 220 17:48 22.10.2020
2815 Clouds 11 1025 87 10000 3.1 220 17:26 22.10.2020
2816 Clouds 10 1025 87 10000 2.6 210 16:59 22.10.2020
2817 Clouds 10 1025 87 10000 2.6 210 16:41 22.10.2020
2818 Clouds 10 1025 87 10000 2.6 210 16:23 22.10.2020
2819 Clouds 9 1025 93 10000 2.1 180 15:48 22.10.2020
2820 Clouds 9 1025 93 10000 2.1 180 15:25 22.10.2020
2821 Clouds 9 1025 93 10000 1.5 200 14:50 22.10.2020
2822 Clouds 9 1025 93 10000 1.5 200 14:26 22.10.2020
2823 Clouds 9 1025 93 10000 1.5 200 14:26 22.10.2020
2824 Clouds 9 1025 93 10000 4.6 230 13:49 22.10.2020
2825 Clouds 8 1025 93 10000 4.6 230 13:24 22.10.2020
2826 Clouds 8 1025 100 10000 2.6 220 12:57 22.10.2020
2827 Clouds 7 1025 100 10000 2.6 220 12:27 22.10.2020
2828 Clear 7 1024 100 10000 2.6 200 11:50 22.10.2020
2829 Clear 7 1024 100 10000 2.6 200 11:20 22.10.2020
2830 Clear 7 1024 100 10000 1.5 180 10:52 22.10.2020
2831 Clear 7 1024 100 10000 1.5 180 10:30 22.10.2020
2832 Clear 7 1023 93 10000 2.6 200 09:57 22.10.2020
2833 Clear 8 1023 93 10000 2.6 200 09:38 22.10.2020
2834 Clear 8 1023 81 10000 1.5 220 08:56 22.10.2020
2835 Clear 8 1023 81 10000 1.5 220 08:37 22.10.2020
2836 Clear 8 1023 81 10000 1.5 220 08:18 22.10.2020
2837 Clear 9 1023 81 10000 3.6 270 07:42 22.10.2020
2838 Clear 9 1022 81 10000 4.6 240 06:59 22.10.2020
2839 Clear 10 1022 81 10000 4.6 240 06:36 22.10.2020
2840 Clear 11 1022 76 10000 4.6 260 05:42 22.10.2020
2841 Clear 11 1022 76 10000 4.6 260 05:20 22.10.2020
2842 Clouds 14 1018 82 10000 4.6 260 01:57 22.10.2020
2843 Clouds 14 1017 82 10000 4.6 260 00:27 22.10.2020
2844 Clouds 14 1017 87 10000 6.2 270 23:58 21.10.2020
2845 Clouds 14 1016 93 10000 5.7 280 23:37 21.10.2020
2846 Mist 14 1016 87 6437 7.2 280 22:58 21.10.2020
2847 Clouds 15 1014 87 10000 5.1 190 22:36 21.10.2020
2848 Clouds 16 1014 87 10000 5.1 190 22:18 21.10.2020
2849 Clouds 16 1014 87 10000 8.2 180 21:42 21.10.2020
2850 Clouds 16 1014 87 10000 8.2 180 21:19 21.10.2020
2851 Clouds 16 1014 87 10000 9.8 170 20:48 21.10.2020
2852 Clouds 15 1014 87 10000 9.8 170 20:19 21.10.2020
2853 Clouds 15 1015 93 10000 9.8 170 19:59 21.10.2020
2854 Rain 15 1015 87 10000 9.3 170 19:38 21.10.2020
2855 Clouds 14 1015 87 10000 9.3 170 19:18 21.10.2020
2856 Clouds 14 1016 93 10000 8.2 180 18:46 21.10.2020
2857 Rain 13 1016 93 10000 8.2 180 18:25 21.10.2020
2858 Clouds 12 1017 93 10000 8.2 170 17:45 21.10.2020
2859 Mist 10 1017 100 9656 4.6 160 17:20 21.10.2020
2860 Mist 7 1018 100 6437 2.6 140 16:56 21.10.2020
2861 Rain 7 1019 93 8047 5.32 159 16:36 21.10.2020
2862 Rain 6 1019 100 6437 2.1 110 16:18 21.10.2020
2863 Rain 5 1020 100 3621 1.5 70 15:42 21.10.2020
2864 Rain 5 1021 100 4023 2.6 20 15:20 21.10.2020
2865 Rain 5 1021 100 1609 2.6 50 14:45 21.10.2020
2866 Rain 5 1021 100 1609 2.6 50 14:27 21.10.2020
2867 Clouds 5 1022 93 10000 4.6 50 13:46 21.10.2020
2868 Clouds 5 1022 93 10000 4.6 50 13:26 21.10.2020
2869 Clouds 5 1023 86 10000 4.6 50 12:55 21.10.2020
2870 Clouds 5 1024 86 10000 5.1 30 12:37 21.10.2020
2871 Clouds 5 1024 86 10000 4.6 40 12:18 21.10.2020
2872 Clouds 5 1025 86 10000 4.1 40 11:40 21.10.2020
2873 Clouds 5 1025 86 10000 4.1 40 11:20 21.10.2020
2874 Clouds 5 1026 86 10000 4.6 40 10:46 21.10.2020
2875 Clouds 5 1026 86 10000 4.6 40 10:25 21.10.2020
2876 Clouds 5 1027 86 10000 3.6 40 09:53 21.10.2020
2877 Clouds 5 1027 86 10000 3.6 40 09:53 21.10.2020
2878 Clouds 5 1027 86 10000 3.6 40 09:33 21.10.2020
2879 Clouds 5 1028 75 10000 3.6 60 08:56 21.10.2020
2880 Clouds 5 1028 75 10000 3.6 60 08:56 21.10.2020
2881 Clouds 5 1028 75 10000 3.6 60 08:38 21.10.2020
2882 Clouds 6 1028 81 10000 2.6 50 08:19 21.10.2020
2883 Clouds 6 1028 81 10000 2.6 50 08:19 21.10.2020
2884 Clouds 6 1028 81 10000 2.6 50 07:37 21.10.2020
2885 Clouds 6 1029 81 10000 2.6 50 06:52 21.10.2020
2886 Clouds 6 1029 81 10000 2.6 50 06:27 21.10.2020
2887 Clouds 7 1029 81 10000 3.1 70 04:47 21.10.2020
2888 Clouds 9 1028 87 10000 3.1 20 00:51 21.10.2020
2889 Clouds 9 1026 81 10000 2.6 280 23:49 20.10.2020
2890 Clouds 10 1026 81 10000 2.6 280 22:54 20.10.2020
2891 Clouds 10 1026 81 10000 2.1 280 22:28 20.10.2020
2892 Clouds 10 1025 81 10000 3.6 260 21:50 20.10.2020
2893 Clouds 10 1024 87 10000 5.1 240 21:21 20.10.2020
2894 Clouds 10 1024 87 10000 5.1 240 20:56 20.10.2020
2895 Clouds 10 1024 87 10000 5.1 240 20:36 20.10.2020
2896 Clouds 10 1024 93 10000 3.6 250 20:18 20.10.2020
2897 Clouds 9 1024 93 10000 3.6 250 19:42 20.10.2020
2898 Clouds 9 1024 93 10000 3.6 250 19:22 20.10.2020
2899 Clouds 9 1023 93 10000 3.6 230 18:52 20.10.2020
2900 Clouds 9 1023 93 10000 2.1 220 18:34 20.10.2020
2901 Clouds 8 1023 93 10000 2.1 300 17:48 20.10.2020
2902 Clouds 8 1023 93 10000 2.1 300 17:29 20.10.2020
2903 Clouds 8 1022 100 10000 2.6 300 16:48 20.10.2020
2904 Clouds 7 1022 100 10000 2.6 300 16:28 20.10.2020
2905 Rain 7 1021 93 10000 3.1 330 15:57 20.10.2020
2906 Rain 7 1021 93 10000 3.1 330 15:39 20.10.2020
2907 Rain 7 1020 100 9656 3.1 320 15:19 20.10.2020
2908 Rain 7 1021 94 7056 2.89 277 14:42 20.10.2020
2909 Rain 7 1020 94 10000 0.38 317 14:24 20.10.2020
2910 Rain 7 1019 94 10000 1.92 324 13:44 20.10.2020
2911 Rain 7 1019 94 7821 1.96 27 13:25 20.10.2020
2912 Rain 7 1019 94 7821 0.45 138 12:59 20.10.2020
2913 Rain 8 1019 94 7821 0.45 138 12:40 20.10.2020
2914 Rain 7 1019 94 3065 2.88 343 12:22 20.10.2020
2915 Rain 8 1018 100 4828 3.1 330 11:45 20.10.2020
2916 Rain 8 1018 100 4828 3.1 330 11:27 20.10.2020
2917 Rain 9 1018 100 4828 3.1 330 10:38 20.10.2020
2918 Rain 9 1018 100 3219 2.6 10 10:19 20.10.2020
2919 Rain 9 1019 93 4828 2.6 360 09:43 20.10.2020
2920 Mist 9 1019 93 4828 3.1 40 09:19 20.10.2020
2921 Mist 9 1020 93 3219 3.1 20 08:39 20.10.2020
2922 Rain 9 1020 93 2816 3.1 30 07:54 20.10.2020
2923 Mist 9 1021 93 3621 3.6 40 07:26 20.10.2020
2924 Clouds 9 1022 93 10000 3.1 50 06:34 20.10.2020
2925 Clouds 9 1022 93 10000 2.6 60 05:53 20.10.2020
2926 Mist 9 1024 100 3621 1.5 360 03:58 20.10.2020
2927 Mist 9 1025 100 3219 1.5 50 02:30 20.10.2020
2928 Rain 9 1025 100 4828 1.5 10 01:20 20.10.2020
2929 Rain 9 1025 100 10000 2.1 340 00:50 20.10.2020
2930 Rain 9 1025 93 10000 1.5 310 00:23 20.10.2020
2931 Rain 9 1025 93 10000 2.6 330 23:48 19.10.2020
2932 Rain 9 1025 93 10000 2.6 330 23:24 19.10.2020
2933 Rain 10 1025 93 10000 0.45 319 22:51 19.10.2020
2934 Rain 10 1025 93 10000 0.45 306 22:25 19.10.2020
2935 Rain 10 1025 93 10000 0.45 321 21:50 19.10.2020
2936 Rain 10 1025 93 7950 0.45 333 21:23 19.10.2020
2937 Rain 10 1025 92 7950 0.89 181 20:54 19.10.2020
2938 Rain 10 1021 88 7950 1.5 315 20:36 19.10.2020
2939 Rain 10 1025 89 10000 0.89 303 19:59 19.10.2020
2940 Rain 10 1025 88 10000 0.45 268 19:41 19.10.2020
2941 Rain 11 1025 84 10000 1.34 302 19:19 19.10.2020
2942 Rain 12 1025 78 10000 0.45 260 18:43 19.10.2020
2943 Rain 12 1025 73 10000 0.45 251 18:19 19.10.2020
2944 Clouds 12 1025 73 10000 2.21 297 17:46 19.10.2020
2945 Clouds 12 1025 72 10000 2.19 281 17:26 19.10.2020
2946 Clouds 12 1025 73 10000 0.45 321 16:52 19.10.2020
2947 Rain 12 1025 71 10000 0.45 325 16:29 19.10.2020
2948 Clouds 12 1025 72 10000 0.45 332 15:46 19.10.2020
2949 Rain 12 1024 72 10000 0.45 239 15:25 19.10.2020
2950 Clouds 12 1024 73 10000 0.89 245 14:57 19.10.2020
2951 Clouds 12 1024 72 10000 0.89 253 14:28 19.10.2020
2952 Clouds 12 1023 71 10000 1.79 221 13:59 19.10.2020
2953 Clouds 12 1023 71 10000 1.79 221 13:41 19.10.2020
2954 Rain 12 1023 71 10000 1.34 224 13:22 19.10.2020
2955 Clouds 12 1023 71 10000 0.89 222 12:43 19.10.2020
2956 Clouds 12 1022 70 10000 1.34 223 12:25 19.10.2020
2957 Clouds 13 1022 69 10000 1.34 211 11:42 19.10.2020
2958 Clouds 13 1022 66 10000 6.2 180 11:21 19.10.2020
2959 Clouds 13 1022 66 10000 6.2 180 10:44 19.10.2020
2960 Clouds 13 1022 66 10000 6.2 180 10:23 19.10.2020
2961 Clouds 13 1022 62 10000 5.7 180 09:56 19.10.2020
2962 Clouds 13 1022 62 10000 5.7 180 09:24 19.10.2020
2963 Clouds 13 1022 58 10000 8.2 180 08:49 19.10.2020
2964 Clouds 13 1022 58 10000 8.2 180 08:24 19.10.2020
2965 Clouds 13 1023 54 10000 9.3 180 07:56 19.10.2020
2966 Clouds 13 1023 54 10000 9.3 180 07:20 19.10.2020
2967 Clouds 13 1023 54 10000 11.3 180 06:23 19.10.2020
2968 Clouds 13 1023 47 10000 6.7 170 04:47 19.10.2020
2969 Clouds 12 1024 50 10000 5.7 150 03:45 19.10.2020
2970 Clouds 13 1025 47 10000 6.7 170 01:33 19.10.2020
2971 Clouds 14 1025 43 10000 6.2 170 00:28 19.10.2020
2972 Clouds 14 1025 45 10000 8.2 180 23:56 18.10.2020
2973 Clouds 14 1025 45 10000 8.2 180 23:37 18.10.2020
2974 Clouds 14 1025 45 10000 8.2 180 23:18 18.10.2020
2975 Clouds 14 1025 41 10000 9.8 180 22:43 18.10.2020
2976 Clouds 14 1025 41 10000 9.8 180 22:18 18.10.2020
2977 Clouds 15 1026 41 10000 8.7 170 21:41 18.10.2020
2978 Clouds 15 1026 41 10000 8.7 170 21:21 18.10.2020
2979 Clouds 15 1026 38 10000 10.3 170 20:44 18.10.2020
2980 Clouds 15 1026 38 10000 10.3 170 20:24 18.10.2020
2981 Clear 15 1027 38 10000 7.2 180 19:50 18.10.2020
2982 Clear 15 1027 38 10000 7.2 180 19:27 18.10.2020
2983 Clouds 14 1028 47 10000 8.7 180 18:51 18.10.2020
2984 Clouds 14 1028 47 10000 8.7 180 18:31 18.10.2020
2985 Clouds 13 1029 54 10000 9.8 180 17:59 18.10.2020
2986 Clouds 13 1028 43 10000 8.2 160 17:41 18.10.2020
2987 Clouds 12 1029 54 10000 9.8 180 17:22 18.10.2020
2988 Clouds 11 1029 66 10000 7.2 170 16:43 18.10.2020
2989 Clouds 10 1029 66 10000 7.2 170 16:24 18.10.2020
2990 Clouds 9 1029 75 10000 4.1 180 15:43 18.10.2020
2991 Clouds 8 1029 75 10000 4.1 180 15:22 18.10.2020
2992 Clouds 7 1029 65 10000 5.1 160 14:58 18.10.2020
2993 Clouds 7 1029 65 10000 5.1 160 14:37 18.10.2020
2994 Clouds 6 1029 65 10000 5.1 160 14:18 18.10.2020
2995 Clouds 6 1028 70 10000 5.7 150 13:41 18.10.2020
2996 Clear 5 1029 93 10000 2.1 160 13:23 18.10.2020
2997 Clear 5 1029 93 10000 2.1 160 12:43 18.10.2020
2998 Clear 5 1029 93 10000 2.1 160 12:24 18.10.2020
2999 Clear 5 1028 93 10000 2.6 150 11:55 18.10.2020
3000 Clear 5 1028 93 10000 2.6 150 11:37 18.10.2020
3001 Clear 5 1028 93 10000 2.6 150 11:18 18.10.2020
3002 Clear 5 1028 64 10000 1.5 150 10:39 18.10.2020
3003 Clear 5 1028 64 10000 1.5 150 10:19 18.10.2020
3004 Clear 5 1028 64 10000 2.1 170 09:47 18.10.2020
3005 Clear 6 1028 63 10000 2.1 170 09:21 18.10.2020
3006 Clear 6 1028 63 10000 2.1 180 08:56 18.10.2020
3007 Clear 6 1028 63 10000 2.1 180 08:36 18.10.2020
3008 Clear 6 1028 61 10000 2.1 180 08:18 18.10.2020
3009 Clear 7 1026 64 10000 3.1 190 05:59 18.10.2020
3010 Clear 8 1025 65 10000 3.6 190 03:58 18.10.2020
3011 Clear 8 1024 65 10000 3.1 220 02:54 18.10.2020
3012 Clear 10 1024 57 10000 4.1 220 01:36 18.10.2020
3013 Clear 10 1024 55 10000 2.6 220 00:46 18.10.2020
3014 Clear 10 1024 50 10000 2.6 220 00:24 18.10.2020
3015 Clear 12 1023 50 10000 6.2 270 23:42 17.10.2020
3016 Clear 12 1023 47 10000 6.2 270 23:21 17.10.2020
3017 Clear 13 1023 40 10000 8.2 270 22:59 17.10.2020
3018 Clear 13 1023 40 10000 8.2 270 22:39 17.10.2020
3019 Clear 13 1023 40 10000 8.2 270 22:19 17.10.2020
3020 Clear 13 1023 44 10000 6.2 270 21:43 17.10.2020
3021 Clear 13 1023 42 10000 6.2 270 21:22 17.10.2020
3022 Clear 12 1023 40 10000 5.1 290 20:48 17.10.2020
3023 Clear 13 1023 40 10000 5.1 290 20:21 17.10.2020
3024 Clear 13 1023 40 10000 5.1 290 20:21 17.10.2020
3025 Clouds 12 1024 45 10000 5.1 260 19:47 17.10.2020
3026 Clouds 12 1024 53 10000 4.1 280 19:25 17.10.2020
3027 Clear 11 1024 57 10000 1.5 240 18:59 17.10.2020
3028 Clear 11 1024 57 10000 1.5 240 18:41 17.10.2020
3029 Clear 10 1024 57 10000 1.5 240 18:18 17.10.2020
3030 Clouds 10 1024 66 10000 3.1 290 17:42 17.10.2020
3031 Clouds 9 1024 66 10000 3.1 290 17:21 17.10.2020
3032 Clouds 8 1024 81 10000 3.6 310 16:48 17.10.2020
3033 Clouds 8 1024 81 10000 3.6 310 16:23 17.10.2020
3034 Clouds 7 1023 93 10000 3.1 310 15:55 17.10.2020
3035 Clouds 6 1023 93 10000 3.1 310 15:36 17.10.2020
3036 Clouds 6 1023 93 10000 3.1 310 15:18 17.10.2020
3037 Clouds 5 1023 100 10000 1.5 330 14:39 17.10.2020
3038 Clouds 5 1023 100 10000 1.5 330 14:20 17.10.2020
3039 Clouds 5 1022 93 10000 1 340 13:48 17.10.2020
3040 Clouds 5 1022 93 10000 1 340 13:30 17.10.2020
3041 Clouds 5 1022 100 10000 2.1 330 13:00 17.10.2020
3042 Clouds 5 1022 100 10000 2.1 330 12:39 17.10.2020
3043 Clouds 5 1022 100 10000 2.1 330 12:19 17.10.2020
3044 Clouds 6 1022 93 10000 1 0 11:52 17.10.2020
3045 Clouds 6 1022 93 10000 1 0 11:28 17.10.2020
3046 Clouds 6 1023 93 10000 1.5 330 10:34 17.10.2020
3047 Clouds 6 1022 87 10000 2.1 300 09:59 17.10.2020
3048 Clouds 6 1022 87 10000 2.1 300 09:40 17.10.2020
3049 Clouds 6 1022 87 10000 2.1 300 09:18 17.10.2020
3050 Clouds 6 1022 87 10000 2.1 310 08:37 17.10.2020
3051 Clouds 6 1022 87 10000 2.1 310 08:18 17.10.2020
3052 Clouds 7 1022 87 10000 2.6 280 07:28 17.10.2020
3053 Clouds 7 1022 87 10000 3.1 270 06:42 17.10.2020
3054 Clouds 9 1021 81 10000 4.6 230 03:56 17.10.2020
3055 Clouds 9 1021 81 10000 4.1 210 02:28 17.10.2020
3056 Clouds 9 1020 93 10000 3.1 200 00:53 17.10.2020
3057 Clouds 10 1019 93 10000 3.1 190 00:30 17.10.2020
3058 Rain 10 1019 87 10000 3.1 180 23:38 16.10.2020
3059 Clouds 10 1019 87 10000 3.1 180 23:19 16.10.2020
3060 Clouds 10 1018 87 10000 3.6 200 22:41 16.10.2020
3061 Clouds 10 1018 87 10000 3.6 200 22:22 16.10.2020
3062 Clouds 10 1018 87 10000 3.1 200 21:47 16.10.2020
3063 Clouds 10 1018 93 10000 3.1 190 21:25 16.10.2020
3064 Clouds 11 1018 93 10000 3.1 180 20:46 16.10.2020
3065 Clouds 10 1018 93 10000 2.6 190 20:25 16.10.2020
3066 Clouds 10 1018 93 10000 2.6 170 19:51 16.10.2020
3067 Clouds 10 1018 93 10000 2.1 170 19:28 16.10.2020
3068 Clouds 10 1019 87 10000 4.6 200 18:58 16.10.2020
3069 Clouds 10 1019 100 10000 3.6 210 18:40 16.10.2020
3070 Rain 10 1019 100 10000 3.6 210 18:21 16.10.2020
3071 Rain 10 1019 93 10000 2.6 200 17:41 16.10.2020
3072 Rain 10 1019 93 10000 2.6 200 17:23 16.10.2020
3073 Rain 10 1018 93 10000 2.1 210 16:41 16.10.2020
3074 Rain 10 1018 93 10000 2.1 210 16:22 16.10.2020
3075 Rain 10 1018 93 10000 2.6 200 15:25 16.10.2020
3076 Rain 10 1017 93 10000 4.1 210 14:59 16.10.2020
3077 Rain 10 1017 93 10000 4.1 210 14:39 16.10.2020
3078 Rain 10 1017 93 10000 4.1 210 14:18 16.10.2020
3079 Rain 10 1017 93 10000 2.6 190 13:44 16.10.2020
3080 Rain 10 1017 93 10000 2.6 190 13:25 16.10.2020
3081 Rain 10 1016 100 10000 3.1 200 12:59 16.10.2020
3082 Rain 10 1016 100 10000 3.1 200 12:28 16.10.2020
3083 Rain 10 1016 100 10000 3.1 210 11:59 16.10.2020
3084 Rain 10 1016 100 10000 3.1 210 11:40 16.10.2020
3085 Rain 10 1016 100 10000 3.1 210 11:20 16.10.2020
3086 Clouds 10 1015 100 10000 2.6 200 10:48 16.10.2020
3087 Clouds 10 1015 100 10000 2.6 210 10:28 16.10.2020
3088 Rain 10 1015 93 10000 2.6 190 09:41 16.10.2020
3089 Rain 10 1015 93 10000 2.6 190 09:22 16.10.2020
3090 Rain 10 1014 93 10000 3.6 220 08:48 16.10.2020
3091 Rain 10 1014 93 10000 3.6 220 08:29 16.10.2020
3092 Clouds 10 1014 93 10000 4.6 220 07:45 16.10.2020
3093 Rain 10 1014 93 10000 4.6 220 07:20 16.10.2020
3094 Rain 11 1014 93 10000 5.7 220 06:37 16.10.2020
3095 Rain 12 1011 81 10000 8.2 260 03:53 16.10.2020
3096 Rain 13 1011 76 10000 8.2 270 02:18 16.10.2020
3097 Clouds 16 1008 67 10000 7.2 290 00:53 16.10.2020
3098 Clouds 16 1008 67 10000 7.2 290 00:22 16.10.2020
3099 Clouds 17 1007 67 10000 6.7 290 23:40 15.10.2020
3100 Clouds 19 1007 52 10000 9.3 280 23:19 15.10.2020
3101 Clouds 22 1005 43 10000 5.1 210 22:49 15.10.2020
3102 Clouds 22 1005 43 10000 5.1 210 22:23 15.10.2020
3103 Clear 22 1004 43 10000 6.2 180 21:55 15.10.2020
3104 Clear 22 1004 43 10000 6.2 180 21:36 15.10.2020
3105 Clear 22 1004 43 10000 6.2 180 21:18 15.10.2020
3106 Clear 22 1004 46 10000 9.8 190 20:43 15.10.2020
3107 Clear 21 1004 46 10000 9.8 190 20:20 15.10.2020
3108 Clear 19 1004 48 10000 9.3 170 19:42 15.10.2020
3109 Clear 19 1004 48 10000 9.3 170 19:22 15.10.2020
3110 Clouds 18 1005 51 10000 11.3 180 18:44 15.10.2020
3111 Clouds 18 1005 51 10000 11.3 180 18:44 15.10.2020
3112 Clouds 17 1005 51 10000 11.3 180 18:25 15.10.2020
3113 Clouds 16 1005 51 10000 10.8 180 17:57 15.10.2020
3114 Clouds 16 1005 51 10000 10.8 180 17:38 15.10.2020
3115 Clouds 16 1005 51 10000 10.8 180 17:20 15.10.2020
3116 Clouds 15 1006 54 10000 11.3 180 16:43 15.10.2020
3117 Clouds 15 1006 54 10000 11.3 180 16:20 15.10.2020
3118 Clear 14 1006 54 10000 10.8 170 15:42 15.10.2020
3119 Clear 13 1006 54 10000 10.8 170 15:22 15.10.2020
3120 Clouds 12 1007 62 10000 6.7 150 14:49 15.10.2020
3121 Clouds 12 1007 62 10000 6.7 150 14:24 15.10.2020
3122 Clouds 11 1008 57 10000 6.7 160 13:47 15.10.2020
3123 Clouds 11 1008 57 10000 6.7 160 13:26 15.10.2020
3124 Clouds 10 1009 66 10000 4.1 140 12:56 15.10.2020
3125 Clouds 10 1009 66 10000 4.1 140 12:37 15.10.2020
3126 Clouds 9 1009 66 10000 4.1 140 12:18 15.10.2020
3127 Clear 8 1011 75 10000 4.1 130 11:42 15.10.2020
3128 Clear 8 1011 75 10000 4.1 130 11:20 15.10.2020
3129 Clear 9 1012 81 10000 4.1 150 10:45 15.10.2020
3130 Clear 9 1012 81 10000 4.1 150 10:26 15.10.2020
3131 Clouds 9 1013 87 10000 2.6 140 09:40 15.10.2020
3132 Clouds 9 1013 87 10000 2.6 140 09:21 15.10.2020
3133 Clouds 9 1014 81 10000 1 220 08:54 15.10.2020
3134 Clouds 9 1014 81 10000 1 220 08:33 15.10.2020
3135 Clouds 9 1013 81 10000 2.1 160 07:32 15.10.2020
3136 Clouds 8 1013 81 10000 1.5 120 06:27 15.10.2020
3137 Clear 9 1014 75 10000 1 170 04:19 15.10.2020
3138 Clear 11 1013 54 10000 2.6 220 01:46 15.10.2020
3139 Clear 11 1013 54 10000 2.6 220 01:20 15.10.2020
3140 Clear 13 1013 50 10000 4.6 260 00:24 15.10.2020
3141 Clouds 14 1012 47 10000 6.2 280 23:54 14.10.2020
3142 Clouds 14 1012 47 10000 6.2 280 23:54 14.10.2020
3143 Clouds 14 1012 47 10000 6.2 280 23:36 14.10.2020
3144 Clouds 15 1012 47 10000 6.2 280 23:18 14.10.2020
3145 Clear 15 1012 54 10000 6.2 270 22:42 14.10.2020
3146 Clear 15 1012 54 10000 6.2 270 22:24 14.10.2020
3147 Clouds 15 1011 54 10000 8.2 260 21:44 14.10.2020
3148 Clouds 15 1011 54 10000 8.2 260 21:23 14.10.2020
3149 Clouds 15 1010 62 10000 6.7 270 20:46 14.10.2020
3150 Clouds 15 1010 62 10000 6.7 270 20:20 14.10.2020
3151 Clear 15 1010 67 10000 6.7 250 19:51 14.10.2020
3152 Clear 15 1010 67 10000 6.7 250 19:29 14.10.2020
3153 Clouds 14 1010 76 10000 5.1 220 18:57 14.10.2020
3154 Clouds 14 1010 76 10000 5.1 220 18:39 14.10.2020
3155 Clouds 13 1010 76 10000 5.1 220 18:20 14.10.2020
3156 Clouds 12 1011 81 10000 4.1 230 17:44 14.10.2020
3157 Clouds 11 1011 87 10000 4.1 210 17:21 14.10.2020
3158 Clouds 11 1011 87 10000 3.1 220 16:44 14.10.2020
3159 Mist 10 1011 93 9656 5.1 230 16:23 14.10.2020
3160 Mist 10 1011 93 8047 4.1 220 15:47 14.10.2020
3161 Clouds 10 1011 93 10000 3.6 210 15:28 14.10.2020
3162 Clouds 9 1011 100 10000 1.5 190 14:47 14.10.2020
3163 Clouds 9 1011 100 10000 1.5 190 14:47 14.10.2020
3164 Clouds 9 1011 100 10000 1.5 190 14:22 14.10.2020
3165 Clouds 9 1011 100 10000 2.1 220 13:51 14.10.2020
3166 Mist 9 1011 100 9656 3.1 230 13:27 14.10.2020
3167 Clouds 9 1011 100 10000 2.1 250 12:58 14.10.2020
3168 Clouds 9 1011 100 10000 2.1 250 12:40 14.10.2020
3169 Clouds 9 1011 100 10000 2.1 250 12:19 14.10.2020
3170 Clouds 9 1011 100 10000 2.6 260 11:46 14.10.2020
3171 Clouds 9 1011 100 10000 2.6 260 11:27 14.10.2020
3172 Clouds 9 1011 100 10000 3.6 270 10:57 14.10.2020
3173 Clouds 9 1011 100 10000 2.6 270 10:39 14.10.2020
3174 Clouds 9 1011 100 10000 2.6 270 10:19 14.10.2020
3175 Mist 9 1011 100 4828 3.6 280 09:42 14.10.2020
3176 Mist 9 1011 100 8047 3.6 280 08:50 14.10.2020
3177 Mist 9 1011 100 8047 2.1 280 08:30 14.10.2020
3178 Mist 9 1011 100 9656 3.6 330 07:45 14.10.2020
3179 Mist 9 1011 100 1207 3.1 330 07:21 14.10.2020
3180 Mist 9 1011 100 1207 4.1 310 06:54 14.10.2020
3181 Mist 9 1011 100 1207 4.6 300 06:36 14.10.2020
3182 Mist 10 1011 100 8047 0.92 49 05:29 14.10.2020
3183 Mist 11 1012 93 4828 1 160 02:27 14.10.2020
3184 Mist 11 1012 93 8047 2.6 150 01:34 14.10.2020
3185 Mist 11 1012 100 9656 4.1 150 00:29 14.10.2020
3186 Mist 11 1012 100 4828 4.6 160 23:50 13.10.2020
3187 Mist 11 1012 100 2816 4.1 160 23:23 13.10.2020
3188 Mist 11 1012 100 2816 5.1 170 22:44 13.10.2020
3189 Mist 11 1013 93 2414 5.1 170 22:25 13.10.2020
3190 Mist 10 1013 100 4828 3.6 160 21:55 13.10.2020
3191 Mist 11 1013 100 4828 3.6 160 21:37 13.10.2020
3192 Mist 10 1013 100 4828 3.6 160 21:18 13.10.2020
3193 Mist 10 1013 100 3621 5.1 170 20:42 13.10.2020
3194 Mist 10 1013 100 3621 5.1 170 20:23 13.10.2020
3195 Rain 10 1014 100 9656 5.1 160 19:47 13.10.2020
3196 Rain 10 1014 100 4828 6.7 150 19:25 13.10.2020
3197 Mist 10 1014 93 9656 5.1 150 18:59 13.10.2020
3198 Mist 10 1015 93 4828 5.7 160 18:41 13.10.2020
3199 Rain 10 1015 93 4828 5.7 160 18:23 13.10.2020
3200 Rain 9 1015 100 8047 3.6 140 17:58 13.10.2020
3201 Rain 9 1015 100 8047 3.6 140 17:58 13.10.2020
3202 Rain 9 1015 100 9656 3.6 130 17:37 13.10.2020
3203 Rain 9 1015 93 6437 2.6 120 16:48 13.10.2020
3204 Mist 8 1015 93 4828 2.1 110 16:21 13.10.2020
3205 Rain 8 1015 100 4828 4.1 110 15:53 13.10.2020
3206 Rain 8 1015 93 4828 3.1 110 15:23 13.10.2020
3207 Rain 8 1015 100 6437 4.6 90 14:56 13.10.2020
3208 Rain 8 1015 100 6437 4.6 90 14:37 13.10.2020
3209 Mist 8 1015 100 6437 4.6 90 14:18 13.10.2020
3210 Mist 8 1016 93 3621 3.6 90 13:45 13.10.2020
3211 Rain 8 1016 87 4828 3.1 100 13:20 13.10.2020
3212 Rain 9 1016 70 10000 3.6 100 12:40 13.10.2020
3213 Clouds 9 1016 70 10000 3.6 100 12:21 13.10.2020
3214 Rain 9 1016 66 10000 4.1 110 11:43 13.10.2020
3215 Rain 9 1016 66 10000 4.1 110 11:24 13.10.2020
3216 Clouds 10 1017 61 10000 4.6 110 10:59 13.10.2020
3217 Clouds 10 1017 61 10000 4.6 110 10:41 13.10.2020
3218 Clouds 10 1017 61 10000 4.6 110 10:21 13.10.2020
3219 Clouds 10 1017 61 10000 3.6 110 09:44 13.10.2020
3220 Clouds 10 1017 61 10000 3.6 110 09:26 13.10.2020
3221 Clouds 10 1018 61 10000 4.1 110 08:57 13.10.2020
3222 Clouds 10 1018 61 10000 4.1 110 08:37 13.10.2020
3223 Clouds 10 1018 61 10000 4.1 110 08:37 13.10.2020
3224 Clouds 10 1018 61 10000 4.1 110 08:18 13.10.2020
3225 Clouds 10 1019 61 10000 3.6 110 07:35 13.10.2020
3226 Clouds 10 1019 61 10000 4.1 100 06:55 13.10.2020
3227 Clouds 10 1019 61 10000 4.1 100 06:32 13.10.2020
3228 Clouds 11 1020 53 10000 3.1 120 04:29 13.10.2020
3229 Clouds 12 1020 50 10000 3.1 120 03:30 13.10.2020
3230 Clouds 13 1020 50 10000 3.1 80 01:25 13.10.2020
3231 Clouds 13 1021 43 10000 2.1 120 00:43 13.10.2020
3232 Clouds 14 1021 43 10000 2.1 120 00:18 13.10.2020
3233 Clear 15 1021 48 10000 5.1 120 23:34 12.10.2020
3234 Clear 15 1022 38 10000 4.1 140 22:55 12.10.2020
3235 Clear 15 1022 38 10000 4.1 140 22:36 12.10.2020
3236 Clear 15 1022 38 10000 4.1 140 22:18 12.10.2020
3237 Clear 15 1022 38 10000 5.7 100 21:43 12.10.2020
3238 Clear 15 1022 38 10000 5.7 100 21:21 12.10.2020
3239 Clear 15 1023 38 10000 4.6 110 20:45 12.10.2020
3240 Clear 15 1023 38 10000 4.6 110 20:24 12.10.2020
3241 Clear 14 1024 44 10000 3.6 100 19:56 12.10.2020
3242 Clear 14 1024 44 10000 3.6 100 19:37 12.10.2020
3243 Clear 12 1025 46 10000 5.1 110 18:59 12.10.2020
3244 Clear 13 1025 46 10000 5.1 110 18:41 12.10.2020
3245 Clear 12 1025 46 10000 5.1 110 18:21 12.10.2020
3246 Clear 10 1026 53 10000 4.1 100 17:43 12.10.2020
3247 Clear 9 1026 53 10000 4.1 100 17:20 12.10.2020
3248 Clear 8 1026 65 10000 3.1 80 16:42 12.10.2020
3249 Clear 7 1026 65 10000 3.1 80 16:22 12.10.2020
3250 Clear 5 1026 74 10000 3.1 30 15:48 12.10.2020
3251 Clear 4 1026 74 10000 3.1 30 15:28 12.10.2020
3252 Clear 3 1026 65 10000 3.6 20 14:55 12.10.2020
3253 Clear 2 1026 65 10000 3.6 20 14:30 12.10.2020
3254 Clouds 2 1026 80 10000 4.6 30 13:51 12.10.2020
3255 Clear 0 1026 86 10000 3.1 10 13:23 12.10.2020
3256 Clear 1 1026 74 10000 3.6 20 12:50 12.10.2020
3257 Clear 1 1026 73 10000 3.6 20 12:27 12.10.2020
3258 Clear 1 1025 86 10000 3.6 30 11:56 12.10.2020
3259 Clear 1 1025 86 10000 3.6 30 11:38 12.10.2020
3260 Clouds 2 1025 80 10000 4.6 30 11:18 12.10.2020
3261 Clear 2 1026 74 10000 4.6 30 10:39 12.10.2020
3262 Clear 2 1026 86 10000 2.1 20 10:20 12.10.2020
3263 Clear 2 1026 86 10000 2.1 20 10:20 12.10.2020
3264 Clear 3 1026 56 10000 4.1 60 09:41 12.10.2020
3265 Clear 3 1026 56 10000 4.1 60 09:21 12.10.2020
3266 Clear 3 1027 67 10000 2.1 20 08:34 12.10.2020
3267 Clear 3 1027 65 10000 2.1 50 07:50 12.10.2020
3268 Clear 4 1027 56 10000 3.6 60 07:31 12.10.2020
3269 Clear 4 1027 62 10000 1 0 06:22 12.10.2020
3270 Clear 5 1027 74 10000 2.1 60 02:45 12.10.2020
3271 Clear 8 1027 42 10000 2.6 50 00:30 12.10.2020
3272 Clear 9 1026 42 10000 2.1 50 23:44 11.10.2020
3273 Clear 9 1026 42 10000 2.1 50 23:44 11.10.2020
3274 Clear 9 1026 42 10000 2.1 50 23:24 11.10.2020
3275 Clear 9 1026 39 10000 3.1 20 22:45 11.10.2020
3276 Clear 10 1026 39 10000 3.1 20 22:22 11.10.2020
3277 Clear 10 1026 39 10000 2.6 90 21:38 11.10.2020
3278 Clear 10 1026 39 10000 2.6 90 21:20 11.10.2020
3279 Clear 9 1026 39 10000 2.11 59 20:47 11.10.2020
3280 Clear 10 1026 39 10000 1.88 58 20:21 11.10.2020
3281 Clouds 9 1027 45 10000 3.6 10 19:47 11.10.2020
3282 Clouds 9 1027 45 10000 3.6 10 19:27 11.10.2020
3283 Clouds 9 1027 52 10000 3.6 70 18:55 11.10.2020
3284 Clouds 9 1027 52 10000 3.6 70 18:37 11.10.2020
3285 Clouds 8 1026 56 10000 5.7 360 17:59 11.10.2020
3286 Clouds 7 1026 56 10000 5.7 360 17:39 11.10.2020
3287 Clouds 7 1026 56 10000 5.7 360 17:21 11.10.2020
3288 Clouds 7 1025 60 10000 5.1 40 16:47 11.10.2020
3289 Clouds 6 1025 60 10000 5.1 40 16:27 11.10.2020
3290 Clear 6 1025 56 10000 3.6 50 15:53 11.10.2020
3291 Clear 6 1025 56 10000 3.6 50 15:32 11.10.2020
3292 Clouds 5 1024 61 10000 3.1 350 14:46 11.10.2020
3293 Clear 5 1025 64 10000 2.1 60 14:28 11.10.2020
3294 Clouds 3 1023 64 10000 1.5 50 13:48 11.10.2020
3295 Clouds 3 1023 64 10000 1.5 50 13:27 11.10.2020
3296 Clear 4 1022 69 10000 1.5 350 12:58 11.10.2020
3297 Clear 4 1022 69 10000 1.5 350 12:40 11.10.2020
3298 Clear 4 1022 69 10000 1.5 350 12:20 11.10.2020
3299 Clear 5 1021 69 10000 4.1 360 11:45 11.10.2020
3300 Clear 5 1021 69 10000 4.1 360 11:22 11.10.2020
3301 Clear 5 1020 70 10000 3.1 350 10:50 11.10.2020
3302 Clear 6 1020 70 10000 3.1 350 10:27 11.10.2020
3303 Clear 6 1018 75 10000 3.6 330 09:45 11.10.2020
3304 Clear 6 1018 75 10000 3.6 330 09:24 11.10.2020
3305 Clear 7 1017 65 10000 5.7 340 08:53 11.10.2020
3306 Clear 7 1017 65 10000 5.7 340 08:35 11.10.2020
3307 Clear 7 1016 65 10000 6.7 320 07:46 11.10.2020
3308 Clouds 10 1013 62 10000 8.2 340 05:52 11.10.2020
3309 Clouds 13 1008 66 10000 7.2 300 03:30 11.10.2020
3310 Clouds 14 1006 72 10000 8.7 320 02:24 11.10.2020
3311 Mist 14 1003 93 9656 4.6 310 00:59 11.10.2020
3312 Rain 16 1002 63 10000 11.8 310 00:37 11.10.2020
3313 Thunderstorm 19 1002 63 10000 11.8 310 00:18 11.10.2020
3314 Clouds 20 999 73 10000 12.9 230 23:27 10.10.2020
3315 Clouds 21 999 68 10000 12.9 230 22:40 10.10.2020
3316 Clouds 21 999 68 10000 12.9 230 22:22 10.10.2020
3317 Thunderstorm 20 1000 68 10000 13.4 230 21:57 10.10.2020
3318 Clouds 21 1001 68 10000 10.3 240 21:37 10.10.2020
3319 Thunderstorm 22 1001 68 10000 10.3 240 21:18 10.10.2020
3320 Clouds 22 1001 60 10000 8.2 240 20:41 10.10.2020
3321 Clouds 23 1001 60 10000 8.2 240 20:22 10.10.2020
3322 Clouds 22 1002 56 10000 7.2 240 19:44 10.10.2020
3323 Clouds 22 1002 56 10000 7.2 240 19:23 10.10.2020
3324 Clouds 22 1002 53 10000 9.8 230 18:51 10.10.2020
3325 Clouds 22 1002 53 10000 9.8 230 18:32 10.10.2020
3326 Clear 21 1003 53 10000 8.2 220 17:53 10.10.2020
3327 Clear 21 1003 53 10000 8.2 220 17:28 10.10.2020
3328 Clear 19 1004 63 10000 4.1 190 16:53 10.10.2020
3329 Clear 19 1004 63 10000 4.1 190 16:26 10.10.2020
3330 Clouds 18 1004 52 10000 8.2 230 15:58 10.10.2020
3331 Clouds 18 1004 52 10000 8.2 230 15:58 10.10.2020
3332 Clouds 18 1004 67 10000 4.6 180 15:39 10.10.2020
3333 Clouds 17 1004 67 10000 4.6 180 15:20 10.10.2020
3334 Clear 15 1004 71 10000 4.6 160 14:42 10.10.2020
3335 Clear 13 1004 71 10000 4.6 160 14:23 10.10.2020
3336 Clear 14 1004 71 10000 6.2 180 13:43 10.10.2020
3337 Clear 13 1004 71 10000 6.2 180 13:23 10.10.2020
3338 Clouds 13 1004 71 10000 4.1 180 12:59 10.10.2020
3339 Clouds 14 1004 71 10000 4.1 180 12:41 10.10.2020
3340 Clouds 14 1004 71 10000 4.1 180 12:20 10.10.2020
3341 Clouds 13 1005 71 10000 3.1 200 11:41 10.10.2020
3342 Clouds 12 1005 71 10000 3.1 200 11:23 10.10.2020
3343 Clouds 12 1005 71 10000 4.6 190 10:46 10.10.2020
3344 Clouds 12 1005 71 10000 4.6 190 10:27 10.10.2020
3345 Clouds 12 1005 71 10000 7.2 180 09:47 10.10.2020
3346 Clouds 12 1005 71 10000 7.2 180 09:22 10.10.2020
3347 Clear 12 1007 71 10000 6.7 170 08:54 10.10.2020
3348 Clear 11 1007 71 10000 6.7 170 08:26 10.10.2020
3349 Clouds 12 1008 66 10000 6.7 170 07:44 10.10.2020
3350 Clouds 12 1008 66 10000 6.7 170 07:25 10.10.2020
3351 Clouds 12 1013 50 10000 4.6 200 03:44 10.10.2020
3352 Clouds 12 1015 62 10000 3.1 210 01:55 10.10.2020
3353 Rain 13 1016 54 10000 4.6 240 00:27 10.10.2020
3354 Rain 13 1016 47 10000 6.2 240 23:49 09.10.2020
3355 Clouds 13 1016 47 10000 6.2 240 23:30 09.10.2020
3356 Clouds 13 1016 53 10000 6.7 240 22:56 09.10.2020
3357 Clouds 13 1016 50 10000 6.7 240 22:27 09.10.2020
3358 Clouds 14 1016 48 10000 0.89 266 21:56 09.10.2020
3359 Clouds 14 1017 47 10000 1.34 253 21:37 09.10.2020
3360 Clouds 13 1017 47 10000 1.79 282 21:18 09.10.2020
3361 Clouds 14 1017 47 10000 2.24 232 20:43 09.10.2020
3362 Clouds 14 1018 48 10000 1.79 282 20:21 09.10.2020
3363 Clouds 13 1018 48 10000 1.79 287 19:39 09.10.2020
3364 Clouds 13 1018 50 10000 1.34 242 19:19 09.10.2020
3365 Clouds 12 1019 51 10000 1.79 304 18:57 09.10.2020
3366 Clear 11 1020 53 10000 5.7 250 18:27 09.10.2020
3367 Clear 10 1020 53 10000 5.7 250 17:59 09.10.2020
3368 Clear 10 1020 53 10000 5.7 250 17:22 09.10.2020
3369 Clear 9 1021 57 10000 6.2 250 16:58 09.10.2020
3370 Clear 9 1021 57 10000 6.2 250 16:37 09.10.2020
3371 Clear 8 1021 57 10000 6.2 250 16:19 09.10.2020
3372 Clear 7 1021 57 10000 6.2 260 15:42 09.10.2020
3373 Clear 6 1021 61 10000 6.2 260 15:21 09.10.2020
3374 Clear 5 1021 61 10000 4.6 250 14:36 09.10.2020
3375 Clouds 3 1021 68 10000 3.1 240 13:47 09.10.2020
3376 Clouds 3 1021 70 10000 3.1 240 13:27 09.10.2020
3377 Clouds 3 1021 69 10000 1.5 250 12:55 09.10.2020
3378 Clouds 3 1021 69 10000 1.5 250 12:36 09.10.2020
3379 Clouds 3 1021 69 10000 1.5 250 12:18 09.10.2020
3380 Clouds 3 1020 86 10000 1 0 11:43 09.10.2020
3381 Clouds 3 1020 86 10000 1 0 11:22 09.10.2020
3382 Clouds 3 1020 69 10000 2.6 280 10:52 09.10.2020
3383 Clouds 3 1020 69 10000 2.6 280 10:30 09.10.2020
3384 Clear 3 1019 74 10000 3.6 280 09:44 09.10.2020
3385 Clear 3 1019 74 10000 3.6 280 09:44 09.10.2020
3386 Clear 3 1019 74 10000 3.6 280 09:22 09.10.2020
3387 Clear 3 1019 69 10000 2.6 290 08:50 09.10.2020
3388 Clear 3 1019 69 10000 2.6 290 08:20 09.10.2020
3389 Clear 3 1019 64 10000 2.6 260 07:51 09.10.2020
3390 Clear 3 1019 64 10000 2.6 260 07:20 09.10.2020
3391 Clouds 3 1019 69 10000 2.6 260 06:43 09.10.2020
3392 Clouds 3 1019 69 10000 2.6 260 06:23 09.10.2020
3393 Clear 5 1018 56 10000 5.1 310 02:56 09.10.2020
3394 Clear 6 1016 48 10000 4.6 310 00:57 09.10.2020
3395 Clear 6 1016 48 10000 4.6 310 00:37 09.10.2020
3396 Clear 7 1016 48 10000 4.6 310 00:19 09.10.2020
3397 Clouds 8 1015 48 10000 7.7 320 23:41 08.10.2020
3398 Clouds 8 1015 48 10000 7.7 320 23:21 08.10.2020
3399 Clouds 9 1015 45 10000 7.7 310 22:39 08.10.2020
3400 Clouds 9 1015 45 10000 7.7 310 22:19 08.10.2020
3401 Clouds 9 1014 45 10000 6.7 300 21:53 08.10.2020
3402 Clouds 10 1014 45 10000 6.7 300 21:24 08.10.2020
3403 Clouds 9 1013 45 10000 7.7 310 20:57 08.10.2020
3404 Clouds 9 1013 45 10000 7.7 310 20:39 08.10.2020
3405 Clouds 9 1013 45 10000 7.7 310 20:20 08.10.2020
3406 Clouds 9 1014 45 10000 8.2 290 19:46 08.10.2020
3407 Clouds 9 1014 45 10000 8.2 290 19:26 08.10.2020
3408 Clouds 8 1013 49 10000 7.2 300 18:48 08.10.2020
3409 Clouds 8 1013 49 10000 7.2 300 18:21 08.10.2020
3410 Clouds 8 1013 49 10000 7.2 300 17:56 08.10.2020
3411 Clouds 7 1013 49 10000 7.2 300 17:20 08.10.2020
3412 Clouds 7 1012 52 10000 9.8 300 16:55 08.10.2020
3413 Clouds 7 1012 52 10000 9.8 300 16:36 08.10.2020
3414 Clouds 7 1012 52 10000 9.8 300 16:18 08.10.2020
3415 Clouds 6 1012 57 10000 6.2 280 15:42 08.10.2020
3416 Clouds 6 1012 61 10000 6.2 280 15:19 08.10.2020
3417 Clouds 6 1011 70 10000 5.1 280 14:39 08.10.2020
3418 Clouds 6 1011 70 10000 5.1 280 14:18 08.10.2020
3419 Clouds 6 1010 70 10000 6.2 270 13:46 08.10.2020
3420 Clouds 6 1010 70 10000 6.2 270 13:23 08.10.2020
3421 Clouds 6 1009 75 10000 5.1 290 12:56 08.10.2020
3422 Clouds 6 1009 75 10000 5.1 290 12:37 08.10.2020
3423 Clouds 6 1009 75 10000 5.1 290 12:18 08.10.2020
3424 Clear 7 1008 65 10000 6.7 300 11:42 08.10.2020
3425 Clear 7 1008 65 10000 6.7 300 11:23 08.10.2020
3426 Clouds 7 1007 65 10000 7.2 300 10:45 08.10.2020
3427 Clouds 7 1007 65 10000 7.2 300 10:26 08.10.2020
3428 Clouds 8 1006 75 10000 5.7 300 09:48 08.10.2020
3429 Clouds 8 1006 75 10000 5.7 300 09:30 08.10.2020
3430 Clouds 9 1004 70 10000 9.8 290 08:46 08.10.2020
3431 Clouds 9 1004 70 10000 9.8 290 08:23 08.10.2020
3432 Clouds 9 1003 71 10000 9.8 290 07:53 08.10.2020
3433 Clouds 10 1003 71 10000 9.8 290 07:29 08.10.2020
3434 Clouds 10 1003 76 10000 8.7 280 06:53 08.10.2020
3435 Clouds 11 1000 76 10000 8.7 270 05:21 08.10.2020
3436 Clouds 12 997 76 10000 9.8 260 03:57 08.10.2020
3437 Clouds 12 996 71 10000 8.2 280 02:29 08.10.2020
3438 Clouds 13 994 76 10000 6.2 260 00:32 08.10.2020
3439 Clouds 14 993 77 10000 6.2 260 23:38 07.10.2020
3440 Clouds 14 993 82 10000 4.6 270 23:20 07.10.2020
3441 Clouds 14 992 87 10000 6.7 260 22:45 07.10.2020
3442 Clouds 14 992 87 10000 6.7 260 22:27 07.10.2020
3443 Rain 12 992 93 4828 5.1 250 21:51 07.10.2020
3444 Rain 14 992 82 10000 6.7 240 21:28 07.10.2020
3445 Clouds 14 992 82 10000 6.2 230 20:56 07.10.2020
3446 Clouds 13 993 93 10000 5.7 220 20:37 07.10.2020
3447 Clouds 14 993 93 10000 5.7 220 20:18 07.10.2020
3448 Rain 13 993 87 10000 8.2 210 19:41 07.10.2020
3449 Rain 13 993 87 10000 8.2 210 19:19 07.10.2020
3450 Clouds 13 994 87 10000 5.1 180 18:43 07.10.2020
3451 Rain 13 994 87 10000 5.1 180 18:20 07.10.2020
3452 Rain 13 996 93 10000 4.1 180 17:58 07.10.2020
3453 Rain 13 996 93 10000 4.1 180 17:58 07.10.2020
3454 Rain 13 996 93 10000 4.1 180 17:39 07.10.2020
3455 Clouds 13 996 93 10000 4.1 180 17:20 07.10.2020
3456 Rain 13 996 93 8047 4.6 190 16:43 07.10.2020
3457 Rain 13 997 87 10000 3.6 180 16:19 07.10.2020
3458 Rain 13 998 71 10000 5.1 170 15:41 07.10.2020
3459 Rain 13 998 71 10000 5.1 170 15:20 07.10.2020
3460 Rain 14 999 71 10000 5.7 170 14:48 07.10.2020
3461 Clouds 14 1000 76 10000 4.1 170 14:30 07.10.2020
3462 Clouds 13 1001 76 10000 3.6 180 13:52 07.10.2020
3463 Clouds 13 1001 76 10000 3.6 180 13:26 07.10.2020
3464 Clear 13 1002 81 10000 3.6 180 12:56 07.10.2020
3465 Clear 13 1002 81 10000 3.6 180 12:38 07.10.2020
3466 Clear 13 1002 81 10000 3.6 180 12:19 07.10.2020
3467 Clouds 13 1003 76 10000 2.1 200 11:44 07.10.2020
3468 Clouds 13 1003 76 10000 2.1 200 11:24 07.10.2020
3469 Clouds 14 1004 76 10000 2.6 210 10:38 07.10.2020
3470 Clouds 14 1004 82 10000 3.1 200 09:58 07.10.2020
3471 Clouds 14 1004 82 10000 3.1 200 09:30 07.10.2020
3472 Rain 14 1004 76 10000 2.1 190 08:51 07.10.2020
3473 Clouds 14 1005 72 10000 3.6 200 08:28 07.10.2020
3474 Clouds 14 1006 71 10000 4.1 180 07:40 07.10.2020
3475 Clouds 14 1007 71 10000 3.6 180 06:33 07.10.2020
3476 Clouds 14 1007 82 10000 1.5 150 05:39 07.10.2020
3477 Clouds 14 1008 87 10000 1.5 120 04:32 07.10.2020
3478 Clouds 15 1009 67 10000 3.1 210 02:25 07.10.2020
3479 Clouds 16 1009 63 10000 3.6 190 00:47 07.10.2020
3480 Clouds 17 1009 55 10000 3.1 210 23:53 06.10.2020
3481 Clouds 17 1009 55 10000 3.1 210 23:23 06.10.2020
3482 Clouds 17 1010 45 10000 6.2 210 22:44 06.10.2020
3483 Clouds 17 1010 45 10000 6.2 210 22:26 06.10.2020
3484 Clouds 17 1011 52 10000 6.2 200 21:46 06.10.2020
3485 Clouds 17 1011 52 10000 6.2 200 21:27 06.10.2020
3486 Clouds 17 1011 52 10000 6.2 200 21:27 06.10.2020
3487 Clear 18 1011 45 10000 7.7 200 20:48 06.10.2020
3488 Clear 18 1011 45 10000 7.7 200 20:27 06.10.2020
3489 Clouds 18 1013 48 10000 7.2 220 19:59 06.10.2020
3490 Clouds 18 1013 48 10000 7.2 220 19:39 06.10.2020
3491 Clouds 17 1013 48 10000 7.2 220 19:19 06.10.2020
3492 Clouds 17 1014 51 10000 9.3 210 18:45 06.10.2020
3493 Clouds 17 1014 51 10000 9.3 210 18:23 06.10.2020
3494 Clear 16 1015 55 10000 6.2 210 17:48 06.10.2020
3495 Clear 16 1015 55 10000 6.2 210 17:22 06.10.2020
3496 Clear 15 1016 71 10000 4.6 180 16:45 06.10.2020
3497 Clear 14 1016 71 10000 4.6 180 16:23 06.10.2020
3498 Clouds 13 1016 81 10000 4.6 180 15:55 06.10.2020
3499 Clouds 12 1016 76 10000 4.6 190 15:36 06.10.2020
3500 Clouds 12 1016 81 10000 4.6 180 15:18 06.10.2020
3501 Clouds 11 1017 81 10000 3.6 180 14:39 06.10.2020
3502 Clouds 11 1017 81 10000 3.6 180 14:19 06.10.2020
3503 Clear 10 1017 87 10000 3.6 210 13:46 06.10.2020
3504 Clear 10 1017 87 10000 3.6 210 13:27 06.10.2020
3505 Clouds 10 1018 87 10000 2.1 190 12:49 06.10.2020
3506 Clouds 10 1018 87 10000 2.1 190 12:29 06.10.2020
3507 Clouds 9 1018 87 10000 2.6 210 11:47 06.10.2020
3508 Clouds 10 1018 87 10000 2.6 210 11:27 06.10.2020
3509 Clouds 10 1018 93 10000 3.1 210 10:48 06.10.2020
3510 Clouds 9 1018 93 10000 3.1 210 10:30 06.10.2020
3511 Clear 10 1018 93 10000 2.6 190 09:49 06.10.2020
3512 Clear 10 1018 93 10000 2.6 190 09:22 06.10.2020
3513 Clear 10 1019 100 10000 2.1 200 08:59 06.10.2020
3514 Clear 9 1019 100 10000 2.1 200 08:36 06.10.2020
3515 Clear 10 1019 93 10000 2.6 180 07:40 06.10.2020
3516 Clear 10 1019 93 10000 2.6 180 07:22 06.10.2020
3517 Clear 9 1019 93 10000 2.1 180 06:39 06.10.2020
3518 Clouds 11 1020 81 10000 2.6 230 04:21 06.10.2020
3519 Clouds 12 1019 71 10000 4.1 260 01:35 06.10.2020
3520 Clouds 14 1019 67 10000 4.1 270 00:39 06.10.2020
3521 Clouds 14 1019 67 10000 4.1 270 00:21 06.10.2020
3522 Clouds 15 1018 72 10000 5.1 240 23:41 05.10.2020
3523 Clouds 15 1018 72 10000 5.1 240 23:22 05.10.2020
3524 Clouds 16 1018 67 10000 3.6 250 22:36 05.10.2020
3525 Clouds 16 1019 63 10000 3.6 240 22:18 05.10.2020
3526 Clouds 16 1019 63 10000 3.6 240 21:41 05.10.2020
3527 Clouds 16 1019 63 10000 3.6 240 21:19 05.10.2020
3528 Clouds 15 1019 67 10000 4.6 230 20:43 05.10.2020
3529 Clouds 15 1019 67 10000 4.6 230 20:22 05.10.2020
3530 Clouds 15 1019 71 10000 2.6 260 19:45 05.10.2020
3531 Clouds 15 1019 71 10000 2.6 260 19:26 05.10.2020
3532 Clouds 14 1020 76 10000 1.5 270 18:45 05.10.2020
3533 Clouds 14 1020 76 10000 3.6 280 18:25 05.10.2020
3534 Clouds 13 1020 76 10000 2.6 230 17:43 05.10.2020
3535 Clouds 13 1020 76 10000 2.6 230 17:24 05.10.2020
3536 Clouds 13 1020 76 10000 2.6 200 16:58 05.10.2020
3537 Rain 13 1020 76 10000 1.5 200 16:39 05.10.2020
3538 Rain 13 1020 76 10000 1.5 200 16:39 05.10.2020
3539 Rain 12 1020 76 10000 1.5 200 16:19 05.10.2020
3540 Clouds 12 1020 81 10000 3.1 210 15:39 05.10.2020
3541 Clouds 12 1020 81 10000 3.1 210 15:19 05.10.2020
3542 Clouds 11 1019 87 10000 1 150 14:40 05.10.2020
3543 Clouds 11 1019 87 10000 1 150 14:22 05.10.2020
3544 Clouds 10 1019 87 10000 2.26 187 13:47 05.10.2020
3545 Clouds 10 1019 87 10000 2.78 168 13:23 05.10.2020
3546 Clouds 10 1019 87 10000 1 140 12:51 05.10.2020
3547 Clouds 10 1019 87 10000 1 140 12:25 05.10.2020
3548 Clouds 10 1019 87 10000 2.1 130 11:57 05.10.2020
3549 Clouds 11 1019 87 10000 2.1 130 11:37 05.10.2020
3550 Clouds 11 1019 81 10000 2.1 110 11:19 05.10.2020
3551 Clouds 11 1018 71 10000 2.1 120 10:41 05.10.2020
3552 Clouds 11 1018 71 10000 2.1 120 10:22 05.10.2020
3553 Clouds 11 1019 71 10000 2.1 120 09:53 05.10.2020
3554 Clouds 11 1019 87 10000 1 0 09:24 05.10.2020
3555 Clouds 11 1019 81 10000 1 0 08:40 05.10.2020
3556 Clouds 11 1019 81 10000 1 0 08:40 05.10.2020
3557 Clouds 11 1019 87 10000 1.5 140 08:21 05.10.2020
3558 Clouds 11 1020 81 10000 1 140 07:33 05.10.2020
3559 Clouds 11 1020 76 10000 1 130 05:51 05.10.2020
3560 Clouds 13 1021 66 10000 2.1 130 02:27 05.10.2020
3561 Clouds 13 1021 66 10000 2.1 130 02:27 05.10.2020
3562 Clouds 14 1021 58 10000 3.1 170 00:50 05.10.2020
3563 Clouds 15 1021 44 10000 3.1 140 23:49 04.10.2020
3564 Clouds 15 1021 44 10000 3.1 140 23:29 04.10.2020
3565 Clouds 15 1021 47 10000 5.1 120 22:46 04.10.2020
3566 Clouds 15 1021 47 10000 5.1 120 22:46 04.10.2020
3567 Clouds 15 1021 47 10000 5.1 120 22:24 04.10.2020
3568 Clouds 16 1022 47 10000 3.6 160 21:52 04.10.2020
3569 Clouds 15 1022 47 10000 3.6 160 21:27 04.10.2020
3570 Clouds 15 1022 51 10000 4.1 110 20:59 04.10.2020
3571 Clouds 15 1022 51 10000 4.1 110 20:40 04.10.2020
3572 Clouds 15 1022 51 10000 4.1 110 20:21 04.10.2020
3573 Clear 15 1024 58 10000 3.6 140 19:50 04.10.2020
3574 Clear 14 1024 58 10000 3.6 140 19:31 04.10.2020
3575 Clouds 14 1024 62 10000 2.6 110 18:53 04.10.2020
3576 Clouds 13 1024 76 10000 3.1 160 18:27 04.10.2020
3577 Clouds 12 1025 87 10000 2.6 150 17:59 04.10.2020
3578 Clouds 11 1025 87 10000 2.6 150 17:38 04.10.2020
3579 Clouds 10 1025 87 10000 2.6 150 17:18 04.10.2020
3580 Clouds 10 1025 93 10000 2.1 160 16:42 04.10.2020
3581 Clouds 9 1025 93 10000 2.1 160 16:22 04.10.2020
3582 Clouds 9 1025 81 10000 2.1 110 15:56 04.10.2020
3583 Clouds 8 1025 81 10000 2.1 110 15:38 04.10.2020
3584 Clouds 7 1025 93 10000 1 0 15:18 04.10.2020
3585 Clouds 7 1025 100 10000 1 130 14:42 04.10.2020
3586 Clouds 7 1025 100 10000 1 130 14:23 04.10.2020
3587 Clouds 6 1025 100 10000 1.5 140 13:45 04.10.2020
3588 Clouds 6 1025 100 10000 1.5 140 13:21 04.10.2020
3589 Clouds 6 1025 93 10000 0.63 161 12:44 04.10.2020
3590 Clouds 6 1025 93 10000 0.63 161 12:44 04.10.2020
3591 Clouds 6 1025 93 10000 0.63 161 12:44 04.10.2020
3592 Clouds 5 1025 93 10000 0.17 97 12:25 04.10.2020
3593 Clouds 5 1025 100 10000 1 110 11:56 04.10.2020
3594 Clouds 5 1025 100 10000 1 110 11:56 04.10.2020
3595 Clouds 5 1025 100 10000 1 110 11:38 04.10.2020
3596 Clouds 5 1025 100 10000 1 110 11:19 04.10.2020
3597 Clouds 5 1024 100 10000 1.5 150 10:46 04.10.2020
3598 Clouds 5 1024 100 10000 1.5 150 10:27 04.10.2020
3599 Clouds 6 1025 93 10000 1 210 09:43 04.10.2020
3600 Clouds 6 1025 93 10000 1 210 09:43 04.10.2020
3601 Clouds 6 1025 93 10000 1 210 09:20 04.10.2020
3602 Clouds 7 1024 81 10000 1 0 08:46 04.10.2020
3603 Clouds 7 1024 81 10000 1 0 08:25 04.10.2020
3604 Clouds 7 1024 87 10000 1 20 07:50 04.10.2020
3605 Clouds 8 1024 76 10000 1.5 280 07:24 04.10.2020
3606 Clouds 8 1024 81 10000 1.5 230 06:44 04.10.2020
3607 Clouds 8 1024 81 10000 1.5 230 06:25 04.10.2020
3608 Clouds 9 1024 81 10000 3.1 230 05:37 04.10.2020
3609 Clouds 11 1023 57 10000 2.6 250 01:47 04.10.2020
3610 Clouds 11 1022 57 10000 3.6 240 00:54 04.10.2020
3611 Clouds 12 1022 50 10000 2.6 270 23:53 03.10.2020
3612 Clouds 12 1022 50 10000 2.6 270 23:25 03.10.2020
3613 Clouds 12 1022 47 10000 4.1 270 22:50 03.10.2020
3614 Clouds 13 1022 47 10000 4.1 270 22:31 03.10.2020
3615 Clouds 13 1022 43 10000 3.1 290 21:59 03.10.2020
3616 Clouds 13 1022 43 10000 3.1 290 21:41 03.10.2020
3617 Clouds 13 1022 43 10000 3.1 290 21:21 03.10.2020
3618 Clouds 13 1022 50 10000 3.6 0 20:43 03.10.2020
3619 Clouds 13 1022 50 10000 3.6 0 20:22 03.10.2020
3620 Clouds 13 1022 50 10000 3.1 270 19:56 03.10.2020
3621 Clouds 13 1022 50 10000 3.1 270 19:37 03.10.2020
3622 Clouds 13 1022 50 10000 3.1 270 19:19 03.10.2020
3623 Clouds 12 1022 62 10000 2.1 0 18:44 03.10.2020
3624 Clouds 11 1022 62 10000 2.1 0 18:23 03.10.2020
3625 Clouds 11 1022 71 10000 1.5 340 17:43 03.10.2020
3626 Clouds 11 1022 71 10000 1.5 340 17:25 03.10.2020
3627 Clouds 10 1022 71 10000 2.1 350 16:47 03.10.2020
3628 Clouds 10 1022 71 10000 2.1 350 16:26 03.10.2020
3629 Clouds 9 1021 93 10000 2.1 340 15:48 03.10.2020
3630 Clouds 9 1021 93 10000 2.1 340 15:23 03.10.2020
3631 Clouds 8 1021 100 10000 0.3 111 14:59 03.10.2020
3632 Clouds 8 1021 100 10000 0.3 111 14:39 03.10.2020
3633 Clouds 8 1021 100 10000 0.58 356 14:21 03.10.2020
3634 Clouds 7 1021 100 10000 2.1 310 13:56 03.10.2020
3635 Clouds 7 1021 100 10000 2.1 310 13:38 03.10.2020
3636 Mist 6 1020 100 3219 1.18 356 13:18 03.10.2020
3637 Clear 6 1020 100 10000 1 80 12:39 03.10.2020
3638 Clear 6 1020 100 10000 1 80 12:19 03.10.2020
3639 Mist 6 1019 100 9656 1.54 333 11:47 03.10.2020
3640 Clear 7 1019 100 10000 1.5 300 11:23 03.10.2020
3641 Clouds 7 1018 93 10000 1 280 10:46 03.10.2020
3642 Clouds 7 1018 93 10000 1 280 10:25 03.10.2020
3643 Clouds 8 1018 93 10000 1 30 09:52 03.10.2020
3644 Clouds 8 1018 93 10000 1 30 09:28 03.10.2020
3645 Clouds 9 1018 93 10000 1.5 340 08:57 03.10.2020
3646 Clouds 9 1018 93 10000 1.5 340 08:38 03.10.2020
3647 Clouds 9 1018 93 10000 1.5 340 08:20 03.10.2020
3648 Clouds 9 1018 87 10000 2.6 340 07:38 03.10.2020
3649 Clouds 9 1018 87 10000 2.6 340 07:19 03.10.2020
3650 Clouds 10 1017 93 10000 4.1 40 05:58 03.10.2020
3651 Clouds 10 1017 93 10000 4.1 40 05:40 03.10.2020
3652 Clouds 11 1016 93 10000 2.1 340 03:47 03.10.2020
3653 Rain 11 1014 87 10000 3.1 340 00:59 03.10.2020
3654 Clouds 12 1014 87 10000 1.5 190 00:28 03.10.2020
3655 Clouds 13 1014 82 10000 1.5 210 23:46 02.10.2020
3656 Clouds 13 1013 82 10000 2.1 240 23:27 02.10.2020
3657 Clouds 13 1013 76 10000 3.1 250 22:58 02.10.2020
3658 Clouds 13 1013 76 10000 3.1 250 22:38 02.10.2020
3659 Clouds 13 1013 76 10000 3.1 250 22:19 02.10.2020
3660 Clouds 13 1014 82 10000 1.5 250 21:42 02.10.2020
3661 Rain 13 1014 82 10000 1.5 250 21:22 02.10.2020
3662 Rain 13 1013 87 10000 1 0 20:52 02.10.2020
3663 Rain 12 1013 87 10000 1.87 116 20:29 02.10.2020
3664 Rain 12 1014 87 10000 1 0 19:49 02.10.2020
3665 Rain 12 1014 87 10000 1 0 19:49 02.10.2020
3666 Rain 12 1014 87 10000 1 0 19:22 02.10.2020
3667 Rain 11 1014 93 10000 1 170 18:58 02.10.2020
3668 Rain 11 1014 93 10000 1.5 150 18:40 02.10.2020
3669 Rain 11 1014 93 10000 1.5 150 18:19 02.10.2020
3670 Rain 11 1014 100 6437 1 0 17:47 02.10.2020
3671 Rain 11 1015 100 9656 2.1 190 17:27 02.10.2020
3672 Rain 10 1014 93 10000 1.5 150 16:51 02.10.2020
3673 Rain 10 1014 93 10000 1.5 150 16:22 02.10.2020
3674 Rain 10 1014 93 10000 1 0 15:52 02.10.2020
3675 Clouds 10 1014 93 10000 0.05 352 15:26 02.10.2020
3676 Clouds 10 1014 100 10000 1.5 110 14:43 02.10.2020
3677 Clouds 9 1014 100 10000 1.5 110 14:24 02.10.2020
3678 Clouds 9 1013 93 10000 1 0 13:52 02.10.2020
3679 Clouds 9 1013 93 10000 1.16 194 13:19 02.10.2020
3680 Clouds 9 1014 93 10000 1.5 140 12:46 02.10.2020
3681 Clouds 9 1014 93 10000 1.5 140 12:25 02.10.2020
3682 Clouds 9 1014 93 10000 1 0 11:58 02.10.2020
3683 Clouds 9 1014 93 10000 1 0 11:38 02.10.2020
3684 Clouds 9 1014 93 10000 1 0 11:20 02.10.2020
3685 Clouds 8 1013 93 10000 1 150 10:44 02.10.2020
3686 Clouds 8 1013 93 10000 1 150 10:26 02.10.2020
3687 Clear 9 1013 93 10000 1.5 200 09:41 02.10.2020
3688 Clear 9 1013 93 10000 1.5 200 09:19 02.10.2020
3689 Clouds 10 1014 87 10000 1 140 08:46 02.10.2020
3690 Clouds 10 1014 87 10000 1 140 08:24 02.10.2020
3691 Clouds 10 1013 93 10000 1 0 07:33 02.10.2020
3692 Clouds 11 1013 87 10000 2.6 260 06:39 02.10.2020
3693 Clouds 12 1013 76 10000 4.1 260 05:37 02.10.2020
3694 Clouds 13 1012 71 10000 5.7 270 02:23 02.10.2020
3695 Clouds 15 1010 67 10000 4.6 220 00:43 02.10.2020
3696 Clouds 16 1010 67 10000 4.6 220 00:18 02.10.2020
3697 Clouds 17 1009 59 10000 6.2 220 23:43 01.10.2020
3698 Clouds 17 1009 59 10000 6.2 220 23:23 01.10.2020
3699 Clouds 17 1009 55 10000 5.1 240 22:59 01.10.2020
3700 Clouds 17 1009 55 10000 5.1 240 22:39 01.10.2020
3701 Clouds 18 1009 55 10000 5.1 240 22:19 01.10.2020
3702 Clouds 18 1009 59 10000 7.7 240 21:40 01.10.2020
3703 Clouds 18 1009 59 10000 7.7 240 21:20 01.10.2020
3704 Clouds 18 1008 55 10000 7.7 220 20:42 01.10.2020
3705 Clouds 18 1008 55 10000 7.7 220 20:21 01.10.2020
3706 Clouds 17 1008 67 10000 6.7 250 19:45 01.10.2020
3707 Clouds 17 1008 67 10000 6.7 250 19:26 01.10.2020
3708 Clouds 16 1008 77 10000 5.7 250 18:59 01.10.2020
3709 Clouds 16 1008 72 10000 7.7 240 18:31 01.10.2020
3710 Clouds 16 1008 67 10000 7.2 260 17:54 01.10.2020
3711 Clouds 15 1008 67 10000 7.2 260 17:30 01.10.2020
3712 Clouds 15 1007 72 10000 8.7 240 16:58 01.10.2020
3713 Clouds 15 1007 72 10000 8.7 240 16:39 01.10.2020
3714 Clouds 15 1007 72 10000 8.7 240 16:39 01.10.2020
3715 Clouds 14 1007 72 10000 8.7 240 16:19 01.10.2020
3716 Clouds 14 1007 76 10000 6.7 240 15:44 01.10.2020
3717 Clouds 14 1007 76 10000 6.7 240 15:19 01.10.2020
3718 Clouds 13 1006 76 10000 5.7 230 14:44 01.10.2020
3719 Clouds 13 1006 76 10000 5.7 230 14:26 01.10.2020
3720 Clouds 13 1006 82 10000 4.6 200 13:41 01.10.2020
3721 Clouds 13 1005 76 10000 9.3 230 12:50 01.10.2020
3722 Clouds 13 1005 76 10000 9.3 230 12:22 01.10.2020
3723 Clouds 13 1005 76 10000 4.1 220 11:58 01.10.2020
3724 Rain 13 1004 81 10000 3.1 180 11:37 01.10.2020
3725 Clouds 13 1004 81 10000 3.1 180 11:18 01.10.2020
3726 Clouds 12 1004 76 10000 3.1 180 10:40 01.10.2020
3727 Rain 12 1004 76 10000 3.1 180 10:22 01.10.2020
3728 Clouds 13 1004 71 10000 4.6 190 09:43 01.10.2020
3729 Clouds 13 1004 71 10000 4.6 190 09:23 01.10.2020
3730 Clouds 13 1004 67 10000 4.6 210 08:49 01.10.2020
3731 Clouds 14 1004 67 10000 4.6 210 08:28 01.10.2020
3732 Clouds 13 1003 76 10000 2.1 200 07:55 01.10.2020
3733 Clouds 13 1003 76 10000 2.1 200 07:25 01.10.2020
3734 Clouds 12 1004 81 10000 2.1 190 06:22 01.10.2020
3735 Clouds 15 1003 63 10000 8.7 220 02:18 01.10.2020
3736 Clouds 15 1001 67 10000 9.8 220 00:22 01.10.2020
3737 Clouds 16 1000 63 10000 7.2 240 23:34 30.09.2020
3738 Clouds 17 1000 59 10000 8.2 230 22:45 30.09.2020
3739 Clouds 17 1000 59 10000 8.2 230 22:24 30.09.2020
3740 Clouds 17 1000 63 10000 10.8 230 21:47 30.09.2020
3741 Clouds 16 999 72 10000 7.2 250 21:24 30.09.2020
3742 Clouds 15 999 71 10000 8.2 230 20:56 30.09.2020
3743 Clouds 15 999 71 10000 8.2 230 20:38 30.09.2020
3744 Clouds 15 999 71 10000 8.2 230 20:20 30.09.2020
3745 Clouds 15 999 72 10000 9.3 250 19:41 30.09.2020
3746 Clouds 14 999 72 10000 9.3 250 19:19 30.09.2020
3747 Clouds 14 998 76 10000 8.7 240 18:48 30.09.2020
3748 Clouds 14 998 76 10000 8.7 240 18:22 30.09.2020
3749 Clouds 13 997 93 10000 6.2 260 17:48 30.09.2020
3750 Clouds 13 997 93 10000 6.2 260 17:26 30.09.2020
3751 Clouds 13 996 93 10000 4.6 270 16:51 30.09.2020
3752 Clouds 13 996 93 10000 4.6 270 16:51 30.09.2020
3753 Mist 13 996 93 4828 5.1 260 16:28 30.09.2020
3754 Clouds 12 995 93 10000 5.7 270 15:54 30.09.2020
3755 Clouds 12 995 93 10000 5.7 270 15:28 30.09.2020
3756 Clouds 12 995 93 10000 5.7 270 15:28 30.09.2020
3757 Clouds 12 995 93 10000 5.7 270 15:28 30.09.2020
3758 Rain 12 995 93 10000 4.1 270 14:58 30.09.2020
3759 Rain 12 995 100 10000 1 0 14:39 30.09.2020
3760 Rain 12 995 100 10000 1 0 14:19 30.09.2020
3761 Rain 12 994 100 10000 4.1 340 13:44 30.09.2020
3762 Rain 12 996 93 10000 4.6 260 13:24 30.09.2020
3763 Rain 13 996 93 8047 3.6 250 12:40 30.09.2020
3764 Mist 13 996 93 8047 3.6 250 12:22 30.09.2020
3765 Rain 13 997 100 10000 4.1 360 11:45 30.09.2020
3766 Rain 13 997 100 10000 4.1 360 11:23 30.09.2020
3767 Mist 13 999 100 9656 4.1 10 10:49 30.09.2020
3768 Rain 13 999 100 9656 4.1 10 10:26 30.09.2020
3769 Rain 13 1001 100 3219 1 0 09:54 30.09.2020
3770 Rain 13 1001 100 2816 1 0 09:26 30.09.2020
3771 Rain 13 1003 100 4828 2.1 230 08:49 30.09.2020
3772 Rain 13 1003 100 3621 1 0 08:31 30.09.2020
3773 Rain 13 1005 100 3621 0.35 155 07:44 30.09.2020
3774 Rain 13 1006 100 9656 1 0 07:21 30.09.2020
3775 Rain 14 1007 100 10000 2.1 110 06:32 30.09.2020
3776 Rain 14 1009 100 10000 2.1 180 05:38 30.09.2020
3777 Clouds 14 1010 100 10000 1.5 170 03:38 30.09.2020
3778 Clouds 14 1009 100 10000 1.5 170 02:42 30.09.2020
3779 Rain 14 1010 93 10000 3.6 200 00:28 30.09.2020
3780 Rain 14 1010 93 10000 4.1 220 23:51 29.09.2020
3781 Rain 15 1010 93 10000 4.1 220 23:32 29.09.2020
3782 Rain 15 1009 100 9656 4.1 210 22:52 29.09.2020
3783 Rain 16 1009 100 8047 3.1 220 22:28 29.09.2020
3784 Mist 16 1009 100 4828 5.1 220 21:59 29.09.2020
3785 Rain 16 1008 100 4828 4.6 210 21:39 29.09.2020
3786 Rain 16 1008 100 4828 4.6 210 21:21 29.09.2020
3787 Rain 17 1008 93 9656 4.6 230 20:43 29.09.2020
3788 Rain 17 1008 93 9656 5.1 240 20:24 29.09.2020
3789 Rain 17 1008 93 10000 5.1 230 19:53 29.09.2020
3790 Rain 17 1009 93 10000 5.1 240 19:34 29.09.2020
3791 Mist 18 1009 93 9656 5.7 260 18:48 29.09.2020
3792 Rain 18 1008 88 8047 8.7 240 18:23 29.09.2020
3793 Rain 18 1008 88 10000 5.7 230 17:59 29.09.2020
3794 Mist 18 1008 88 8047 5.7 240 17:25 29.09.2020
3795 Mist 18 1008 100 4828 8.2 240 16:56 29.09.2020
3796 Rain 19 1007 88 4023 8.2 210 16:38 29.09.2020
3797 Rain 20 1007 88 4023 8.2 210 16:18 29.09.2020
3798 Clouds 21 1005 73 10000 9.8 170 15:44 29.09.2020
3799 Clouds 21 1005 73 10000 9.8 170 15:26 29.09.2020
3800 Clear 21 1005 83 10000 8.2 180 14:42 29.09.2020
3801 Clear 21 1005 83 10000 8.2 180 14:19 29.09.2020
3802 Clear 21 1005 83 10000 10.3 180 13:54 29.09.2020
3803 Clear 21 1005 83 10000 10.3 180 13:25 29.09.2020
3804 Clouds 21 1005 83 10000 7.2 180 12:52 29.09.2020
3805 Clouds 21 1005 83 10000 7.2 180 12:33 29.09.2020
3806 Clouds 20 1006 77 10000 5.1 170 11:58 29.09.2020
3807 Clouds 20 1006 77 10000 5.1 170 11:28 29.09.2020
3808 Clouds 20 1006 77 10000 6.2 170 10:52 29.09.2020
3809 Clouds 20 1006 77 10000 6.2 170 10:29 29.09.2020
3810 Clouds 20 1006 82 10000 5.7 170 09:43 29.09.2020
3811 Clouds 20 1006 82 10000 5.7 170 09:25 29.09.2020
3812 Clouds 20 1007 82 10000 3.1 170 08:53 29.09.2020
3813 Clouds 20 1007 82 10000 3.1 170 08:53 29.09.2020
3814 Clouds 20 1007 82 10000 3.1 170 08:27 29.09.2020
3815 Clouds 20 1007 82 10000 4.6 180 07:52 29.09.2020
3816 Clouds 20 1007 82 10000 4.6 180 07:32 29.09.2020
3817 Clouds 20 1007 88 10000 3.6 160 05:47 29.09.2020
3818 Clear 20 1007 88 10000 5.7 170 04:48 29.09.2020
3819 Clear 21 1007 88 10000 4.6 170 02:21 29.09.2020
3820 Clouds 22 1007 88 10000 4.6 170 00:59 29.09.2020
3821 Clouds 23 1007 88 10000 6.2 180 23:45 28.09.2020
3822 Clouds 23 1007 88 10000 6.2 180 23:23 28.09.2020
3823 Clouds 24 1008 78 10000 1.5 140 22:41 28.09.2020
3824 Clouds 23 1008 94 10000 1 0 22:21 28.09.2020
3825 Mist 23 1008 94 4828 1 0 21:55 28.09.2020
3826 Clouds 23 1008 83 10000 1.5 290 21:36 28.09.2020
3827 Clouds 23 1008 83 10000 1.5 290 21:18 28.09.2020
3828 Clouds 22 1008 78 10000 2.6 270 20:40 28.09.2020
3829 Clouds 22 1008 78 10000 2.6 270 20:21 28.09.2020
3830 Clouds 23 1009 78 10000 1.5 0 19:43 28.09.2020
3831 Clouds 23 1009 78 10000 1.5 0 19:24 28.09.2020
3832 Clouds 23 1009 83 10000 3.6 180 18:58 28.09.2020
3833 Clouds 23 1009 83 10000 3.6 180 18:39 28.09.2020
3834 Clouds 23 1009 83 10000 3.6 180 18:20 28.09.2020
3835 Clouds 22 1009 94 10000 4.6 150 17:44 28.09.2020
3836 Clouds 22 1009 94 10000 4.6 150 17:25 28.09.2020
3837 Clouds 22 1010 88 10000 2.6 170 16:51 28.09.2020
3838 Rain 22 1010 83 10000 3.1 180 16:28 28.09.2020
3839 Clouds 21 1009 88 10000 3.6 150 15:59 28.09.2020
3840 Clouds 21 1009 88 10000 3.6 150 15:36 28.09.2020
3841 Clouds 21 1009 88 10000 3.6 150 15:18 28.09.2020
3842 Clouds 20 1010 88 10000 2.6 140 14:37 28.09.2020
3843 Clouds 19 1010 88 10000 2.6 140 14:18 28.09.2020
3844 Clouds 19 1010 82 10000 2.1 140 13:44 28.09.2020
3845 Clouds 19 1010 82 10000 2.1 140 13:23 28.09.2020
3846 Clear 19 1010 93 10000 2.1 140 12:42 28.09.2020
3847 Clear 19 1010 93 10000 2.1 140 12:24 28.09.2020
3848 Clouds 19 1010 88 10000 2.6 170 11:42 28.09.2020
3849 Clouds 19 1010 88 10000 2.6 170 11:22 28.09.2020
3850 Clouds 19 1010 88 10000 3.1 170 10:45 28.09.2020
3851 Clouds 19 1010 88 10000 3.1 170 10:45 28.09.2020
3852 Clouds 19 1010 88 10000 3.1 170 10:45 28.09.2020
3853 Clouds 19 1010 88 10000 3.1 170 10:27 28.09.2020
3854 Clouds 19 1011 88 10000 3.1 170 09:50 28.09.2020
3855 Clouds 19 1011 88 10000 3.1 170 09:25 28.09.2020
3856 Clouds 19 1011 88 10000 4.1 170 08:49 28.09.2020
3857 Clouds 19 1011 88 10000 4.1 170 08:23 28.09.2020
3858 Clear 20 1011 82 10000 4.1 170 07:44 28.09.2020
3859 Clear 20 1011 82 10000 4.1 180 06:54 28.09.2020
3860 Clear 20 1011 82 10000 4.6 170 05:32 28.09.2020
3861 Clear 22 1010 73 10000 5.7 180 03:27 28.09.2020
3862 Clear 24 1008 64 10000 7.7 180 00:46 28.09.2020
3863 Clear 26 1008 57 10000 9.3 180 23:48 27.09.2020
3864 Clear 26 1008 57 10000 9.3 180 23:29 27.09.2020
3865 Clear 27 1008 57 10000 10.3 180 22:59 27.09.2020
3866 Clear 27 1008 57 10000 10.3 180 22:41 27.09.2020
3867 Clear 27 1008 57 10000 10.3 180 22:23 27.09.2020
3868 Clear 27 1008 61 10000 7.2 170 21:42 27.09.2020
3869 Clear 27 1008 61 10000 7.2 170 21:22 27.09.2020
3870 Clear 26 1009 64 10000 6.7 170 20:45 27.09.2020
3871 Clear 26 1009 64 10000 6.7 170 20:25 27.09.2020
3872 Clear 25 1009 61 10000 8.7 180 19:46 27.09.2020
3873 Clear 25 1009 61 10000 8.7 180 19:19 27.09.2020
3874 Clouds 25 1009 65 10000 6.7 170 18:47 27.09.2020
3875 Clouds 25 1009 65 10000 6.7 170 18:26 27.09.2020
3876 Clouds 24 1010 64 10000 7.7 190 17:59 27.09.2020
3877 Clouds 24 1010 64 10000 7.7 190 17:39 27.09.2020
3878 Clouds 24 1010 64 10000 7.7 190 17:21 27.09.2020
3879 Clear 23 1011 69 10000 6.7 180 16:43 27.09.2020
3880 Clear 23 1011 69 10000 6.7 180 16:25 27.09.2020
3881 Clear 22 1011 77 10000 4.6 180 15:40 27.09.2020
3882 Clear 21 1011 77 10000 4.6 180 15:22 27.09.2020
3883 Clouds 19 1011 88 10000 4.6 180 14:41 27.09.2020
3884 Clouds 19 1011 88 10000 4.6 180 14:23 27.09.2020
3885 Clouds 18 1011 88 10000 3.1 190 13:49 27.09.2020
3886 Clouds 18 1011 88 10000 3.1 190 13:30 27.09.2020
3887 Clouds 18 1011 82 10000 4.6 180 12:57 27.09.2020
3888 Clouds 18 1011 82 10000 4.6 180 12:38 27.09.2020
3889 Clouds 18 1011 82 10000 4.6 180 12:19 27.09.2020
3890 Clouds 18 1011 82 10000 4.6 180 11:42 27.09.2020
3891 Clouds 18 1011 82 10000 4.6 180 11:22 27.09.2020
3892 Clouds 19 1011 82 10000 4.6 160 10:38 27.09.2020
3893 Clouds 18 1011 82 10000 4.6 160 10:19 27.09.2020
3894 Clouds 18 1012 82 10000 2.1 190 09:40 27.09.2020
3895 Clouds 18 1012 82 10000 2.1 190 09:21 27.09.2020
3896 Clouds 18 1012 72 10000 4.1 170 08:43 27.09.2020
3897 Clouds 18 1012 72 10000 4.1 170 08:25 27.09.2020
3898 Clouds 19 1012 68 10000 4.6 190 07:40 27.09.2020
3899 Clouds 20 1012 68 10000 3.6 180 06:48 27.09.2020
3900 Clouds 20 1013 63 10000 2.1 190 05:24 27.09.2020
3901 Clouds 21 1012 56 10000 4.1 180 03:24 27.09.2020
3902 Clouds 22 1012 60 10000 3.6 170 01:42 27.09.2020
3903 Clear 24 1012 53 10000 4.1 170 00:56 27.09.2020
3904 Clear 24 1012 53 10000 4.1 170 00:33 27.09.2020
3905 Clear 25 1012 53 10000 5.1 170 23:42 26.09.2020
3906 Clear 25 1012 53 10000 5.1 170 23:23 26.09.2020
3907 Clear 26 1012 53 10000 4.1 160 22:42 26.09.2020
3908 Clear 26 1012 53 10000 4.1 160 22:22 26.09.2020
3909 Clouds 26 1013 47 10000 5.1 160 21:50 26.09.2020
3910 Clouds 26 1013 47 10000 5.1 160 21:27 26.09.2020
3911 Clear 26 1013 50 10000 3.6 170 20:58 26.09.2020
3912 Clear 25 1013 50 10000 3.6 170 20:40 26.09.2020
3913 Clear 26 1013 50 10000 3.6 170 20:21 26.09.2020
3914 Clear 25 1014 57 10000 3.6 180 19:55 26.09.2020
3915 Clear 25 1014 57 10000 3.6 180 19:37 26.09.2020
3916 Clear 24 1014 57 10000 3.6 180 19:18 26.09.2020
3917 Clear 24 1015 57 10000 6.2 210 18:37 26.09.2020
3918 Clear 22 1015 57 10000 6.2 210 18:18 26.09.2020
3919 Clear 20 1016 72 10000 1 0 17:35 26.09.2020
3920 Clear 17 1016 82 10000 2.6 230 16:57 26.09.2020
3921 Clear 17 1016 82 10000 2.6 230 16:38 26.09.2020
3922 Clear 17 1016 82 10000 2.6 230 16:19 26.09.2020
3923 Clear 15 1017 87 10000 2.1 190 15:44 26.09.2020
3924 Clear 14 1017 87 10000 2.1 190 15:20 26.09.2020
3925 Clear 11 1017 93 10000 1.67 180 14:44 26.09.2020
3926 Clear 11 1017 93 10000 0.76 172 14:18 26.09.2020
3927 Clear 8 1017 93 10000 0.76 172 13:47 26.09.2020
3928 Clear 8 1017 93 10000 0.78 97 13:24 26.09.2020
3929 Clear 8 1017 93 10000 1 50 12:45 26.09.2020
3930 Clear 9 1017 93 10000 1 50 12:21 26.09.2020
3931 Clear 9 1017 87 10000 1.5 30 11:53 26.09.2020
3932 Clear 9 1017 87 10000 1.5 30 11:23 26.09.2020
3933 Clear 9 1017 87 10000 1.03 70 10:52 26.09.2020
3934 Clear 9 1017 87 10000 1.03 70 10:30 26.09.2020
3935 Clear 10 1017 87 10000 1 30 09:56 26.09.2020
3936 Clear 10 1017 87 10000 1 30 09:38 26.09.2020
3937 Clear 10 1017 87 10000 1 30 09:20 26.09.2020
3938 Clear 10 1017 81 10000 1.04 59 08:37 26.09.2020
3939 Clouds 11 1014 63 10000 0.94 76 07:35 26.09.2020
3940 Clear 11 1018 76 10000 1 20 05:28 26.09.2020
3941 Clouds 13 1018 66 10000 2.1 50 02:19 26.09.2020
3942 Clouds 15 1018 71 10000 2.6 10 01:18 26.09.2020
3943 Clear 16 1018 62 10000 2.1 20 00:21 26.09.2020
3944 Clouds 16 1018 55 10000 2.6 50 23:36 25.09.2020
3945 Clouds 16 1018 55 10000 2.6 50 23:18 25.09.2020
3946 Clouds 17 1018 51 10000 3.6 30 22:41 25.09.2020
3947 Clouds 17 1018 51 10000 3.6 30 22:22 25.09.2020
3948 Clouds 16 1019 54 10000 3.1 30 21:49 25.09.2020
3949 Clouds 16 1019 54 10000 3.1 30 21:24 25.09.2020
3950 Clouds 15 1019 54 10000 3.6 40 20:39 25.09.2020
3951 Clouds 15 1019 54 10000 3.6 40 20:18 25.09.2020
3952 Clouds 13 1020 62 10000 4.1 30 19:28 25.09.2020
3953 Rain 13 1021 62 10000 3.1 40 18:53 25.09.2020
3954 Clouds 13 1021 62 10000 3.1 40 18:24 25.09.2020
3955 Clouds 12 1021 62 10000 3.1 50 17:45 25.09.2020
3956 Clouds 12 1021 62 10000 3.1 50 17:23 25.09.2020
3957 Clouds 12 1021 66 10000 4.1 40 16:58 25.09.2020
3958 Clouds 12 1021 66 10000 4.1 40 16:30 25.09.2020
3959 Clouds 11 1020 71 10000 4.6 40 15:39 25.09.2020
3960 Clouds 9 1020 87 10000 4.6 30 14:59 25.09.2020
3961 Clouds 9 1020 87 10000 4.6 30 14:59 25.09.2020
3962 Clouds 9 1020 87 10000 4.6 30 14:24 25.09.2020
3963 Clouds 8 1020 87 10000 3.6 360 13:57 25.09.2020
3964 Clouds 8 1020 87 10000 3.6 360 13:24 25.09.2020
3965 Clouds 8 1019 87 10000 4.1 360 12:51 25.09.2020
3966 Clouds 8 1019 87 10000 4.1 360 12:30 25.09.2020
3967 Clear 8 1019 87 10000 4.1 360 11:49 25.09.2020
3968 Clear 8 1018 81 10000 3.6 10 10:59 25.09.2020
3969 Clear 8 1018 81 10000 3.6 10 10:38 25.09.2020
3970 Clear 8 1018 81 10000 3.6 10 10:18 25.09.2020
3971 Clouds 9 1018 87 10000 3.6 10 09:45 25.09.2020
3972 Clouds 10 1018 71 10000 3.1 50 08:59 25.09.2020
3973 Clouds 10 1018 71 10000 3.1 50 08:36 25.09.2020
3974 Clear 11 1017 75 10000 2.1 40 07:57 25.09.2020
3975 Clouds 11 1017 66 10000 3.6 40 07:24 25.09.2020
3976 Clouds 14 1016 58 10000 4.1 350 04:33 25.09.2020
3977 Clouds 16 1015 67 10000 2.6 290 02:55 25.09.2020
3978 Clouds 18 1013 68 10000 3.6 250 00:28 25.09.2020
3979 Clouds 20 1013 64 10000 3.6 250 23:30 24.09.2020
3980 Clouds 20 1013 56 10000 3.6 280 22:57 24.09.2020
3981 Clouds 20 1013 56 10000 3.6 280 22:22 24.09.2020
3982 Clouds 19 1013 68 10000 1 0 21:49 24.09.2020
3983 Clouds 19 1013 68 10000 1 0 21:27 24.09.2020
3984 Clouds 19 1013 68 10000 1.5 250 20:58 24.09.2020
3985 Clouds 19 1013 68 10000 1.5 250 20:40 24.09.2020
3986 Clouds 19 1013 68 10000 1.5 250 20:22 24.09.2020
3987 Clouds 18 1013 82 10000 2.6 230 19:31 24.09.2020
3988 Clouds 17 1013 82 10000 3.1 230 18:56 24.09.2020
3989 Clouds 17 1013 82 10000 3.1 230 18:24 24.09.2020
3990 Clouds 17 1013 82 10000 4.1 240 17:58 24.09.2020
3991 Clouds 16 1013 77 10000 3.6 240 17:35 24.09.2020
3992 Rain 16 1013 72 10000 2.6 280 16:38 24.09.2020
3993 Clouds 15 1012 82 10000 2.1 260 15:57 24.09.2020
3994 Rain 15 1012 77 10000 2.1 260 15:21 24.09.2020
3995 Clouds 14 1011 87 10000 4.6 250 14:53 24.09.2020
3996 Clouds 14 1011 87 10000 4.6 250 14:34 24.09.2020
3997 Mist 13 1011 100 9656 3.1 240 13:44 24.09.2020
3998 Mist 13 1011 100 4828 2.6 250 13:20 24.09.2020
3999 Fog 13 1010 100 603 1.5 200 12:48 24.09.2020
4000 Mist 13 1010 93 2816 1.5 180 12:27 24.09.2020
4001 Clear 13 1010 93 10000 2.6 220 11:39 24.09.2020
4002 Clear 13 1010 93 10000 2.6 220 11:18 24.09.2020
4003 Clear 14 1009 93 10000 2.6 230 10:42 24.09.2020
4004 Clear 14 1009 93 10000 2.6 230 10:22 24.09.2020
4005 Clear 13 1009 93 10000 1.5 190 09:25 24.09.2020
4006 Clear 13 1009 93 10000 2.1 210 08:56 24.09.2020
4007 Clear 14 1009 93 10000 2.1 210 08:37 24.09.2020
4008 Clear 14 1009 87 10000 2.1 220 07:44 24.09.2020
4009 Clear 15 1010 76 10000 3.1 240 06:36 24.09.2020
4010 Clouds 19 1009 63 10000 3.1 300 02:32 24.09.2020
4011 Clouds 22 1007 49 10000 5.1 290 00:22 24.09.2020
4012 Clouds 23 1007 47 10000 6.7 290 23:48 23.09.2020
4013 Clouds 23 1007 47 10000 6.7 290 23:22 23.09.2020
4014 Clouds 23 1006 60 10000 4.6 270 22:50 23.09.2020
4015 Clouds 23 1006 60 10000 4.6 270 22:30 23.09.2020
4016 Clouds 23 1006 60 10000 4.6 270 22:30 23.09.2020
4017 Clouds 23 1007 60 10000 5.1 240 21:54 23.09.2020
4018 Clouds 22 1007 60 10000 5.1 240 21:30 23.09.2020
4019 Clouds 22 1007 64 10000 6.2 260 20:54 23.09.2020
4020 Clouds 21 1007 64 10000 6.2 260 20:31 23.09.2020
4021 Clouds 20 1007 63 10000 6.2 250 19:45 23.09.2020
4022 Clouds 20 1007 63 10000 6.2 250 19:22 23.09.2020
4023 Clouds 18 1008 68 10000 5.7 250 18:34 23.09.2020
4024 Clouds 17 1008 72 10000 4.6 230 17:53 23.09.2020
4025 Clouds 17 1008 72 10000 4.6 230 17:33 23.09.2020
4026 Clouds 16 1008 72 10000 5.1 240 16:46 23.09.2020
4027 Clouds 16 1008 72 10000 5.1 240 16:28 23.09.2020
4028 Clouds 15 1008 72 10000 5.1 250 15:45 23.09.2020
4029 Clouds 15 1008 72 10000 5.1 250 15:22 23.09.2020
4030 Clouds 14 1008 76 10000 4.6 240 14:40 23.09.2020
4031 Clouds 13 1008 82 10000 4.6 240 13:46 23.09.2020
4032 Clouds 13 1008 82 10000 4.6 240 13:27 23.09.2020
4033 Clouds 12 1008 76 10000 3.1 250 12:57 23.09.2020
4034 Clouds 12 1008 76 10000 3.1 250 12:25 23.09.2020
4035 Clouds 12 1008 76 10000 3.1 250 11:49 23.09.2020
4036 Clouds 12 1008 76 10000 3.1 250 11:25 23.09.2020
4037 Clouds 12 1008 81 10000 3.6 250 10:46 23.09.2020
4038 Clouds 12 1008 81 10000 3.6 250 10:25 23.09.2020
4039 Clouds 13 1008 76 10000 3.6 240 09:44 23.09.2020
4040 Clouds 13 1008 76 10000 3.6 240 09:19 23.09.2020
4041 Clouds 13 1009 71 10000 2.6 230 08:20 23.09.2020
4042 Clouds 12 1010 76 10000 2.1 200 07:51 23.09.2020
4043 Clear 12 1011 66 10000 2.6 280 05:55 23.09.2020
4044 Clear 13 1012 62 10000 3.1 280 04:38 23.09.2020
4045 Clear 16 1014 51 10000 1.5 260 01:30 23.09.2020
4046 Clear 17 1015 45 10000 2.6 270 00:35 23.09.2020
4047 Clear 18 1016 39 10000 1.5 290 23:35 22.09.2020
4048 Clear 18 1016 39 10000 2.6 330 22:49 22.09.2020
4049 Clear 18 1016 39 10000 2.6 330 22:27 22.09.2020
4050 Clear 18 1018 39 10000 1.5 240 21:44 22.09.2020
4051 Clear 18 1018 39 10000 1.5 240 21:25 22.09.2020
4052 Clear 18 1019 42 10000 3.1 310 20:49 22.09.2020
4053 Clear 18 1019 42 10000 3.1 310 20:27 22.09.2020
4054 Clear 17 1020 44 10000 1.5 0 19:53 22.09.2020
4055 Clear 17 1020 44 10000 1.5 0 19:35 22.09.2020
4056 Clear 16 1022 50 10000 2.1 330 18:58 22.09.2020
4057 Clear 15 1022 50 10000 2.1 330 18:35 22.09.2020
4058 Clear 14 1023 62 10000 1.15 322 17:37 22.09.2020
4059 Clear 12 1024 76 10000 1 0 16:56 22.09.2020
4060 Clear 11 1024 76 10000 1 0 16:28 22.09.2020
4061 Clouds 9 1025 100 10000 1.5 360 15:47 22.09.2020
4062 Clouds 8 1025 100 10000 1.5 360 15:29 22.09.2020
4063 Fog 6 1025 93 201 1.54 55 14:39 22.09.2020
4064 Fog 3 1025 62 201 1 0 13:57 22.09.2020
4065 Fog 2 1026 59 201 1 60 13:26 22.09.2020
4066 Mist 2 1026 100 6437 1.36 358 12:54 22.09.2020
4067 Clear 2 1026 86 10000 1.36 358 12:33 22.09.2020
4068 Clear 3 1026 58 10000 0.86 13 11:53 22.09.2020
4069 Clear 3 1026 56 10000 0.73 51 11:22 22.09.2020
4070 Clear 3 1027 100 10000 0.73 51 10:48 22.09.2020
4071 Clear 3 1027 100 10000 0.76 59 10:26 22.09.2020
4072 Clear 4 1027 93 10000 1 0 09:42 22.09.2020
4073 Clear 3 1028 54 10000 1.5 50 08:56 22.09.2020
4074 Clear 4 1028 54 10000 1.5 50 08:27 22.09.2020
4075 Clear 5 1029 86 10000 1 0 07:53 22.09.2020
4076 Clear 5 1029 86 10000 1 0 07:35 22.09.2020
4077 Clear 6 1029 80 10000 0.57 127 06:56 22.09.2020
4078 Clear 6 1030 80 10000 0.79 187 05:18 22.09.2020
4079 Clear 8 1030 81 10000 0.79 187 04:35 22.09.2020
4080 Clear 13 1031 41 10000 1 100 01:37 22.09.2020
4081 Clear 14 1032 33 10000 0.76 174 00:55 22.09.2020
4082 Clear 17 1033 31 10000 1 0 23:29 21.09.2020
4083 Clear 17 1033 30 10000 1.5 50 22:46 21.09.2020
4084 Clear 17 1033 29 10000 1.5 50 22:25 21.09.2020
4085 Clear 16 1034 29 10000 1.5 0 21:44 21.09.2020
4086 Clear 17 1034 29 10000 1.5 0 21:23 21.09.2020
4087 Clear 16 1035 36 10000 3.1 190 20:51 21.09.2020
4088 Clear 16 1035 36 10000 3.1 190 20:32 21.09.2020
4089 Clear 16 1036 38 10000 1 0 19:57 21.09.2020
4090 Clear 16 1036 38 10000 1 0 19:38 21.09.2020
4091 Clear 15 1036 38 10000 1 0 19:19 21.09.2020
4092 Clear 15 1037 44 10000 2.6 0 18:40 21.09.2020
4093 Clear 14 1037 44 10000 2.6 0 18:19 21.09.2020
4094 Clear 13 1038 50 10000 1.5 130 17:30 21.09.2020
4095 Clear 11 1038 66 10000 1.07 114 16:33 21.09.2020
4096 Clear 9 1038 81 10000 0.75 97 15:48 21.09.2020
4097 Clear 8 1038 81 10000 0.53 130 15:22 21.09.2020
4098 Clear 6 1038 93 10000 1.5 130 14:45 21.09.2020
4099 Clear 6 1038 93 10000 1.5 130 14:23 21.09.2020
4100 Clear 3 1037 64 10000 1.5 200 13:23 21.09.2020
4101 Clear 2 1037 86 10000 1.19 159 12:49 21.09.2020
4102 Clear 2 1037 86 10000 1.22 141 12:23 21.09.2020
4103 Clear 3 1037 63 10000 1 50 11:50 21.09.2020
4104 Clear 3 1037 61 10000 1 50 11:20 21.09.2020
4105 Clear 4 1037 86 10000 1 20 10:46 21.09.2020
4106 Clear 4 1037 86 10000 1 20 10:21 21.09.2020
4107 Clear 4 1036 60 10000 0.73 134 09:38 21.09.2020
4108 Clear 5 1037 80 10000 0.79 147 08:53 21.09.2020
4109 Clear 6 1036 86 10000 1 150 07:51 21.09.2020
4110 Clear 6 1036 86 10000 1 150 07:33 21.09.2020
4111 Clear 7 1036 75 10000 1.02 161 06:42 21.09.2020
4112 Clear 8 1036 65 10000 1 70 03:30 21.09.2020
4113 Clear 13 1035 37 10000 2.1 350 00:50 21.09.2020
4114 Clear 15 1035 38 10000 2.1 360 23:41 20.09.2020
4115 Clear 15 1036 41 10000 3.1 10 22:38 20.09.2020
4116 Clear 15 1036 41 10000 3.1 10 22:19 20.09.2020
4117 Clear 14 1036 41 10000 2.6 0 21:41 20.09.2020
4118 Clear 14 1036 41 10000 2.6 0 21:19 20.09.2020
4119 Clear 14 1036 47 10000 1.5 340 20:23 20.09.2020
4120 Clouds 14 1036 43 10000 4.1 0 19:49 20.09.2020
4121 Clouds 13 1036 43 10000 4.1 0 19:26 20.09.2020
4122 Clouds 12 1037 46 10000 3.1 20 18:48 20.09.2020
4123 Clouds 12 1037 46 10000 3.1 20 18:25 20.09.2020
4124 Clear 12 1037 53 10000 2.1 50 17:58 20.09.2020
4125 Clear 11 1037 53 10000 2.1 50 17:34 20.09.2020
4126 Clear 11 1036 66 10000 3.6 40 16:52 20.09.2020
4127 Clear 9 1036 66 10000 3.6 40 16:24 20.09.2020
4128 Clear 8 1036 81 10000 3.1 360 15:23 20.09.2020
4129 Clear 6 1036 86 10000 3.6 20 14:42 20.09.2020
4130 Clear 6 1036 86 10000 3.6 20 14:18 20.09.2020
4131 Clear 5 1035 93 10000 3.1 10 13:21 20.09.2020
4132 Clear 5 1034 86 10000 3.6 10 12:44 20.09.2020
4133 Clear 5 1034 86 10000 3.6 10 12:23 20.09.2020
4134 Clear 6 1033 80 10000 3.6 360 11:36 20.09.2020
4135 Clear 6 1033 80 10000 3.6 360 11:18 20.09.2020
4136 Clouds 7 1032 75 10000 2.6 360 10:49 20.09.2020
4137 Clouds 7 1032 75 10000 2.6 360 10:18 20.09.2020
4138 Clouds 8 1032 75 10000 3.1 350 09:48 20.09.2020
4139 Clouds 8 1031 70 10000 1 0 08:30 20.09.2020
4140 Clouds 8 1031 70 10000 0.79 347 06:55 20.09.2020
4141 Clear 10 1029 46 10000 1 0 02:18 20.09.2020
4142 Clouds 12 1028 37 10000 2.71 282 00:33 20.09.2020
4143 Clouds 13 1028 40 10000 1.5 260 23:37 19.09.2020
4144 Clouds 13 1028 35 10000 4.1 240 22:57 19.09.2020
4145 Clouds 14 1028 35 10000 4.1 240 22:30 19.09.2020
4146 Clouds 13 1028 35 10000 4.6 240 21:47 19.09.2020
4147 Clouds 13 1028 35 10000 4.6 240 21:27 19.09.2020
4148 Clouds 13 1029 37 10000 4.1 250 20:48 19.09.2020
4149 Clouds 13 1029 34 10000 2.1 210 19:47 19.09.2020
4150 Clouds 13 1029 37 10000 3.6 0 19:18 19.09.2020
4151 Clouds 12 1029 37 10000 3.6 0 18:25 19.09.2020
4152 Clear 11 1029 40 10000 2.1 0 17:45 19.09.2020
4153 Clear 11 1029 43 10000 2.1 0 17:25 19.09.2020
4154 Clear 10 1029 57 10000 2.1 20 16:45 19.09.2020
4155 Clear 9 1029 57 10000 2.1 20 16:21 19.09.2020
4156 Clouds 8 1029 65 10000 2.6 340 15:41 19.09.2020
4157 Clouds 3 1028 74 10000 1 0 13:28 19.09.2020
4158 Clear 3 1027 80 10000 2.1 360 12:25 19.09.2020
4159 Clear 3 1027 80 10000 2.1 350 11:32 19.09.2020
4160 Clear 4 1026 74 10000 2.1 330 10:27 19.09.2020
4161 Clear 4 1026 74 10000 2.6 350 09:51 19.09.2020
4162 Clear 4 1026 74 10000 2.6 350 09:28 19.09.2020
4163 Clear 5 1026 56 10000 2.6 340 08:46 19.09.2020
4164 Clear 6 1025 65 10000 2.6 350 07:45 19.09.2020
4165 Clear 6 1025 65 10000 3.1 350 06:53 19.09.2020
4166 Clear 7 1025 60 10000 3.6 340 05:51 19.09.2020
4167 Clear 8 1024 52 10000 3.1 330 04:20 19.09.2020
4168 Clouds 12 1022 40 10000 3.6 360 00:50 19.09.2020
4169 Clouds 13 1022 37 10000 3.6 360 23:24 18.09.2020
4170 Clouds 13 1021 37 10000 5.1 360 22:59 18.09.2020
4171 Clouds 14 1021 37 10000 5.1 360 22:25 18.09.2020
4172 Clouds 13 1021 33 10000 3.1 350 21:42 18.09.2020
4173 Clouds 13 1021 34 10000 3.1 350 21:23 18.09.2020
4174 Clouds 13 1021 34 10000 4.6 10 20:41 18.09.2020
4175 Clouds 13 1022 35 10000 2.6 360 19:42 18.09.2020
4176 Clouds 13 1022 40 10000 5.7 40 19:20 18.09.2020
4177 Clouds 13 1022 46 10000 3.6 30 18:32 18.09.2020
4178 Clouds 12 1022 46 10000 4.6 360 17:27 18.09.2020
4179 Clouds 11 1022 66 10000 3.1 30 16:41 18.09.2020
4180 Clouds 10 1022 66 10000 3.1 30 16:22 18.09.2020
4181 Clouds 10 1022 53 10000 4.1 20 15:43 18.09.2020
4182 Clear 9 1022 81 10000 3.6 30 15:25 18.09.2020
4183 Clouds 6 1021 56 10000 3.1 10 13:57 18.09.2020
4184 Clouds 5 1021 59 10000 3.1 10 13:24 18.09.2020
4185 Clouds 5 1021 86 10000 2.6 360 12:38 18.09.2020
4186 Clouds 5 1020 86 10000 2.6 360 11:23 18.09.2020
4187 Clear 5 1020 93 10000 2.6 10 10:41 18.09.2020
4188 Clear 5 1020 93 10000 2.6 10 10:20 18.09.2020
4189 Clear 6 1020 86 10000 2.1 20 09:25 18.09.2020
4190 Clear 6 1020 86 10000 2.6 10 08:40 18.09.2020
4191 Clear 6 1020 80 10000 1 20 07:36 18.09.2020
4192 Clear 8 1020 80 10000 1.5 340 06:25 18.09.2020
4193 Clear 11 1019 66 10000 2.1 70 02:22 18.09.2020
4194 Clear 12 1018 66 10000 2.6 50 01:39 18.09.2020
4195 Clouds 15 1018 50 10000 3.1 80 23:52 17.09.2020
4196 Clouds 15 1018 54 10000 3.1 100 22:53 17.09.2020
4197 Clouds 15 1018 54 10000 3.1 100 22:33 17.09.2020
4198 Clear 16 1018 51 10000 4.6 350 21:53 17.09.2020
4199 Clear 16 1018 51 10000 4.6 350 21:25 17.09.2020
4200 Clouds 15 1019 54 10000 4.1 360 20:40 17.09.2020
4201 Clouds 15 1019 58 10000 5.1 20 19:52 17.09.2020
4202 Clouds 16 1018 59 10000 4.6 360 18:58 17.09.2020
4203 Clouds 16 1018 59 10000 4.6 360 18:31 17.09.2020
4204 Clouds 15 1018 62 10000 5.1 20 17:48 17.09.2020
4205 Clouds 15 1018 62 10000 5.1 20 17:22 17.09.2020
4206 Clouds 15 1018 62 10000 4.6 20 16:28 17.09.2020
4207 Clouds 15 1018 71 10000 3.6 350 15:43 17.09.2020
4208 Clouds 14 1017 76 10000 2.1 340 14:47 17.09.2020
4209 Clouds 14 1017 76 10000 2.1 340 14:25 17.09.2020
4210 Clouds 14 1016 71 10000 3.6 340 13:53 17.09.2020
4211 Clouds 14 1016 71 10000 3.6 340 13:23 17.09.2020
4212 Clouds 14 1015 67 10000 3.6 320 12:28 17.09.2020
4213 Clouds 14 1015 71 10000 4.6 310 11:42 17.09.2020
4214 Clouds 15 1014 77 10000 3.6 320 10:50 17.09.2020
4215 Clouds 15 1014 77 10000 3.6 320 10:31 17.09.2020
4216 Clouds 15 1014 93 10000 1 0 09:53 17.09.2020
4217 Clouds 15 1013 93 10000 1.5 70 09:23 17.09.2020
4218 Mist 16 1013 87 6437 4.1 340 08:40 17.09.2020
4219 Mist 16 1013 87 6437 4.1 340 08:22 17.09.2020
4220 Clouds 18 1012 59 10000 4.6 290 07:27 17.09.2020
4221 Clouds 19 1012 59 10000 4.6 240 06:49 17.09.2020
4222 Clouds 19 1011 59 10000 3.1 200 05:23 17.09.2020
4223 Clear 20 1009 55 10000 7.7 190 01:48 17.09.2020
4224 Clear 20 1009 55 10000 7.7 190 01:48 17.09.2020
4225 Clear 21 1009 55 10000 7.7 190 01:29 17.09.2020
4226 Clear 22 1009 56 10000 6.2 190 00:35 17.09.2020
4227 Clear 23 1009 53 10000 5.1 170 23:33 16.09.2020
4228 Clear 23 1010 53 10000 8.2 180 22:45 16.09.2020
4229 Clear 23 1010 53 10000 8.2 180 22:20 16.09.2020
4230 Clear 23 1011 56 10000 6.7 190 21:41 16.09.2020
4231 Clear 23 1012 56 10000 5.7 180 20:52 16.09.2020
4232 Clear 23 1012 56 10000 5.7 180 20:32 16.09.2020
4233 Clear 22 1013 60 10000 6.7 180 19:44 16.09.2020
4234 Clouds 19 1014 63 10000 7.7 200 17:29 16.09.2020
4235 Clouds 18 1015 59 10000 8.7 220 16:51 16.09.2020
4236 Clouds 16 1015 67 10000 7.7 180 15:53 16.09.2020
4237 Clouds 15 1015 67 10000 7.7 180 15:24 16.09.2020
4238 Clear 14 1015 71 10000 6.7 180 14:49 16.09.2020
4239 Clear 13 1015 71 10000 6.7 180 14:19 16.09.2020
4240 Clouds 12 1016 76 10000 6.7 190 12:56 16.09.2020
4241 Clouds 12 1016 81 10000 5.1 180 11:51 16.09.2020
4242 Clouds 12 1016 81 10000 5.1 180 11:21 16.09.2020
4243 Clouds 12 1018 87 10000 5.1 170 09:58 16.09.2020
4244 Clouds 12 1018 87 10000 5.1 170 09:37 16.09.2020
4245 Clouds 12 1018 87 10000 5.1 170 09:18 16.09.2020
4246 Clouds 12 1019 71 10000 4.1 150 07:53 16.09.2020
4247 Clouds 12 1020 76 10000 2.6 150 06:42 16.09.2020
4248 Clouds 13 1024 58 10000 2.6 230 00:41 16.09.2020
4249 Rain 14 1024 54 10000 2.6 250 23:41 15.09.2020
4250 Clouds 14 1023 54 10000 2.6 180 22:52 15.09.2020
4251 Clouds 14 1025 54 10000 4.6 240 22:29 15.09.2020
4252 Clouds 14 1025 54 10000 4.1 240 21:43 15.09.2020
4253 Clouds 14 1025 54 10000 4.1 240 21:22 15.09.2020
4254 Clouds 14 1026 50 10000 2.1 240 20:46 15.09.2020
4255 Clouds 14 1026 50 10000 2.1 240 20:22 15.09.2020
4256 Clouds 14 1026 50 10000 2.1 240 20:22 15.09.2020
4257 Clouds 14 1026 58 10000 3.1 230 19:31 15.09.2020
4258 Clear 13 1028 62 10000 1.5 0 17:50 15.09.2020
4259 Clear 12 1028 62 10000 1.5 0 17:27 15.09.2020
4260 Clear 11 1029 71 10000 1 0 16:39 15.09.2020
4261 Clear 9 1028 87 10000 1.5 80 15:44 15.09.2020
4262 Smoke 8 1029 87 10000 1 360 14:55 15.09.2020
4263 Clouds 7 1028 87 10000 2.6 340 13:55 15.09.2020
4264 Clear 6 1027 93 10000 1 40 11:41 15.09.2020
4265 Clear 7 1027 93 10000 1 40 09:35 15.09.2020
4266 Clear 7 1027 87 10000 1.96 14 09:00 15.09.2020
4267 Clear 7 1027 87 10000 1.96 14 08:31 15.09.2020
4268 Clear 9 1027 70 10000 2.6 310 07:25 15.09.2020
4269 Clear 11 1026 57 10000 3.6 300 03:43 15.09.2020
4270 Clouds 16 1023 44 10000 4.6 280 23:35 14.09.2020
4271 Clouds 16 1023 47 10000 5.1 290 22:37 14.09.2020
4272 Clouds 15 1023 51 10000 3.6 320 21:25 14.09.2020
4273 Clouds 15 1023 54 10000 3.1 280 20:37 14.09.2020
4274 Clouds 14 1023 50 10000 4.1 300 18:31 14.09.2020
4275 Clear 13 1022 62 10000 5.7 320 16:25 14.09.2020
4276 Clear 12 1021 66 10000 6.2 330 15:55 14.09.2020
4277 Clear 12 1020 66 10000 5.7 320 14:44 14.09.2020
4278 Clear 12 1020 66 10000 5.7 320 14:20 14.09.2020
4279 Clouds 14 1017 82 10000 5.1 290 12:19 14.09.2020
4280 Clouds 14 1016 87 10000 4.6 270 11:27 14.09.2020
4281 Clouds 16 1013 93 10000 4.6 260 08:48 14.09.2020
4282 Clouds 19 1010 88 10000 6.2 220 03:58 14.09.2020
4283 Rain 16 1009 100 4828 7.7 180 21:57 13.09.2020
4284 Rain 16 1010 93 9656 6.7 180 20:58 13.09.2020
4285 Clouds 18 1013 68 10000 6.7 170 17:24 13.09.2020
4286 Clouds 16 1016 72 10000 4.6 170 14:51 13.09.2020
4287 Clouds 16 1018 77 10000 3.1 180 11:55 13.09.2020
4288 Clouds 16 1018 77 10000 5.1 180 10:20 13.09.2020
4289 Clear 16 1019 82 10000 2.6 200 07:33 13.09.2020
4290 Clear 16 1020 82 10000 3.1 180 06:52 13.09.2020
4291 Clear 20 1024 48 10000 4.6 170 21:22 12.09.2020
4292 Clear 19 1026 55 10000 3.1 150 19:48 12.09.2020
4293 Clear 19 1026 55 10000 3.1 150 19:30 12.09.2020
4294 Clear 17 1027 63 10000 2.6 130 18:18 12.09.2020
4295 Clouds 17 1028 67 10000 2.6 110 17:45 12.09.2020
4296 Clear 15 1028 82 10000 2.1 130 16:53 12.09.2020
4297 Clouds 11 1028 87 10000 1.5 100 14:35 12.09.2020
4298 Clear 7 1028 100 10000 1 100 12:50 12.09.2020
4299 Clear 8 1027 93 10000 1 80 10:48 12.09.2020
4300 Clear 12 1028 76 10000 2.1 210 05:36 12.09.2020
4301 Clear 13 1027 76 10000 1.5 160 04:59 12.09.2020
4302 Clear 17 1026 55 10000 4.6 240 00:50 12.09.2020
4303 Clouds 18 1026 51 10000 1 0 22:27 11.09.2020
4304 Clouds 17 1027 48 10000 2.6 330 20:50 11.09.2020
4305 Clouds 17 1028 54 10000 3.1 360 19:35 11.09.2020
4306 Clear 15 1028 56 10000 0.89 132 17:47 11.09.2020
4307 Clear 13 1028 76 10000 3.6 360 16:32 11.09.2020
4308 Clear 10 1027 87 10000 2.6 360 14:26 11.09.2020
4309 Clear 8 1026 93 10000 1.91 12 11:45 11.09.2020
4310 Clear 9 1025 93 10000 3.1 340 10:49 11.09.2020
4311 Clouds 11 1025 87 10000 4.6 10 07:33 11.09.2020
4312 Mist 15 1023 87 9656 2.6 10 21:55 10.09.2020
4313 Clouds 15 1023 93 10000 2.1 20 19:34 10.09.2020
4314 Mist 14 1024 100 9656 3.1 330 17:56 10.09.2020
4315 Mist 13 1024 100 2012 3.1 360 15:54 10.09.2020
4316 Clouds 12 1024 94 10000 0.45 42 14:21 10.09.2020
4317 Clouds 12 1023 100 10000 1.5 10 11:37 10.09.2020
4318 Clouds 12 1024 93 10000 2.6 40 09:55 10.09.2020
4319 Clouds 13 1026 93 10000 3.1 40 07:49 10.09.2020
4320 Clouds 13 1026 93 10000 3.6 10 07:20 10.09.2020
4321 Clouds 17 1026 77 10000 0.45 17 21:50 09.09.2020
4322 Clouds 17 1027 77 10000 0.45 76 19:45 09.09.2020
4323 Clouds 15 1026 87 10000 4.6 20 17:22 09.09.2020
4324 Clouds 14 1026 93 10000 3.6 50 15:39 09.09.2020
4325 Clouds 13 1024 100 10000 4.1 20 10:51 09.09.2020
4326 Clouds 13 1024 93 10000 2.6 50 09:55 09.09.2020
4327 Clouds 13 1024 100 10000 3.1 40 08:59 09.09.2020
4328 Clouds 13 1025 93 10000 3.6 40 07:38 09.09.2020
4329 Clouds 13 1024 100 10000 4.1 10 04:41 09.09.2020
4330 Clouds 13 1024 100 10000 4.1 10 04:41 09.09.2020
4331 Clouds 13 1024 100 10000 4.1 10 04:41 09.09.2020
4332 Clouds 13 1024 100 10000 4.1 10 04:41 09.09.2020
4333 Rain 19 1022 63 10000 3.6 320 01:21 09.09.2020
4334 Clouds 20 1021 72 10000 2.1 60 23:36 08.09.2020
4335 Clouds 20 1021 72 10000 2.1 60 23:36 08.09.2020
4336 Clouds 21 1021 60 10000 1 0 21:44 08.09.2020
4337 Clouds 21 1021 60 10000 1 0 21:21 08.09.2020
4338 Clouds 21 1021 60 10000 1.5 90 19:42 08.09.2020
4339 Clear 19 1021 72 10000 2.6 360 16:41 08.09.2020
4340 Clouds 17 1018 93 10000 2.1 290 12:22 08.09.2020
4341 Clouds 17 1017 88 10000 2.1 260 11:24 08.09.2020
4342 Clouds 17 1016 88 10000 4.1 230 10:37 08.09.2020
4343 Clouds 18 1015 88 10000 4.1 240 09:40 08.09.2020
4344 Rain 19 1015 94 10000 5.1 240 07:46 08.09.2020
4345 Rain 23 1010 60 10000 5.7 190 01:37 08.09.2020
4346 Clouds 25 1008 57 10000 9.3 180 22:47 07.09.2020
4347 Clouds 25 1008 61 10000 7.7 160 21:24 07.09.2020
4348 Clouds 23 1010 68 10000 8.7 180 18:42 07.09.2020
4349 Clouds 19 1011 72 10000 8.2 170 15:45 07.09.2020
4350 Clear 17 1012 72 10000 7.2 160 13:31 07.09.2020
4351 Clouds 15 1013 77 10000 4.6 160 12:19 07.09.2020
4352 Clouds 15 1014 82 10000 3.6 160 11:41 07.09.2020
4353 Clouds 14 1014 82 10000 3.6 160 11:18 07.09.2020
4354 Clear 14 1017 87 10000 3.6 130 07:33 07.09.2020
4355 Clear 20 1021 49 10000 5.1 210 23:45 06.09.2020
4356 Clear 21 1021 52 10000 3.6 250 21:37 06.09.2020
4357 Clouds 20 1021 52 10000 4.6 220 20:39 06.09.2020
4358 Clouds 20 1022 56 10000 7.2 240 19:34 06.09.2020
4359 Clouds 19 1022 63 10000 5.1 240 18:33 06.09.2020
4360 Clouds 15 1020 87 10000 3.1 230 15:28 06.09.2020
4361 Clear 13 1021 93 10000 2.6 220 13:57 06.09.2020
4362 Clear 12 1020 87 10000 1.5 260 12:58 06.09.2020
4363 Clouds 12 1019 93 10000 2.1 180 09:53 06.09.2020
4364 Clouds 13 1019 82 10000 1 230 08:56 06.09.2020
4365 Clouds 20 1018 45 10000 6.7 250 00:18 06.09.2020
4366 Clouds 21 1017 49 10000 7.7 250 22:35 05.09.2020
4367 Clear 18 1018 59 10000 7.2 240 17:44 05.09.2020
4368 Clear 14 1018 82 10000 6.7 230 14:37 05.09.2020
4369 Clear 11 1017 93 10000 2.6 200 12:56 05.09.2020
4370 Clear 11 1017 93 10000 2.6 200 12:36 05.09.2020
4371 Clear 12 1017 87 10000 3.6 200 11:40 05.09.2020
4372 Clear 13 1017 87 10000 3.1 200 10:29 05.09.2020
4373 Clouds 13 1016 93 10000 3.1 190 08:59 05.09.2020
4374 Clouds 15 1015 77 10000 4.1 200 06:27 05.09.2020
4375 Clouds 22 1010 46 10000 9.3 230 21:40 04.09.2020
4376 Clouds 21 1011 49 10000 8.2 260 19:53 04.09.2020
4377 Clear 20 1010 59 10000 8.2 240 18:41 04.09.2020
4378 Clear 18 1010 63 10000 8.2 240 16:52 04.09.2020
4379 Clear 17 1009 67 10000 6.7 250 15:28 04.09.2020
4380 Clear 17 1005 77 10000 8.7 250 11:32 04.09.2020
4381 Clear 19 1002 82 10000 6.2 220 09:30 04.09.2020
4382 Clouds 19 1002 82 10000 5.1 190 06:31 04.09.2020
4383 Clear 23 1004 64 10000 4.1 170 00:59 04.09.2020
4384 Clear 24 1006 49 10000 4.6 220 22:41 03.09.2020
4385 Clear 24 1007 49 10000 4.6 230 21:39 03.09.2020
4386 Clear 24 1007 53 10000 5.1 230 20:31 03.09.2020
4387 Clear 24 1007 53 10000 5.1 230 20:31 03.09.2020
4388 Clear 23 1008 64 10000 7.2 220 19:41 03.09.2020
4389 Clear 21 1009 68 10000 5.7 240 18:18 03.09.2020
4390 Clear 20 1009 82 10000 3.1 230 16:26 03.09.2020
4391 Clear 16 1009 100 10000 1.5 210 13:25 03.09.2020
4392 Mist 16 1009 100 9656 3.1 210 12:26 03.09.2020
4393 Clouds 17 1008 93 10000 3.1 220 10:46 03.09.2020
4394 Clear 17 1007 100 10000 2.6 220 08:31 03.09.2020
4395 Clouds 22 1001 88 10000 9.3 170 00:18 03.09.2020
4396 Clouds 24 1004 78 10000 9.8 170 20:44 02.09.2020
4397 Clouds 23 1005 73 10000 12.9 170 19:59 02.09.2020
4398 Clouds 21 1008 82 10000 9.8 180 17:58 02.09.2020
4399 Clouds 19 1009 82 10000 7.2 170 14:58 02.09.2020
4400 Rain 19 1012 93 8047 6.2 160 11:51 02.09.2020
4401 Clouds 21 1014 77 10000 4.6 180 08:46 02.09.2020
4402 Clouds 20 1015 77 10000 3.1 190 07:19 02.09.2020
4403 Clouds 23 1016 73 10000 6.2 180 00:20 02.09.2020
4404 Clouds 23 1016 73 10000 6.2 180 00:20 02.09.2020
4405 Clouds 22 1017 73 10000 7.2 170 21:38 01.09.2020
4406 Clouds 19 1018 88 10000 6.7 160 19:50 01.09.2020
4407 Clouds 19 1018 88 10000 5.1 160 18:36 01.09.2020
4408 Clouds 19 1018 88 10000 5.1 160 18:18 01.09.2020
4409 Clouds 18 1018 88 10000 4.6 170 16:34 01.09.2020
4410 Clouds 18 1018 82 10000 5.1 180 15:34 01.09.2020
4411 Clouds 17 1018 82 10000 2.6 170 13:38 01.09.2020
4412 Clouds 15 1018 87 10000 1 0 10:34 01.09.2020
4413 Clouds 15 1018 87 10000 2.1 120 09:45 01.09.2020
4414 Clear 15 1018 82 10000 3.1 130 07:34 01.09.2020
4415 Clouds 22 1018 49 10000 2.6 70 23:20 31.08.2020
4416 Clouds 22 1018 43 10000 2.1 0 21:32 31.08.2020
4417 Clear 20 1019 52 10000 1 0 17:42 31.08.2020
4418 Clear 18 1019 63 10000 0.34 155 16:29 31.08.2020
4419 Clear 14 1019 87 10000 0.23 260 14:18 31.08.2020
4420 Clear 11 1017 93 10000 1 100 12:20 31.08.2020
4421 Clouds 14 1015 82 10000 2.1 330 09:33 31.08.2020
4422 Clouds 14 1013 76 10000 1.5 30 06:51 31.08.2020
4423 Clouds 17 1011 59 10000 4.1 290 02:18 31.08.2020
4424 Clouds 20 1008 52 10000 6.7 320 23:21 30.08.2020
4425 Clouds 20 1006 49 10000 8.7 310 21:22 30.08.2020
4426 Clouds 19 1006 52 10000 7.7 310 19:22 30.08.2020
4427 Clouds 19 1005 52 10000 7.7 320 18:41 30.08.2020
4428 Clouds 17 1004 59 10000 6.7 330 17:32 30.08.2020
4429 Clouds 15 1002 72 10000 7.2 300 15:24 30.08.2020
4430 Clouds 14 1001 76 10000 6.2 290 14:51 30.08.2020
4431 Clouds 13 997 82 10000 6.7 280 11:58 30.08.2020
4432 Clouds 13 998 82 10000 7.7 290 11:40 30.08.2020
4433 Mist 14 996 100 9656 6.2 260 09:40 30.08.2020
4434 Rain 15 996 87 6437 7.7 260 08:47 30.08.2020
4435 Rain 15 993 100 10000 4.6 20 23:21 29.08.2020
4436 Clouds 15 994 100 10000 4.1 40 21:18 29.08.2020
4437 Clouds 15 995 100 10000 3.6 50 20:24 29.08.2020
4438 Rain 15 999 100 8047 3.1 70 17:59 29.08.2020
4439 Rain 15 999 100 6437 3.1 50 17:37 29.08.2020
4440 Rain 15 1000 100 9656 4.6 90 16:47 29.08.2020
4441 Rain 15 1001 93 8047 3.6 90 15:55 29.08.2020
4442 Clouds 16 1005 87 10000 1.5 120 11:32 29.08.2020
4443 Clouds 17 1007 87 10000 2.1 100 08:28 29.08.2020
4444 Clouds 17 1008 68 10000 0.97 148 06:40 29.08.2020
4445 Clouds 23 1008 46 10000 5.7 250 22:23 28.08.2020
4446 Clouds 23 1009 46 10000 6.2 260 21:29 28.08.2020
4447 Clouds 22 1010 46 10000 2.6 270 19:21 28.08.2020
4448 Clouds 19 1010 68 10000 5.7 240 17:51 28.08.2020
4449 Clouds 17 1010 72 10000 2.6 270 16:57 28.08.2020
4450 Clouds 17 1010 72 10000 2.6 270 16:23 28.08.2020
4451 Clear 15 1010 87 10000 3.6 240 14:44 28.08.2020
4452 Clear 15 1010 87 10000 3.6 240 14:24 28.08.2020
4453 Clouds 14 1009 93 10000 3.1 210 13:46 28.08.2020
4454 Clear 12 1008 93 10000 1.54 251 11:31 28.08.2020
4455 Clouds 13 1007 87 10000 1.5 260 09:27 28.08.2020
4456 Clear 14 1007 76 10000 2.58 255 07:46 28.08.2020
4457 Clouds 14 1007 71 10000 2.6 220 05:39 28.08.2020
4458 Clouds 17 1005 59 10000 3.1 230 23:53 27.08.2020
4459 Clouds 17 1005 59 10000 3.1 230 23:34 27.08.2020
4460 Clouds 17 1005 59 10000 3.1 230 23:34 27.08.2020
4461 Clouds 18 1006 55 10000 3.1 190 20:55 27.08.2020
4462 Clouds 18 1006 55 10000 3.1 190 20:29 27.08.2020
4463 Clouds 18 1006 51 10000 2.6 30 19:44 27.08.2020
4464 Clear 17 1007 51 10000 1.94 277 17:26 27.08.2020
4465 Clouds 16 1008 67 10000 1.5 80 16:46 27.08.2020
4466 Clear 15 1008 76 10000 2.6 50 15:45 27.08.2020
4467 Clouds 11 1009 93 10000 1 180 13:34 27.08.2020
4468 Clear 9 1009 93 10000 1.5 170 11:40 27.08.2020
4469 Clear 9 1010 76 10000 1.5 300 09:54 27.08.2020
4470 Clear 10 1010 76 10000 1.5 300 09:25 27.08.2020
4471 Clear 13 1011 58 10000 2.1 270 06:38 27.08.2020
4472 Clear 16 1011 48 10000 5.7 320 01:34 27.08.2020
4473 Clear 19 1012 42 10000 5.7 300 22:44 26.08.2020
4474 Clouds 19 1012 45 10000 7.7 310 21:50 26.08.2020
4475 Clouds 18 1013 45 10000 6.7 290 19:59 26.08.2020
4476 Clear 17 1013 52 10000 5.72 281 18:43 26.08.2020
4477 Clear 15 1014 58 10000 5.7 260 17:22 26.08.2020
4478 Clear 12 1015 62 10000 5.1 290 14:58 26.08.2020
4479 Clear 11 1014 62 10000 5.1 310 12:24 26.08.2020
4480 Clear 13 1013 66 10000 4.1 310 09:28 26.08.2020
4481 Clear 14 1012 62 10000 5.1 310 06:22 26.08.2020
4482 Clouds 23 1006 53 10000 10.3 310 22:42 25.08.2020
4483 Clouds 23 1005 49 10000 9.8 310 21:29 25.08.2020
4484 Clouds 24 1004 50 10000 9.8 280 20:52 25.08.2020
4485 Clouds 24 1004 50 10000 9.8 280 20:23 25.08.2020
4486 Clouds 25 1004 53 10000 8.7 270 19:44 25.08.2020
4487 Clouds 25 1004 65 10000 9.3 270 18:43 25.08.2020
4488 Clouds 24 1004 69 10000 7.7 290 17:29 25.08.2020
4489 Clouds 23 1004 83 10000 6.2 260 15:52 25.08.2020
4490 Clear 22 1004 94 10000 8.2 260 14:44 25.08.2020
4491 Clouds 22 1004 94 10000 6.2 260 13:41 25.08.2020
4492 Clouds 21 1004 94 10000 3.1 200 12:20 25.08.2020
4493 Clouds 21 1006 100 10000 4.1 160 09:20 25.08.2020
4494 Clouds 22 1007 94 10000 2.6 180 07:54 25.08.2020
4495 Thunderstorm 22 1008 94 10000 3.1 190 07:25 25.08.2020
4496 Thunderstorm 22 1008 100 10000 4.1 190 06:52 25.08.2020
4497 Clouds 22 1008 100 10000 2.6 180 06:19 25.08.2020
4498 Clouds 22 1009 94 10000 1.5 180 05:40 25.08.2020
4499 Clouds 22 1009 94 10000 3.6 180 05:00 25.08.2020
4500 Clouds 23 1010 94 10000 4.1 190 03:43 25.08.2020
4501 Clouds 23 1010 94 10000 4.1 190 03:25 25.08.2020
4502 Clouds 23 1010 94 10000 4.1 180 02:43 25.08.2020
4503 Clouds 26 1011 78 10000 1.5 190 22:40 24.08.2020
4504 Clouds 26 1012 78 10000 1.5 160 21:50 24.08.2020
4505 Clouds 25 1013 78 10000 2.6 200 20:22 24.08.2020
4506 Clouds 24 1014 88 10000 2.6 110 19:35 24.08.2020
4507 Clouds 22 1015 88 10000 2.1 140 17:56 24.08.2020
4508 Clouds 22 1015 88 10000 2.1 140 17:33 24.08.2020
4509 Clouds 21 1015 94 10000 2.6 140 16:32 24.08.2020
4510 Rain 20 1015 94 10000 2.6 180 15:23 24.08.2020
4511 Rain 19 1015 100 9656 2.1 220 14:30 24.08.2020
4512 Rain 19 1015 100 9656 1.5 160 13:28 24.08.2020
4513 Rain 19 1015 100 9656 1.5 160 13:28 24.08.2020
4514 Rain 20 1015 94 10000 0.56 79 12:20 24.08.2020
4515 Rain 20 1015 94 10000 0.56 79 12:20 24.08.2020
4516 Rain 20 1015 94 10000 1.5 290 11:53 24.08.2020
4517 Rain 20 1015 94 10000 1.5 290 11:32 24.08.2020
4518 Mist 20 1016 100 9656 4.6 270 10:34 24.08.2020
4519 Clouds 21 1015 94 10000 1 160 08:46 24.08.2020
4520 Rain 21 1016 100 10000 1 100 07:52 24.08.2020
4521 Clouds 26 1014 69 10000 3.6 240 00:39 24.08.2020
4522 Clouds 27 1014 69 10000 3.6 240 00:21 24.08.2020
4523 Clouds 27 1014 65 10000 3.1 220 23:42 23.08.2020
4524 Clouds 26 1015 73 10000 2.1 210 21:27 23.08.2020
4525 Clouds 25 1016 83 10000 3.1 240 19:53 23.08.2020
4526 Clouds 22 1016 88 10000 4.1 220 18:45 23.08.2020
4527 Clouds 21 1016 88 10000 4.1 190 17:53 23.08.2020
4528 Clouds 20 1016 94 10000 3.6 180 16:40 23.08.2020
4529 Rain 20 1016 100 10000 6.2 200 15:28 23.08.2020
4530 Rain 19 1016 100 8047 6.2 200 14:50 23.08.2020
4531 Rain 18 1016 93 10000 3.1 210 13:20 23.08.2020
4532 Clouds 19 1015 88 10000 2.6 190 11:19 23.08.2020
4533 Clouds 19 1015 88 10000 3.1 190 10:31 23.08.2020
4534 Clouds 20 1015 77 10000 1.5 130 08:24 23.08.2020
4535 Clouds 21 1015 72 10000 2.6 210 06:38 23.08.2020
4536 Clear 26 1013 50 10000 1.5 180 00:43 23.08.2020
4537 Clear 26 1013 50 10000 1.5 180 00:23 23.08.2020
4538 Clear 26 1013 50 10000 2.1 250 23:46 22.08.2020
4539 Clouds 26 1013 44 10000 1 0 22:51 22.08.2020
4540 Clouds 26 1013 50 10000 3.6 350 20:37 22.08.2020
4541 Clouds 24 1014 69 10000 2.45 252 18:44 22.08.2020
4542 Clouds 23 1014 83 10000 2.33 244 17:44 22.08.2020
4543 Clouds 23 1014 83 10000 2.33 244 17:44 22.08.2020
4544 Clouds 22 1014 83 10000 1.78 237 17:19 22.08.2020
4545 Mist 18 1013 100 4828 1 0 15:28 22.08.2020
4546 Fog 16 1013 100 201 1 0 13:34 22.08.2020
4547 Mist 16 1012 100 2816 1.13 143 11:48 22.08.2020
4548 Mist 16 1012 100 3219 1 0 10:28 22.08.2020
4549 Fog 16 1012 100 603 1 140 09:23 22.08.2020
4550 Mist 17 1012 100 8047 1.5 80 06:58 22.08.2020
4551 Clouds 23 1011 73 10000 2.1 100 01:28 22.08.2020
4552 Clouds 24 1010 64 10000 3.6 310 21:39 21.08.2020
4553 Clouds 22 1010 83 10000 4.1 10 20:24 21.08.2020
4554 Clouds 19 1011 94 10000 4.6 250 16:52 21.08.2020
4555 Rain 18 1010 88 10000 5.7 260 14:39 21.08.2020
4556 Rain 18 1009 88 10000 6.2 250 13:38 21.08.2020
4557 Clouds 18 1009 88 10000 5.1 210 11:26 21.08.2020
4558 Clouds 18 1009 88 10000 4.1 210 10:57 21.08.2020
4559 Clouds 17 1011 93 10000 3.6 160 07:32 21.08.2020
4560 Clouds 20 1013 56 10000 3.1 190 00:19 21.08.2020
4561 Clouds 21 1015 52 10000 6.2 240 22:41 20.08.2020
4562 Clouds 22 1016 49 10000 4.1 260 20:38 20.08.2020
4563 Clouds 20 1017 60 10000 3.6 240 18:35 20.08.2020
4564 Clouds 19 1018 59 10000 1.5 230 17:35 20.08.2020
4565 Clear 15 1018 72 10000 1 0 14:56 20.08.2020
4566 Clouds 14 1018 87 10000 1.72 254 13:43 20.08.2020
4567 Clear 11 1017 81 10000 1 0 11:48 20.08.2020
4568 Clear 12 1017 81 10000 1 0 11:30 20.08.2020
4569 Clear 13 1017 76 10000 2.6 300 09:52 20.08.2020
4570 Clear 14 1017 71 10000 2.6 290 08:49 20.08.2020
4571 Clear 14 1016 71 10000 2.6 320 07:44 20.08.2020
4572 Clear 17 1016 67 10000 3.1 330 04:53 20.08.2020
4573 Clear 17 1016 67 10000 3.1 330 04:22 20.08.2020
4574 Clear 21 1014 52 10000 4.1 290 00:43 20.08.2020
4575 Clouds 21 1013 52 10000 7.7 300 22:23 19.08.2020
4576 Clouds 21 1014 56 10000 5.7 290 20:42 19.08.2020
4577 Clouds 20 1014 59 10000 3.6 260 18:38 19.08.2020
4578 Clouds 19 1014 63 10000 3.1 0 17:39 19.08.2020
4579 Clouds 19 1014 63 10000 3.1 0 17:19 19.08.2020
4580 Clouds 17 1014 77 10000 2.6 350 15:31 19.08.2020
4581 Clouds 15 1013 93 10000 2.1 260 13:51 19.08.2020
4582 Clouds 14 1012 87 10000 1 0 11:58 19.08.2020
4583 Clear 14 1012 87 10000 1.5 10 10:35 19.08.2020
4584 Clear 14 1012 82 10000 3.1 290 09:49 19.08.2020
4585 Clear 15 1012 87 10000 3.1 260 08:56 19.08.2020
4586 Clouds 22 1008 53 10000 11.3 310 22:57 18.08.2020
4587 Clouds 23 1008 60 10000 6.2 260 22:19 18.08.2020
4588 Clouds 23 1007 68 10000 5.1 250 21:47 18.08.2020
4589 Thunderstorm 23 1007 56 10000 8.2 310 20:56 18.08.2020
4590 Thunderstorm 24 1007 57 10000 7.7 250 20:24 18.08.2020
4591 Clouds 24 1007 60 10000 7.7 210 19:46 18.08.2020
4592 Clouds 22 1008 73 10000 5.1 240 17:47 18.08.2020
4593 Clouds 22 1008 77 10000 4.6 210 16:44 18.08.2020
4594 Clear 20 1008 77 10000 4.1 250 15:40 18.08.2020
4595 Clear 18 1008 88 10000 4.1 240 14:36 18.08.2020
4596 Clouds 17 1007 100 10000 4.1 230 13:20 18.08.2020
4597 Clouds 17 1007 93 10000 2.6 190 12:19 18.08.2020
4598 Rain 18 1007 93 10000 4.1 240 09:52 18.08.2020
4599 Rain 20 1008 88 10000 4.1 220 07:57 18.08.2020
4600 Clouds 20 1008 88 10000 4.1 230 07:27 18.08.2020
4601 Clear 23 1009 64 10000 4.6 250 01:58 18.08.2020
4602 Clear 25 1008 61 10000 4.1 230 23:25 17.08.2020
4603 Clouds 24 1009 60 10000 5.1 230 22:43 17.08.2020
4604 Clear 25 1009 69 10000 4.1 220 21:35 17.08.2020
4605 Clouds 23 1010 73 10000 3.1 220 20:27 17.08.2020
4606 Rain 20 1011 93 10000 4.1 280 18:41 17.08.2020
4607 Clouds 20 1011 83 10000 5.1 270 17:28 17.08.2020
4608 Clouds 21 1011 83 10000 2.6 200 15:37 17.08.2020
4609 Clouds 20 1012 88 10000 3.6 190 14:55 17.08.2020
4610 Clouds 19 1012 88 10000 3.1 180 13:46 17.08.2020
4611 Clouds 20 1011 82 10000 3.1 170 11:57 17.08.2020
4612 Rain 19 1011 82 10000 3.1 180 11:38 17.08.2020
4613 Rain 20 1011 82 10000 3.1 180 11:20 17.08.2020
4614 Clouds 20 1011 77 10000 3.1 170 10:19 17.08.2020
4615 Clear 21 1012 77 10000 4.1 170 06:49 17.08.2020
4616 Clear 26 1013 57 10000 3.6 170 01:31 17.08.2020
4617 Clear 28 1014 51 10000 4.6 170 23:33 16.08.2020
4618 Clouds 28 1014 54 10000 4.6 160 22:18 16.08.2020
4619 Clear 27 1016 57 10000 6.2 190 19:27 16.08.2020
4620 Clear 27 1016 55 10000 4.85 146 18:38 16.08.2020
4621 Clear 26 1017 58 10000 4.67 142 17:35 16.08.2020
4622 Clear 25 1017 61 10000 3.7 133 16:28 16.08.2020
4623 Clear 21 789 84 10000 0.45 116 15:22 16.08.2020
4624 Clear 20 1017 84 10000 3.42 128 14:40 16.08.2020
4625 Clear 18 1018 90 10000 3.01 126 12:30 16.08.2020
4626 Clear 19 1014 74 10000 2.76 124 11:52 16.08.2020
4627 Clear 19 1017 90 10000 2.82 129 11:20 16.08.2020
4628 Clear 19 1017 88 10000 2.82 129 10:50 16.08.2020
4629 Clear 20 1017 88 10000 2.82 132 09:44 16.08.2020
4630 Clear 20 1017 88 10000 2.6 130 08:26 16.08.2020
4631 Clear 21 1017 73 10000 4.6 140 07:21 16.08.2020
4632 Clear 25 1017 69 10000 2.1 60 02:19 16.08.2020
4633 Clear 28 1017 51 10000 3.6 60 22:48 15.08.2020
4634 Clear 28 1018 61 10000 4.1 50 20:38 15.08.2020
4635 Clear 26 1018 65 10000 4.1 40 19:28 15.08.2020
4636 Clouds 26 1019 61 10000 4.1 50 18:57 15.08.2020
4637 Clear 23 1019 73 10000 3.6 50 16:48 15.08.2020
4638 Clear 22 1019 73 10000 3.6 50 16:20 15.08.2020
4639 Clear 18 1019 88 10000 4.1 40 14:50 15.08.2020
4640 Clouds 16 1019 93 10000 3.1 20 12:47 15.08.2020
4641 Clouds 16 1019 82 10000 6.2 20 11:57 15.08.2020
4642 Clouds 16 1019 82 10000 6.2 20 11:31 15.08.2020
4643 Clear 16 1018 93 10000 3.6 10 10:42 15.08.2020
4644 Clear 17 1018 93 10000 3.6 10 10:19 15.08.2020
4645 Clear 17 1019 87 10000 3.6 360 09:32 15.08.2020
4646 Clear 18 1019 87 10000 3.1 360 08:27 15.08.2020
4647 Clear 21 1019 82 10000 4.1 40 05:55 15.08.2020
4648 Clear 24 1019 64 10000 2.1 50 01:57 15.08.2020
4649 Clear 26 1019 50 10000 4.1 40 23:52 14.08.2020
4650 Clear 26 1020 50 10000 4.6 30 21:57 14.08.2020
4651 Clear 26 1020 53 10000 3.6 50 20:36 14.08.2020
4652 Clear 25 1021 60 10000 3.6 20 18:46 14.08.2020
4653 Clear 21 1021 72 10000 4.6 30 15:30 14.08.2020
4654 Clear 20 1021 77 10000 3.1 40 14:52 14.08.2020
4655 Clear 19 1021 82 10000 3.6 10 13:57 14.08.2020
4656 Clouds 18 1020 72 10000 4.6 30 12:59 14.08.2020
4657 Clouds 19 1020 88 10000 2.6 20 10:51 14.08.2020
4658 Clouds 21 1020 68 10000 4.1 30 08:51 14.08.2020
4659 Clear 22 1020 82 10000 1.5 20 05:56 14.08.2020
4660 Clouds 28 1019 61 10000 3.1 120 00:47 14.08.2020
4661 Clouds 29 1019 39 10000 3.1 20 23:48 13.08.2020
4662 Clouds 29 1019 51 10000 1.94 164 22:34 13.08.2020
4663 Clear 29 1020 51 10000 3.1 70 21:47 13.08.2020
4664 Clear 29 1020 54 10000 2.6 90 21:18 13.08.2020
4665 Clear 29 1020 57 10000 2.1 40 19:56 13.08.2020
4666 Clouds 27 1020 65 10000 1.5 70 17:59 13.08.2020
4667 Clouds 26 1020 65 10000 1.5 70 17:23 13.08.2020
4668 Clear 23 1020 83 10000 1 50 14:51 13.08.2020
4669 Clouds 20 1020 82 10000 3.1 220 12:55 13.08.2020
4670 Clouds 20 1020 82 10000 3.1 220 12:28 13.08.2020
4671 Clear 21 1018 88 10000 2.1 230 09:40 13.08.2020
4672 Clear 22 1018 82 10000 2.6 240 08:25 13.08.2020
4673 Clear 23 1018 83 10000 2.1 230 07:35 13.08.2020
4674 Clouds 29 1016 39 10000 5.7 250 23:37 12.08.2020
4675 Clouds 29 1016 54 10000 6.2 240 22:39 12.08.2020
4676 Clouds 29 1016 54 10000 6.7 230 21:59 12.08.2020
4677 Clouds 29 1016 54 10000 6.7 230 21:29 12.08.2020
4678 Clouds 29 1016 54 10000 6.7 240 20:54 12.08.2020
4679 Clouds 29 1016 54 10000 6.7 240 20:36 12.08.2020
4680 Clear 29 1016 51 10000 6.2 230 20:18 12.08.2020
4681 Clear 27 1016 61 10000 5.7 230 18:23 12.08.2020
4682 Clear 26 1016 69 10000 4.1 230 17:20 12.08.2020
4683 Clear 23 1016 83 10000 3.6 230 15:21 12.08.2020
4684 Clouds 22 1015 88 10000 3.6 250 14:51 12.08.2020
4685 Clear 21 1015 94 10000 4.1 240 13:27 12.08.2020
4686 Clouds 21 1014 94 10000 3.1 230 12:26 12.08.2020
4687 Clear 21 1013 100 10000 4.1 240 10:52 12.08.2020
4688 Clear 22 1012 88 10000 3.1 260 09:38 12.08.2020
4689 Rain 26 1008 83 10000 5.1 220 01:56 12.08.2020
4690 Clouds 33 1007 46 10000 6.7 230 22:24 11.08.2020
4691 Clear 32 1007 62 10000 8.2 180 21:57 11.08.2020
4692 Clear 32 1007 62 10000 8.2 180 21:38 11.08.2020
4693 Clear 32 1008 66 10000 7.7 170 21:18 11.08.2020
4694 Clear 31 1009 70 10000 6.2 160 19:32 11.08.2020
4695 Clouds 31 1009 62 10000 6.7 150 18:37 11.08.2020
4696 Clear 30 1011 70 10000 4.6 180 17:24 11.08.2020
4697 Clouds 29 1011 78 10000 5.1 190 16:26 11.08.2020
4698 Clear 25 1011 78 10000 3.6 190 15:21 11.08.2020
4699 Clear 25 1011 88 10000 4.6 180 14:43 11.08.2020
4700 Clouds 22 1011 94 10000 3.1 180 12:52 11.08.2020
4701 Clouds 22 1011 94 10000 3.1 180 12:32 11.08.2020
4702 Clouds 22 1011 94 10000 3.1 180 11:39 11.08.2020
4703 Clear 22 1011 94 10000 3.6 170 10:40 11.08.2020
4704 Clouds 23 1011 94 10000 3.6 180 08:47 11.08.2020
4705 Clear 23 1012 88 10000 3.1 170 07:23 11.08.2020
4706 Clouds 23 1012 83 10000 2.6 190 05:48 11.08.2020
4707 Clouds 25 1012 78 10000 2.6 160 03:19 11.08.2020
4708 Clouds 26 1012 74 10000 4.1 170 02:40 11.08.2020
4709 Clouds 26 1012 74 10000 4.1 170 02:20 11.08.2020
4710 Clouds 28 1012 65 10000 4.1 210 00:34 11.08.2020
4711 Clear 29 1013 61 10000 3.6 250 23:24 10.08.2020
4712 Clouds 28 1014 61 10000 3.6 190 21:27 10.08.2020
4713 Clouds 27 1014 61 10000 3.6 230 20:53 10.08.2020
4714 Clouds 26 1015 65 10000 4.1 240 19:40 10.08.2020
4715 Clouds 26 1015 69 10000 3.12 228 19:19 10.08.2020
4716 Clouds 26 1015 69 10000 3.12 228 19:19 10.08.2020
4717 Clouds 25 1015 69 10000 3.12 228 18:33 10.08.2020
4718 Clouds 22 1016 88 10000 1.28 253 15:54 10.08.2020
4719 Clouds 21 1016 94 10000 1 30 14:31 10.08.2020
4720 Clouds 20 1015 94 10000 1.5 160 12:39 10.08.2020
4721 Mist 20 1015 100 2414 0.94 235 11:26 10.08.2020
4722 Clouds 21 1015 94 10000 1 150 10:24 10.08.2020
4723 Clouds 21 1015 100 10000 1 180 09:27 10.08.2020
4724 Clouds 21 1015 94 10000 1 160 07:33 10.08.2020
4725 Rain 24 1016 65 10000 7.7 260 22:31 09.08.2020
4726 Clouds 27 1016 54 10000 3.6 240 20:50 09.08.2020
4727 Clouds 27 1016 57 10000 5.1 230 19:45 09.08.2020
4728 Clouds 27 1016 57 10000 5.1 230 19:25 09.08.2020
4729 Clouds 26 1017 69 10000 6.2 220 18:18 09.08.2020
4730 Clouds 25 1017 69 10000 6.2 220 17:25 09.08.2020
4731 Clouds 25 1017 78 10000 5.7 230 16:52 09.08.2020
4732 Clouds 22 1018 78 10000 4.6 220 14:55 09.08.2020
4733 Clouds 22 1018 78 10000 4.6 220 14:32 09.08.2020
4734 Clouds 22 1017 83 10000 4.1 210 13:28 09.08.2020
4735 Clouds 22 1017 88 10000 3.1 220 12:50 09.08.2020
4736 Clouds 21 1017 88 10000 1 130 11:29 09.08.2020
4737 Clouds 21 1017 88 10000 3.1 210 10:28 09.08.2020
4738 Clear 21 1017 82 10000 1 160 08:56 09.08.2020
4739 Clear 21 1017 82 10000 1 160 08:22 09.08.2020
4740 Clear 27 1017 54 10000 3.1 220 01:56 09.08.2020
4741 Clear 29 1018 42 10000 3.1 210 22:47 08.08.2020
4742 Clouds 28 1020 51 10000 3.6 220 19:37 08.08.2020
4743 Clouds 27 1021 57 10000 1.5 0 18:26 08.08.2020
4744 Clear 26 1021 65 10000 2.1 0 17:46 08.08.2020
4745 Clear 24 1021 73 10000 1.5 0 15:53 08.08.2020
4746 Clear 22 1021 73 10000 1.5 0 15:25 08.08.2020
4747 Clear 21 1021 88 10000 1.04 123 14:47 08.08.2020
4748 Clear 20 1021 88 10000 0.89 91 14:21 08.08.2020
4749 Clear 15 1021 93 10000 1 70 12:23 08.08.2020
4750 Clear 16 1021 93 10000 0.61 77 10:34 08.08.2020
4751 Clear 18 1021 87 10000 0.72 57 07:40 08.08.2020
4752 Clear 21 1020 68 10000 0.87 140 04:33 08.08.2020
4753 Clear 25 1020 50 10000 2.1 170 02:24 08.08.2020
4754 Clear 27 1020 44 10000 2.6 140 22:20 07.08.2020
4755 Clear 27 1021 47 10000 2.1 0 21:20 07.08.2020
4756 Clear 27 1021 54 10000 2.1 0 20:42 07.08.2020
4757 Clear 25 1022 57 10000 2.1 200 18:31 07.08.2020
4758 Clear 24 1022 73 10000 2.1 180 16:54 07.08.2020
4759 Clear 20 1022 82 10000 1.5 230 14:51 07.08.2020
4760 Clear 16 1021 93 10000 1.5 180 13:19 07.08.2020
4761 Clear 15 1021 93 10000 1 140 12:20 07.08.2020
4762 Clear 16 1021 93 10000 2.1 120 10:18 07.08.2020
4763 Clear 16 1021 93 10000 2.1 120 09:25 07.08.2020
4764 Clear 19 1020 77 10000 2.1 210 06:32 07.08.2020
4765 Clear 24 1018 53 10000 5.7 260 01:42 07.08.2020
4766 Clear 25 1018 53 10000 6.7 240 00:34 07.08.2020
4767 Clear 25 1018 53 10000 4.6 230 22:48 06.08.2020
4768 Clouds 24 1019 57 10000 4.1 270 21:20 06.08.2020
4769 Clouds 24 1019 57 10000 5.1 270 20:33 06.08.2020
4770 Clouds 23 1019 64 10000 5.7 250 19:40 06.08.2020
4771 Clouds 22 1019 56 10000 4.6 260 18:52 06.08.2020
4772 Clouds 22 1019 56 10000 4.6 260 18:22 06.08.2020
4773 Clouds 21 1019 68 10000 6.7 250 17:26 06.08.2020
4774 Clear 19 1019 72 10000 6.7 260 15:50 06.08.2020
4775 Clear 18 1018 77 10000 5.7 240 14:54 06.08.2020
4776 Clear 17 1018 77 10000 5.7 260 13:55 06.08.2020
4777 Clear 16 1018 77 10000 5.7 260 13:25 06.08.2020
4778 Clear 16 1016 77 10000 5.7 250 11:37 06.08.2020
4779 Clear 16 1016 77 10000 5.7 240 10:54 06.08.2020
4780 Clear 17 1016 72 10000 5.1 250 09:27 06.08.2020
4781 Clear 17 1016 68 10000 4.6 250 08:47 06.08.2020
4782 Clear 18 1015 77 10000 5.1 240 07:57 06.08.2020
4783 Clear 22 1014 60 10000 6.7 250 02:26 06.08.2020
4784 Clouds 24 1013 56 10000 10.3 250 23:54 05.08.2020
4785 Clouds 23 1013 56 10000 10.3 250 23:20 05.08.2020
4786 Clouds 24 1013 53 10000 9.8 240 22:52 05.08.2020
4787 Clouds 24 1013 60 10000 6.2 250 22:18 05.08.2020
4788 Rain 23 1012 78 10000 7.2 240 20:46 05.08.2020
4789 Rain 22 1012 83 10000 7.7 240 19:57 05.08.2020
4790 Clouds 22 1012 83 10000 7.7 240 19:33 05.08.2020
4791 Clouds 23 1011 78 10000 10.3 240 17:44 05.08.2020
4792 Clouds 22 1011 78 10000 9.3 250 16:48 05.08.2020
4793 Clouds 20 1011 94 10000 3.1 240 15:45 05.08.2020
4794 Clouds 20 1011 94 10000 3.1 240 15:22 05.08.2020
4795 Clouds 20 1011 94 10000 4.6 240 14:41 05.08.2020
4796 Clouds 19 1009 88 10000 7.2 240 13:34 05.08.2020
4797 Clouds 19 1009 94 10000 5.7 210 12:28 05.08.2020
4798 Clouds 19 1008 100 10000 3.6 210 11:43 05.08.2020
4799 Clouds 20 1008 94 10000 5.1 220 10:49 05.08.2020
4800 Clouds 20 1008 94 10000 5.1 220 10:21 05.08.2020
4801 Clouds 20 1008 94 10000 5.1 220 10:21 05.08.2020
4802 Clouds 20 1006 94 10000 4.6 250 08:52 05.08.2020
4803 Clouds 19 1006 94 10000 6.2 290 07:41 05.08.2020
4804 Rain 19 1004 94 8047 10.8 30 04:48 05.08.2020
4805 Rain 20 1008 94 9656 4.6 30 01:24 05.08.2020
4806 Rain 21 1011 100 10000 5.1 110 23:56 04.08.2020
4807 Rain 21 1011 100 10000 5.1 110 23:33 04.08.2020
4808 Rain 21 1013 100 10000 4.1 120 22:52 04.08.2020
4809 Rain 21 1013 100 10000 4.1 120 22:27 04.08.2020
4810 Rain 21 1014 100 10000 4.6 140 21:32 04.08.2020
4811 Rain 21 1014 100 9656 3.1 150 19:42 04.08.2020
4812 Rain 20 1015 100 4828 2.6 140 18:56 04.08.2020
4813 Rain 20 1015 94 10000 4.1 120 17:40 04.08.2020
4814 Rain 20 1016 88 10000 5.1 140 16:57 04.08.2020
4815 Clouds 20 1016 88 10000 4.1 120 15:57 04.08.2020
4816 Rain 19 1016 93 10000 3.6 90 15:29 04.08.2020
4817 Rain 19 1016 100 10000 2.1 320 14:18 04.08.2020
4818 Clouds 19 1016 93 10000 3.6 30 12:34 04.08.2020
4819 Clouds 19 1016 82 10000 4.1 40 11:32 04.08.2020
4820 Clouds 19 1016 82 10000 4.1 40 10:53 04.08.2020
4821 Clouds 19 1016 82 10000 4.1 40 10:34 04.08.2020
4822 Clouds 19 1017 77 10000 3.1 60 09:20 04.08.2020
4823 Clouds 20 1017 77 10000 4.6 40 06:57 04.08.2020
4824 Clouds 26 1014 57 10000 5.7 260 23:48 03.08.2020
4825 Clouds 26 1014 65 10000 5.7 250 22:39 03.08.2020
4826 Clouds 25 1013 69 10000 6.2 250 21:54 03.08.2020
4827 Clouds 25 1013 69 10000 6.2 250 21:26 03.08.2020
4828 Clouds 24 1013 69 10000 6.7 290 20:51 03.08.2020
4829 Clouds 23 1012 73 10000 9.3 260 19:46 03.08.2020
4830 Clouds 23 1011 78 10000 7.7 280 18:44 03.08.2020
4831 Clouds 22 1011 78 10000 7.7 280 18:26 03.08.2020
4832 Clouds 21 1009 94 10000 7.7 250 17:46 03.08.2020
4833 Rain 20 1008 94 6437 9.3 250 16:27 03.08.2020
4834 Mist 21 1007 88 8047 11.3 240 15:25 03.08.2020
4835 Clouds 22 1006 73 10000 9.3 220 14:27 03.08.2020
4836 Clouds 23 1005 73 10000 8.2 210 13:25 03.08.2020
4837 Clouds 23 1005 73 10000 6.2 210 12:21 03.08.2020
4838 Clouds 22 1005 78 10000 5.1 200 11:27 03.08.2020
4839 Clouds 22 1005 100 10000 4.1 170 09:34 03.08.2020
4840 Rain 22 1005 100 10000 4.1 160 08:56 03.08.2020
4841 Thunderstorm 25 1004 74 10000 7.2 160 02:26 03.08.2020
4842 Clouds 26 1004 69 10000 7.7 150 01:54 03.08.2020
4843 Clouds 26 1005 69 10000 7.2 160 00:53 03.08.2020
4844 Clouds 25 1006 78 10000 3.6 140 23:30 02.08.2020
4845 Clouds 22 1008 94 10000 5.7 110 21:44 02.08.2020
4846 Clouds 21 1008 94 10000 5.7 110 21:20 02.08.2020
4847 Rain 21 1009 94 10000 4.6 90 20:36 02.08.2020
4848 Rain 21 1010 94 10000 3.1 90 19:55 02.08.2020
4849 Rain 21 1010 94 9656 3.6 60 19:23 02.08.2020
4850 Rain 21 1011 94 10000 3.1 50 18:45 02.08.2020
4851 Rain 22 1013 88 10000 5.1 220 17:32 02.08.2020
4852 Rain 24 1012 83 10000 3.6 180 15:53 02.08.2020
4853 Clouds 24 1012 78 10000 3.6 140 14:57 02.08.2020
4854 Clouds 23 1012 78 10000 3.6 140 14:34 02.08.2020
4855 Clouds 22 1012 94 10000 2.56 119 13:53 02.08.2020
4856 Clouds 21 1012 94 10000 2.25 116 13:20 02.08.2020
4857 Clouds 21 1012 88 10000 2.1 120 12:43 02.08.2020
4858 Clouds 21 1012 88 10000 1.5 80 11:29 02.08.2020
4859 Clouds 22 1013 88 10000 2.1 100 10:49 02.08.2020
4860 Clouds 22 1013 88 10000 1 110 09:47 02.08.2020
4861 Clouds 22 1013 82 10000 1.5 80 08:51 02.08.2020
4862 Clouds 22 1013 82 10000 1.5 80 08:23 02.08.2020
4863 Clear 23 1014 78 10000 1 100 06:41 02.08.2020
4864 Clear 27 1013 57 10000 2.1 170 02:48 02.08.2020
4865 Clear 29 1013 54 10000 1.5 220 00:58 02.08.2020
4866 Clear 30 1013 48 10000 1 0 23:43 01.08.2020
4867 Clear 30 1013 48 10000 1 0 22:29 01.08.2020
4868 Clouds 30 1014 51 10000 2.6 0 20:30 01.08.2020
4869 Clouds 29 1014 51 10000 3.1 200 19:42 01.08.2020
4870 Clouds 29 1014 54 10000 1.5 80 19:22 01.08.2020
4871 Clouds 28 1014 61 10000 1 0 18:36 01.08.2020
4872 Clear 27 1014 61 10000 1.5 160 17:40 01.08.2020
4873 Clear 25 1014 69 10000 1 0 16:28 01.08.2020
4874 Clear 24 1014 73 10000 1 0 15:41 01.08.2020
4875 Clear 23 1014 73 10000 1 0 15:20 01.08.2020
4876 Clouds 21 1013 82 10000 2.1 330 13:55 01.08.2020
4877 Clear 17 1013 100 10000 0.78 313 12:30 01.08.2020
4878 Mist 18 1013 93 2414 1.09 355 11:19 01.08.2020
4879 Clear 18 1012 93 10000 1.15 347 09:52 01.08.2020
4880 Clear 21 1012 94 10000 1 240 05:52 01.08.2020
4881 Haze 23 1011 78 8047 1.43 239 02:54 01.08.2020
4882 Clouds 25 1011 65 10000 2.58 266 01:50 01.08.2020
4883 Clouds 25 1011 78 10000 1.5 210 01:29 01.08.2020
4884 Rain 26 1011 57 10000 3.1 230 23:31 31.07.2020
4885 Clouds 28 1010 57 10000 2.1 90 21:24 31.07.2020
4886 Clear 27 1011 54 10000 1.5 330 20:40 31.07.2020
4887 Clear 27 1011 54 10000 1.5 330 20:22 31.07.2020
4888 Clouds 27 1011 61 10000 2.1 40 19:30 31.07.2020
4889 Clear 25 1011 64 10000 1 0 17:49 31.07.2020
4890 Clouds 24 1011 69 10000 1 0 16:42 31.07.2020
4891 Clear 22 1011 77 10000 1.5 10 15:37 31.07.2020
4892 Clear 21 1011 77 10000 2.1 340 14:42 31.07.2020
4893 Clear 19 1011 100 10000 1.39 300 13:37 31.07.2020
4894 Clear 17 1011 93 10000 1 300 12:39 31.07.2020
4895 Clear 17 1010 100 10000 1 0 11:39 31.07.2020
4896 Clear 17 1010 100 10000 1.46 258 10:52 31.07.2020
4897 Clear 17 1010 100 10000 1.43 264 10:22 31.07.2020
4898 Mist 17 1010 100 9656 1.5 20 09:35 31.07.2020
4899 Clear 18 1010 93 10000 1 240 08:53 31.07.2020
4900 Clear 19 1010 100 10000 1.98 273 07:35 31.07.2020
4901 Clear 19 1010 93 10000 2.6 230 04:39 31.07.2020
4902 Rain 20 1010 82 10000 2.1 200 02:24 31.07.2020
4903 Thunderstorm 26 1009 57 10000 4.6 250 00:57 31.07.2020
4904 Thunderstorm 26 1008 54 10000 4.6 330 00:26 31.07.2020
4905 Clear 28 1008 54 10000 5.1 280 22:54 30.07.2020
4906 Clear 27 1008 54 10000 5.1 280 22:36 30.07.2020
4907 Clouds 27 1008 65 10000 6.2 330 21:19 30.07.2020
4908 Clouds 27 1008 54 10000 6.2 250 20:58 30.07.2020
4909 Clear 27 1008 65 10000 5.7 230 19:57 30.07.2020
4910 Clear 27 1008 65 10000 5.7 230 19:24 30.07.2020
4911 Clouds 25 1009 73 10000 4.1 220 17:59 30.07.2020
4912 Clouds 24 1009 78 10000 3.1 200 16:59 30.07.2020
4913 Clouds 24 1009 78 10000 3.1 200 16:40 30.07.2020
4914 Clouds 24 1009 78 10000 3.1 200 16:21 30.07.2020
4915 Clear 22 1009 83 10000 2.6 250 15:39 30.07.2020
4916 Clear 21 1009 88 10000 3.6 250 14:58 30.07.2020
4917 Clear 21 1009 88 10000 3.6 250 14:39 30.07.2020
4918 Clear 21 1009 88 10000 3.6 250 14:21 30.07.2020
4919 Clear 21 1009 88 10000 3.6 250 14:21 30.07.2020
4920 Clear 20 1009 93 10000 3.1 220 13:44 30.07.2020
4921 Clear 19 1009 100 10000 2.1 210 13:19 30.07.2020
4922 Clear 18 1009 100 10000 2.1 210 12:40 30.07.2020
4923 Clouds 17 1009 100 10000 1 190 11:37 30.07.2020
4924 Clouds 18 1009 100 10000 1.5 160 10:28 30.07.2020
4925 Clouds 19 1009 93 10000 1.5 140 09:48 30.07.2020
4926 Clouds 19 1009 93 10000 1.5 140 09:19 30.07.2020
4927 Clouds 19 1009 93 10000 2.6 170 08:46 30.07.2020
4928 Clouds 19 1009 93 10000 2.1 230 07:29 30.07.2020
4929 Clear 22 1008 94 10000 1.5 130 02:31 30.07.2020
4930 Clear 23 1008 88 10000 3.1 160 01:25 30.07.2020
4931 Clouds 23 1008 88 10000 3.6 150 23:22 29.07.2020
4932 Clouds 22 1009 83 10000 1 0 22:41 29.07.2020
4933 Clouds 23 1009 83 10000 4.6 160 21:52 29.07.2020
4934 Clouds 23 1009 83 10000 4.6 160 21:34 29.07.2020
4935 Clouds 23 1010 83 10000 3.6 180 20:46 29.07.2020
4936 Clouds 23 1010 83 10000 3.6 180 20:23 29.07.2020
4937 Clouds 23 1010 78 10000 2.1 220 19:41 29.07.2020
4938 Clouds 23 1010 78 10000 2.1 220 19:23 29.07.2020
4939 Rain 25 1009 69 10000 4.6 240 18:44 29.07.2020
4940 Rain 25 1009 69 10000 4.6 240 18:23 29.07.2020
4941 Clouds 26 1010 69 10000 1.5 240 17:45 29.07.2020
4942 Clouds 25 1011 69 10000 5.1 260 16:41 29.07.2020
4943 Clear 25 1011 73 10000 3.1 180 15:50 29.07.2020
4944 Clear 24 1011 73 10000 3.1 180 15:29 29.07.2020
4945 Clouds 23 1011 73 10000 3.1 170 14:42 29.07.2020
4946 Clouds 22 1010 78 10000 3.6 230 14:18 29.07.2020
4947 Clouds 22 1010 78 10000 3.6 230 13:24 29.07.2020
4948 Clear 21 1010 82 10000 1 170 12:39 29.07.2020
4949 Clear 20 1010 82 10000 1 170 12:20 29.07.2020
4950 Clear 20 1009 77 10000 2.6 200 11:41 29.07.2020
4951 Clear 20 1009 77 10000 3.1 240 10:59 29.07.2020
4952 Clear 21 1009 77 10000 3.1 240 10:27 29.07.2020
4953 Clear 21 1009 73 10000 4.1 230 09:35 29.07.2020
4954 Clear 21 1009 73 10000 4.1 230 09:35 29.07.2020
4955 Clear 22 1009 77 10000 4.1 230 08:23 29.07.2020
4956 Clouds 23 1009 73 10000 3.6 220 07:30 29.07.2020
4957 Clouds 25 1008 61 10000 6.7 230 05:45 29.07.2020
4958 Clouds 27 1006 51 10000 5.7 240 02:27 29.07.2020
4959 Clear 29 1006 39 10000 6.7 280 00:36 29.07.2020
4960 Clouds 29 1006 51 10000 7.7 230 22:44 28.07.2020
4961 Clouds 29 1006 51 10000 7.7 230 22:20 28.07.2020
4962 Clouds 29 1005 54 10000 9.3 240 21:36 28.07.2020
4963 Clouds 29 1005 54 10000 8.7 240 20:58 28.07.2020
4964 Clouds 29 1005 54 10000 8.7 240 20:40 28.07.2020
4965 Clear 28 1005 61 10000 10.8 240 19:57 28.07.2020
4966 Clear 28 1005 61 10000 10.8 240 19:37 28.07.2020
4967 Clear 28 1005 61 10000 9.3 250 19:18 28.07.2020
4968 Clear 28 1005 61 10000 9.3 250 18:43 28.07.2020
4969 Clear 27 1005 61 10000 9.8 240 17:56 28.07.2020
4970 Clear 26 1005 61 10000 9.8 240 17:22 28.07.2020
4971 Clear 26 1005 61 10000 9.8 240 17:22 28.07.2020
4972 Clear 26 1005 69 10000 7.2 220 16:40 28.07.2020
4973 Clouds 25 1004 73 10000 7.2 230 15:32 28.07.2020
4974 Clouds 24 1004 83 10000 5.1 230 14:56 28.07.2020
4975 Clouds 25 1004 83 10000 5.1 230 14:34 28.07.2020
4976 Clouds 24 1004 88 10000 5.7 220 13:41 28.07.2020
4977 Clouds 24 1003 88 10000 5.1 240 12:50 28.07.2020
4978 Clouds 24 1003 88 10000 5.1 240 12:22 28.07.2020
4979 Clouds 24 1003 94 10000 5.1 240 11:57 28.07.2020
4980 Clouds 24 1002 94 10000 4.1 230 11:20 28.07.2020
4981 Clouds 24 1002 94 10000 4.1 220 10:44 28.07.2020
4982 Clouds 24 1002 94 10000 4.1 220 10:21 28.07.2020
4983 Clouds 25 1002 88 10000 5.7 240 09:39 28.07.2020
4984 Clouds 25 1002 88 10000 5.7 240 09:20 28.07.2020
4985 Clouds 25 1002 88 10000 4.6 240 08:41 28.07.2020
4986 Clouds 25 1002 94 10000 4.6 230 07:52 28.07.2020
4987 Clouds 25 1002 94 10000 4.6 230 07:32 28.07.2020
4988 Clouds 27 1002 88 10000 3.1 260 02:21 28.07.2020
4989 Clouds 27 1002 88 10000 3.1 260 02:21 28.07.2020
4990 Clouds 27 1002 88 10000 3.1 260 02:21 28.07.2020
4991 Clouds 27 1002 88 10000 4.6 240 01:51 28.07.2020
4992 Clear 28 1001 78 10000 5.7 240 00:58 28.07.2020
4993 Clear 28 1001 78 10000 5.7 240 00:20 28.07.2020
4994 Clouds 27 1001 88 10000 4.6 250 23:26 27.07.2020
4995 Clouds 27 1001 88 10000 6.2 240 22:53 27.07.2020
4996 Thunderstorm 26 1001 94 9656 4.1 270 22:21 27.07.2020
4997 Clouds 29 1002 70 10000 7.7 240 21:47 27.07.2020
4998 Clouds 29 1002 70 10000 7.7 240 21:20 27.07.2020
4999 Clouds 28 1003 88 10000 2.6 180 20:42 27.07.2020
5000 Clouds 28 1003 88 10000 2.6 180 20:20 27.07.2020
5001 Clouds 27 1004 94 10000 3.1 230 19:35 27.07.2020
5002 Rain 25 1004 94 10000 3.6 240 18:58 27.07.2020
5003 Clouds 25 1004 83 10000 4.6 220 17:54 27.07.2020
5004 Clouds 25 1004 88 10000 4.6 210 17:36 27.07.2020
5005 Clouds 25 1005 88 10000 4.6 230 17:18 27.07.2020
5006 Clouds 25 1005 88 10000 6.7 250 16:25 27.07.2020
5007 Rain 24 1005 88 10000 5.1 230 15:51 27.07.2020
5008 Rain 24 1005 88 10000 5.1 230 15:51 27.07.2020
5009 Rain 24 1005 88 10000 5.1 230 15:33 27.07.2020
5010 Clouds 24 1005 94 10000 5.1 230 14:56 27.07.2020
5011 Clouds 24 1005 94 10000 5.1 230 14:37 27.07.2020
5012 Rain 24 1006 94 10000 5.1 230 14:18 27.07.2020
5013 Rain 24 1006 94 10000 5.1 230 13:28 27.07.2020
5014 Rain 23 1006 94 10000 6.2 240 12:53 27.07.2020
5015 Clouds 24 1005 88 10000 4.6 230 12:35 27.07.2020
5016 Clouds 24 1005 94 10000 4.1 240 11:43 27.07.2020
5017 Clouds 24 1005 94 10000 4.1 240 11:19 27.07.2020
5018 Clouds 24 1006 88 10000 5.7 240 10:21 27.07.2020
5019 Clouds 24 1005 88 10000 4.6 240 09:41 27.07.2020
5020 Clouds 25 1005 88 10000 4.6 240 09:19 27.07.2020
5021 Clouds 25 1006 94 10000 4.1 230 08:55 27.07.2020
5022 Clouds 25 1006 94 10000 4.1 230 08:36 27.07.2020
5023 Clouds 25 1006 94 10000 3.1 230 07:49 27.07.2020
5024 Clouds 25 1006 94 10000 3.1 220 06:43 27.07.2020
5025 Clouds 25 1006 94 10000 3.6 240 06:18 27.07.2020
5026 Rain 27 1006 66 10000 4.6 290 02:18 27.07.2020
5027 Clouds 30 1006 62 10000 10.8 240 00:29 27.07.2020
5028 Clouds 31 1006 55 10000 10.3 250 23:31 26.07.2020
5029 Clouds 31 1006 55 10000 10.8 240 22:54 26.07.2020
5030 Clouds 31 1006 55 10000 10.8 240 22:34 26.07.2020
5031 Clouds 31 1007 55 10000 9.3 240 21:55 26.07.2020
5032 Clouds 31 1007 55 10000 9.3 240 21:37 26.07.2020
5033 Clouds 31 1007 55 10000 10.8 240 21:18 26.07.2020
5034 Clouds 31 1007 55 10000 10.8 240 20:48 26.07.2020
5035 Clouds 31 1007 55 10000 10.8 240 20:20 26.07.2020
5036 Clouds 30 1007 58 10000 9.8 240 19:44 26.07.2020
5037 Clouds 30 1007 58 10000 9.8 240 19:21 26.07.2020
5038 Clouds 30 1008 61 10000 10.3 240 18:45 26.07.2020
5039 Clouds 29 1008 61 10000 10.3 240 18:26 26.07.2020
5040 Clouds 28 1009 58 10000 11.8 230 17:49 26.07.2020
5041 Clouds 28 1009 58 10000 11.8 230 17:24 26.07.2020
5042 Clouds 27 1010 61 10000 8.7 240 16:52 26.07.2020
5043 Clouds 26 1010 61 10000 8.7 240 16:26 26.07.2020
5044 Clouds 25 1011 61 10000 7.7 250 15:42 26.07.2020
5045 Clouds 25 1011 61 10000 7.7 250 15:24 26.07.2020
5046 Clouds 24 1011 60 10000 5.7 240 14:57 26.07.2020
5047 Clouds 24 1011 60 10000 5.7 240 14:33 26.07.2020
5048 Clouds 24 1012 60 10000 6.2 260 13:50 26.07.2020
5049 Clouds 24 1012 60 10000 5.7 250 13:18 26.07.2020
5050 Clouds 23 1012 60 10000 5.7 250 12:44 26.07.2020
5051 Clouds 23 1012 60 10000 5.7 250 12:44 26.07.2020
5052 Clouds 23 1012 60 10000 5.7 250 12:23 26.07.2020
5053 Clouds 23 1012 69 10000 5.1 240 11:42 26.07.2020
5054 Clouds 23 1012 69 10000 5.1 240 11:23 26.07.2020
5055 Clouds 24 1012 64 10000 5.1 230 10:44 26.07.2020
5056 Clouds 24 1012 64 10000 5.1 230 10:18 26.07.2020
5057 Clouds 23 1012 64 10000 5.1 230 09:38 26.07.2020
5058 Clear 24 1013 60 10000 4.6 230 08:56 26.07.2020
5059 Clear 24 1013 57 10000 5.7 250 08:18 26.07.2020
5060 Clear 25 1013 57 10000 5.7 230 06:40 26.07.2020
5061 Clouds 27 1013 51 10000 5.7 240 03:52 26.07.2020
5062 Clear 29 1013 42 10000 6.2 230 01:44 26.07.2020
5063 Clouds 30 1014 37 10000 7.7 240 00:25 26.07.2020
5064 Clear 30 1014 40 10000 6.2 240 23:33 25.07.2020
5065 Clear 30 1015 37 10000 7.7 260 22:49 25.07.2020
5066 Clear 31 1015 33 10000 4.1 230 22:19 25.07.2020
5067 Clear 31 1015 33 10000 4.1 230 21:28 25.07.2020
5068 Clear 30 1016 33 10000 5.7 210 20:55 25.07.2020
5069 Clear 30 1016 33 10000 5.7 210 20:33 25.07.2020
5070 Clear 30 1016 37 10000 5.7 230 19:48 25.07.2020
5071 Clear 29 1016 37 10000 5.7 230 19:23 25.07.2020
5072 Clear 29 1017 39 10000 3.6 250 18:40 25.07.2020
5073 Clear 28 1017 39 10000 3.6 250 18:21 25.07.2020
5074 Clear 28 1018 51 10000 3.6 240 17:42 25.07.2020
5075 Clear 28 1018 51 10000 3.6 240 17:23 25.07.2020
5076 Clear 27 1018 57 10000 4.1 230 16:58 25.07.2020
5077 Clear 26 1018 57 10000 4.1 230 16:38 25.07.2020
5078 Clear 25 1018 64 10000 4.1 210 15:59 25.07.2020
5079 Clear 25 1018 64 10000 4.1 210 15:41 25.07.2020
5080 Clear 24 1018 64 10000 4.1 210 15:20 25.07.2020
5081 Clear 23 1018 73 10000 2.6 210 14:35 25.07.2020
5082 Clouds 21 1018 64 10000 3.1 230 13:58 25.07.2020
5083 Clouds 21 1018 64 10000 3.1 230 13:37 25.07.2020
5084 Clear 20 1018 87 10000 1 120 13:18 25.07.2020
5085 Clear 19 1018 87 10000 1 120 12:46 25.07.2020
5086 Clear 19 1018 82 10000 1.5 130 12:18 25.07.2020
5087 Clear 19 1018 82 10000 1.5 130 11:41 25.07.2020
5088 Clear 20 1018 82 10000 2.1 130 10:57 25.07.2020
5089 Clear 19 1018 82 10000 2.1 130 10:37 25.07.2020
5090 Clear 19 1017 82 10000 1 0 10:19 25.07.2020
5091 Clear 20 1017 82 10000 1 0 09:40 25.07.2020
5092 Clear 21 1017 72 10000 1 220 09:20 25.07.2020
5093 Clear 21 1017 72 10000 1 220 08:49 25.07.2020
5094 Clear 21 1018 68 10000 2.1 220 08:22 25.07.2020
5095 Clear 22 1018 68 10000 2.1 220 07:43 25.07.2020
5096 Clear 22 1018 64 10000 2.6 200 06:57 25.07.2020
5097 Clear 24 1018 57 10000 2.6 250 05:25 25.07.2020
5098 Clear 26 1017 41 10000 4.1 240 02:47 25.07.2020
5099 Clear 26 1017 41 10000 4.1 240 02:47 25.07.2020
5100 Clouds 28 1017 39 10000 3.6 240 01:47 25.07.2020
5101 Clouds 28 1017 39 10000 3.6 240 01:26 25.07.2020
5102 Clouds 29 1017 39 10000 2.6 110 00:50 25.07.2020
5103 Clouds 30 1017 39 10000 2.6 110 00:29 25.07.2020
5104 Clear 29 1018 39 10000 3.94 236 23:59 24.07.2020
5105 Clear 29 1018 39 10000 3.94 236 23:59 24.07.2020
5106 Clear 29 1018 39 10000 3.94 236 23:40 24.07.2020
5107 Clear 29 1018 39 10000 3.8 227 23:22 24.07.2020
5108 Clear 29 1018 37 10000 3.1 70 22:44 24.07.2020
5109 Clear 29 1018 37 10000 3.1 70 22:23 24.07.2020
5110 Clear 30 1019 35 10000 1 0 21:51 24.07.2020
5111 Clear 30 1019 35 10000 1 0 21:31 24.07.2020
5112 Clear 29 1019 39 10000 1.5 0 20:54 24.07.2020
5113 Clouds 29 1019 39 10000 4.1 220 20:36 24.07.2020
5114 Clear 29 1020 39 10000 3.1 0 19:57 24.07.2020
5115 Clear 29 1020 39 10000 3.1 0 19:38 24.07.2020
5116 Haze 29 1020 42 8047 2.1 70 19:18 24.07.2020
5117 Clear 27 1020 51 10000 1 0 18:29 24.07.2020
5118 Clear 27 1020 57 10000 1.5 0 17:50 24.07.2020
5119 Clear 27 1020 57 10000 1.5 0 17:19 24.07.2020
5120 Clear 26 1020 60 10000 2.6 0 16:46 24.07.2020
5121 Clear 25 1020 60 10000 2.6 0 16:27 24.07.2020
5122 Clear 25 1020 60 10000 2.6 0 16:27 24.07.2020
5123 Clear 23 1020 68 10000 1.5 260 15:44 24.07.2020
5124 Clear 23 1020 68 10000 1.5 260 15:26 24.07.2020
5125 Clear 22 1020 73 10000 1 0 14:46 24.07.2020
5126 Clear 21 1020 73 10000 1 0 14:28 24.07.2020
5127 Clear 19 1020 88 10000 0.63 171 13:44 24.07.2020
5128 Clear 18 1020 88 10000 0.58 11 13:21 24.07.2020
5129 Clear 17 1019 93 10000 1 20 12:50 24.07.2020
5130 Clear 17 1019 93 10000 1 20 12:28 24.07.2020
5131 Clear 17 1019 93 10000 1 50 11:54 24.07.2020
5132 Clear 17 1019 93 10000 1 50 11:21 24.07.2020
5133 Clear 17 1018 87 10000 1.5 20 10:47 24.07.2020
5134 Clear 17 1018 87 10000 1.5 20 10:19 24.07.2020
5135 Clear 18 1018 88 10000 2.1 330 09:57 24.07.2020
5136 Clear 18 1018 88 10000 2.1 330 09:38 24.07.2020
5137 Clear 19 1018 82 10000 3.1 350 09:18 24.07.2020
5138 Clear 19 1018 82 10000 3.1 350 08:45 24.07.2020
5139 Clear 19 1018 82 10000 3.1 350 08:26 24.07.2020
5140 Clear 19 1018 88 10000 2.6 350 07:40 24.07.2020
5141 Clear 20 1018 88 10000 2.6 350 07:21 24.07.2020
5142 Clouds 21 1018 77 10000 3.1 360 06:24 24.07.2020
5143 Clear 21 1017 82 10000 3.1 360 05:33 24.07.2020
5144 Clouds 22 1017 73 10000 0.4 25 04:51 24.07.2020
5145 Clouds 23 1016 69 10000 1.5 350 03:28 24.07.2020
5146 Clear 25 1016 57 10000 3.1 10 01:28 24.07.2020
5147 Clouds 26 1015 61 10000 4.1 10 00:29 24.07.2020
5148 Clouds 25 1016 69 10000 3.1 330 23:48 23.07.2020
5149 Clouds 25 1016 65 10000 2.6 320 23:28 23.07.2020
5150 Clouds 25 1015 69 10000 3.6 330 22:58 23.07.2020
5151 Clouds 25 1015 69 10000 3.6 330 22:39 23.07.2020
5152 Clouds 24 1015 69 10000 3.6 330 22:20 23.07.2020
5153 Clouds 24 1015 69 10000 3.6 330 21:40 23.07.2020
5154 Clouds 24 1015 69 10000 3.6 330 21:21 23.07.2020
5155 Clouds 24 1015 69 10000 3.1 340 20:59 23.07.2020
5156 Clouds 24 1015 69 10000 3.1 340 20:40 23.07.2020
5157 Clouds 24 1015 69 10000 3.1 340 20:19 23.07.2020
5158 Clouds 24 1015 69 10000 3.1 60 19:58 23.07.2020
5159 Clouds 24 1015 69 10000 3.1 60 19:37 23.07.2020
5160 Clouds 24 1015 69 10000 2.1 60 19:19 23.07.2020
5161 Clouds 24 1015 73 10000 2.6 10 18:41 23.07.2020
5162 Clouds 24 1015 73 10000 2.6 10 18:41 23.07.2020
5163 Clouds 23 1015 73 10000 2.6 10 18:20 23.07.2020
5164 Clouds 23 1015 73 10000 4.1 20 17:45 23.07.2020
5165 Clouds 22 1015 73 10000 4.1 20 17:24 23.07.2020
5166 Clouds 22 1015 83 10000 3.6 10 16:48 23.07.2020
5167 Clouds 22 1015 83 10000 3.6 10 16:25 23.07.2020
5168 Clouds 21 1015 83 10000 3.6 50 15:58 23.07.2020
5169 Clouds 21 1015 83 10000 3.6 50 15:26 23.07.2020
5170 Clouds 20 1015 88 10000 3.6 10 14:58 23.07.2020
5171 Clouds 20 1015 93 10000 3.6 20 14:38 23.07.2020
5172 Clouds 19 1015 93 10000 3.6 20 14:18 23.07.2020
5173 Clouds 19 1015 93 10000 3.6 20 13:56 23.07.2020
5174 Clouds 19 1015 100 10000 4.1 360 13:38 23.07.2020
5175 Clouds 19 1015 93 10000 3.1 10 13:19 23.07.2020
5176 Clouds 19 1014 93 10000 3.6 40 12:41 23.07.2020
5177 Clouds 19 1014 93 10000 3.6 40 12:20 23.07.2020
5178 Clouds 19 1014 93 10000 3.6 30 11:42 23.07.2020
5179 Clouds 19 1014 93 10000 3.6 30 11:23 23.07.2020
5180 Clouds 19 1013 93 10000 3.6 30 10:50 23.07.2020
5181 Clouds 19 1013 93 10000 3.6 30 10:26 23.07.2020
5182 Clouds 19 1014 93 10000 2.6 50 09:58 23.07.2020
5183 Clouds 19 1014 93 10000 4.1 50 09:40 23.07.2020
5184 Clouds 19 1014 93 10000 4.1 50 09:21 23.07.2020
5185 Clouds 19 1014 100 10000 3.6 40 08:51 23.07.2020
5186 Clouds 19 1014 100 10000 3.6 40 08:51 23.07.2020
5187 Clouds 19 1014 100 10000 3.6 40 08:31 23.07.2020
5188 Rain 19 1014 100 10000 4.1 20 07:51 23.07.2020
5189 Rain 19 1014 88 10000 3.6 20 07:21 23.07.2020
5190 Clouds 20 1014 88 10000 4.6 40 06:36 23.07.2020
5191 Clouds 20 1014 88 10000 3.6 40 05:53 23.07.2020
5192 Rain 20 1014 82 10000 4.6 40 05:33 23.07.2020
5193 Clouds 21 1014 82 10000 3.1 40 04:37 23.07.2020
5194 Clouds 22 1014 82 10000 2.6 40 03:29 23.07.2020
5195 Clouds 25 1014 57 10000 2.1 70 00:56 23.07.2020
5196 Clouds 25 1014 57 10000 2.1 70 00:25 23.07.2020
5197 Clouds 25 1015 60 10000 2.6 120 23:44 22.07.2020
5198 Clouds 25 1015 60 10000 2.6 120 23:24 22.07.2020
5199 Clouds 26 1016 53 10000 2.6 110 22:58 22.07.2020
5200 Clouds 26 1016 53 10000 2.6 110 22:39 22.07.2020
5201 Clouds 26 1016 53 10000 2.6 110 22:18 22.07.2020
5202 Clouds 26 1016 53 10000 2.6 110 21:42 22.07.2020
5203 Clouds 26 1016 53 10000 2.6 110 21:20 22.07.2020
5204 Clouds 26 1016 53 10000 2.6 140 20:58 22.07.2020
5205 Clouds 26 1016 53 10000 2.6 140 20:38 22.07.2020
5206 Clouds 26 1016 53 10000 2.6 140 20:20 22.07.2020
5207 Clear 26 1017 53 10000 2.1 80 19:58 22.07.2020
5208 Clear 26 1017 53 10000 2.1 80 19:40 22.07.2020
5209 Clear 26 1017 53 10000 2.6 0 19:19 22.07.2020
5210 Clear 26 1017 53 10000 2.6 0 18:45 22.07.2020
5211 Clear 25 1017 53 10000 2.6 0 18:24 22.07.2020
5212 Clear 24 1018 64 10000 2.1 120 17:43 22.07.2020
5213 Clear 24 1018 64 10000 2.1 120 17:24 22.07.2020
5214 Clouds 23 1018 72 10000 1.5 110 16:56 22.07.2020
5215 Clouds 23 1018 72 10000 1.5 110 16:37 22.07.2020
5216 Clouds 22 1018 72 10000 1.5 110 16:19 22.07.2020
5217 Clouds 21 1018 82 10000 1.5 20 15:56 22.07.2020
5218 Clouds 21 1018 82 10000 1.5 20 15:56 22.07.2020
5219 Clouds 21 1018 82 10000 1.5 20 15:37 22.07.2020
5220 Clouds 20 1018 82 10000 1 80 15:18 22.07.2020
5221 Clouds 19 1018 82 10000 1 80 14:40 22.07.2020
5222 Clouds 19 1018 72 10000 2.6 30 14:19 22.07.2020
5223 Clouds 19 1018 72 10000 2.6 30 14:19 22.07.2020
5224 Clouds 18 1018 72 10000 2.6 30 13:43 22.07.2020
5225 Clouds 18 1018 100 10000 1 0 13:24 22.07.2020
5226 Clouds 18 1018 72 10000 2.6 360 12:56 22.07.2020
5227 Clouds 17 1018 72 10000 2.6 360 12:38 22.07.2020
5228 Clouds 17 1018 72 10000 2.1 360 12:19 22.07.2020
5229 Clouds 17 1018 93 10000 1.5 80 11:54 22.07.2020
5230 Clouds 17 1018 93 10000 1.5 80 11:36 22.07.2020
5231 Clouds 17 1017 82 10000 0.46 44 11:18 22.07.2020
5232 Clouds 17 1017 82 10000 0.46 44 10:39 22.07.2020
5233 Clouds 17 1017 82 10000 1 0 10:21 22.07.2020
5234 Clouds 17 1017 82 10000 1 0 09:43 22.07.2020
5235 Clouds 18 1017 82 10000 1 0 09:21 22.07.2020
5236 Clear 18 1017 87 10000 1.5 100 08:44 22.07.2020
5237 Clear 18 1017 87 10000 1.5 100 08:24 22.07.2020
5238 Clouds 18 1018 77 10000 0.19 136 07:42 22.07.2020
5239 Clear 19 1017 72 10000 1 10 07:19 22.07.2020
5240 Clear 19 1017 72 10000 1 10 06:23 22.07.2020
5241 Clear 20 1017 68 10000 1 360 05:55 22.07.2020
5242 Clear 20 1017 68 10000 1 360 05:34 22.07.2020
5243 Clear 21 1018 60 10000 2.6 330 04:26 22.07.2020
5244 Clouds 23 1017 46 10000 2.6 320 02:53 22.07.2020
5245 Clouds 23 1017 46 10000 2.6 320 02:53 22.07.2020
5246 Clouds 24 1017 44 10000 3.6 300 01:45 22.07.2020
5247 Clouds 25 1016 41 10000 4.1 320 00:49 22.07.2020
5248 Clouds 25 1017 41 10000 5.7 300 23:57 21.07.2020
5249 Clouds 25 1017 41 10000 5.7 300 23:39 21.07.2020
5250 Clouds 25 1017 41 10000 5.7 300 23:20 21.07.2020
5251 Clouds 25 1017 47 10000 4.6 290 22:57 21.07.2020
5252 Clouds 25 1017 47 10000 4.6 290 22:37 21.07.2020
5253 Clouds 25 1017 47 10000 4.6 290 22:19 21.07.2020
5254 Clouds 25 1017 44 10000 4.6 250 21:56 21.07.2020
5255 Clouds 25 1017 44 10000 4.6 250 21:38 21.07.2020
5256 Clouds 25 1017 44 10000 4.6 250 21:20 21.07.2020
5257 Clouds 25 1017 47 10000 3.1 240 20:44 21.07.2020
5258 Clouds 25 1017 47 10000 3.1 240 20:26 21.07.2020
5259 Clouds 24 1017 47 10000 4.1 280 19:46 21.07.2020
5260 Clouds 24 1018 46 10000 1 360 19:22 21.07.2020
5261 Clouds 24 1018 46 10000 1 360 18:56 21.07.2020
5262 Clouds 23 1017 53 10000 1.5 340 18:38 21.07.2020
5263 Clouds 23 1017 49 10000 3.6 0 18:19 21.07.2020
5264 Clouds 23 1017 49 10000 3.6 0 17:39 21.07.2020
5265 Clouds 23 1017 49 10000 3.6 0 17:21 21.07.2020
5266 Clouds 22 1017 56 10000 1.5 30 16:43 21.07.2020
5267 Clouds 22 1017 56 10000 1.5 30 16:43 21.07.2020
5268 Clouds 22 1017 56 10000 1.5 30 16:22 21.07.2020
5269 Clouds 22 1017 60 10000 3.6 10 15:56 21.07.2020
5270 Clouds 21 1017 60 10000 3.6 10 15:38 21.07.2020
5271 Clouds 20 1017 60 10000 3.6 10 15:19 21.07.2020
5272 Clouds 20 1017 56 10000 4.6 360 14:40 21.07.2020
5273 Clouds 19 1016 72 10000 3.1 360 14:19 21.07.2020
5274 Clouds 19 1016 72 10000 3.1 360 13:55 21.07.2020
5275 Clouds 19 1016 72 10000 3.1 360 13:36 21.07.2020
5276 Clouds 19 1015 63 10000 3.1 10 13:18 21.07.2020
5277 Clouds 19 1015 63 10000 3.1 10 12:42 21.07.2020
5278 Clouds 19 1015 68 10000 3.1 350 12:21 21.07.2020
5279 Clouds 19 1014 72 10000 3.1 360 11:57 21.07.2020
5280 Clouds 19 1014 72 10000 3.1 360 11:37 21.07.2020
5281 Clouds 19 1014 72 10000 3.1 10 11:18 21.07.2020
5282 Clouds 20 1014 72 10000 3.1 10 10:43 21.07.2020
5283 Clouds 20 1014 72 10000 3.1 10 10:21 21.07.2020
5284 Clouds 21 1013 68 10000 3.1 360 09:47 21.07.2020
5285 Clouds 21 1013 68 10000 3.1 360 09:25 21.07.2020
5286 Clouds 21 1013 73 10000 2.6 300 08:56 21.07.2020
5287 Clouds 21 1013 68 10000 2.6 310 08:38 21.07.2020
5288 Clouds 21 1013 68 10000 2.6 310 08:19 21.07.2020
5289 Clouds 21 1012 68 10000 3.1 310 07:42 21.07.2020
5290 Clouds 21 1012 68 10000 3.1 310 07:24 21.07.2020
5291 Clouds 22 1012 60 10000 4.1 320 06:48 21.07.2020
5292 Clouds 24 1010 57 10000 4.6 320 04:33 21.07.2020
5293 Clouds 25 1009 57 10000 4.6 300 03:45 21.07.2020
5294 Clouds 26 1008 54 10000 4.1 310 02:27 21.07.2020
5295 Clouds 27 1008 51 10000 6.7 270 01:20 21.07.2020
5296 Clouds 28 1007 51 10000 6.2 280 00:38 21.07.2020
5297 Clouds 28 1007 51 10000 8.7 270 00:19 21.07.2020
5298 Clouds 28 1007 51 10000 8.7 270 23:46 20.07.2020
5299 Clouds 28 1007 51 10000 8.7 270 23:28 20.07.2020
5300 Clouds 28 1007 58 10000 7.7 250 22:59 20.07.2020
5301 Clouds 29 1007 58 10000 7.7 250 22:39 20.07.2020
5302 Rain 28 1007 61 10000 9.3 250 22:18 20.07.2020
5303 Clouds 28 1007 54 10000 7.2 250 21:45 20.07.2020
5304 Clouds 28 1007 54 10000 7.2 250 21:27 20.07.2020
5305 Clouds 29 1006 51 10000 7.7 260 20:59 20.07.2020
5306 Clouds 28 1006 51 10000 7.7 260 20:41 20.07.2020
5307 Clouds 28 1006 51 10000 7.7 260 20:20 20.07.2020
5308 Clouds 29 1007 57 10000 7.7 240 19:39 20.07.2020
5309 Clouds 29 1007 54 10000 8.7 240 19:19 20.07.2020
5310 Clouds 29 1007 54 10000 8.7 240 18:58 20.07.2020
5311 Clouds 29 1007 54 10000 8.7 240 18:40 20.07.2020
5312 Clouds 28 1007 69 10000 7.7 230 18:19 20.07.2020
5313 Clouds 28 1007 69 10000 7.7 230 17:44 20.07.2020
5314 Clouds 27 1007 69 10000 7.7 230 17:24 20.07.2020
5315 Clear 27 1007 74 10000 7.2 240 16:49 20.07.2020
5316 Clear 27 1007 74 10000 7.2 240 16:21 20.07.2020
5317 Clouds 27 1006 78 10000 6.2 230 15:47 20.07.2020
5318 Clouds 25 1006 78 10000 6.2 230 15:20 20.07.2020
5319 Clouds 25 1006 83 10000 4.6 230 14:56 20.07.2020
5320 Clouds 25 1006 83 10000 4.6 230 14:38 20.07.2020
5321 Clouds 24 1006 88 10000 6.2 250 14:18 20.07.2020
5322 Clouds 24 1006 88 10000 6.2 250 13:56 20.07.2020
5323 Clouds 24 1006 88 10000 6.7 260 13:38 20.07.2020
5324 Clouds 24 1005 94 10000 4.6 210 13:19 20.07.2020
5325 Clouds 23 1005 94 10000 4.6 210 12:54 20.07.2020
5326 Clouds 23 1005 94 10000 4.6 210 12:36 20.07.2020
5327 Clouds 23 1005 88 10000 3.6 210 12:18 20.07.2020
5328 Clouds 23 1005 88 10000 3.6 210 11:42 20.07.2020
5329 Clouds 23 1005 88 10000 3.6 210 11:23 20.07.2020
5330 Clouds 23 1005 88 10000 3.6 210 11:23 20.07.2020
5331 Clouds 23 1004 94 10000 5.7 220 10:58 20.07.2020
5332 Clouds 23 1004 94 10000 5.7 220 10:40 20.07.2020
5333 Clouds 23 1004 94 10000 5.7 220 10:20 20.07.2020
5334 Rain 23 1004 94 10000 5.1 220 09:40 20.07.2020
5335 Rain 23 1004 94 10000 5.1 220 09:22 20.07.2020
5336 Rain 23 1004 83 10000 6.2 230 08:49 20.07.2020
5337 Rain 24 1004 83 10000 6.2 230 08:26 20.07.2020
5338 Clouds 25 1004 78 10000 6.7 230 07:44 20.07.2020
5339 Clouds 25 1004 78 10000 6.7 230 07:23 20.07.2020
5340 Clouds 25 1004 83 10000 6.7 230 06:52 20.07.2020
5341 Clouds 25 1004 83 10000 6.7 230 06:34 20.07.2020
5342 Clouds 26 1004 83 10000 5.7 220 03:42 20.07.2020
5343 Clouds 30 1004 66 10000 5.1 210 01:32 20.07.2020
5344 Clouds 30 1004 62 10000 6.7 220 00:38 20.07.2020
5345 Clouds 31 1004 58 10000 7.7 240 23:50 19.07.2020
5346 Clouds 31 1004 58 10000 7.7 240 23:29 19.07.2020
5347 Clouds 32 1005 55 10000 8.2 230 22:59 19.07.2020
5348 Clouds 32 1005 55 10000 8.2 230 22:40 19.07.2020
5349 Clouds 32 1005 55 10000 8.2 230 22:20 19.07.2020
5350 Clouds 33 1005 62 10000 4.1 200 21:55 19.07.2020
5351 Clouds 32 1005 62 10000 4.1 200 21:37 19.07.2020
5352 Clouds 32 1006 62 10000 6.7 220 21:19 19.07.2020
5353 Clouds 32 1006 62 10000 6.7 220 20:43 19.07.2020
5354 Clouds 32 1006 62 10000 6.7 220 20:25 19.07.2020
5355 Clear 32 1006 62 10000 5.1 230 19:59 19.07.2020
5356 Clear 31 1006 62 10000 5.1 230 19:39 19.07.2020
5357 Clear 31 1007 66 10000 5.7 230 19:20 19.07.2020
5358 Clear 30 1007 66 10000 5.7 230 18:56 19.07.2020
5359 Clear 30 1007 66 10000 5.7 230 18:38 19.07.2020
5360 Clouds 29 1007 69 10000 4.1 190 18:20 19.07.2020
5361 Clouds 28 1007 69 10000 4.1 190 17:42 19.07.2020
5362 Clouds 26 1007 78 10000 4.1 190 17:21 19.07.2020
5363 Clouds 24 1008 88 10000 3.6 170 16:42 19.07.2020
5364 Clouds 24 1008 88 10000 3.6 170 16:21 19.07.2020
5365 Clouds 23 1008 94 10000 3.1 180 15:59 19.07.2020
5366 Rain 22 1008 94 10000 3.1 160 15:38 19.07.2020
5367 Rain 22 1008 94 10000 3.1 160 15:20 19.07.2020
5368 Rain 22 1011 88 6437 5.1 220 14:45 19.07.2020
5369 Mist 22 1011 88 6437 5.1 220 14:26 19.07.2020
5370 Clouds 23 1010 78 10000 2.6 200 13:45 19.07.2020
5371 Clouds 24 1010 78 10000 2.6 200 13:23 19.07.2020
5372 Clouds 24 1010 73 10000 3.6 180 12:58 19.07.2020
5373 Clouds 24 1010 73 10000 3.6 180 12:40 19.07.2020
5374 Clouds 23 1010 73 10000 3.6 180 12:21 19.07.2020
5375 Clouds 24 1010 78 10000 3.1 180 11:41 19.07.2020
5376 Clouds 24 1010 78 10000 3.1 180 11:23 19.07.2020
5377 Clouds 24 1009 73 10000 3.6 170 10:56 19.07.2020
5378 Clouds 24 1009 73 10000 3.6 170 10:37 19.07.2020
5379 Clouds 24 1009 73 10000 3.6 170 10:19 19.07.2020
5380 Clouds 25 1010 65 10000 3.1 200 09:41 19.07.2020
5381 Clouds 25 1010 65 10000 3.1 200 09:20 19.07.2020
5382 Clouds 25 1011 65 10000 4.6 230 08:42 19.07.2020
5383 Clouds 25 1011 65 10000 4.6 230 08:23 19.07.2020
5384 Clouds 25 1012 65 10000 4.6 220 07:40 19.07.2020
5385 Clouds 25 1012 65 10000 4.6 220 07:22 19.07.2020
5386 Clear 25 1012 61 10000 4.1 230 06:42 19.07.2020
5387 Clear 26 1012 65 10000 5.1 240 06:19 19.07.2020
5388 Clear 26 1012 65 10000 5.1 240 05:50 19.07.2020
5389 Clear 27 1012 61 10000 4.1 230 03:39 19.07.2020
5390 Clear 28 1012 58 10000 4.6 240 02:43 19.07.2020
5391 Clear 28 1012 58 10000 4.6 240 02:22 19.07.2020
5392 Clouds 29 1012 54 10000 4.1 240 01:43 19.07.2020
5393 Clouds 30 1013 51 10000 7.7 230 00:51 19.07.2020
5394 Clouds 30 1013 51 10000 7.7 230 00:22 19.07.2020
5395 Clouds 31 1013 55 10000 6.2 230 23:45 18.07.2020
5396 Clouds 31 1013 55 10000 6.2 230 23:26 18.07.2020
5397 Clouds 30 1013 51 10000 7.2 240 22:58 18.07.2020
5398 Clouds 31 1013 51 10000 7.2 240 22:38 18.07.2020
5399 Clouds 31 1014 52 10000 7.7 240 22:18 18.07.2020
5400 Clouds 31 1014 52 10000 7.7 240 21:42 18.07.2020
5401 Clouds 31 1014 52 10000 7.7 240 21:23 18.07.2020
5402 Clouds 30 1014 55 10000 6.2 220 20:55 18.07.2020
5403 Clouds 30 1014 55 10000 6.2 220 20:37 18.07.2020
5404 Clouds 30 1014 55 10000 6.2 220 20:19 18.07.2020
5405 Clear 29 1014 58 10000 6.2 240 19:40 18.07.2020
5406 Clear 29 1014 58 10000 6.2 240 19:21 18.07.2020
5407 Clear 29 1015 58 10000 5.1 230 18:44 18.07.2020
5408 Clear 28 1015 58 10000 5.1 230 18:21 18.07.2020
5409 Clear 27 1015 61 10000 5.7 230 17:47 18.07.2020
5410 Clear 27 1015 61 10000 5.7 230 17:23 18.07.2020
5411 Clear 26 1016 61 10000 5.1 230 16:59 18.07.2020
5412 Clear 26 1016 61 10000 5.1 230 16:38 18.07.2020
5413 Clear 26 1016 61 10000 5.1 230 16:20 18.07.2020
5414 Clear 25 1015 65 10000 6.2 230 15:46 18.07.2020
5415 Clear 25 1015 65 10000 6.2 230 15:46 18.07.2020
5416 Clear 25 1015 65 10000 6.2 230 15:27 18.07.2020
5417 Clear 24 1015 69 10000 6.2 250 14:57 18.07.2020
5418 Clear 23 1015 69 10000 6.2 250 14:39 18.07.2020
5419 Clear 22 1016 78 10000 5.1 250 14:20 18.07.2020
5420 Clear 22 1015 78 10000 5.7 250 13:44 18.07.2020
5421 Clear 22 1015 78 10000 5.7 250 13:26 18.07.2020
5422 Clear 21 1015 88 10000 4.6 250 12:57 18.07.2020
5423 Clear 21 1015 88 10000 4.6 250 12:39 18.07.2020
5424 Clear 21 1015 88 10000 4.6 230 12:19 18.07.2020
5425 Clear 20 1015 88 10000 4.6 230 11:57 18.07.2020
5426 Clear 20 1015 88 10000 4.6 230 11:39 18.07.2020
5427 Clear 21 1015 88 10000 4.1 220 11:18 18.07.2020
5428 Clear 21 1015 88 10000 4.1 220 10:44 18.07.2020
5429 Clear 21 1015 88 10000 4.1 220 10:26 18.07.2020
5430 Clear 22 1015 78 10000 5.1 240 09:49 18.07.2020
5431 Clear 22 1015 78 10000 5.1 240 09:28 18.07.2020
5432 Clouds 22 1015 78 10000 5.1 230 08:58 18.07.2020
5433 Clouds 22 1015 78 10000 5.1 230 08:39 18.07.2020
5434 Clouds 23 1015 78 10000 5.1 230 08:19 18.07.2020
5435 Clear 23 1015 78 10000 4.6 230 07:42 18.07.2020
5436 Clear 24 1015 73 10000 5.1 220 07:23 18.07.2020
5437 Clear 24 1015 73 10000 5.1 220 07:23 18.07.2020
5438 Clear 24 1015 73 10000 5.1 220 06:50 18.07.2020
5439 Clear 24 1015 69 10000 5.1 230 05:25 18.07.2020
5440 Clear 24 1015 73 10000 4.1 220 04:29 18.07.2020
5441 Clear 27 1014 57 10000 4.1 230 02:32 18.07.2020
5442 Clear 29 1014 58 10000 7.2 240 01:25 18.07.2020
5443 Clear 29 1014 54 10000 5.7 240 00:40 18.07.2020
5444 Clouds 29 1014 65 10000 2.6 200 23:59 17.07.2020
5445 Clouds 29 1014 65 10000 2.6 200 23:39 17.07.2020
5446 Clouds 29 1014 65 10000 2.6 200 23:20 17.07.2020
5447 Clouds 28 1014 61 10000 4.1 230 22:55 17.07.2020
5448 Clouds 28 1014 61 10000 4.1 230 22:36 17.07.2020
5449 Clouds 27 1015 74 10000 2.1 290 22:18 17.07.2020
5450 Clouds 26 1015 83 10000 4.1 210 21:42 17.07.2020
5451 Clouds 25 1015 78 10000 3.6 230 21:22 17.07.2020
5452 Clouds 25 1015 78 10000 3.6 230 20:57 17.07.2020
5453 Clouds 24 1015 88 10000 2.6 210 20:38 17.07.2020
5454 Clouds 24 1015 88 10000 2.6 210 20:38 17.07.2020
5455 Clouds 23 1015 94 10000 3.1 200 20:19 17.07.2020
5456 Clouds 21 1015 94 10000 3.1 200 19:44 17.07.2020
5457 Clouds 21 1015 94 10000 3.1 200 19:24 17.07.2020
5458 Clouds 20 1015 100 10000 3.1 180 18:53 17.07.2020
5459 Clouds 19 1015 100 10000 3.1 180 18:27 17.07.2020
5460 Mist 18 1015 93 4828 3.1 180 17:58 17.07.2020
5461 Mist 18 1015 93 4828 3.1 180 17:58 17.07.2020
5462 Rain 18 1015 93 2012 4.1 180 17:40 17.07.2020
5463 Rain 18 1015 93 2012 4.1 180 17:20 17.07.2020
5464 Mist 18 1014 93 8047 7.2 170 16:42 17.07.2020
5465 Mist 18 1014 93 8047 7.2 170 16:20 17.07.2020
5466 Mist 18 1015 93 6437 5.1 170 15:44 17.07.2020
5467 Rain 17 1015 93 6437 5.1 170 15:22 17.07.2020
5468 Mist 17 1015 100 4828 4.1 170 14:55 17.07.2020
5469 Rain 17 1015 93 4828 4.6 180 14:37 17.07.2020
5470 Rain 17 1015 93 4023 5.1 180 14:19 17.07.2020
5471 Thunderstorm 17 1014 93 2816 7.7 170 13:40 17.07.2020
5472 Thunderstorm 17 1014 93 2816 7.7 170 13:20 17.07.2020
5473 Clouds 17 1014 100 10000 6.7 170 12:57 17.07.2020
5474 Thunderstorm 17 1014 100 9656 7.7 160 12:38 17.07.2020
5475 Thunderstorm 18 1014 88 10000 7.2 160 12:20 17.07.2020
5476 Clouds 19 1015 82 10000 8.2 170 11:45 17.07.2020
5477 Clouds 20 1015 82 10000 8.2 170 11:22 17.07.2020
5478 Clouds 20 1015 82 10000 6.2 170 10:59 17.07.2020
5479 Clouds 20 1015 82 10000 6.2 170 10:40 17.07.2020
5480 Clouds 20 1015 82 10000 6.2 170 10:40 17.07.2020
5481 Clouds 20 1015 82 10000 6.2 170 10:22 17.07.2020
5482 Clouds 21 1015 83 10000 8.7 150 09:57 17.07.2020
5483 Clouds 21 1016 88 10000 6.2 170 09:38 17.07.2020
5484 Clouds 21 1016 83 10000 6.2 150 09:19 17.07.2020
5485 Rain 21 1017 83 10000 7.2 170 08:44 17.07.2020
5486 Rain 21 1017 83 10000 7.2 170 08:25 17.07.2020
5487 Clouds 22 1017 73 10000 7.2 180 07:49 17.07.2020
5488 Clouds 22 1017 73 10000 7.2 180 07:21 17.07.2020
5489 Clouds 23 1018 69 10000 7.2 170 06:52 17.07.2020
5490 Clouds 23 1018 69 10000 6.7 180 06:19 17.07.2020
5491 Clouds 23 1019 73 10000 5.7 160 04:59 17.07.2020
5492 Clouds 23 1019 64 10000 6.2 180 02:47 17.07.2020
5493 Clouds 23 1019 64 10000 7.7 180 01:46 17.07.2020
5494 Clouds 25 1019 61 10000 7.7 170 00:46 17.07.2020
5495 Clouds 25 1019 61 10000 7.7 170 00:22 17.07.2020
5496 Clouds 26 1019 61 10000 9.3 150 23:45 16.07.2020
5497 Clouds 26 1019 65 10000 9.3 160 23:22 16.07.2020
5498 Clouds 26 1020 57 10000 8.7 160 22:59 16.07.2020
5499 Clouds 26 1020 57 10000 8.7 160 22:40 16.07.2020
5500 Clouds 27 1020 57 10000 8.7 160 22:22 16.07.2020
5501 Clouds 27 1020 61 10000 7.2 160 21:56 16.07.2020
5502 Clouds 28 1020 61 10000 7.2 160 21:37 16.07.2020
5503 Clouds 28 1020 61 10000 8.2 150 21:19 16.07.2020
5504 Clouds 28 1020 61 10000 8.2 150 21:19 16.07.2020
5505 Clouds 28 1020 61 10000 8.2 150 20:56 16.07.2020
5506 Clouds 28 1020 61 10000 8.2 150 20:38 16.07.2020
5507 Clouds 28 1020 61 10000 8.2 150 20:20 16.07.2020
5508 Clouds 28 1021 61 10000 7.7 170 19:47 16.07.2020
5509 Clouds 28 1021 61 10000 7.7 170 19:27 16.07.2020
5510 Clouds 28 1022 61 10000 8.2 160 18:48 16.07.2020
5511 Clouds 27 1022 61 10000 8.2 160 18:26 16.07.2020
5512 Clouds 27 1022 69 10000 7.2 160 17:59 16.07.2020
5513 Clouds 26 1022 69 10000 7.2 160 17:38 16.07.2020
5514 Clouds 26 1022 69 10000 7.2 160 17:19 16.07.2020
5515 Clouds 26 1022 69 10000 6.7 170 16:57 16.07.2020
5516 Clouds 26 1022 69 10000 6.7 170 16:39 16.07.2020
5517 Clouds 25 1022 69 10000 6.7 170 16:20 16.07.2020
5518 Clouds 25 1022 73 10000 6.7 180 15:45 16.07.2020
5519 Clouds 24 1022 73 10000 6.7 180 15:27 16.07.2020
5520 Clouds 22 1022 78 10000 5.7 170 14:57 16.07.2020
5521 Clouds 22 1022 78 10000 5.7 170 14:37 16.07.2020
5522 Clouds 21 1022 78 10000 5.7 170 14:19 16.07.2020
5523 Clouds 21 1022 78 10000 5.7 170 14:19 16.07.2020
5524 Clouds 21 1022 77 10000 4.6 160 13:42 16.07.2020
5525 Clouds 21 1022 77 14484 4.6 160 13:23 16.07.2020
5526 Clouds 21 1021 77 32767 4.1 130 12:59 16.07.2020
5527 Clouds 20 1022 93 14484 2.6 120 12:41 16.07.2020
5528 Clouds 20 1022 88 14484 2.1 130 12:19 16.07.2020
5529 Clouds 20 1022 88 14484 2.1 130 12:19 16.07.2020
5530 Clouds 19 1022 88 14484 2.1 130 11:39 16.07.2020
5531 Clouds 19 1022 88 14484 2.1 130 11:19 16.07.2020
5532 Clouds 19 1022 88 14484 2.6 110 10:59 16.07.2020
5533 Clouds 19 1022 88 14484 2.6 110 10:39 16.07.2020
5534 Clouds 19 1022 88 14484 2.6 110 10:20 16.07.2020
5535 Clouds 19 1022 88 14484 2.6 110 10:20 16.07.2020
5536 Clouds 19 1022 88 14484 2.1 110 09:49 16.07.2020
5537 Clouds 20 1022 88 14484 2.1 110 09:30 16.07.2020
5538 Clear 20 1022 82 14484 2.6 130 08:58 16.07.2020
5539 Clouds 20 1022 73 24140 3.1 110 08:39 16.07.2020
5540 Clouds 20 1022 73 24140 3.1 110 08:39 16.07.2020
5541 Clouds 20 1022 73 24140 3.1 100 08:20 16.07.2020
5542 Clear 20 1022 82 14484 3.6 100 07:42 16.07.2020
5543 Clear 20 1022 82 14484 3.6 100 07:23 16.07.2020
5544 Clear 20 1022 82 14484 2.1 100 06:46 16.07.2020
5545 Clear 21 1022 77 14484 2.1 70 06:20 16.07.2020
5546 Clear 21 1022 77 14484 2.1 70 05:54 16.07.2020
5547 Clear 21 1022 77 14484 2.1 70 05:22 16.07.2020
5548 Clouds 22 1022 72 14484 2.6 40 04:18 16.07.2020
5549 Clouds 23 1022 72 14484 2.6 40 03:35 16.07.2020
5550 Clear 24 1022 64 14484 3.1 60 02:38 16.07.2020
5551 Clouds 24 1022 57 14484 3.1 80 02:19 16.07.2020
5552 Clouds 25 1022 57 14484 3.1 80 01:40 16.07.2020
5553 Clouds 26 1022 50 14484 3.1 60 00:52 16.07.2020
5554 Clouds 26 1022 50 14484 3.1 60 00:34 16.07.2020
5555 Clouds 26 1022 51 14484 3.6 80 23:57 15.07.2020
5556 Clouds 26 1022 51 14484 3.6 80 23:39 15.07.2020
5557 Clouds 26 1022 51 14484 3.6 80 23:39 15.07.2020
5558 Clouds 26 1022 51 14484 3.6 80 23:20 15.07.2020
5559 Clouds 26 1022 50 14484 3.6 60 22:57 15.07.2020
5560 Clouds 25 1022 50 14484 3.6 60 22:38 15.07.2020
5561 Clouds 26 1022 44 32767 3.6 100 22:18 15.07.2020
5562 Clouds 26 1022 44 32767 3.6 100 21:55 15.07.2020
5563 Clouds 26 1022 57 14484 4.6 70 21:37 15.07.2020
5564 Clouds 26 1023 50 32767 4.6 360 21:18 15.07.2020
5565 Clouds 25 1023 57 14484 3.1 50 20:40 15.07.2020
5566 Clouds 25 1023 57 14484 3.1 50 20:22 15.07.2020
5567 Clouds 24 1023 60 14484 3.1 70 19:59 15.07.2020
5568 Clouds 24 1023 60 14484 3.1 70 19:40 15.07.2020
5569 Clouds 23 1023 60 14484 5.7 80 19:21 15.07.2020
5570 Clouds 23 1023 60 14484 5.7 80 18:59 15.07.2020
5571 Clouds 23 1023 60 14484 5.7 80 18:40 15.07.2020
5572 Clouds 23 1023 60 14484 5.7 80 18:22 15.07.2020
5573 Clouds 23 1023 60 14484 5.1 70 17:56 15.07.2020
5574 Clouds 22 1023 60 14484 6.2 20 17:38 15.07.2020
5575 Clouds 22 1023 60 14484 6.2 20 17:20 15.07.2020
5576 Clouds 22 1023 64 14484 5.7 70 16:43 15.07.2020
5577 Clouds 22 1023 64 14484 5.7 70 16:43 15.07.2020
5578 Clouds 22 1023 64 14484 5.7 70 16:24 15.07.2020
5579 Clear 21 1023 64 14484 4.1 50 15:59 15.07.2020
5580 Clear 21 1023 64 14484 4.1 50 15:41 15.07.2020
5581 Clear 20 1023 64 14484 4.1 50 15:22 15.07.2020
5582 Clear 18 1023 68 14484 4.1 30 14:56 15.07.2020
5583 Clear 18 1023 68 14484 4.1 30 14:37 15.07.2020
5584 Clear 17 1023 77 14484 4.6 30 14:18 15.07.2020
5585 Clouds 17 1023 72 32767 3.6 20 13:42 15.07.2020
5586 Clear 16 1023 77 14484 4.6 30 13:24 15.07.2020
5587 Clear 16 1023 77 14484 4.6 30 13:24 15.07.2020
5588 Clouds 16 1022 72 32767 5.1 30 12:56 15.07.2020
5589 Clouds 16 1022 72 32767 5.1 30 12:38 15.07.2020
5590 Clear 15 1022 77 32767 3.6 20 12:19 15.07.2020
5591 Clear 15 1022 93 14484 3.6 360 11:45 15.07.2020
5592 Clear 15 1022 82 24140 3.6 10 11:22 15.07.2020
5593 Clear 16 1022 87 14484 2.1 360 10:58 15.07.2020
5594 Clear 16 1022 87 14484 2.1 360 10:58 15.07.2020
5595 Clear 16 1022 87 14484 2.1 360 10:40 15.07.2020
5596 Clear 16 1022 87 14484 2.1 360 10:21 15.07.2020
5597 Clear 16 1021 87 14484 2.6 20 09:44 15.07.2020
5598 Clear 17 1021 87 14484 2.6 20 09:26 15.07.2020
5599 Clear 17 1021 82 14484 3.6 20 08:57 15.07.2020
5600 Clear 17 1021 82 14484 3.6 20 08:39 15.07.2020
5601 Clear 17 1021 82 14484 3.6 20 08:20 15.07.2020
5602 Clear 18 1021 82 14484 4.6 30 07:42 15.07.2020
5603 Clear 18 1021 82 14484 4.6 30 07:23 15.07.2020
5604 Clear 18 1020 82 14484 4.1 50 06:41 15.07.2020
5605 Clear 19 1020 82 14484 3.6 40 05:54 15.07.2020
5606 Clear 20 1020 68 14484 3.6 30 04:57 15.07.2020
5607 Clear 21 1020 68 14484 3.6 30 04:29 15.07.2020
5608 Clouds 23 1018 56 14484 3.6 50 02:32 15.07.2020
5609 Clear 24 1018 50 14484 6.7 60 01:53 15.07.2020
5610 Clear 25 1017 47 14484 5.7 50 01:24 15.07.2020
5611 Clear 25 1017 47 14484 5.7 50 00:46 15.07.2020
5612 Clear 25 1017 47 14484 5.7 50 00:26 15.07.2020
5613 Clear 26 1017 47 14484 5.7 50 23:44 14.07.2020
5614 Clear 26 1017 47 14484 5.7 50 23:25 14.07.2020
5615 Clear 25 1017 53 14484 5.7 40 22:41 14.07.2020
5616 Clear 25 1017 53 14484 5.7 40 22:20 14.07.2020
5617 Clouds 25 1017 60 14484 4.6 50 21:57 14.07.2020
5618 Clouds 24 1017 60 14484 4.6 50 21:38 14.07.2020
5619 Clouds 24 1017 60 14484 4.6 50 21:20 14.07.2020
5620 Clouds 24 1016 60 14484 6.7 10 20:58 14.07.2020
5621 Clouds 24 1016 60 14484 6.7 10 20:40 14.07.2020
5622 Clouds 23 1016 60 14484 6.7 10 20:20 14.07.2020
5623 Clouds 22 1017 64 14484 5.7 10 19:40 14.07.2020
5624 Clouds 22 1016 68 14484 5.7 360 19:22 14.07.2020
5625 Clouds 21 1016 68 14484 5.7 360 18:56 14.07.2020
5626 Clouds 21 1016 68 14484 5.7 360 18:38 14.07.2020
5627 Clouds 21 1015 73 14484 5.7 30 18:19 14.07.2020
5628 Clouds 21 1015 73 14484 5.7 30 17:55 14.07.2020
5629 Clouds 20 1015 73 14484 5.7 30 17:36 14.07.2020
5630 Clouds 20 1015 77 14484 5.1 20 17:18 14.07.2020
5631 Clouds 21 1015 77 14484 5.1 20 16:43 14.07.2020
5632 Clouds 20 1015 77 14484 5.1 20 16:25 14.07.2020
5633 Clouds 20 1015 82 14484 4.6 30 15:57 14.07.2020
5634 Clouds 20 1015 82 14484 4.6 30 15:38 14.07.2020
5635 Clouds 20 1015 82 14484 4.6 30 15:19 14.07.2020
5636 Clouds 20 1014 82 14484 5.1 20 14:45 14.07.2020
5637 Clouds 19 1014 82 14484 5.1 20 14:26 14.07.2020
5638 Clouds 19 1014 82 14484 3.6 20 13:54 14.07.2020
5639 Clouds 19 1014 82 14484 3.6 20 13:36 14.07.2020
5640 Clouds 19 1013 93 14484 3.1 10 13:18 14.07.2020
5641 Clouds 19 1013 93 14484 3.1 10 12:39 14.07.2020
5642 Clouds 19 1013 93 14484 3.1 350 12:20 14.07.2020
5643 Clouds 19 1013 93 14484 3.1 350 11:49 14.07.2020
5644 Clouds 19 1012 93 14484 3.6 350 11:25 14.07.2020
5645 Clouds 19 1012 82 14484 3.6 360 10:59 14.07.2020
5646 Clouds 19 1012 82 14484 3.6 360 10:40 14.07.2020
5647 Clouds 20 1012 82 14484 3.6 360 10:21 14.07.2020
5648 Clouds 20 1012 88 14484 2.1 50 09:41 14.07.2020
5649 Clouds 20 1012 88 14484 2.1 50 09:22 14.07.2020
5650 Clear 20 1011 88 14484 2.1 10 08:58 14.07.2020
5651 Clear 20 1011 88 14484 2.1 10 08:38 14.07.2020
5652 Clear 20 1011 88 14484 2.1 10 08:20 14.07.2020
5653 Clear 21 1011 93 14484 2.6 20 07:44 14.07.2020
5654 Clear 21 1011 88 14484 3.1 10 07:19 14.07.2020
5655 Clear 21 1011 88 14484 3.1 10 06:58 14.07.2020
5656 Clouds 21 1011 83 14484 4.1 360 06:27 14.07.2020
5657 Clouds 21 1011 83 14484 4.1 360 05:50 14.07.2020
5658 Clouds 22 1011 73 14484 3.6 10 04:52 14.07.2020
5659 Clouds 22 1011 73 14484 3.6 10 04:33 14.07.2020
5660 Clouds 24 1009 60 24140 4.6 300 03:29 14.07.2020
5661 Clouds 26 1009 57 14484 5.1 250 02:29 14.07.2020
5662 Clear 27 1008 47 14484 3.6 290 01:41 14.07.2020
5663 Clear 27 1008 47 14484 3.6 290 01:23 14.07.2020
5664 Clouds 27 1008 45 14484 4.1 250 00:43 14.07.2020
5665 Clouds 28 1008 45 14484 4.1 250 00:23 14.07.2020
5666 Clouds 27 1007 51 14484 3.6 290 23:39 13.07.2020
5667 Clouds 27 1007 51 14484 3.6 290 23:20 13.07.2020
5668 Clouds 27 1007 54 14484 5.7 320 22:57 13.07.2020
5669 Clouds 27 1007 51 11265 4.1 270 22:39 13.07.2020
5670 Clouds 27 1007 51 11265 4.1 270 22:19 13.07.2020
5671 Clouds 27 1007 48 14484 6.2 230 21:55 13.07.2020
5672 Clouds 28 1007 48 14484 6.2 230 21:36 13.07.2020
5673 Clouds 28 1007 48 14484 5.7 240 21:18 13.07.2020
5674 Clouds 28 1007 48 14484 5.7 240 20:54 13.07.2020
5675 Clouds 28 1007 48 14484 5.7 240 20:54 13.07.2020
5676 Clouds 28 1007 48 14484 5.7 240 20:36 13.07.2020
5677 Clouds 27 1007 50 14484 3.6 310 20:18 13.07.2020
5678 Clouds 27 1008 47 32767 5.7 280 19:42 13.07.2020
5679 Clouds 27 1007 50 14484 3.6 310 19:23 13.07.2020
5680 Clouds 27 1008 50 14484 2.6 290 18:57 13.07.2020
5681 Clouds 26 1008 50 14484 2.6 290 18:38 13.07.2020
5682 Clouds 26 1008 53 14484 2.1 280 18:19 13.07.2020
5683 Clouds 25 1008 53 14484 2.1 280 17:55 13.07.2020
5684 Clouds 26 1008 53 14484 2.1 280 17:37 13.07.2020
5685 Clear 25 1008 64 14484 1.5 340 17:18 13.07.2020
5686 Clear 25 1008 64 14484 1.5 340 16:42 13.07.2020
5687 Clear 25 1008 64 14484 1.5 340 16:42 13.07.2020
5688 Clear 24 1008 64 14484 1.5 340 16:21 13.07.2020
5689 Clouds 23 1008 68 14484 2.6 350 15:58 13.07.2020
5690 Clouds 23 1008 68 14484 2.6 350 15:39 13.07.2020
5691 Clouds 22 1008 68 14484 2.6 350 15:20 13.07.2020
5692 Clouds 21 1008 73 14484 2.1 310 14:58 13.07.2020
5693 Clouds 21 1008 73 14484 2.1 310 14:58 13.07.2020
5694 Clouds 21 1008 73 14484 2.1 310 14:39 13.07.2020
5695 Clouds 21 1008 73 14484 2.1 310 14:20 13.07.2020
5696 Clouds 21 1007 73 14484 2.6 320 13:55 13.07.2020
5697 Clouds 20 1007 73 14484 2.6 320 13:37 13.07.2020
5698 Clouds 20 1007 72 14484 3.1 310 13:19 13.07.2020
5699 Clouds 20 1007 72 14484 3.1 310 12:43 13.07.2020
5700 Clouds 20 1007 72 14484 3.1 310 12:22 13.07.2020
5701 Clouds 20 1006 82 14484 2.6 330 11:56 13.07.2020
5702 Clouds 20 1006 82 14484 2.6 330 11:36 13.07.2020
5703 Clouds 20 1006 77 14484 2.1 330 11:18 13.07.2020
5704 Clouds 20 1006 77 14484 2.1 330 10:38 13.07.2020
5705 Clouds 20 1006 77 14484 2.1 330 10:20 13.07.2020
5706 Clouds 20 1006 77 14484 2.6 350 09:43 13.07.2020
5707 Clouds 21 1006 77 14484 2.6 350 09:24 13.07.2020
5708 Clouds 21 1006 73 14484 2.1 330 08:53 13.07.2020
5709 Clouds 21 1006 73 14484 2.1 330 08:34 13.07.2020
5710 Clouds 21 1006 73 14484 2.6 350 07:42 13.07.2020
5711 Clouds 22 1006 73 14484 2.6 330 07:19 13.07.2020
5712 Clouds 22 1006 73 14484 2.6 330 06:42 13.07.2020
5713 Clouds 22 1006 73 14484 2.6 330 06:22 13.07.2020
5714 Clear 23 1005 73 14484 2.1 330 04:37 13.07.2020
5715 Clouds 25 1004 57 32767 6.2 290 01:57 13.07.2020
5716 Clouds 26 1003 57 14484 5.7 290 01:28 13.07.2020
5717 Clouds 27 1003 57 14484 6.2 280 00:59 13.07.2020
5718 Clouds 27 1003 57 14484 6.2 280 00:27 13.07.2020
5719 Clouds 27 1003 57 14484 5.7 270 23:58 12.07.2020
5720 Clouds 27 1002 57 14484 7.2 270 23:40 12.07.2020
5721 Clouds 27 1002 57 14484 7.2 270 23:21 12.07.2020
5722 Clouds 28 1001 58 14484 7.7 260 22:54 12.07.2020
5723 Clouds 28 1001 58 14484 7.7 260 22:36 12.07.2020
5724 Clouds 28 1001 58 14484 7.7 260 22:36 12.07.2020
5725 Clouds 28 1001 58 14484 8.7 270 22:18 12.07.2020
5726 Clouds 28 1001 58 14484 8.7 270 21:42 12.07.2020
5727 Clouds 28 1001 58 14484 8.7 270 21:20 12.07.2020
5728 Clouds 27 1000 65 14484 8.2 270 20:59 12.07.2020
5729 Clouds 28 1000 65 14484 8.2 270 20:41 12.07.2020
5730 Clouds 27 1000 65 14484 8.2 270 20:20 12.07.2020
5731 Clouds 27 1000 78 14484 5.1 280 19:58 12.07.2020
5732 Clouds 27 1000 78 14484 5.1 280 19:39 12.07.2020
5733 Clouds 27 1000 78 14484 5.1 280 19:39 12.07.2020
5734 Clouds 27 1000 88 14484 5.1 250 19:18 12.07.2020
5735 Rain 26 1000 88 12874 8.2 250 18:43 12.07.2020
5736 Rain 26 1000 88 12874 8.2 250 18:43 12.07.2020
5737 Rain 25 1000 88 12874 8.2 250 18:21 12.07.2020
5738 Rain 26 999 83 11265 7.2 220 17:58 12.07.2020
5739 Rain 26 999 83 11265 7.2 220 17:37 12.07.2020
5740 Rain 26 999 83 11265 7.2 220 17:19 12.07.2020
5741 Clouds 26 999 74 14484 7.7 230 16:45 12.07.2020
5742 Clouds 26 999 74 14484 7.7 230 16:21 12.07.2020
5743 Clouds 25 999 74 14484 5.7 270 15:46 12.07.2020
5744 Clouds 25 999 74 14484 5.7 270 15:27 12.07.2020
5745 Clouds 24 999 78 14484 4.6 270 14:57 12.07.2020
5746 Clouds 24 998 83 14484 5.1 270 14:38 12.07.2020
5747 Clouds 23 998 94 14484 2.6 250 14:19 12.07.2020
5748 Clouds 23 998 94 14484 2.6 250 14:19 12.07.2020
5749 Clouds 23 998 94 14484 2.6 250 13:39 12.07.2020
5750 Clouds 23 998 94 14484 2.6 250 13:21 12.07.2020
5751 Clouds 23 997 100 14484 3.1 270 12:55 12.07.2020
5752 Clouds 22 997 100 14484 3.1 270 12:36 12.07.2020
5753 Clouds 22 997 100 11265 2.1 200 12:18 12.07.2020
5754 Clouds 22 998 100 12874 2.6 220 11:44 12.07.2020
5755 Clouds 22 998 100 12874 2.6 220 11:20 12.07.2020
5756 Clouds 22 998 100 14484 2.6 220 10:43 12.07.2020
5757 Clouds 22 998 100 14484 2.6 220 10:23 12.07.2020
5758 Clouds 22 997 100 14484 2.1 210 09:58 12.07.2020
5759 Clouds 22 997 100 14484 2.1 210 09:40 12.07.2020
5760 Clouds 22 997 100 14484 2.1 210 09:20 12.07.2020
5761 Clear 22 998 94 14484 2.1 190 08:54 12.07.2020
5762 Clear 22 998 94 14484 2.1 190 08:36 12.07.2020
5763 Clouds 22 998 100 14484 2.1 200 08:18 12.07.2020
5764 Clouds 22 998 100 14484 2.1 200 07:42 12.07.2020
5765 Rain 23 999 100 14484 2.6 200 07:22 12.07.2020
5766 Clouds 23 999 100 14484 2.6 180 06:51 12.07.2020
5767 Clouds 23 999 100 14484 2.1 170 06:21 12.07.2020
5768 Clouds 23 999 100 14484 2.1 170 05:42 12.07.2020
5769 Clouds 23 999 100 14484 2.6 220 04:57 12.07.2020
5770 Rain 23 1000 94 14484 4.6 170 04:28 12.07.2020
5771 Rain 25 1000 78 14484 3.6 220 03:36 12.07.2020
5772 Clouds 25 999 88 24140 4.1 220 02:55 12.07.2020
5773 Clouds 26 999 78 14484 3.6 230 01:46 12.07.2020
5774 Clouds 27 999 74 14484 5.1 240 00:54 12.07.2020
5775 Clouds 27 999 74 14484 5.1 240 00:23 12.07.2020
5776 Clouds 27 999 69 14484 6.7 220 23:58 11.07.2020
5777 Clouds 27 999 69 14484 6.7 220 23:39 11.07.2020
5778 Clouds 27 999 69 14484 6.7 220 23:20 11.07.2020
5779 Clouds 27 999 69 14484 7.2 240 22:55 11.07.2020
5780 Clouds 27 999 74 14484 7.2 240 22:37 11.07.2020
5781 Clouds 27 999 74 14484 7.2 240 22:37 11.07.2020
5782 Clouds 26 999 88 14484 6.2 220 22:18 11.07.2020
5783 Clouds 26 999 88 14484 6.2 220 21:42 11.07.2020
5784 Clouds 25 999 88 14484 6.2 220 21:23 11.07.2020
5785 Clouds 25 999 94 14484 4.1 210 20:58 11.07.2020
5786 Rain 24 999 100 4828 5.1 190 20:39 11.07.2020
5787 Rain 24 999 100 4828 5.1 190 20:39 11.07.2020
5788 Rain 24 999 100 4828 5.1 190 20:21 11.07.2020
5789 Rain 24 999 94 14484 4.1 140 19:58 11.07.2020
5790 Rain 24 999 94 9656 3.6 110 19:40 11.07.2020
5791 Rain 23 999 94 9656 3.6 110 19:21 11.07.2020
5792 Rain 23 1000 100 8047 5.1 110 18:56 11.07.2020
5793 Rain 23 1000 100 6437 3.1 120 18:37 11.07.2020
5794 Rain 24 1001 94 6437 2.1 160 18:19 11.07.2020
5795 Rain 24 1001 94 6437 3.6 120 17:43 11.07.2020
5796 Rain 24 1001 94 6437 3.6 120 17:22 11.07.2020
5797 Rain 24 1001 88 8047 3.1 70 16:59 11.07.2020
5798 Clouds 25 1001 74 14484 4.1 60 16:39 11.07.2020
5799 Clouds 25 1001 74 14484 4.1 60 16:20 11.07.2020
5800 Clouds 25 1002 74 14484 5.1 60 15:57 11.07.2020
5801 Clouds 25 1002 74 14484 5.1 60 15:38 11.07.2020
5802 Clouds 25 1002 74 14484 5.1 60 15:19 11.07.2020
5803 Clouds 26 1003 74 14484 5.1 80 14:55 11.07.2020
5804 Clouds 25 1003 74 14484 5.1 80 14:36 11.07.2020
5805 Clouds 24 1004 88 14484 4.1 30 14:18 11.07.2020
5806 Clouds 24 1004 88 14484 4.1 30 13:41 11.07.2020
5807 Clouds 24 1004 88 14484 4.1 30 13:21 11.07.2020
5808 Clouds 23 1005 83 14484 3.6 80 12:55 11.07.2020
5809 Clouds 23 1005 83 14484 3.6 80 12:37 11.07.2020
5810 Clouds 23 1005 83 14484 4.6 70 12:18 11.07.2020
5811 Rain 23 1005 78 14484 4.1 80 11:41 11.07.2020
5812 Rain 23 1005 78 14484 4.1 80 11:21 11.07.2020
5813 Clouds 24 1006 83 14484 2.6 70 10:56 11.07.2020
5814 Clouds 24 1006 83 14484 2.6 70 10:38 11.07.2020
5815 Clouds 24 1006 83 14484 2.6 70 10:19 11.07.2020
5816 Clouds 25 1007 69 14484 2.6 100 09:39 11.07.2020
5817 Clouds 25 1007 69 14484 2.6 100 09:20 11.07.2020
5818 Clouds 25 1008 65 14484 4.1 130 08:46 11.07.2020
5819 Clouds 25 1008 65 14484 4.1 130 08:28 11.07.2020
5820 Clouds 26 1008 65 14484 5.1 130 07:56 11.07.2020
5821 Clouds 26 1008 65 14484 5.1 130 07:36 11.07.2020
5822 Clouds 27 1009 69 14484 3.6 130 07:18 11.07.2020
5823 Clouds 27 1009 69 14484 3.6 130 06:27 11.07.2020
5824 Clear 27 1010 65 14484 3.1 160 05:54 11.07.2020
5825 Clear 28 1010 65 14484 3.1 160 05:19 11.07.2020
5826 Clear 29 1010 58 14484 4.6 160 04:50 11.07.2020
5827 Clear 29 1010 58 14484 4.6 160 04:20 11.07.2020
5828 Clear 29 1010 58 14484 4.6 160 04:20 11.07.2020
5829 Clear 31 1009 55 14484 4.6 180 02:55 11.07.2020
5830 Clear 31 1009 55 14484 4.6 180 02:35 11.07.2020
5831 Clear 33 1009 52 14484 4.6 180 01:27 11.07.2020
5832 Clear 33 1010 44 14484 6.2 190 00:58 11.07.2020
5833 Clear 34 1010 44 14484 6.2 190 00:38 11.07.2020
5834 Clear 34 1011 39 14484 7.7 160 00:19 11.07.2020
5835 Clear 34 1011 39 14484 7.7 160 23:56 10.07.2020
5836 Clear 34 1011 39 14484 7.7 160 23:38 10.07.2020
5837 Clear 35 1011 47 14484 5.1 160 23:18 10.07.2020
5838 Clear 35 1011 47 14484 5.1 160 22:42 10.07.2020
5839 Clear 35 1011 47 14484 5.1 160 22:19 10.07.2020
5840 Clear 35 1012 47 14484 5.1 190 21:40 10.07.2020
5841 Clear 35 1012 47 14484 5.1 190 21:21 10.07.2020
5842 Clear 35 1012 49 14484 4.1 160 20:59 10.07.2020
5843 Clear 35 1012 49 14484 4.1 160 20:40 10.07.2020
5844 Clear 35 1012 49 14484 4.1 160 20:21 10.07.2020
5845 Clear 35 1013 46 14484 5.1 170 19:57 10.07.2020
5846 Clear 34 1013 46 14484 5.1 170 19:39 10.07.2020
5847 Clear 34 1013 55 14484 4.1 150 19:19 10.07.2020
5848 Clear 33 1013 55 14484 4.1 150 18:41 10.07.2020
5849 Clear 32 1014 59 14484 3.6 190 18:20 10.07.2020
5850 Clear 32 1014 59 14484 3.6 190 17:57 10.07.2020
5851 Clear 32 1014 59 14484 3.6 190 17:38 10.07.2020
5852 Clear 32 1014 59 14484 3.6 190 17:20 10.07.2020
5853 Clear 31 1014 66 14484 3.6 170 16:42 10.07.2020
5854 Clear 32 1014 66 14484 3.6 170 16:20 10.07.2020
5855 Clear 31 1014 70 14484 3.1 150 15:47 10.07.2020
5856 Clear 29 1014 70 14484 3.1 150 15:26 10.07.2020
5857 Clear 27 1014 74 14484 3.1 180 14:56 10.07.2020
5858 Clear 28 1014 74 14484 3.1 180 14:38 10.07.2020
5859 Clear 27 1014 74 14484 3.1 180 14:20 10.07.2020
5860 Clear 27 1014 78 14484 3.1 170 13:57 10.07.2020
5861 Clear 26 1014 78 14484 3.1 170 13:38 10.07.2020
5862 Clear 25 1014 78 14484 3.1 170 13:20 10.07.2020
5863 Clear 24 1014 88 14484 2.6 180 12:55 10.07.2020
5864 Clear 24 1014 88 14484 2.6 180 12:37 10.07.2020
5865 Clear 24 1014 88 14484 1 160 12:18 10.07.2020
5866 Clear 24 1014 88 14484 1 160 11:39 10.07.2020
5867 Clear 24 1013 88 14484 1.5 140 11:19 10.07.2020
5868 Clear 25 1013 88 14484 1.5 140 10:56 10.07.2020
5869 Clear 25 1013 88 14484 1.5 140 10:38 10.07.2020
5870 Clear 25 1013 83 14484 1.5 140 10:18 10.07.2020
5871 Clear 25 1013 83 14484 1.5 140 09:40 10.07.2020
5872 Clear 25 1013 83 14484 1.5 140 09:22 10.07.2020
5873 Clear 25 1013 83 14484 1.5 120 08:58 10.07.2020
5874 Clear 26 1013 83 14484 1.5 120 08:40 10.07.2020
5875 Clear 26 1013 61 24140 2.1 150 08:22 10.07.2020
5876 Clear 26 1013 78 14484 0.92 125 07:44 10.07.2020
5877 Clear 27 1013 78 14484 1.41 157 07:23 10.07.2020
5878 Clear 27 1013 58 24140 3.1 180 06:52 10.07.2020
5879 Clear 27 1013 58 24140 3.1 180 06:32 10.07.2020
5880 Clouds 28 1013 54 24140 3.6 160 05:20 10.07.2020
5881 Clear 29 1012 62 14484 2.1 180 03:44 10.07.2020
5882 Clear 31 1012 55 14484 3.6 160 02:53 10.07.2020
5883 Clear 32 1012 55 14484 4.1 150 01:57 10.07.2020
5884 Clear 33 1012 46 14484 4.6 180 00:54 10.07.2020
5885 Clouds 34 1012 52 14484 4.6 170 00:22 10.07.2020
5886 Clouds 34 1012 52 14484 4.6 170 23:55 09.07.2020
5887 Clouds 34 1012 52 14484 4.6 170 23:37 09.07.2020
5888 Clouds 33 1013 52 14484 5.1 170 23:18 09.07.2020
5889 Clouds 33 1013 52 14484 5.1 170 22:56 09.07.2020
5890 Clouds 33 1013 52 14484 5.1 170 22:38 09.07.2020
5891 Clouds 33 1013 52 14484 5.1 170 22:19 09.07.2020
5892 Clear 34 1013 55 14484 4.6 160 21:39 09.07.2020
5893 Clear 34 1013 55 14484 4.6 160 21:20 09.07.2020
5894 Clouds 34 1013 52 14484 4.1 180 20:59 09.07.2020
5895 Clouds 33 1013 52 14484 4.1 180 20:40 09.07.2020
5896 Clouds 33 1013 52 14484 4.1 180 20:22 09.07.2020
5897 Clear 32 1013 62 14484 3.6 190 19:43 09.07.2020
5898 Clear 32 1013 62 14484 3.6 190 19:22 09.07.2020
5899 Clear 32 1014 66 14484 4.1 150 18:57 09.07.2020
5900 Clear 32 1014 66 14484 4.1 150 18:39 09.07.2020
5901 Clear 30 1014 70 14484 3.1 160 18:19 09.07.2020
5902 Clear 30 1014 70 14484 3.1 160 17:43 09.07.2020
5903 Clear 30 1014 70 14484 3.1 160 17:23 09.07.2020
5904 Clear 29 1014 69 14484 2.6 190 16:58 09.07.2020
5905 Clear 29 1014 69 14484 2.6 190 16:38 09.07.2020
5906 Clear 29 1014 69 14484 2.6 190 16:19 09.07.2020
5907 Clear 28 1014 69 14484 3.1 170 15:58 09.07.2020
5908 Clear 28 1014 69 14484 3.1 170 15:38 09.07.2020
5909 Clear 25 1014 83 14484 3.1 160 15:18 09.07.2020
5910 Clear 25 1014 83 14484 3.1 160 14:58 09.07.2020
5911 Clear 25 1014 83 14484 3.1 160 14:39 09.07.2020
5912 Clear 25 1014 83 14484 3.1 160 14:20 09.07.2020
5913 Clear 24 1014 94 14484 2.1 140 13:56 09.07.2020
5914 Clear 24 1014 94 14484 2.1 140 13:38 09.07.2020
5915 Clouds 22 1013 94 24140 2.1 140 13:19 09.07.2020
5916 Mist 22 1013 100 9656 2.6 160 12:42 09.07.2020
5917 Mist 21 1013 100 9656 2.6 160 12:23 09.07.2020
5918 Mist 21 1013 100 9656 2.6 160 11:57 09.07.2020
5919 Clouds 21 1013 88 24140 2.6 140 11:39 09.07.2020
5920 Clear 21 1012 88 24140 1.5 200 11:19 09.07.2020
5921 Clear 21 1012 88 24140 1.5 200 10:56 09.07.2020
5922 Clear 21 1012 88 24140 1.5 200 10:38 09.07.2020
5923 Clear 21 1012 88 24140 2.1 110 10:19 09.07.2020
5924 Clear 21 1012 100 14484 1.5 140 09:43 09.07.2020
5925 Clear 22 1012 88 24140 2.1 110 09:23 09.07.2020
5926 Clear 22 1012 100 14484 1.5 160 08:52 09.07.2020
5927 Clear 22 1012 83 24140 2.1 140 08:27 09.07.2020
5928 Clear 22 1012 94 14484 2.1 140 07:56 09.07.2020
5929 Clear 23 1012 94 14484 2.1 140 07:38 09.07.2020
5930 Clear 23 1012 100 14484 2.6 130 07:20 09.07.2020
5931 Clear 23 1012 83 24140 1 0 06:21 09.07.2020
5932 Clear 24 1012 100 14484 2.1 150 05:53 09.07.2020
5933 Clear 24 1012 88 14484 2.6 140 04:29 09.07.2020
5934 Clear 26 1011 78 14484 2.6 180 03:22 09.07.2020
5935 Clear 28 1011 69 14484 4.6 160 01:56 09.07.2020
5936 Clear 28 1011 65 14484 3.6 130 01:19 09.07.2020
5937 Clear 29 1011 65 14484 3.6 130 00:41 09.07.2020
5938 Clear 29 1011 69 14484 1.5 260 00:22 09.07.2020
5939 Clear 28 1011 69 14484 1.5 260 23:43 08.07.2020
5940 Clear 29 1011 69 14484 1.5 260 23:25 08.07.2020
5941 Clouds 29 1011 65 24140 2.6 210 22:56 08.07.2020
5942 Clear 28 1011 78 14484 2.1 80 22:38 08.07.2020
5943 Clear 28 1011 78 14484 2.1 80 22:38 08.07.2020
5944 Clear 26 1011 78 14484 2.1 80 22:20 08.07.2020
5945 Clear 26 1011 78 14484 2.1 80 22:20 08.07.2020
5946 Clear 25 1011 83 14484 2.1 0 21:56 08.07.2020
5947 Thunderstorm 24 1011 88 11265 3.1 320 21:37 08.07.2020
5948 Thunderstorm 24 1011 88 11265 3.1 320 21:37 08.07.2020
5949 Thunderstorm 23 1011 88 11265 3.1 320 21:19 08.07.2020
5950 Thunderstorm 28 1011 62 14484 3.1 300 20:42 08.07.2020
5951 Thunderstorm 28 1011 62 14484 3.1 300 20:24 08.07.2020
5952 Clouds 29 1011 66 14484 3.1 340 19:57 08.07.2020
5953 Rain 29 1012 58 24140 4.1 220 19:38 08.07.2020
5954 Rain 29 1011 74 14484 2.6 270 19:20 08.07.2020
5955 Rain 28 1011 69 14484 3.6 220 18:42 08.07.2020
5956 Rain 28 1011 69 14484 3.6 220 18:21 08.07.2020
5957 Clouds 28 1012 74 14484 3.6 210 17:58 08.07.2020
5958 Clouds 27 1012 74 14484 3.6 210 17:39 08.07.2020
5959 Clouds 27 1012 74 14484 3.6 210 17:21 08.07.2020
5960 Clouds 26 1012 83 14484 3.1 190 16:58 08.07.2020
5961 Clouds 26 1012 83 14484 3.1 190 16:38 08.07.2020
5962 Clouds 25 1012 88 14484 4.6 170 16:19 08.07.2020
5963 Clouds 25 1012 88 14484 4.6 170 15:58 08.07.2020
5964 Clouds 24 1012 88 14484 4.6 170 15:38 08.07.2020
5965 Clouds 24 1012 88 14484 4.6 170 15:19 08.07.2020
5966 Clouds 24 1012 94 14484 3.6 190 14:44 08.07.2020
5967 Clouds 24 1012 94 14484 3.6 190 14:25 08.07.2020
5968 Mist 23 1012 100 9656 2.6 180 13:58 08.07.2020
5969 Clouds 22 1012 100 11265 4.6 160 13:40 08.07.2020
5970 Clouds 22 1013 94 14484 2.6 170 13:19 08.07.2020
5971 Rain 22 1013 94 14484 2.6 130 12:42 08.07.2020
5972 Rain 22 1013 100 14484 1 0 12:20 08.07.2020
5973 Rain 22 1013 100 14484 1 0 11:56 08.07.2020
5974 Thunderstorm 22 1013 94 6437 4.1 300 11:38 08.07.2020
5975 Thunderstorm 22 1013 94 6437 4.1 300 11:19 08.07.2020
5976 Clouds 23 1012 94 14484 3.1 160 10:43 08.07.2020
5977 Clouds 23 1012 94 14484 3.1 160 10:24 08.07.2020
5978 Thunderstorm 23 1012 78 14484 3.1 210 09:46 08.07.2020
5979 Thunderstorm 24 1012 78 14484 3.1 210 09:25 08.07.2020
5980 Clouds 24 1012 73 14484 4.6 180 08:57 08.07.2020
5981 Clouds 24 1012 73 14484 4.6 180 08:38 08.07.2020
5982 Clouds 24 1012 73 14484 4.6 180 08:19 08.07.2020
5983 Clouds 25 1012 73 14484 4.6 190 07:43 08.07.2020
5984 Clouds 25 1012 73 14484 4.6 190 07:22 08.07.2020
5985 Clouds 25 1012 69 14484 5.1 190 06:46 08.07.2020
5986 Clouds 25 1012 69 14484 5.1 190 06:28 08.07.2020
5987 Thunderstorm 25 1012 69 14484 5.1 190 05:49 08.07.2020
5988 Thunderstorm 26 1012 65 14484 5.1 180 04:50 08.07.2020
5989 Clouds 27 1012 65 14484 5.1 170 04:19 08.07.2020
5990 Clear 30 1012 54 14484 5.7 170 02:19 08.07.2020
5991 Clear 31 1012 51 14484 4.6 170 01:38 08.07.2020
5992 Clear 31 1012 46 14484 7.2 190 00:56 08.07.2020
5993 Clear 32 1012 46 14484 7.2 190 00:22 08.07.2020
5994 Clear 33 1012 40 14484 7.7 180 23:44 07.07.2020
5995 Clear 33 1012 40 14484 7.7 180 23:22 07.07.2020
5996 Clear 33 1012 40 14484 7.7 180 23:22 07.07.2020
5997 Clear 33 1013 38 14484 5.7 170 22:58 07.07.2020
5998 Clear 33 1013 38 14484 5.7 170 22:39 07.07.2020
5999 Clear 33 1013 38 14484 5.7 170 22:20 07.07.2020
6000 Clear 32 1014 40 14484 6.7 180 21:58 07.07.2020
6001 Clear 32 1014 40 14484 6.7 180 21:38 07.07.2020
6002 Clear 32 1014 40 14484 6.7 180 21:38 07.07.2020
6003 Clear 32 1014 40 14484 6.7 180 21:38 07.07.2020
6004 Clear 32 1014 40 14484 6.7 180 21:19 07.07.2020
6005 Clear 32 1015 45 14484 6.7 200 20:55 07.07.2020
6006 Clear 31 1015 45 14484 6.7 200 20:36 07.07.2020
6007 Clear 30 1015 48 14484 5.7 210 20:18 07.07.2020
6008 Clear 30 1015 48 14484 5.7 210 20:18 07.07.2020
6009 Clear 31 1015 48 14484 5.7 210 19:39 07.07.2020
6010 Clear 31 1016 48 14484 5.1 170 19:20 07.07.2020
6011 Clear 30 1016 48 14484 5.1 170 18:55 07.07.2020
6012 Clear 30 1016 48 14484 5.1 170 18:37 07.07.2020
6013 Clear 28 1016 51 14484 5.7 170 18:19 07.07.2020
6014 Clear 28 1016 51 14484 5.7 170 17:56 07.07.2020
6015 Clear 28 1016 51 14484 5.7 170 17:37 07.07.2020
6016 Clear 28 1016 51 14484 5.7 170 17:19 07.07.2020
6017 Clouds 26 1016 65 0 3.6 162 16:42 07.07.2020
6018 Clouds 25 1017 64 14484 4.6 170 16:23 07.07.2020
6019 Clouds 25 1017 64 14484 4.6 170 16:23 07.07.2020
6020 Clouds 26 1017 64 14484 4.6 170 15:56 07.07.2020
6021 Clouds 25 1017 64 14484 4.6 170 15:37 07.07.2020
6022 Clouds 22 1017 64 14484 4.6 170 15:19 07.07.2020
6023 Clear 22 1018 64 14484 3.1 160 14:46 07.07.2020
6024 Clear 21 1018 64 14484 3.1 160 14:24 07.07.2020
6025 Clear 21 1018 68 14484 2.1 130 13:46 07.07.2020
6026 Clear 19 1018 68 14484 2.1 130 13:21 07.07.2020
6027 Clouds 19 1017 72 32767 3.1 90 12:58 07.07.2020
6028 Clouds 18 1017 72 32767 3.1 90 12:40 07.07.2020
6029 Clouds 18 1017 77 24140 3.6 30 12:21 07.07.2020
6030 Clouds 18 1017 77 24140 3.6 30 11:48 07.07.2020
6031 Clouds 18 1017 77 24140 3.6 30 11:24 07.07.2020
6032 Clouds 18 1017 63 24140 3.1 30 10:59 07.07.2020
6033 Clouds 18 1017 63 24140 3.1 30 10:41 07.07.2020
6034 Clouds 19 1017 55 24140 1.5 30 10:21 07.07.2020
6035 Clear 19 1017 72 14484 1 0 09:55 07.07.2020
6036 Clear 19 1017 72 14484 1 0 09:37 07.07.2020
6037 Clear 20 1018 68 14484 1 140 09:18 07.07.2020
6038 Clear 20 1018 68 14484 1 140 08:40 07.07.2020
6039 Clear 20 1018 68 14484 1 140 08:21 07.07.2020
6040 Clear 21 1017 46 24140 1.5 0 07:41 07.07.2020
6041 Clear 21 1018 60 14484 1 140 07:21 07.07.2020
6042 Clear 22 1018 60 14484 1 140 06:49 07.07.2020
6043 Clear 22 1018 60 14484 1 140 06:28 07.07.2020
6044 Clear 23 1018 56 14484 2.1 140 05:51 07.07.2020
6045 Clear 23 1018 56 14484 2.1 140 05:20 07.07.2020
6046 Clear 24 1018 44 14484 1.5 170 04:38 07.07.2020
6047 Clear 25 1017 41 14484 2.6 190 03:35 07.07.2020
6048 Clear 28 1017 34 14484 2.6 130 02:21 07.07.2020
6049 Clouds 29 1017 30 14484 3.1 130 01:22 07.07.2020
6050 Clouds 30 1017 28 14484 3.6 110 00:42 07.07.2020
6051 Clouds 29 1017 28 14484 3.6 110 00:23 07.07.2020
6052 Clear 30 1017 28 14484 3.1 140 23:46 06.07.2020
6053 Clear 30 1017 28 14484 3.1 140 23:26 06.07.2020
6054 Clouds 29 1018 27 14484 1.5 0 22:59 06.07.2020
6055 Clouds 29 1018 27 14484 1.5 0 22:40 06.07.2020
6056 Clouds 29 1018 27 14484 1.5 0 22:19 06.07.2020
6057 Clear 30 1018 28 14484 1 0 21:57 06.07.2020
6058 Clear 30 1018 28 14484 1 0 21:38 06.07.2020
6059 Clear 30 1018 28 14484 1 0 21:19 06.07.2020
6060 Clear 29 1018 30 14484 1 0 20:57 06.07.2020
6061 Clear 29 1018 30 14484 1 0 20:37 06.07.2020
6062 Clouds 29 1019 36 14484 2.65 184 20:19 06.07.2020
6063 Clouds 29 1019 30 32767 3.1 190 19:56 06.07.2020
6064 Clouds 29 1019 30 32767 3.1 190 19:37 06.07.2020
6065 Clear 28 1019 44 14484 1.5 0 19:18 06.07.2020
6066 Clear 28 1019 44 14484 1.5 0 18:41 06.07.2020
6067 Clear 27 1019 47 14484 2.1 0 18:23 06.07.2020
6068 Clear 26 1019 47 14484 2.1 0 17:59 06.07.2020
6069 Clear 26 1019 47 14484 2.1 0 17:40 06.07.2020
6070 Clear 26 1019 47 14484 2.1 0 17:20 06.07.2020
6071 Clear 25 1019 53 14484 1 0 16:44 06.07.2020
6072 Clear 25 1019 53 14484 1 0 16:25 06.07.2020
6073 Clear 23 1019 64 14484 1.21 92 15:59 06.07.2020
6074 Clear 23 1019 64 14484 1.21 92 15:41 06.07.2020
6075 Clear 22 1019 64 14484 1.37 60 15:23 06.07.2020
6076 Clear 21 1018 72 14484 1 0 14:55 06.07.2020
6077 Clear 20 1018 72 14484 1 0 14:37 06.07.2020
6078 Clear 18 1018 88 14484 2.1 50 14:18 06.07.2020
6079 Clear 18 1018 88 14484 2.1 50 13:44 06.07.2020
6080 Clear 17 1018 88 14484 2.1 50 13:26 06.07.2020
6081 Clouds 17 1018 82 24140 2.1 10 12:56 06.07.2020
6082 Clear 16 1018 93 14484 1.5 10 12:38 06.07.2020
6083 Clear 16 1017 87 14484 1 290 12:18 06.07.2020
6084 Clear 15 1017 87 14484 1 290 11:57 06.07.2020
6085 Clear 16 1017 87 14484 1 290 11:37 06.07.2020
6086 Clear 16 1017 82 14484 2.1 50 11:18 06.07.2020
6087 Clear 16 1017 82 14484 2.1 50 10:42 06.07.2020
6088 Clear 16 1017 82 14484 2.1 50 10:42 06.07.2020
6089 Clear 16 1016 82 14484 1.38 22 10:21 06.07.2020
6090 Clear 16 1016 82 14484 1.38 22 09:56 06.07.2020
6091 Clear 16 1016 82 14484 1.38 22 09:38 06.07.2020
6092 Clear 16 1016 82 14484 1.41 25 09:20 06.07.2020
6093 Clear 17 1016 82 14484 1.3 24 08:42 06.07.2020
6094 Clear 17 1016 82 14484 1.56 37 08:24 06.07.2020
6095 Clear 17 1016 72 14484 1 0 07:58 06.07.2020
6096 Clear 17 1016 72 14484 1 0 07:40 06.07.2020
6097 Clear 17 1016 72 14484 1 0 07:21 06.07.2020
6098 Clear 18 1016 72 14484 1.91 33 06:39 06.07.2020
6099 Clear 19 1015 68 14484 2.08 21 06:20 06.07.2020
6100 Clear 19 1015 68 14484 2.39 15 05:33 06.07.2020
6101 Clear 20 1015 63 14484 1 50 04:52 06.07.2020
6102 Clear 22 1014 56 14484 2.6 360 03:26 06.07.2020
6103 Clouds 24 1014 50 14484 3.6 50 02:22 06.07.2020
6104 Clouds 25 1013 47 14484 5.7 20 01:26 06.07.2020
6105 Clouds 26 1013 44 14484 6.2 20 00:36 06.07.2020
6106 Clouds 27 1012 42 14484 5.7 20 00:18 06.07.2020
6107 Clouds 26 1012 42 14484 5.7 20 23:41 05.07.2020
6108 Clouds 27 1012 42 14484 5.7 20 23:23 05.07.2020
6109 Clouds 26 1013 44 14484 5.1 10 22:59 05.07.2020
6110 Clouds 26 1013 44 14484 5.1 10 22:40 05.07.2020
6111 Clouds 27 1013 44 14484 5.1 10 22:20 05.07.2020
6112 Clouds 27 1012 42 14484 2.6 0 21:57 05.07.2020
6113 Clouds 27 1012 42 14484 2.6 0 21:38 05.07.2020
6114 Clouds 27 1013 39 14484 3.6 60 21:18 05.07.2020
6115 Clouds 28 1013 39 14484 3.6 60 20:57 05.07.2020
6116 Clouds 28 1013 39 14484 3.6 60 20:38 05.07.2020
6117 Clouds 27 1013 39 14484 3.6 60 20:20 05.07.2020
6118 Clouds 27 1013 41 14484 3.1 350 19:43 05.07.2020
6119 Clouds 27 1013 41 14484 3.1 350 19:43 05.07.2020
6120 Clouds 27 1013 41 14484 4.1 360 19:21 05.07.2020
6121 Clouds 26 1013 41 14484 4.1 360 18:56 05.07.2020
6122 Clouds 26 1013 41 14484 4.1 360 18:37 05.07.2020
6123 Clouds 26 1013 41 14484 4.1 360 18:37 05.07.2020
6124 Clouds 26 1013 44 32767 2.1 260 18:19 05.07.2020
6125 Clouds 26 1013 44 32767 2.1 260 17:43 05.07.2020
6126 Clouds 25 1013 50 14484 1.5 0 17:20 05.07.2020
6127 Clouds 24 1013 53 32767 3.1 260 16:59 05.07.2020
6128 Clouds 24 1013 64 14484 3.6 230 16:41 05.07.2020
6129 Clouds 22 1013 64 14484 3.6 230 16:22 05.07.2020
6130 Clouds 20 1013 68 14484 4.6 230 15:41 05.07.2020
6131 Clouds 20 1013 68 14484 4.6 230 15:20 05.07.2020
6132 Clouds 20 1013 64 14484 2.1 210 14:59 05.07.2020
6133 Clouds 20 1013 64 14484 2.1 210 14:40 05.07.2020
6134 Clouds 20 1013 64 14484 2.1 210 14:20 05.07.2020
6135 Clear 20 1013 64 14484 3.1 250 13:41 05.07.2020
6136 Clear 20 1013 64 14484 3.1 250 13:23 05.07.2020
6137 Clear 20 1013 59 14484 2.1 260 12:46 05.07.2020
6138 Clear 19 1013 59 14484 2.1 260 12:26 05.07.2020
6139 Clear 18 1012 63 14484 2.6 270 11:58 05.07.2020
6140 Clear 18 1012 63 14484 2.6 270 11:39 05.07.2020
6141 Clear 19 1012 63 14484 2.6 270 11:21 05.07.2020
6142 Clear 19 1012 52 14484 2.6 290 10:58 05.07.2020
6143 Clear 19 1012 52 14484 2.6 290 10:39 05.07.2020
6144 Clear 20 1012 52 14484 1 270 10:19 05.07.2020
6145 Clear 20 1012 52 14484 1 270 09:55 05.07.2020
6146 Clear 20 1012 52 14484 1 270 09:37 05.07.2020
6147 Clouds 21 1012 46 14484 1.5 320 09:18 05.07.2020
6148 Clouds 21 1012 46 14484 1.5 320 08:43 05.07.2020
6149 Clouds 21 1012 46 14484 1.5 320 08:25 05.07.2020
6150 Clouds 22 1012 43 14484 2.1 320 07:47 05.07.2020
6151 Clouds 22 1012 43 14484 2.1 320 07:29 05.07.2020
6152 Clouds 23 1012 38 14484 4.6 320 06:50 05.07.2020
6153 Clouds 24 1012 41 14484 4.6 330 05:41 05.07.2020
6154 Clouds 25 1012 34 14484 5.7 310 03:31 05.07.2020
6155 Clouds 27 1012 28 14484 7.7 310 02:43 05.07.2020
6156 Clouds 27 1012 28 14484 7.7 310 02:25 05.07.2020
6157 Clear 28 1011 26 14484 3.6 240 01:33 05.07.2020
6158 Clear 30 1012 25 14484 5.1 280 00:59 05.07.2020
6159 Clouds 30 1011 28 14484 5.1 210 00:40 05.07.2020
6160 Clear 30 1012 25 14484 2.6 0 00:20 05.07.2020
6161 Clear 30 1012 25 14484 2.6 0 23:47 04.07.2020
6162 Clear 30 1012 25 14484 2.6 0 23:28 04.07.2020
6163 Clear 30 1012 27 14484 4.1 220 22:57 04.07.2020
6164 Clear 30 1012 27 14484 4.1 220 22:37 04.07.2020
6165 Clear 30 1012 27 14484 4.1 220 22:19 04.07.2020
6166 Clear 30 1012 25 14484 3.6 0 21:42 04.07.2020
6167 Clear 30 1012 25 14484 3.6 0 21:23 04.07.2020
6168 Clear 30 1012 20 14484 3.6 0 20:58 04.07.2020
6169 Clear 30 1012 20 14484 3.6 0 20:39 04.07.2020
6170 Clear 30 1013 25 14484 4.6 330 20:19 04.07.2020
6171 Clear 30 1013 25 14484 4.6 330 19:45 04.07.2020
6172 Clear 29 1013 25 14484 4.6 330 19:22 04.07.2020
6173 Clear 29 1013 30 14484 3.1 0 18:55 04.07.2020
6174 Clear 29 1013 30 14484 3.1 0 18:37 04.07.2020
6175 Clear 27 1014 36 14484 2.6 290 18:19 04.07.2020
6176 Clear 27 1014 36 14484 2.6 290 17:42 04.07.2020
6177 Clear 26 1014 36 14484 2.6 290 17:24 04.07.2020
6178 Clear 26 1014 41 14484 1.5 330 16:57 04.07.2020
6179 Clear 26 1014 41 14484 1.5 330 16:38 04.07.2020
6180 Clear 25 1014 41 14484 1.5 330 16:19 04.07.2020
6181 Clear 25 1014 44 14484 3.6 360 15:46 04.07.2020
6182 Clear 24 1014 44 14484 3.6 360 15:28 04.07.2020
6183 Clouds 23 1014 46 32767 3.1 0 14:59 04.07.2020
6184 Clear 23 1013 49 14484 3.1 10 14:38 04.07.2020
6185 Clear 22 1013 49 14484 3.1 10 14:19 04.07.2020
6186 Clear 21 1013 63 14484 2.26 18 13:58 04.07.2020
6187 Clear 20 1013 63 14484 2.26 18 13:40 04.07.2020
6188 Clouds 20 1013 67 32767 1.66 16 13:18 04.07.2020
6189 Clear 18 1013 77 14484 1.5 70 12:42 04.07.2020
6190 Clouds 18 1012 72 24140 1.5 330 12:21 04.07.2020
6191 Clear 17 1012 72 14484 1.5 10 11:56 04.07.2020
6192 Clear 17 1012 72 14484 1.5 10 11:37 04.07.2020
6193 Clouds 18 1012 63 24140 1.5 330 11:19 04.07.2020
6194 Clear 18 1012 67 14484 1.5 20 10:41 04.07.2020
6195 Clear 18 1012 67 14484 1.5 20 10:22 04.07.2020
6196 Clear 18 1012 72 14484 1.5 350 09:58 04.07.2020
6197 Clear 18 1012 72 14484 1.5 350 09:58 04.07.2020
6198 Clear 19 1012 72 14484 1.5 350 09:37 04.07.2020
6199 Clear 19 1012 72 14484 1.5 350 09:19 04.07.2020
6200 Clear 19 1012 77 14484 2.1 350 08:47 04.07.2020
6201 Clear 20 1012 77 14484 2.1 350 08:28 04.07.2020
6202 Clear 20 1011 77 14484 1.5 330 07:49 04.07.2020
6203 Clear 20 1011 77 14484 1.5 330 07:31 04.07.2020
6204 Clear 21 1011 68 14484 1 0 06:55 04.07.2020
6205 Clear 22 1011 68 14484 1 0 06:23 04.07.2020
6206 Clouds 24 1011 53 14484 1 210 05:36 04.07.2020
6207 Clouds 24 1011 53 14484 1.26 246 04:50 04.07.2020
6208 Clouds 27 1011 47 14484 1 0 03:18 04.07.2020
6209 Clouds 28 1011 47 14484 1 0 02:26 04.07.2020
6210 Clouds 28 1011 39 14484 2.1 50 01:35 04.07.2020
6211 Clouds 29 1010 37 14484 4.1 20 00:44 04.07.2020
6212 Clouds 30 1010 37 14484 4.1 20 00:25 04.07.2020
6213 Clouds 30 1011 37 14484 3.6 30 23:41 03.07.2020
6214 Clouds 30 1011 37 14484 3.6 30 23:19 03.07.2020
6215 Clear 30 1011 35 14484 4.1 350 22:59 03.07.2020
6216 Clear 30 1011 35 14484 4.1 350 22:39 03.07.2020
6217 Clear 30 1011 35 14484 4.1 350 22:21 03.07.2020
6218 Clouds 30 1011 37 14484 3.6 340 21:54 03.07.2020
6219 Clouds 30 1011 37 14484 3.6 340 21:36 03.07.2020
6220 Clear 30 1012 37 14484 4.6 0 21:18 03.07.2020
6221 Clear 30 1012 37 14484 4.6 0 20:42 03.07.2020
6222 Clear 29 1012 37 14484 4.6 0 20:23 03.07.2020
6223 Clear 28 1012 45 14484 4.6 20 19:42 03.07.2020
6224 Clouds 28 1012 61 14484 4.1 20 19:21 03.07.2020
6225 Clouds 28 1012 61 14484 4.1 20 19:21 03.07.2020
6226 Clouds 27 1012 61 14484 4.1 20 18:57 03.07.2020
6227 Clouds 26 1012 61 14484 4.1 20 18:39 03.07.2020
6228 Clouds 26 1012 69 14484 3.1 350 18:21 03.07.2020
6229 Clouds 25 1012 69 14484 3.1 350 17:44 03.07.2020
6230 Clouds 25 1012 69 14484 3.1 350 17:23 03.07.2020
6231 Clouds 24 1012 73 14484 3.1 20 16:58 03.07.2020
6232 Clouds 23 1012 73 14484 3.1 20 16:39 03.07.2020
6233 Clouds 23 1012 73 14484 3.1 20 16:19 03.07.2020
6234 Clear 21 1013 77 14484 3.6 10 15:39 03.07.2020
6235 Clear 21 1013 77 14484 3.6 10 15:20 03.07.2020
6236 Clouds 20 1012 82 14484 4.6 10 14:55 03.07.2020
6237 Clouds 20 1012 82 14484 4.6 10 14:36 03.07.2020
6238 Clouds 20 1012 82 14484 4.6 10 14:36 03.07.2020
6239 Clear 19 1012 82 14484 3.1 20 14:18 03.07.2020
6240 Clear 19 1012 82 14484 3.1 20 13:41 03.07.2020
6241 Clear 19 1012 82 14484 3.1 20 13:22 03.07.2020
6242 Clear 18 1011 88 14484 4.1 360 12:43 03.07.2020
6243 Clear 18 1011 88 14484 4.1 360 12:22 03.07.2020
6244 Clear 18 1011 93 14484 3.6 360 11:54 03.07.2020
6245 Clear 18 1011 93 14484 3.6 360 11:36 03.07.2020
6246 Clear 18 1011 88 14484 3.1 10 11:18 03.07.2020
6247 Clear 18 1011 88 14484 3.1 10 10:42 03.07.2020
6248 Clear 18 1011 88 14484 3.1 10 10:21 03.07.2020
6249 Clear 19 1010 88 14484 4.1 10 09:59 03.07.2020
6250 Clear 19 1010 88 14484 4.1 10 09:40 03.07.2020
6251 Clear 19 1010 88 14484 4.1 10 09:21 03.07.2020
6252 Clear 20 1010 93 14484 4.6 10 08:57 03.07.2020
6253 Clear 20 1010 93 14484 4.6 10 08:38 03.07.2020
6254 Clear 21 1010 94 14484 3.6 20 08:18 03.07.2020
6255 Clear 21 1010 94 14484 3.6 20 07:43 03.07.2020
6256 Clear 22 1010 94 14484 3.6 20 07:22 03.07.2020
6257 Clouds 22 1009 94 14484 2.1 20 06:38 03.07.2020
6258 Clouds 23 1009 94 14484 1.5 360 05:55 03.07.2020
6259 Clouds 23 1009 94 14484 1.5 360 05:55 03.07.2020
6260 Clouds 23 1009 94 14484 1.5 360 05:55 03.07.2020
6261 Clouds 24 1009 88 14484 1.5 10 04:26 03.07.2020
6262 Rain 24 1008 78 14484 1.78 223 02:57 03.07.2020
6263 Rain 25 1008 78 12874 2.14 317 02:32 03.07.2020
6264 Clouds 25 1008 69 14484 9.3 350 01:51 03.07.2020
6265 Clouds 26 1008 69 14484 9.3 350 01:22 03.07.2020
6266 Clouds 29 1007 40 14484 3.6 330 00:42 03.07.2020
6267 Rain 28 1007 48 14484 4.1 310 00:18 03.07.2020
6268 Rain 29 1008 54 24140 4.1 320 23:43 02.07.2020
6269 Clouds 30 1007 45 14484 3.1 340 23:20 02.07.2020
6270 Clouds 31 1007 45 14484 4.1 310 22:57 02.07.2020
6271 Clouds 30 1007 45 14484 4.1 310 22:38 02.07.2020
6272 Clouds 29 1007 45 14484 4.1 310 22:20 02.07.2020
6273 Clouds 28 1007 54 14484 4.6 290 21:54 02.07.2020
6274 Clouds 28 1007 54 14484 4.6 290 21:36 02.07.2020
6275 Rain 28 1007 61 24140 4.6 280 21:18 02.07.2020
6276 Clouds 28 1008 61 24140 5.7 290 20:42 02.07.2020
6277 Clouds 28 1007 51 14484 4.6 300 20:20 02.07.2020
6278 Rain 28 1007 58 24140 5.1 280 19:56 02.07.2020
6279 Clouds 28 1007 58 14484 4.1 240 19:38 02.07.2020
6280 Clouds 29 1007 51 14484 5.7 220 19:20 02.07.2020
6281 Clouds 29 1007 51 14484 5.7 220 18:57 02.07.2020
6282 Clouds 29 1007 51 14484 5.7 220 18:38 02.07.2020
6283 Clouds 29 1007 51 14484 5.1 230 18:20 02.07.2020
6284 Clouds 29 1007 51 14484 5.1 230 17:39 02.07.2020
6285 Clouds 29 1007 51 14484 5.1 230 17:20 02.07.2020
6286 Clear 29 1007 58 14484 4.6 200 16:56 02.07.2020
6287 Clear 29 1007 58 14484 4.6 200 16:38 02.07.2020
6288 Clear 28 1007 58 14484 4.6 200 16:19 02.07.2020
6289 Clear 27 1007 65 14484 4.1 220 15:55 02.07.2020
6290 Clear 27 1007 65 14484 4.1 220 15:36 02.07.2020
6291 Clouds 23 1008 78 14484 4.6 210 15:18 02.07.2020
6292 Clouds 23 1008 78 14484 4.6 210 14:42 02.07.2020
6293 Clouds 23 1008 83 14484 3.1 210 14:19 02.07.2020
6294 Clouds 22 1008 83 14484 3.1 210 13:55 02.07.2020
6295 Clouds 22 1008 83 14484 3.1 210 13:36 02.07.2020
6296 Clear 22 1008 83 14484 3.1 210 13:18 02.07.2020
6297 Clear 21 1008 83 14484 3.1 210 12:40 02.07.2020
6298 Clear 21 1008 83 14484 3.1 210 12:21 02.07.2020
6299 Clear 21 1008 88 14484 2.6 210 11:44 02.07.2020
6300 Clear 21 1008 88 14484 2.6 210 11:26 02.07.2020
6301 Clear 21 1007 83 14484 3.1 230 10:57 02.07.2020
6302 Clear 21 1007 83 14484 3.1 230 10:39 02.07.2020
6303 Clear 21 1007 83 14484 3.1 230 10:21 02.07.2020
6304 Clear 22 1008 83 14484 2.6 210 09:42 02.07.2020
6305 Clear 22 1008 83 14484 2.6 210 09:21 02.07.2020
6306 Clear 22 1008 78 14484 3.6 200 08:57 02.07.2020
6307 Clear 22 1008 78 14484 3.6 200 08:38 02.07.2020
6308 Clouds 23 1008 73 14484 2.1 210 08:19 02.07.2020
6309 Clouds 23 1008 73 14484 2.1 210 07:41 02.07.2020
6310 Clouds 23 1008 73 14484 2.1 210 07:20 02.07.2020
6311 Clouds 23 1009 64 14484 1.5 200 06:41 02.07.2020
6312 Clouds 24 1009 64 14484 1.5 200 06:20 02.07.2020
6313 Rain 25 1009 57 14484 2.6 200 05:47 02.07.2020
6314 Clouds 26 1009 47 14484 2.1 200 04:50 02.07.2020
6315 Clouds 27 1009 44 14484 1 60 03:33 02.07.2020
6316 Clouds 29 1009 39 14484 3.1 80 01:49 02.07.2020
6317 Clouds 30 1009 37 14484 3.6 40 00:28 02.07.2020
6318 Clouds 30 1009 40 14484 3.6 360 23:57 01.07.2020
6319 Clouds 31 1009 40 14484 3.6 360 23:38 01.07.2020
6320 Clouds 31 1009 40 14484 3.6 360 23:20 01.07.2020
6321 Clear 30 1010 42 14484 5.1 20 22:54 01.07.2020
6322 Clear 30 1010 42 14484 5.1 20 22:36 01.07.2020
6323 Clear 30 1011 45 14484 2.6 330 22:18 01.07.2020
6324 Clear 30 1011 45 14484 2.6 330 21:55 01.07.2020
6325 Clear 30 1011 45 14484 2.6 330 21:37 01.07.2020
6326 Clouds 29 1011 48 14484 3.6 360 21:19 01.07.2020
6327 Clouds 29 1011 48 14484 3.6 360 20:44 01.07.2020
6328 Clouds 29 1011 48 14484 3.6 360 20:25 01.07.2020
6329 Clouds 28 1012 54 14484 3.1 30 19:56 01.07.2020
6330 Clouds 28 1012 54 14484 3.1 30 19:38 01.07.2020
6331 Clouds 28 1012 54 14484 3.1 30 19:20 01.07.2020
6332 Clouds 27 1013 54 14484 5.7 340 18:54 01.07.2020
6333 Clouds 27 1013 54 14484 5.7 340 18:36 01.07.2020
6334 Clouds 26 1013 61 14484 3.6 20 18:18 01.07.2020
6335 Clouds 26 1013 61 14484 3.6 20 17:41 01.07.2020
6336 Clouds 26 1013 61 14484 3.6 20 17:41 01.07.2020
6337 Clouds 26 1013 61 14484 3.6 20 17:19 01.07.2020
6338 Clouds 25 1013 69 14484 4.1 30 16:48 01.07.2020
6339 Clouds 25 1013 69 14484 4.1 30 16:29 01.07.2020
6340 Clear 24 1014 73 14484 2.6 20 15:58 01.07.2020
6341 Clear 23 1014 73 14484 2.6 20 15:40 01.07.2020
6342 Clear 22 1014 73 14484 2.6 20 15:21 01.07.2020
6343 Clear 21 1014 77 14484 3.6 10 14:47 01.07.2020
6344 Clear 21 1014 77 14484 3.6 10 14:22 01.07.2020
6345 Clouds 20 1013 82 14484 3.1 30 13:59 01.07.2020
6346 Clouds 20 1013 82 14484 3.1 30 13:40 01.07.2020
6347 Clouds 20 1013 82 14484 3.1 30 13:21 01.07.2020
6348 Clouds 20 1013 82 14484 3.1 30 13:21 01.07.2020
6349 Clouds 19 1013 93 14484 2.6 30 12:58 01.07.2020
6350 Clouds 18 1013 93 14484 2.6 30 12:39 01.07.2020
6351 Clouds 18 1013 88 24140 3.1 30 12:21 01.07.2020
6352 Clouds 18 1013 88 24140 3.1 30 11:55 01.07.2020
6353 Clouds 18 1013 88 24140 3.1 30 11:37 01.07.2020
6354 Clouds 18 1014 82 24140 4.1 10 11:18 01.07.2020
6355 Clear 18 1013 100 14484 2.6 10 10:42 01.07.2020
6356 Clear 18 1013 100 14484 2.6 10 10:23 01.07.2020
6357 Clear 18 1013 93 14484 4.1 360 09:59 01.07.2020
6358 Clear 18 1013 93 14484 4.1 360 09:37 01.07.2020
6359 Clear 18 1013 93 14484 4.1 360 09:19 01.07.2020
6360 Clouds 19 1014 88 14484 2.6 20 08:55 01.07.2020
6361 Clouds 19 1014 88 14484 2.6 20 08:37 01.07.2020
6362 Clear 19 1014 88 14484 2.6 30 08:18 01.07.2020
6363 Clear 19 1014 88 14484 2.6 30 07:39 01.07.2020
6364 Clear 19 1014 88 14484 2.6 30 07:20 01.07.2020
6365 Clear 20 1014 88 14484 4.6 10 06:50 01.07.2020
6366 Clear 20 1014 88 14484 4.6 10 06:28 01.07.2020
6367 Clouds 20 1015 82 14484 4.1 20 05:23 01.07.2020
6368 Clouds 21 1015 77 14484 2.6 40 03:48 01.07.2020
6369 Clouds 22 1015 77 14484 2.6 40 03:27 01.07.2020
6370 Clouds 22 1015 73 14484 5.1 40 02:41 01.07.2020
6371 Clouds 23 1015 73 14484 6.2 40 01:49 01.07.2020
6372 Clouds 24 1014 64 24140 7.2 20 00:45 01.07.2020
6373 Clouds 24 1014 65 14484 7.2 60 00:25 01.07.2020
6374 Clouds 24 1014 61 14484 7.2 40 23:42 30.06.2020
6375 Clouds 24 1014 61 14484 7.2 40 23:23 30.06.2020
6376 Clouds 24 1015 64 14484 6.7 50 22:59 30.06.2020
6377 Clouds 23 1015 64 14484 6.7 50 22:41 30.06.2020
6378 Clouds 23 1015 69 14484 6.7 50 22:18 30.06.2020
6379 Clouds 23 1015 69 14484 6.7 50 21:41 30.06.2020
6380 Clouds 23 1015 69 14484 6.7 50 21:19 30.06.2020
6381 Clouds 23 1015 69 14484 7.2 60 20:57 30.06.2020
6382 Clouds 23 1016 69 24140 7.7 40 20:39 30.06.2020
6383 Clouds 23 1016 73 14484 6.2 50 20:20 30.06.2020
6384 Clouds 23 1016 73 14484 6.7 30 19:43 30.06.2020
6385 Clouds 22 1016 73 14484 7.2 20 19:20 30.06.2020
6386 Clouds 21 1016 73 14484 7.2 20 18:54 30.06.2020
6387 Clouds 21 1016 73 14484 7.2 20 18:36 30.06.2020
6388 Clouds 20 1016 88 14484 5.1 20 18:18 30.06.2020
6389 Rain 19 1016 88 14484 4.1 30 17:38 30.06.2020
6390 Rain 19 1016 88 14484 4.1 30 17:20 30.06.2020
6391 Rain 20 1016 88 14484 5.7 40 16:55 30.06.2020
6392 Clouds 20 1016 82 14484 4.6 40 16:36 30.06.2020
6393 Clouds 20 1016 82 14484 5.1 50 16:18 30.06.2020
6394 Clouds 20 1016 82 14484 5.1 50 15:42 30.06.2020
6395 Clouds 19 1016 82 14484 5.1 50 15:22 30.06.2020
6396 Clouds 20 1016 82 14484 5.1 30 14:58 30.06.2020
6397 Clouds 20 1016 82 14484 5.1 30 14:40 30.06.2020
6398 Clouds 19 1016 82 14484 5.1 30 14:21 30.06.2020
6399 Clouds 19 1016 77 14484 6.2 40 13:42 30.06.2020
6400 Clouds 19 1016 77 14484 6.2 40 13:21 30.06.2020
6401 Clouds 19 1015 77 14484 5.1 30 12:59 30.06.2020
6402 Clouds 19 1015 77 14484 5.1 30 12:41 30.06.2020
6403 Clouds 19 1015 77 14484 5.1 30 12:23 30.06.2020
6404 Clouds 19 1015 77 14484 4.6 30 11:59 30.06.2020
6405 Clouds 19 1015 77 14484 4.6 30 11:39 30.06.2020
6406 Clouds 19 1015 77 14484 4.6 30 11:20 30.06.2020
6407 Clouds 19 1015 77 14484 4.6 30 11:20 30.06.2020
6408 Clouds 19 1015 82 14484 2.6 30 10:59 30.06.2020
6409 Clouds 22 1006 83 14484 2.1 230 16:44 28.06.2020
6410 Clouds 22 1006 83 14484 2.1 230 16:26 28.06.2020
6411 Clouds 22 1006 83 14484 2.1 230 16:26 28.06.2020
6412 Clouds 22 1006 83 14484 2.1 250 15:58 28.06.2020
6413 Clouds 21 1006 88 14484 2.6 250 15:39 28.06.2020
6414 Clouds 21 1006 88 14484 2.6 250 15:20 28.06.2020
6415 Clouds 20 1006 88 14484 2.6 220 14:55 28.06.2020
6416 Clouds 20 1006 88 14484 2.6 220 14:37 28.06.2020
6417 Clouds 20 1006 88 14484 2.6 220 14:19 28.06.2020
6418 Clouds 20 1005 88 14484 3.1 220 13:38 28.06.2020
6419 Clouds 20 1005 88 14484 3.1 220 13:20 28.06.2020
6420 Clouds 19 1005 93 14484 2.1 190 12:57 28.06.2020
6421 Clouds 19 1005 93 14484 2.1 190 12:38 28.06.2020
6422 Clouds 19 1004 93 14484 2.1 180 12:19 28.06.2020
6423 Clouds 19 1004 93 14484 2.1 180 11:58 28.06.2020
6424 Clouds 19 1004 93 14484 2.1 180 11:39 28.06.2020
6425 Clouds 18 1004 93 14484 2.1 180 11:20 28.06.2020
6426 Clouds 18 1004 93 14484 2.1 180 11:20 28.06.2020
6427 Clouds 19 1004 93 14484 1.5 170 10:57 28.06.2020
6428 Clouds 19 1004 93 14484 1.5 170 10:38 28.06.2020
6429 Clouds 19 1004 93 14484 1.5 170 10:19 28.06.2020
6430 Clouds 19 1004 88 14484 3.1 190 09:40 28.06.2020
6431 Clouds 19 1004 88 14484 3.1 190 09:21 28.06.2020
6432 Clouds 19 1004 93 14484 2.1 160 08:51 28.06.2020
6433 Clouds 19 1004 93 14484 2.1 160 08:33 28.06.2020
6434 Mist 20 1004 100 9656 2.1 150 07:53 28.06.2020
6435 Mist 20 1004 100 9656 2.1 150 07:31 28.06.2020
6436 Clouds 19 1004 100 12874 1.5 80 06:53 28.06.2020
6437 Rain 20 1004 88 12874 2.6 340 06:31 28.06.2020
6438 Rain 21 1003 68 14484 2.6 180 05:27 28.06.2020
6439 Clouds 23 1004 53 14484 3.1 170 03:45 28.06.2020
6440 Clouds 24 1004 50 14484 4.1 180 02:51 28.06.2020
6441 Clouds 25 1004 50 14484 4.1 180 02:19 28.06.2020
6442 Clouds 26 1004 54 14484 3.1 180 01:27 28.06.2020
6443 Clouds 26 1003 54 14484 4.1 150 00:51 28.06.2020
6444 Clouds 26 1003 54 14484 4.1 150 00:29 28.06.2020
6445 Clouds 26 1004 47 14484 1.5 270 23:45 27.06.2020
6446 Clouds 26 1004 47 14484 1.5 270 23:24 27.06.2020
6447 Clouds 26 1004 50 14484 2.6 160 22:59 27.06.2020
6448 Clouds 26 1004 50 14484 2.6 160 22:41 27.06.2020
6449 Clouds 26 1004 50 14484 2.6 160 22:23 27.06.2020
6450 Clouds 26 1004 50 14484 3.1 180 21:57 27.06.2020
6451 Clouds 26 1004 50 14484 3.1 180 21:39 27.06.2020
6452 Clouds 26 1004 50 14484 3.1 180 21:20 27.06.2020
6453 Clouds 25 1005 57 14484 3.6 160 20:45 27.06.2020
6454 Clouds 25 1005 57 14484 3.6 160 20:19 27.06.2020
6455 Clouds 24 1006 64 14484 3.1 140 19:57 27.06.2020
6456 Clouds 23 1006 64 14484 3.1 140 19:37 27.06.2020
6457 Clouds 23 1006 60 14484 1 0 19:19 27.06.2020
6458 Clouds 22 1006 60 14484 1 0 18:47 27.06.2020
6459 Clouds 22 1006 60 14484 1 0 18:28 27.06.2020
6460 Clouds 21 1006 56 14484 2.1 190 17:59 27.06.2020
6461 Clouds 21 1006 56 14484 2.1 190 17:59 27.06.2020
6462 Clouds 21 1006 56 14484 2.1 190 17:40 27.06.2020
6463 Clouds 21 1006 56 14484 2.1 190 17:20 27.06.2020
6464 Clouds 21 1006 56 14484 1.5 220 16:56 27.06.2020
6465 Rain 21 1006 64 14484 2.6 190 16:38 27.06.2020
6466 Rain 21 1006 64 14484 2.6 190 16:18 27.06.2020
6467 Clouds 20 1007 64 14484 3.1 210 15:42 27.06.2020
6468 Clouds 20 1007 64 14484 3.1 210 15:23 27.06.2020
6469 Clouds 20 1007 68 14484 3.6 180 14:56 27.06.2020
6470 Clouds 20 1007 68 14484 3.6 180 14:37 27.06.2020
6471 Clouds 20 1007 68 14484 3.6 180 14:19 27.06.2020
6472 Clouds 19 1007 68 14484 2.1 190 13:41 27.06.2020
6473 Clouds 19 1007 77 14484 3.1 200 13:20 27.06.2020
6474 Clouds 19 1007 77 14484 3.1 200 12:58 27.06.2020
6475 Clouds 19 1007 77 14484 3.1 200 12:40 27.06.2020
6476 Clouds 19 1007 72 14484 3.1 200 12:21 27.06.2020
6477 Clouds 19 1007 72 14484 3.1 200 12:21 27.06.2020
6478 Clouds 19 1007 72 14484 3.1 200 11:57 27.06.2020
6479 Clouds 19 1007 72 14484 3.1 200 11:37 27.06.2020
6480 Clouds 19 1007 72 14484 3.1 200 11:19 27.06.2020
6481 Clouds 19 1007 77 14484 3.6 180 10:40 27.06.2020
6482 Clouds 19 1007 77 14484 3.6 180 10:19 27.06.2020
6483 Rain 19 1007 77 14484 4.1 180 09:57 27.06.2020
6484 Clouds 20 1007 77 14484 3.6 190 09:38 27.06.2020
6485 Clouds 20 1007 77 14484 3.6 190 09:20 27.06.2020
6486 Clouds 19 1008 77 14484 2.6 110 08:42 27.06.2020
6487 Clouds 19 1008 77 14484 2.6 110 08:22 27.06.2020
6488 Clouds 19 1007 72 14484 1.5 230 07:47 27.06.2020
6489 Clouds 20 1007 72 14484 1.5 230 07:25 27.06.2020
6490 Rain 20 1007 68 14484 3.1 210 06:51 27.06.2020
6491 Clouds 21 1008 72 14484 3.6 200 06:33 27.06.2020
6492 Clouds 21 1008 64 14484 2.1 190 04:44 27.06.2020
6493 Clouds 21 1009 56 14484 3.6 220 04:18 27.06.2020
6494 Clouds 22 1009 56 14484 3.6 220 03:43 27.06.2020
6495 Clouds 23 1008 50 14484 5.7 210 02:42 27.06.2020
6496 Clouds 23 1008 50 14484 5.7 210 02:22 27.06.2020
6497 Clouds 24 1009 47 14484 4.6 220 01:24 27.06.2020
6498 Clouds 24 1009 41 14484 5.1 250 00:42 27.06.2020
6499 Clouds 24 1009 44 14484 4.1 250 23:47 26.06.2020
6500 Clouds 24 1009 44 14484 4.1 250 23:27 26.06.2020
6501 Clouds 24 1009 38 14484 7.2 270 22:58 26.06.2020
6502 Clouds 24 1009 38 14484 7.2 270 22:39 26.06.2020
6503 Clouds 24 1009 38 14484 7.2 270 22:21 26.06.2020
6504 Clouds 25 1009 44 14484 7.2 230 21:58 26.06.2020
6505 Clouds 25 1009 44 14484 7.2 230 21:39 26.06.2020
6506 Clouds 25 1009 44 14484 7.2 230 21:20 26.06.2020
6507 Clouds 26 1009 42 14484 8.7 220 20:47 26.06.2020
6508 Clouds 27 1009 42 14484 8.7 220 20:27 26.06.2020
6509 Clouds 25 1010 44 14484 8.2 240 19:55 26.06.2020
6510 Clouds 25 1010 44 14484 8.2 240 19:37 26.06.2020
6511 Clouds 25 1011 47 14484 6.2 230 19:18 26.06.2020
6512 Clouds 24 1011 47 14484 6.2 230 18:41 26.06.2020
6513 Clouds 24 1011 47 14484 6.2 230 18:23 26.06.2020
6514 Clouds 24 1011 47 14484 6.7 230 17:45 26.06.2020
6515 Clouds 24 1011 47 14484 6.7 230 17:45 26.06.2020
6516 Clouds 24 1011 47 14484 6.7 230 17:27 26.06.2020
6517 Clouds 24 1011 49 14484 6.2 230 16:59 26.06.2020
6518 Clouds 23 1011 49 14484 6.2 230 16:41 26.06.2020
6519 Clouds 23 1011 49 14484 6.2 230 16:21 26.06.2020
6520 Clear 23 1011 56 14484 5.7 230 15:41 26.06.2020
6521 Clear 21 1011 56 14484 5.7 230 15:21 26.06.2020
6522 Clear 20 1012 68 14484 5.7 240 14:58 26.06.2020
6523 Clear 21 1012 68 14484 5.7 240 14:39 26.06.2020
6524 Clear 20 1012 68 14484 5.7 240 14:21 26.06.2020
6525 Clear 19 1011 72 14484 6.7 230 13:45 26.06.2020
6526 Clear 19 1011 72 14484 6.7 230 13:23 26.06.2020
6527 Clouds 18 1012 72 14484 4.1 220 12:56 26.06.2020
6528 Clouds 18 1012 72 14484 4.1 220 12:38 26.06.2020
6529 Clear 17 1012 72 14484 4.6 220 12:19 26.06.2020
6530 Clear 17 1012 72 14484 4.6 220 11:56 26.06.2020
6531 Clear 17 1012 72 14484 4.6 220 11:38 26.06.2020
6532 Clear 17 1012 72 14484 4.6 220 11:19 26.06.2020
6533 Clear 18 1012 63 14484 3.6 220 10:56 26.06.2020
6534 Clear 18 1012 63 14484 3.6 220 10:37 26.06.2020
6535 Clear 18 1011 63 14484 4.1 230 10:18 26.06.2020
6536 Clear 18 1011 63 14484 4.1 230 09:42 26.06.2020
6537 Clear 18 1011 63 14484 4.1 230 09:22 26.06.2020
6538 Clouds 19 1011 55 14484 5.1 210 08:51 26.06.2020
6539 Clouds 19 1011 55 14484 5.1 210 08:28 26.06.2020
6540 Clouds 19 1011 59 14484 4.1 220 07:52 26.06.2020
6541 Clouds 19 1011 59 14484 4.1 220 07:24 26.06.2020
6542 Clear 19 1011 67 14484 2.6 200 06:57 26.06.2020
6543 Clear 19 1011 67 14484 2.6 200 06:35 26.06.2020
6544 Clear 19 1011 68 14484 2.6 180 05:58 26.06.2020
6545 Clear 19 1011 68 14484 2.6 180 05:33 26.06.2020
6546 Clouds 22 1011 46 14484 3.6 250 02:42 26.06.2020
6547 Clouds 23 1011 46 14484 3.6 250 02:22 26.06.2020
6548 Clouds 23 1011 46 32767 6.7 260 01:19 26.06.2020
6549 Clouds 24 1010 44 32767 6.7 230 00:39 26.06.2020
6550 Clouds 24 1010 44 14484 7.7 240 00:18 26.06.2020
6551 Clouds 24 1010 44 14484 7.7 240 23:39 25.06.2020
6552 Clouds 24 1010 41 14484 10.3 240 23:18 25.06.2020
6553 Clouds 24 1010 41 14484 10.3 240 22:54 25.06.2020
6554 Clouds 25 1010 41 14484 10.3 240 22:36 25.06.2020
6555 Clouds 24 1011 47 32767 8.7 220 22:18 25.06.2020
6556 Rain 24 1011 53 14484 6.7 260 21:54 25.06.2020
6557 Clouds 23 1011 49 14484 6.2 250 21:36 25.06.2020
6558 Clouds 23 1011 49 14484 9.3 260 21:18 25.06.2020
6559 Clouds 23 1011 49 14484 9.3 260 20:43 25.06.2020
6560 Clouds 23 1011 49 14484 9.3 260 20:23 25.06.2020
6561 Clouds 23 1010 47 14484 8.7 250 19:57 25.06.2020
6562 Clouds 23 1010 47 14484 8.7 250 19:38 25.06.2020
6563 Clouds 23 1010 53 14484 9.3 250 19:18 25.06.2020
6564 Clouds 23 1010 53 14484 9.3 250 18:55 25.06.2020
6565 Clouds 23 1010 53 14484 9.3 250 18:36 25.06.2020
6566 Clouds 23 1010 53 14484 9.3 250 18:36 25.06.2020
6567 Clouds 22 1010 53 14484 8.7 250 18:18 25.06.2020
6568 Clouds 22 1010 53 14484 8.7 250 17:39 25.06.2020
6569 Clouds 21 1010 53 14484 8.7 250 17:19 25.06.2020
6570 Clouds 20 1009 60 14484 10.3 240 16:41 25.06.2020
6571 Clouds 20 1009 60 14484 10.3 240 16:21 25.06.2020
6572 Clouds 20 1009 56 14484 11.3 230 15:45 25.06.2020
6573 Clouds 20 1009 56 14484 11.3 230 15:27 25.06.2020
6574 Clouds 19 1009 63 14484 8.7 230 14:58 25.06.2020
6575 Clouds 19 1009 63 14484 8.7 230 14:40 25.06.2020
6576 Clouds 19 1009 63 14484 8.7 230 14:22 25.06.2020
6577 Clouds 19 1008 63 14484 6.7 210 13:56 25.06.2020
6578 Clouds 19 1008 63 14484 6.7 210 13:37 25.06.2020
6579 Clouds 18 1008 68 32767 7.7 210 13:19 25.06.2020
6580 Clear 17 1008 72 14484 5.7 190 12:44 25.06.2020
6581 Clear 17 1007 67 14484 5.1 200 12:20 25.06.2020
6582 Clear 17 1007 67 14484 5.1 200 11:58 25.06.2020
6583 Clear 17 1007 67 14484 5.1 200 11:38 25.06.2020
6584 Clear 16 1007 67 14484 5.1 200 11:20 25.06.2020
6585 Clear 16 1007 67 14484 5.1 200 11:20 25.06.2020
6586 Clouds 16 1007 72 24140 7.2 220 10:42 25.06.2020
6587 Clouds 16 1007 72 24140 7.2 220 10:23 25.06.2020
6588 Clouds 16 1007 72 24140 7.2 220 10:23 25.06.2020
6589 Clear 16 1007 76 14484 3.6 160 09:41 25.06.2020
6590 Clear 16 1007 76 14484 3.6 160 09:23 25.06.2020
6591 Clear 17 1007 63 14484 4.6 210 08:49 25.06.2020
6592 Clear 17 1007 63 14484 4.6 210 08:21 25.06.2020
6593 Clear 17 1007 63 14484 5.1 220 07:57 25.06.2020
6594 Clear 17 1007 63 14484 5.1 220 07:38 25.06.2020
6595 Clear 18 1007 55 14484 7.2 220 07:20 25.06.2020
6596 Clear 18 1007 55 14484 7.2 220 06:30 25.06.2020
6597 Clouds 19 1007 59 14484 5.1 190 05:55 25.06.2020
6598 Clouds 19 1007 59 14484 5.1 190 05:29 25.06.2020
6599 Clear 20 1006 56 14484 6.7 240 03:36 25.06.2020
6600 Clear 21 1005 52 14484 7.7 250 02:45 25.06.2020
6601 Clouds 21 1005 52 32767 9.3 240 02:19 25.06.2020
6602 Clouds 21 1005 49 14484 9.3 240 01:41 25.06.2020
6603 Clouds 22 1004 53 14484 9.8 240 00:50 25.06.2020
6604 Clouds 22 1004 53 14484 9.8 240 00:22 25.06.2020
6605 Clouds 22 1004 46 14484 10.8 240 23:58 24.06.2020
6606 Clouds 22 1004 46 14484 10.8 240 23:38 24.06.2020
6607 Clouds 23 1004 46 14484 10.8 240 23:19 24.06.2020
6608 Clouds 23 1003 41 14484 12.9 240 22:42 24.06.2020
6609 Clouds 23 1003 41 14484 12.9 240 22:42 24.06.2020
6610 Clouds 23 1003 41 14484 12.9 240 22:21 24.06.2020
6611 Clear 24 1003 44 14484 12.3 250 21:57 24.06.2020
6612 Clear 24 1003 44 14484 12.3 250 21:37 24.06.2020
6613 Clear 24 1003 44 14484 12.3 250 21:19 24.06.2020
6614 Clear 24 1003 47 14484 13.4 250 20:59 24.06.2020
6615 Clouds 24 1003 50 14484 8.2 250 20:40 24.06.2020
6616 Clouds 24 1003 50 14484 8.2 250 20:40 24.06.2020
6617 Clouds 24 1003 50 14484 8.2 250 20:21 24.06.2020
6618 Clouds 24 1002 53 14484 9.8 250 19:59 24.06.2020
6619 Clouds 24 1002 53 14484 9.8 250 19:39 24.06.2020
6620 Clouds 24 1002 53 14484 9.8 250 19:20 24.06.2020
6621 Clouds 23 1002 57 14484 10.3 230 18:58 24.06.2020
6622 Clouds 23 1002 57 14484 10.3 230 18:39 24.06.2020
6623 Clouds 23 1002 57 14484 10.3 230 18:39 24.06.2020
6624 Clouds 23 1002 57 14484 10.3 230 18:20 24.06.2020
6625 Clouds 23 1002 56 14484 7.7 250 17:56 24.06.2020
6626 Clouds 23 1002 56 14484 7.7 250 17:37 24.06.2020
6627 Clouds 22 1002 56 14484 7.7 250 17:18 24.06.2020
6628 Clouds 22 1002 56 14484 7.7 250 17:18 24.06.2020
6629 Clouds 22 1002 56 14484 7.7 250 17:18 24.06.2020
6630 Clouds 22 1002 68 14484 7.7 230 16:56 24.06.2020
6631 Clouds 22 1002 68 14484 7.7 230 16:56 24.06.2020
6632 Clouds 22 1002 68 14484 7.7 230 16:37 24.06.2020
6633 Clouds 21 1002 68 14484 7.7 230 16:19 24.06.2020
6634 Clouds 21 1002 77 14484 9.3 230 15:55 24.06.2020
6635 Clouds 20 1002 77 14484 9.3 230 15:37 24.06.2020
6636 Clouds 20 1002 77 14484 7.7 240 15:18 24.06.2020
6637 Clouds 20 1002 77 14484 10.3 250 14:42 24.06.2020
6638 Clouds 20 1002 77 14484 10.3 250 14:22 24.06.2020
6639 Clouds 20 1001 88 14484 8.2 230 13:43 24.06.2020
6640 Clouds 20 1001 88 14484 8.2 230 13:22 24.06.2020
6641 Rain 21 1000 94 14484 4.1 230 12:55 24.06.2020
6642 Rain 21 1000 94 14484 2.6 200 12:36 24.06.2020
6643 Clouds 21 1000 94 14484 5.1 240 12:18 24.06.2020
6644 Rain 21 1000 94 8047 6.7 230 11:42 24.06.2020
6645 Rain 21 1000 94 9656 3.1 220 11:24 24.06.2020
6646 Rain 22 1000 94 14484 3.1 220 10:59 24.06.2020
6647 Mist 22 1000 94 9656 2.6 200 10:40 24.06.2020
6648 Rain 22 1000 94 12874 4.1 220 10:18 24.06.2020
6649 Rain 22 1000 94 12874 4.1 220 09:42 24.06.2020
6650 Rain 22 1000 94 12874 4.1 220 09:21 24.06.2020
6651 Clouds 23 999 78 14484 7.2 180 08:42 24.06.2020
6652 Clouds 24 999 78 14484 7.2 180 08:20 24.06.2020
6653 Clouds 24 999 83 14484 6.2 160 07:50 24.06.2020
6654 Clouds 24 999 83 14484 6.2 160 07:31 24.06.2020
6655 Clouds 23 1000 94 14484 2.6 120 06:50 24.06.2020
6656 Clouds 23 1000 94 14484 2.6 120 06:25 24.06.2020
6657 Clouds 23 1001 94 14484 2.1 130 05:56 24.06.2020
6658 Clouds 23 1001 94 14484 4.1 140 04:46 24.06.2020
6659 Clouds 23 1001 94 14484 4.1 140 04:27 24.06.2020
6660 Clouds 23 1001 94 14484 2.6 130 03:34 24.06.2020
6661 Clouds 23 1001 94 14484 2.1 320 02:50 24.06.2020
6662 Thunderstorm 23 1001 88 8047 7.7 240 01:41 24.06.2020
6663 Thunderstorm 28 1000 43 14484 6.2 180 00:47 24.06.2020
6664 Thunderstorm 31 1000 43 14484 6.2 180 00:27 24.06.2020
6665 Clear 32 1001 41 14484 6.2 160 23:46 23.06.2020
6666 Clear 32 1001 41 14484 6.2 160 23:20 23.06.2020
6667 Clouds 32 1001 44 14484 7.2 220 22:54 23.06.2020
6668 Clouds 33 1001 44 14484 7.2 220 22:36 23.06.2020
6669 Clouds 32 1002 58 14484 3.1 230 22:18 23.06.2020
6670 Clouds 32 1002 58 14484 3.1 230 22:18 23.06.2020
6671 Clouds 32 1002 58 14484 3.1 230 21:40 23.06.2020
6672 Clouds 31 1003 49 14484 6.7 180 21:19 23.06.2020
6673 Clouds 31 1003 49 14484 6.7 180 20:56 23.06.2020
6674 Clouds 31 1003 49 14484 6.7 180 20:37 23.06.2020
6675 Clear 32 1004 43 14484 8.2 160 20:18 23.06.2020
6676 Clear 32 1004 43 14484 8.2 160 19:45 23.06.2020
6677 Clear 33 1004 43 14484 8.2 160 19:27 23.06.2020
6678 Clear 33 1005 46 14484 5.1 170 18:42 23.06.2020
6679 Clear 31 1005 52 14484 4.6 170 18:19 23.06.2020
6680 Clear 31 1005 52 14484 4.6 170 17:58 23.06.2020
6681 Clear 31 1005 52 14484 4.6 170 17:39 23.06.2020
6682 Clear 30 1005 52 14484 4.6 170 17:20 23.06.2020
6683 Clear 30 1005 55 14484 4.1 170 16:55 23.06.2020
6684 Clear 30 1005 55 14484 4.1 170 16:37 23.06.2020
6685 Clear 29 1006 61 14484 4.1 180